<?xml version="1.0" encoding="utf-8"?>
<gpx xmlns:xsi="http://www.w3.org/2001/XMLSchema-instance" xmlns:xsd="http://www.w3.org/2001/XMLSchema" version="1.1" creator="Shapelink.com" xmlns="http://www.topografix.com/GPX/1/1" xmlns:gpxtpx="http://www.garmin.com/xmlschemas/TrackPointExtension/v1">
  <metadata>
    <name>Alpine skiing 50.00 km, 2014-01-30</name>
    <desc></desc>
    <author><name>Stefan Östlund</name></author> 
    <time>2014-01-30T09:07:14Z</time>
  </metadata>
  <trk>
    <name>Alpine skiing 50.00 km, 2014-01-30</name>
    <trkseg>
      <trkpt lat="45.9361151" lon="7.6394769">
        <ele>2086.2</ele>
        <time>2014-01-30T09:07:14Z</time>
      </trkpt>
      <trkpt lat="45.9361751" lon="7.6395949">
        <ele>2087.4</ele>
        <time>2014-01-30T09:07:15Z</time>
      </trkpt>
      <trkpt lat="45.9362096" lon="7.6397274">
        <ele>2090.8</ele>
        <time>2014-01-30T09:07:16Z</time>
      </trkpt>
      <trkpt lat="45.9362313" lon="7.6398238">
        <ele>2092.4</ele>
        <time>2014-01-30T09:07:17Z</time>
      </trkpt>
      <trkpt lat="45.9362701" lon="7.639964">
        <ele>2095.4</ele>
        <time>2014-01-30T09:07:18Z</time>
      </trkpt>
      <trkpt lat="45.9363026" lon="7.6400576">
        <ele>2097.2</ele>
        <time>2014-01-30T09:07:19Z</time>
      </trkpt>
      <trkpt lat="45.9363417" lon="7.6401781">
        <ele>2100.4</ele>
        <time>2014-01-30T09:07:20Z</time>
      </trkpt>
      <trkpt lat="45.9363677" lon="7.6402582">
        <ele>2102</ele>
        <time>2014-01-30T09:07:21Z</time>
      </trkpt>
      <trkpt lat="45.936405" lon="7.6403614">
        <ele>2105</ele>
        <time>2014-01-30T09:07:22Z</time>
      </trkpt>
      <trkpt lat="45.9364348" lon="7.6404417">
        <ele>2106.6</ele>
        <time>2014-01-30T09:07:23Z</time>
      </trkpt>
      <trkpt lat="45.9364712" lon="7.6405398">
        <ele>2109.8</ele>
        <time>2014-01-30T09:07:24Z</time>
      </trkpt>
      <trkpt lat="45.9365304" lon="7.6406941">
        <ele>2111.6</ele>
        <time>2014-01-30T09:07:25Z</time>
      </trkpt>
      <trkpt lat="45.9365685" lon="7.6407997">
        <ele>2114.8</ele>
        <time>2014-01-30T09:07:26Z</time>
      </trkpt>
      <trkpt lat="45.9366022" lon="7.6408836">
        <ele>2116.6</ele>
        <time>2014-01-30T09:07:27Z</time>
      </trkpt>
      <trkpt lat="45.9366435" lon="7.640996">
        <ele>2120</ele>
        <time>2014-01-30T09:07:28Z</time>
      </trkpt>
      <trkpt lat="45.9366878" lon="7.6410985">
        <ele>2121.8</ele>
        <time>2014-01-30T09:07:29Z</time>
      </trkpt>
      <trkpt lat="45.9367374" lon="7.6412127">
        <ele>2125.2</ele>
        <time>2014-01-30T09:07:30Z</time>
      </trkpt>
      <trkpt lat="45.9367695" lon="7.6412982">
        <ele>2127</ele>
        <time>2014-01-30T09:07:31Z</time>
      </trkpt>
      <trkpt lat="45.9368228" lon="7.641408">
        <ele>2130.8</ele>
        <time>2014-01-30T09:07:32Z</time>
      </trkpt>
      <trkpt lat="45.9368788" lon="7.6415138">
        <ele>2132.6</ele>
        <time>2014-01-30T09:07:33Z</time>
      </trkpt>
      <trkpt lat="45.9369379" lon="7.6416352">
        <ele>2135.8</ele>
        <time>2014-01-30T09:07:34Z</time>
      </trkpt>
      <trkpt lat="45.9369842" lon="7.6417406">
        <ele>2137.6</ele>
        <time>2014-01-30T09:07:35Z</time>
      </trkpt>
      <trkpt lat="45.9370242" lon="7.6418471">
        <ele>2142.2</ele>
        <time>2014-01-30T09:07:36Z</time>
      </trkpt>
      <trkpt lat="45.9370555" lon="7.6419255">
        <ele>2143.8</ele>
        <time>2014-01-30T09:07:37Z</time>
      </trkpt>
      <trkpt lat="45.9371086" lon="7.6420526">
        <ele>2147.4</ele>
        <time>2014-01-30T09:07:38Z</time>
      </trkpt>
      <trkpt lat="45.9371445" lon="7.6421515">
        <ele>2149.4</ele>
        <time>2014-01-30T09:07:39Z</time>
      </trkpt>
      <trkpt lat="45.9371772" lon="7.6422765">
        <ele>2152.4</ele>
        <time>2014-01-30T09:07:40Z</time>
      </trkpt>
      <trkpt lat="45.937203" lon="7.6423748">
        <ele>2156</ele>
        <time>2014-01-30T09:07:41Z</time>
      </trkpt>
      <trkpt lat="45.937238" lon="7.6425181">
        <ele>2157.8</ele>
        <time>2014-01-30T09:07:42Z</time>
      </trkpt>
      <trkpt lat="45.9372735" lon="7.6426088">
        <ele>2161.8</ele>
        <time>2014-01-30T09:07:43Z</time>
      </trkpt>
      <trkpt lat="45.937311" lon="7.6427425">
        <ele>2163.6</ele>
        <time>2014-01-30T09:07:44Z</time>
      </trkpt>
      <trkpt lat="45.9373321" lon="7.6428256">
        <ele>2167.4</ele>
        <time>2014-01-30T09:07:45Z</time>
      </trkpt>
      <trkpt lat="45.9373669" lon="7.6429418">
        <ele>2170.4</ele>
        <time>2014-01-30T09:07:46Z</time>
      </trkpt>
      <trkpt lat="45.9373872" lon="7.6430185">
        <ele>2173</ele>
        <time>2014-01-30T09:07:47Z</time>
      </trkpt>
      <trkpt lat="45.9374288" lon="7.6431511">
        <ele>2177.4</ele>
        <time>2014-01-30T09:07:48Z</time>
      </trkpt>
      <trkpt lat="45.937461" lon="7.643244">
        <ele>2180.6</ele>
        <time>2014-01-30T09:07:49Z</time>
      </trkpt>
      <trkpt lat="45.9375007" lon="7.6433668">
        <ele>2183.6</ele>
        <time>2014-01-30T09:07:50Z</time>
      </trkpt>
      <trkpt lat="45.9375218" lon="7.6434496">
        <ele>2186</ele>
        <time>2014-01-30T09:07:51Z</time>
      </trkpt>
      <trkpt lat="45.9375672" lon="7.6435696">
        <ele>2189.6</ele>
        <time>2014-01-30T09:07:52Z</time>
      </trkpt>
      <trkpt lat="45.9376182" lon="7.6436823">
        <ele>2192.2</ele>
        <time>2014-01-30T09:07:53Z</time>
      </trkpt>
      <trkpt lat="45.9376714" lon="7.643818">
        <ele>2196.2</ele>
        <time>2014-01-30T09:07:54Z</time>
      </trkpt>
      <trkpt lat="45.9377036" lon="7.6439139">
        <ele>2198.4</ele>
        <time>2014-01-30T09:07:55Z</time>
      </trkpt>
      <trkpt lat="45.9377449" lon="7.6440301">
        <ele>2202.2</ele>
        <time>2014-01-30T09:07:56Z</time>
      </trkpt>
      <trkpt lat="45.9377692" lon="7.6441141">
        <ele>2206</ele>
        <time>2014-01-30T09:07:57Z</time>
      </trkpt>
      <trkpt lat="45.9378128" lon="7.6442345">
        <ele>2208.6</ele>
        <time>2014-01-30T09:07:58Z</time>
      </trkpt>
      <trkpt lat="45.9378537" lon="7.6443135">
        <ele>2212.8</ele>
        <time>2014-01-30T09:07:59Z</time>
      </trkpt>
      <trkpt lat="45.937904" lon="7.6444047">
        <ele>2216.8</ele>
        <time>2014-01-30T09:08:00Z</time>
      </trkpt>
      <trkpt lat="45.9379367" lon="7.6444766">
        <ele>2220.2</ele>
        <time>2014-01-30T09:08:01Z</time>
      </trkpt>
      <trkpt lat="45.9379795" lon="7.6445982">
        <ele>2223.6</ele>
        <time>2014-01-30T09:08:02Z</time>
      </trkpt>
      <trkpt lat="45.9380184" lon="7.6447082">
        <ele>2227</ele>
        <time>2014-01-30T09:08:03Z</time>
      </trkpt>
      <trkpt lat="45.9380265" lon="7.6447425">
        <ele>2228.4</ele>
        <time>2014-01-30T09:08:04Z</time>
      </trkpt>
      <trkpt lat="45.9380922" lon="7.6449221">
        <ele>2232</ele>
        <time>2014-01-30T09:08:05Z</time>
      </trkpt>
      <trkpt lat="45.9381454" lon="7.6450652">
        <ele>2237.4</ele>
        <time>2014-01-30T09:08:06Z</time>
      </trkpt>
      <trkpt lat="45.9381772" lon="7.6451389">
        <ele>2238.6</ele>
        <time>2014-01-30T09:08:07Z</time>
      </trkpt>
      <trkpt lat="45.9382561" lon="7.6453569">
        <ele>2241.4</ele>
        <time>2014-01-30T09:08:09Z</time>
      </trkpt>
      <trkpt lat="45.9382957" lon="7.6454806">
        <ele>2242.8</ele>
        <time>2014-01-30T09:08:10Z</time>
      </trkpt>
      <trkpt lat="45.9383264" lon="7.6455646">
        <ele>2244.6</ele>
        <time>2014-01-30T09:08:11Z</time>
      </trkpt>
      <trkpt lat="45.9383713" lon="7.6456739">
        <ele>2246.6</ele>
        <time>2014-01-30T09:08:12Z</time>
      </trkpt>
      <trkpt lat="45.9384039" lon="7.6457729">
        <ele>2248.4</ele>
        <time>2014-01-30T09:08:13Z</time>
      </trkpt>
      <trkpt lat="45.9384506" lon="7.6458785">
        <ele>2250.6</ele>
        <time>2014-01-30T09:08:14Z</time>
      </trkpt>
      <trkpt lat="45.9384717" lon="7.6459341">
        <ele>2253.2</ele>
        <time>2014-01-30T09:08:15Z</time>
      </trkpt>
      <trkpt lat="45.9385121" lon="7.6460406">
        <ele>2256.4</ele>
        <time>2014-01-30T09:08:16Z</time>
      </trkpt>
      <trkpt lat="45.938531" lon="7.6461148">
        <ele>2257.8</ele>
        <time>2014-01-30T09:08:17Z</time>
      </trkpt>
      <trkpt lat="45.9385697" lon="7.6462648">
        <ele>2259.8</ele>
        <time>2014-01-30T09:08:18Z</time>
      </trkpt>
      <trkpt lat="45.9385972" lon="7.6463768">
        <ele>2262.2</ele>
        <time>2014-01-30T09:08:19Z</time>
      </trkpt>
      <trkpt lat="45.9386332" lon="7.6465254">
        <ele>2265</ele>
        <time>2014-01-30T09:08:20Z</time>
      </trkpt>
      <trkpt lat="45.9386632" lon="7.6466239">
        <ele>2267.2</ele>
        <time>2014-01-30T09:08:21Z</time>
      </trkpt>
      <trkpt lat="45.9387041" lon="7.6467357">
        <ele>2268.8</ele>
        <time>2014-01-30T09:08:22Z</time>
      </trkpt>
      <trkpt lat="45.9387369" lon="7.6468085">
        <ele>2271</ele>
        <time>2014-01-30T09:08:23Z</time>
      </trkpt>
      <trkpt lat="45.9387725" lon="7.646895">
        <ele>2273.6</ele>
        <time>2014-01-30T09:08:24Z</time>
      </trkpt>
      <trkpt lat="45.9387913" lon="7.6469644">
        <ele>2276.8</ele>
        <time>2014-01-30T09:08:25Z</time>
      </trkpt>
      <trkpt lat="45.9388349" lon="7.6470781">
        <ele>2279</ele>
        <time>2014-01-30T09:08:26Z</time>
      </trkpt>
      <trkpt lat="45.9388533" lon="7.6471577">
        <ele>2281.4</ele>
        <time>2014-01-30T09:08:27Z</time>
      </trkpt>
      <trkpt lat="45.9388938" lon="7.6472649">
        <ele>2283</ele>
        <time>2014-01-30T09:08:28Z</time>
      </trkpt>
      <trkpt lat="45.9389213" lon="7.6473546">
        <ele>2284.4</ele>
        <time>2014-01-30T09:08:29Z</time>
      </trkpt>
      <trkpt lat="45.9389693" lon="7.6474649">
        <ele>2286.8</ele>
        <time>2014-01-30T09:08:30Z</time>
      </trkpt>
      <trkpt lat="45.938995" lon="7.647544">
        <ele>2289.8</ele>
        <time>2014-01-30T09:08:31Z</time>
      </trkpt>
      <trkpt lat="45.9390283" lon="7.6476564">
        <ele>2291.8</ele>
        <time>2014-01-30T09:08:32Z</time>
      </trkpt>
      <trkpt lat="45.9390665" lon="7.6477488">
        <ele>2293.6</ele>
        <time>2014-01-30T09:08:33Z</time>
      </trkpt>
      <trkpt lat="45.939111" lon="7.6478433">
        <ele>2296.2</ele>
        <time>2014-01-30T09:08:34Z</time>
      </trkpt>
      <trkpt lat="45.939145" lon="7.6479158">
        <ele>2298.4</ele>
        <time>2014-01-30T09:08:35Z</time>
      </trkpt>
      <trkpt lat="45.9391871" lon="7.6480011">
        <ele>2300.4</ele>
        <time>2014-01-30T09:08:36Z</time>
      </trkpt>
      <trkpt lat="45.9392397" lon="7.6481266">
        <ele>2302.4</ele>
        <time>2014-01-30T09:08:37Z</time>
      </trkpt>
      <trkpt lat="45.9392751" lon="7.6482119">
        <ele>2304</ele>
        <time>2014-01-30T09:08:38Z</time>
      </trkpt>
      <trkpt lat="45.9393273" lon="7.6483176">
        <ele>2306</ele>
        <time>2014-01-30T09:08:39Z</time>
      </trkpt>
      <trkpt lat="45.9393733" lon="7.6484113">
        <ele>2307</ele>
        <time>2014-01-30T09:08:40Z</time>
      </trkpt>
      <trkpt lat="45.9394182" lon="7.648528">
        <ele>2308.2</ele>
        <time>2014-01-30T09:08:41Z</time>
      </trkpt>
      <trkpt lat="45.9394617" lon="7.6486228">
        <ele>2309.4</ele>
        <time>2014-01-30T09:08:42Z</time>
      </trkpt>
      <trkpt lat="45.9394982" lon="7.6487031">
        <ele>2310.6</ele>
        <time>2014-01-30T09:08:43Z</time>
      </trkpt>
      <trkpt lat="45.9395588" lon="7.6488181">
        <ele>2312</ele>
        <time>2014-01-30T09:08:44Z</time>
      </trkpt>
      <trkpt lat="45.9395971" lon="7.6489005">
        <ele>2313.6</ele>
        <time>2014-01-30T09:08:45Z</time>
      </trkpt>
      <trkpt lat="45.9396369" lon="7.6489896">
        <ele>2314.8</ele>
        <time>2014-01-30T09:08:46Z</time>
      </trkpt>
      <trkpt lat="45.9396784" lon="7.649072">
        <ele>2316.2</ele>
        <time>2014-01-30T09:08:47Z</time>
      </trkpt>
      <trkpt lat="45.9397139" lon="7.6491476">
        <ele>2318</ele>
        <time>2014-01-30T09:08:48Z</time>
      </trkpt>
      <trkpt lat="45.9397701" lon="7.6492767">
        <ele>2320</ele>
        <time>2014-01-30T09:08:49Z</time>
      </trkpt>
      <trkpt lat="45.9397953" lon="7.6493598">
        <ele>2322.2</ele>
        <time>2014-01-30T09:08:50Z</time>
      </trkpt>
      <trkpt lat="45.9398292" lon="7.6494501">
        <ele>2323.8</ele>
        <time>2014-01-30T09:08:51Z</time>
      </trkpt>
      <trkpt lat="45.9398657" lon="7.6495442">
        <ele>2324.8</ele>
        <time>2014-01-30T09:08:52Z</time>
      </trkpt>
      <trkpt lat="45.9399063" lon="7.6496681">
        <ele>2326</ele>
        <time>2014-01-30T09:08:53Z</time>
      </trkpt>
      <trkpt lat="45.9399454" lon="7.649791">
        <ele>2327.8</ele>
        <time>2014-01-30T09:08:54Z</time>
      </trkpt>
      <trkpt lat="45.9399833" lon="7.6498976">
        <ele>2329.4</ele>
        <time>2014-01-30T09:08:55Z</time>
      </trkpt>
      <trkpt lat="45.9400209" lon="7.6499888">
        <ele>2330.8</ele>
        <time>2014-01-30T09:08:56Z</time>
      </trkpt>
      <trkpt lat="45.9400491" lon="7.6500733">
        <ele>2332</ele>
        <time>2014-01-30T09:08:57Z</time>
      </trkpt>
      <trkpt lat="45.9400992" lon="7.6501962">
        <ele>2333.2</ele>
        <time>2014-01-30T09:08:58Z</time>
      </trkpt>
      <trkpt lat="45.9401441" lon="7.6503058">
        <ele>2334.2</ele>
        <time>2014-01-30T09:08:59Z</time>
      </trkpt>
      <trkpt lat="45.9401799" lon="7.6504103">
        <ele>2335.6</ele>
        <time>2014-01-30T09:09:00Z</time>
      </trkpt>
      <trkpt lat="45.9401953" lon="7.6504664">
        <ele>2337.2</ele>
        <time>2014-01-30T09:09:01Z</time>
      </trkpt>
      <trkpt lat="45.9402439" lon="7.6505856">
        <ele>2338.6</ele>
        <time>2014-01-30T09:09:02Z</time>
      </trkpt>
      <trkpt lat="45.9402826" lon="7.6506915">
        <ele>2340.2</ele>
        <time>2014-01-30T09:09:03Z</time>
      </trkpt>
      <trkpt lat="45.9403143" lon="7.6507802">
        <ele>2341.2</ele>
        <time>2014-01-30T09:09:04Z</time>
      </trkpt>
      <trkpt lat="45.9403389" lon="7.6508751">
        <ele>2342.6</ele>
        <time>2014-01-30T09:09:05Z</time>
      </trkpt>
      <trkpt lat="45.9403703" lon="7.6509648">
        <ele>2344.2</ele>
        <time>2014-01-30T09:09:06Z</time>
      </trkpt>
      <trkpt lat="45.940392" lon="7.6510568">
        <ele>2346</ele>
        <time>2014-01-30T09:09:07Z</time>
      </trkpt>
      <trkpt lat="45.9404382" lon="7.6511849">
        <ele>2347.4</ele>
        <time>2014-01-30T09:09:08Z</time>
      </trkpt>
      <trkpt lat="45.940476" lon="7.6512984">
        <ele>2348.8</ele>
        <time>2014-01-30T09:09:09Z</time>
      </trkpt>
      <trkpt lat="45.9405099" lon="7.6514049">
        <ele>2350.8</ele>
        <time>2014-01-30T09:09:10Z</time>
      </trkpt>
      <trkpt lat="45.9405401" lon="7.6515275">
        <ele>2352.8</ele>
        <time>2014-01-30T09:09:11Z</time>
      </trkpt>
      <trkpt lat="45.9405712" lon="7.6516328">
        <ele>2354.6</ele>
        <time>2014-01-30T09:09:12Z</time>
      </trkpt>
      <trkpt lat="45.9406064" lon="7.6517343">
        <ele>2356.4</ele>
        <time>2014-01-30T09:09:13Z</time>
      </trkpt>
      <trkpt lat="45.9406413" lon="7.6518599">
        <ele>2358.2</ele>
        <time>2014-01-30T09:09:14Z</time>
      </trkpt>
      <trkpt lat="45.9406553" lon="7.6519596">
        <ele>2360.6</ele>
        <time>2014-01-30T09:09:15Z</time>
      </trkpt>
      <trkpt lat="45.9406674" lon="7.6520529">
        <ele>2362.6</ele>
        <time>2014-01-30T09:09:16Z</time>
      </trkpt>
      <trkpt lat="45.9406861" lon="7.6521647">
        <ele>2364.8</ele>
        <time>2014-01-30T09:09:17Z</time>
      </trkpt>
      <trkpt lat="45.9407199" lon="7.6522926">
        <ele>2366.8</ele>
        <time>2014-01-30T09:09:18Z</time>
      </trkpt>
      <trkpt lat="45.9407536" lon="7.652392">
        <ele>2369.4</ele>
        <time>2014-01-30T09:09:19Z</time>
      </trkpt>
      <trkpt lat="45.9407932" lon="7.6524867">
        <ele>2371.4</ele>
        <time>2014-01-30T09:09:20Z</time>
      </trkpt>
      <trkpt lat="45.9408304" lon="7.652583">
        <ele>2373.4</ele>
        <time>2014-01-30T09:09:21Z</time>
      </trkpt>
      <trkpt lat="45.9408766" lon="7.6526874">
        <ele>2375.4</ele>
        <time>2014-01-30T09:09:22Z</time>
      </trkpt>
      <trkpt lat="45.9409401" lon="7.6528191">
        <ele>2377.2</ele>
        <time>2014-01-30T09:09:23Z</time>
      </trkpt>
      <trkpt lat="45.9409911" lon="7.6529312">
        <ele>2379.6</ele>
        <time>2014-01-30T09:09:24Z</time>
      </trkpt>
      <trkpt lat="45.9410371" lon="7.6530495">
        <ele>2381.6</ele>
        <time>2014-01-30T09:09:25Z</time>
      </trkpt>
      <trkpt lat="45.9410614" lon="7.653121">
        <ele>2383.4</ele>
        <time>2014-01-30T09:09:26Z</time>
      </trkpt>
      <trkpt lat="45.9411199" lon="7.6532281">
        <ele>2385.8</ele>
        <time>2014-01-30T09:09:27Z</time>
      </trkpt>
      <trkpt lat="45.9411392" lon="7.6532696">
        <ele>2389</ele>
        <time>2014-01-30T09:09:28Z</time>
      </trkpt>
      <trkpt lat="45.9412016" lon="7.6533725">
        <ele>2391</ele>
        <time>2014-01-30T09:09:29Z</time>
      </trkpt>
      <trkpt lat="45.9412441" lon="7.6534467">
        <ele>2394.2</ele>
        <time>2014-01-30T09:09:30Z</time>
      </trkpt>
      <trkpt lat="45.9412706" lon="7.6535096">
        <ele>2395.6</ele>
        <time>2014-01-30T09:09:31Z</time>
      </trkpt>
      <trkpt lat="45.9412886" lon="7.6535442">
        <ele>2398.4</ele>
        <time>2014-01-30T09:09:32Z</time>
      </trkpt>
      <trkpt lat="45.9413064" lon="7.6536043">
        <ele>2399.8</ele>
        <time>2014-01-30T09:09:33Z</time>
      </trkpt>
      <trkpt lat="45.941319" lon="7.6536662">
        <ele>2402.2</ele>
        <time>2014-01-30T09:09:34Z</time>
      </trkpt>
      <trkpt lat="45.9413394" lon="7.6537052">
        <ele>2403.2</ele>
        <time>2014-01-30T09:09:35Z</time>
      </trkpt>
      <trkpt lat="45.9413588" lon="7.6537356">
        <ele>2405.6</ele>
        <time>2014-01-30T09:09:36Z</time>
      </trkpt>
      <trkpt lat="45.9413795" lon="7.6537834">
        <ele>2406.8</ele>
        <time>2014-01-30T09:09:37Z</time>
      </trkpt>
      <trkpt lat="45.9413945" lon="7.6538343">
        <ele>2408</ele>
        <time>2014-01-30T09:09:38Z</time>
      </trkpt>
      <trkpt lat="45.9414005" lon="7.6538772">
        <ele>2409.4</ele>
        <time>2014-01-30T09:09:39Z</time>
      </trkpt>
      <trkpt lat="45.9414042" lon="7.6539014">
        <ele>2410.6</ele>
        <time>2014-01-30T09:09:40Z</time>
      </trkpt>
      <trkpt lat="45.9414149" lon="7.6539428">
        <ele>2412</ele>
        <time>2014-01-30T09:09:41Z</time>
      </trkpt>
      <trkpt lat="45.9414329" lon="7.6539855">
        <ele>2413.2</ele>
        <time>2014-01-30T09:09:42Z</time>
      </trkpt>
      <trkpt lat="45.9414519" lon="7.6540241">
        <ele>2414.2</ele>
        <time>2014-01-30T09:09:43Z</time>
      </trkpt>
      <trkpt lat="45.941456" lon="7.6540477">
        <ele>2415.2</ele>
        <time>2014-01-30T09:09:44Z</time>
      </trkpt>
      <trkpt lat="45.9414534" lon="7.6540588">
        <ele>2416.2</ele>
        <time>2014-01-30T09:09:45Z</time>
      </trkpt>
      <trkpt lat="45.9414486" lon="7.6540757">
        <ele>2417.4</ele>
        <time>2014-01-30T09:09:47Z</time>
      </trkpt>
      <trkpt lat="45.9414316" lon="7.654061">
        <ele>2418.4</ele>
        <time>2014-01-30T09:09:50Z</time>
      </trkpt>
      <trkpt lat="45.9414466" lon="7.6540734">
        <ele>2418.4</ele>
        <time>2014-01-30T09:09:51Z</time>
      </trkpt>
      <trkpt lat="45.9414567" lon="7.6540815">
        <ele>2418.4</ele>
        <time>2014-01-30T09:09:52Z</time>
      </trkpt>
      <trkpt lat="45.9414506" lon="7.6540868">
        <ele>2418.4</ele>
        <time>2014-01-30T09:09:53Z</time>
      </trkpt>
      <trkpt lat="45.9414602" lon="7.6540742">
        <ele>2419.6</ele>
        <time>2014-01-30T09:09:57Z</time>
      </trkpt>
      <trkpt lat="45.9414697" lon="7.654095">
        <ele>2419.6</ele>
        <time>2014-01-30T09:10:02Z</time>
      </trkpt>
      <trkpt lat="45.941418" lon="7.6541061">
        <ele>2419.6</ele>
        <time>2014-01-30T09:10:07Z</time>
      </trkpt>
      <trkpt lat="45.9413637" lon="7.6540537">
        <ele>2420.6</ele>
        <time>2014-01-30T09:10:12Z</time>
      </trkpt>
      <trkpt lat="45.9413627" lon="7.6540767">
        <ele>2420.6</ele>
        <time>2014-01-30T09:10:14Z</time>
      </trkpt>
      <trkpt lat="45.9413509" lon="7.6540635">
        <ele>2420.6</ele>
        <time>2014-01-30T09:10:16Z</time>
      </trkpt>
      <trkpt lat="45.9412456" lon="7.6540232">
        <ele>2420.6</ele>
        <time>2014-01-30T09:10:22Z</time>
      </trkpt>
      <trkpt lat="45.9412176" lon="7.6539822">
        <ele>2420.6</ele>
        <time>2014-01-30T09:10:27Z</time>
      </trkpt>
      <trkpt lat="45.9411871" lon="7.6539844">
        <ele>2421.6</ele>
        <time>2014-01-30T09:10:31Z</time>
      </trkpt>
      <trkpt lat="45.9411898" lon="7.6539763">
        <ele>2421.6</ele>
        <time>2014-01-30T09:10:32Z</time>
      </trkpt>
      <trkpt lat="45.9411939" lon="7.6539913">
        <ele>2421.6</ele>
        <time>2014-01-30T09:10:36Z</time>
      </trkpt>
      <trkpt lat="45.9411907" lon="7.6539799">
        <ele>2421.6</ele>
        <time>2014-01-30T09:10:37Z</time>
      </trkpt>
      <trkpt lat="45.9411815" lon="7.6539784">
        <ele>2421.6</ele>
        <time>2014-01-30T09:10:43Z</time>
      </trkpt>
      <trkpt lat="45.9411691" lon="7.6539739">
        <ele>2422.6</ele>
        <time>2014-01-30T09:10:44Z</time>
      </trkpt>
      <trkpt lat="45.9411399" lon="7.6539765">
        <ele>2422.6</ele>
        <time>2014-01-30T09:10:48Z</time>
      </trkpt>
      <trkpt lat="45.9410715" lon="7.6540043">
        <ele>2422.6</ele>
        <time>2014-01-30T09:10:56Z</time>
      </trkpt>
      <trkpt lat="45.9410402" lon="7.6539941">
        <ele>2423.6</ele>
        <time>2014-01-30T09:10:58Z</time>
      </trkpt>
      <trkpt lat="45.9410165" lon="7.6539868">
        <ele>2423.6</ele>
        <time>2014-01-30T09:11:01Z</time>
      </trkpt>
      <trkpt lat="45.9409663" lon="7.6539899">
        <ele>2423.6</ele>
        <time>2014-01-30T09:11:08Z</time>
      </trkpt>
      <trkpt lat="45.940945" lon="7.6540013">
        <ele>2423.6</ele>
        <time>2014-01-30T09:11:10Z</time>
      </trkpt>
      <trkpt lat="45.9409036" lon="7.6539924">
        <ele>2423.6</ele>
        <time>2014-01-30T09:11:14Z</time>
      </trkpt>
      <trkpt lat="45.9409057" lon="7.6540079">
        <ele>2423.6</ele>
        <time>2014-01-30T09:11:19Z</time>
      </trkpt>
      <trkpt lat="45.940886" lon="7.6540015">
        <ele>2423.6</ele>
        <time>2014-01-30T09:11:24Z</time>
      </trkpt>
      <trkpt lat="45.9408735" lon="7.6540153">
        <ele>2423.6</ele>
        <time>2014-01-30T09:11:30Z</time>
      </trkpt>
      <trkpt lat="45.9407655" lon="7.6540012">
        <ele>2423.6</ele>
        <time>2014-01-30T09:11:36Z</time>
      </trkpt>
      <trkpt lat="45.9406915" lon="7.6539981">
        <ele>2423.6</ele>
        <time>2014-01-30T09:11:44Z</time>
      </trkpt>
      <trkpt lat="45.940649" lon="7.6539804">
        <ele>2423.6</ele>
        <time>2014-01-30T09:11:54Z</time>
      </trkpt>
      <trkpt lat="45.9406275" lon="7.6539747">
        <ele>2423.6</ele>
        <time>2014-01-30T09:12:05Z</time>
      </trkpt>
      <trkpt lat="45.9406187" lon="7.6539681">
        <ele>2423.6</ele>
        <time>2014-01-30T09:12:11Z</time>
      </trkpt>
      <trkpt lat="45.9406079" lon="7.6539598">
        <ele>2423.6</ele>
        <time>2014-01-30T09:12:20Z</time>
      </trkpt>
      <trkpt lat="45.9406062" lon="7.6539785">
        <ele>2423.6</ele>
        <time>2014-01-30T09:12:30Z</time>
      </trkpt>
      <trkpt lat="45.9405711" lon="7.6540107">
        <ele>2423.6</ele>
        <time>2014-01-30T09:12:39Z</time>
      </trkpt>
      <trkpt lat="45.9405638" lon="7.6540271">
        <ele>2423.6</ele>
        <time>2014-01-30T09:12:41Z</time>
      </trkpt>
      <trkpt lat="45.9405792" lon="7.6540711">
        <ele>2423.6</ele>
        <time>2014-01-30T09:12:44Z</time>
      </trkpt>
      <trkpt lat="45.9405979" lon="7.6541189">
        <ele>2423.6</ele>
        <time>2014-01-30T09:12:48Z</time>
      </trkpt>
      <trkpt lat="45.9406117" lon="7.6541223">
        <ele>2423.6</ele>
        <time>2014-01-30T09:12:50Z</time>
      </trkpt>
      <trkpt lat="45.9406318" lon="7.6541703">
        <ele>2423.6</ele>
        <time>2014-01-30T09:12:56Z</time>
      </trkpt>
      <trkpt lat="45.9406452" lon="7.654177">
        <ele>2423.6</ele>
        <time>2014-01-30T09:13:02Z</time>
      </trkpt>
      <trkpt lat="45.9406601" lon="7.6541894">
        <ele>2423.6</ele>
        <time>2014-01-30T09:13:04Z</time>
      </trkpt>
      <trkpt lat="45.9406637" lon="7.6542303">
        <ele>2424.8</ele>
        <time>2014-01-30T09:13:06Z</time>
      </trkpt>
      <trkpt lat="45.9406699" lon="7.6542448">
        <ele>2424.8</ele>
        <time>2014-01-30T09:13:07Z</time>
      </trkpt>
      <trkpt lat="45.9406585" lon="7.6541967">
        <ele>2424.8</ele>
        <time>2014-01-30T09:13:09Z</time>
      </trkpt>
      <trkpt lat="45.9406447" lon="7.6541404">
        <ele>2424.8</ele>
        <time>2014-01-30T09:13:10Z</time>
      </trkpt>
      <trkpt lat="45.9406405" lon="7.654139">
        <ele>2424.8</ele>
        <time>2014-01-30T09:13:12Z</time>
      </trkpt>
      <trkpt lat="45.9406268" lon="7.6540924">
        <ele>2424.8</ele>
        <time>2014-01-30T09:13:14Z</time>
      </trkpt>
      <trkpt lat="45.9406183" lon="7.6541538">
        <ele>2424.8</ele>
        <time>2014-01-30T09:13:18Z</time>
      </trkpt>
      <trkpt lat="45.9405315" lon="7.6542117">
        <ele>2424.8</ele>
        <time>2014-01-30T09:13:23Z</time>
      </trkpt>
      <trkpt lat="45.9404837" lon="7.6542359">
        <ele>2425.8</ele>
        <time>2014-01-30T09:13:25Z</time>
      </trkpt>
      <trkpt lat="45.9417662" lon="7.6547039">
        <ele>2425.8</ele>
        <time>2014-01-30T09:15:46Z</time>
      </trkpt>
      <trkpt lat="45.9418708" lon="7.6545706">
        <ele>2425.8</ele>
        <time>2014-01-30T09:15:48Z</time>
      </trkpt>
      <trkpt lat="45.9419729" lon="7.6544808">
        <ele>2425.8</ele>
        <time>2014-01-30T09:15:50Z</time>
      </trkpt>
      <trkpt lat="45.9421092" lon="7.6544241">
        <ele>2425.8</ele>
        <time>2014-01-30T09:15:53Z</time>
      </trkpt>
      <trkpt lat="45.9416848" lon="7.6547046">
        <ele>2425.8</ele>
        <time>2014-01-30T09:15:56Z</time>
      </trkpt>
      <trkpt lat="45.9415521" lon="7.6548262">
        <ele>2426.8</ele>
        <time>2014-01-30T09:16:02Z</time>
      </trkpt>
      <trkpt lat="45.9415748" lon="7.6548416">
        <ele>2426.8</ele>
        <time>2014-01-30T09:16:03Z</time>
      </trkpt>
      <trkpt lat="45.9413053" lon="7.6551716">
        <ele>2426.8</ele>
        <time>2014-01-30T09:17:08Z</time>
      </trkpt>
      <trkpt lat="45.9413031" lon="7.6551021">
        <ele>2426.8</ele>
        <time>2014-01-30T09:17:14Z</time>
      </trkpt>
      <trkpt lat="45.9413851" lon="7.6550239">
        <ele>2426.8</ele>
        <time>2014-01-30T09:17:21Z</time>
      </trkpt>
      <trkpt lat="45.9412898" lon="7.6551045">
        <ele>2426.8</ele>
        <time>2014-01-30T09:17:26Z</time>
      </trkpt>
      <trkpt lat="45.9412144" lon="7.6551605">
        <ele>2426.8</ele>
        <time>2014-01-30T09:17:32Z</time>
      </trkpt>
      <trkpt lat="45.9411766" lon="7.6551896">
        <ele>2426.8</ele>
        <time>2014-01-30T09:17:37Z</time>
      </trkpt>
      <trkpt lat="45.9412007" lon="7.6551631">
        <ele>2426.8</ele>
        <time>2014-01-30T09:17:40Z</time>
      </trkpt>
      <trkpt lat="45.9412164" lon="7.6551529">
        <ele>2426.8</ele>
        <time>2014-01-30T09:17:43Z</time>
      </trkpt>
      <trkpt lat="45.9412094" lon="7.65517">
        <ele>2426.8</ele>
        <time>2014-01-30T09:17:48Z</time>
      </trkpt>
      <trkpt lat="45.941217" lon="7.6551403">
        <ele>2426.8</ele>
        <time>2014-01-30T09:17:53Z</time>
      </trkpt>
      <trkpt lat="45.9412349" lon="7.6551315">
        <ele>2426.8</ele>
        <time>2014-01-30T09:17:58Z</time>
      </trkpt>
      <trkpt lat="45.9412508" lon="7.655118">
        <ele>2426.8</ele>
        <time>2014-01-30T09:18:05Z</time>
      </trkpt>
      <trkpt lat="45.9412332" lon="7.6551134">
        <ele>2426.8</ele>
        <time>2014-01-30T09:18:13Z</time>
      </trkpt>
      <trkpt lat="45.9412418" lon="7.655113">
        <ele>2426.8</ele>
        <time>2014-01-30T09:18:19Z</time>
      </trkpt>
      <trkpt lat="45.941257" lon="7.655109">
        <ele>2426.8</ele>
        <time>2014-01-30T09:18:20Z</time>
      </trkpt>
      <trkpt lat="45.9412701" lon="7.6551133">
        <ele>2426.8</ele>
        <time>2014-01-30T09:18:25Z</time>
      </trkpt>
      <trkpt lat="45.9412318" lon="7.6551157">
        <ele>2426.8</ele>
        <time>2014-01-30T09:18:32Z</time>
      </trkpt>
      <trkpt lat="45.9411965" lon="7.6551171">
        <ele>2426.8</ele>
        <time>2014-01-30T09:18:40Z</time>
      </trkpt>
      <trkpt lat="45.9412332" lon="7.6550779">
        <ele>2426.8</ele>
        <time>2014-01-30T09:18:47Z</time>
      </trkpt>
      <trkpt lat="45.9412394" lon="7.6550651">
        <ele>2426.8</ele>
        <time>2014-01-30T09:18:52Z</time>
      </trkpt>
      <trkpt lat="45.9412631" lon="7.6550441">
        <ele>2426.8</ele>
        <time>2014-01-30T09:18:56Z</time>
      </trkpt>
      <trkpt lat="45.9412677" lon="7.6550365">
        <ele>2426.8</ele>
        <time>2014-01-30T09:18:57Z</time>
      </trkpt>
      <trkpt lat="45.9412731" lon="7.6550238">
        <ele>2426.8</ele>
        <time>2014-01-30T09:19:03Z</time>
      </trkpt>
      <trkpt lat="45.9412651" lon="7.6550125">
        <ele>2426.8</ele>
        <time>2014-01-30T09:19:09Z</time>
      </trkpt>
      <trkpt lat="45.9412198" lon="7.6550168">
        <ele>2426.8</ele>
        <time>2014-01-30T09:19:18Z</time>
      </trkpt>
      <trkpt lat="45.9412073" lon="7.6550192">
        <ele>2427.8</ele>
        <time>2014-01-30T09:19:23Z</time>
      </trkpt>
      <trkpt lat="45.9411812" lon="7.655029">
        <ele>2427.8</ele>
        <time>2014-01-30T09:19:31Z</time>
      </trkpt>
      <trkpt lat="45.9411757" lon="7.6550451">
        <ele>2427.8</ele>
        <time>2014-01-30T09:19:37Z</time>
      </trkpt>
      <trkpt lat="45.9411364" lon="7.6550941">
        <ele>2427.8</ele>
        <time>2014-01-30T09:19:42Z</time>
      </trkpt>
      <trkpt lat="45.9411285" lon="7.6551378">
        <ele>2427.8</ele>
        <time>2014-01-30T09:19:47Z</time>
      </trkpt>
      <trkpt lat="45.9411465" lon="7.6551288">
        <ele>2427.8</ele>
        <time>2014-01-30T09:19:49Z</time>
      </trkpt>
      <trkpt lat="45.941153" lon="7.6551513">
        <ele>2427.8</ele>
        <time>2014-01-30T09:19:51Z</time>
      </trkpt>
      <trkpt lat="45.9412244" lon="7.655151">
        <ele>2428.8</ele>
        <time>2014-01-30T09:19:55Z</time>
      </trkpt>
      <trkpt lat="45.941231" lon="7.6551495">
        <ele>2428.8</ele>
        <time>2014-01-30T09:19:56Z</time>
      </trkpt>
      <trkpt lat="45.9412467" lon="7.6551271">
        <ele>2428.8</ele>
        <time>2014-01-30T09:20:04Z</time>
      </trkpt>
      <trkpt lat="45.9412389" lon="7.6551259">
        <ele>2428.8</ele>
        <time>2014-01-30T09:20:10Z</time>
      </trkpt>
      <trkpt lat="45.9412489" lon="7.6551296">
        <ele>2428.8</ele>
        <time>2014-01-30T09:20:16Z</time>
      </trkpt>
      <trkpt lat="45.9412841" lon="7.655169">
        <ele>2428.8</ele>
        <time>2014-01-30T09:20:24Z</time>
      </trkpt>
      <trkpt lat="45.9413048" lon="7.6552011">
        <ele>2428.8</ele>
        <time>2014-01-30T09:20:31Z</time>
      </trkpt>
      <trkpt lat="45.9413112" lon="7.6552088">
        <ele>2428.8</ele>
        <time>2014-01-30T09:20:37Z</time>
      </trkpt>
      <trkpt lat="45.9413146" lon="7.6552166">
        <ele>2429.8</ele>
        <time>2014-01-30T09:20:38Z</time>
      </trkpt>
      <trkpt lat="45.9413191" lon="7.655215">
        <ele>2429.8</ele>
        <time>2014-01-30T09:20:42Z</time>
      </trkpt>
      <trkpt lat="45.9413119" lon="7.6551808">
        <ele>2429.8</ele>
        <time>2014-01-30T09:20:49Z</time>
      </trkpt>
      <trkpt lat="45.9413115" lon="7.655186">
        <ele>2429.8</ele>
        <time>2014-01-30T09:20:55Z</time>
      </trkpt>
      <trkpt lat="45.9413129" lon="7.6551727">
        <ele>2430.8</ele>
        <time>2014-01-30T09:20:59Z</time>
      </trkpt>
      <trkpt lat="45.9413136" lon="7.6551741">
        <ele>2430.8</ele>
        <time>2014-01-30T09:21:02Z</time>
      </trkpt>
      <trkpt lat="45.9413171" lon="7.6551746">
        <ele>2430.8</ele>
        <time>2014-01-30T09:21:10Z</time>
      </trkpt>
      <trkpt lat="45.9413092" lon="7.6551829">
        <ele>2430.8</ele>
        <time>2014-01-30T09:21:20Z</time>
      </trkpt>
      <trkpt lat="45.941309" lon="7.6552037">
        <ele>2430.8</ele>
        <time>2014-01-30T09:21:22Z</time>
      </trkpt>
      <trkpt lat="45.9413224" lon="7.6552247">
        <ele>2430.8</ele>
        <time>2014-01-30T09:21:26Z</time>
      </trkpt>
      <trkpt lat="45.9413238" lon="7.6552266">
        <ele>2430.8</ele>
        <time>2014-01-30T09:21:38Z</time>
      </trkpt>
      <trkpt lat="45.9413238" lon="7.6552262">
        <ele>2430.8</ele>
        <time>2014-01-30T09:21:47Z</time>
      </trkpt>
      <trkpt lat="45.941325" lon="7.6552245">
        <ele>2432</ele>
        <time>2014-01-30T09:21:48Z</time>
      </trkpt>
      <trkpt lat="45.9413337" lon="7.6552083">
        <ele>2432</ele>
        <time>2014-01-30T09:21:57Z</time>
      </trkpt>
      <trkpt lat="45.9413311" lon="7.6552081">
        <ele>2432</ele>
        <time>2014-01-30T09:22:10Z</time>
      </trkpt>
      <trkpt lat="45.9413242" lon="7.6552063">
        <ele>2432</ele>
        <time>2014-01-30T09:22:18Z</time>
      </trkpt>
      <trkpt lat="45.9413242" lon="7.6552091">
        <ele>2432</ele>
        <time>2014-01-30T09:22:27Z</time>
      </trkpt>
      <trkpt lat="45.9413243" lon="7.6552113">
        <ele>2432</ele>
        <time>2014-01-30T09:22:41Z</time>
      </trkpt>
      <trkpt lat="45.9413218" lon="7.655214">
        <ele>2432</ele>
        <time>2014-01-30T09:22:57Z</time>
      </trkpt>
      <trkpt lat="45.9413264" lon="7.655214">
        <ele>2432</ele>
        <time>2014-01-30T09:23:17Z</time>
      </trkpt>
      <trkpt lat="45.9413317" lon="7.6552126">
        <ele>2433</ele>
        <time>2014-01-30T09:23:24Z</time>
      </trkpt>
      <trkpt lat="45.9413373" lon="7.6552099">
        <ele>2433</ele>
        <time>2014-01-30T09:23:32Z</time>
      </trkpt>
      <trkpt lat="45.9413408" lon="7.6552102">
        <ele>2434</ele>
        <time>2014-01-30T09:23:36Z</time>
      </trkpt>
      <trkpt lat="45.9413445" lon="7.65521">
        <ele>2434</ele>
        <time>2014-01-30T09:23:43Z</time>
      </trkpt>
      <trkpt lat="45.9413431" lon="7.6552098">
        <ele>2434</ele>
        <time>2014-01-30T09:24:00Z</time>
      </trkpt>
      <trkpt lat="45.9413585" lon="7.6552119">
        <ele>2434</ele>
        <time>2014-01-30T09:24:09Z</time>
      </trkpt>
      <trkpt lat="45.9414207" lon="7.6552111">
        <ele>2434</ele>
        <time>2014-01-30T09:24:13Z</time>
      </trkpt>
      <trkpt lat="45.9415623" lon="7.6552161">
        <ele>2434</ele>
        <time>2014-01-30T09:24:19Z</time>
      </trkpt>
      <trkpt lat="45.9417532" lon="7.655187">
        <ele>2434</ele>
        <time>2014-01-30T09:24:25Z</time>
      </trkpt>
      <trkpt lat="45.9418841" lon="7.6551345">
        <ele>2434</ele>
        <time>2014-01-30T09:24:30Z</time>
      </trkpt>
      <trkpt lat="45.9419014" lon="7.6551277">
        <ele>2430.8</ele>
        <time>2014-01-30T09:24:31Z</time>
      </trkpt>
      <trkpt lat="45.9420091" lon="7.6551086">
        <ele>2430.8</ele>
        <time>2014-01-30T09:24:36Z</time>
      </trkpt>
      <trkpt lat="45.9421336" lon="7.6551302">
        <ele>2430.8</ele>
        <time>2014-01-30T09:24:43Z</time>
      </trkpt>
      <trkpt lat="45.9422718" lon="7.6551861">
        <ele>2429.8</ele>
        <time>2014-01-30T09:24:48Z</time>
      </trkpt>
      <trkpt lat="45.9423053" lon="7.6551989">
        <ele>2428.6</ele>
        <time>2014-01-30T09:24:49Z</time>
      </trkpt>
      <trkpt lat="45.9423723" lon="7.6552312">
        <ele>2426</ele>
        <time>2014-01-30T09:24:50Z</time>
      </trkpt>
      <trkpt lat="45.9424189" lon="7.6552529">
        <ele>2425</ele>
        <time>2014-01-30T09:24:51Z</time>
      </trkpt>
      <trkpt lat="45.9425089" lon="7.6552931">
        <ele>2422.6</ele>
        <time>2014-01-30T09:24:52Z</time>
      </trkpt>
      <trkpt lat="45.9427078" lon="7.6553723">
        <ele>2419</ele>
        <time>2014-01-30T09:24:54Z</time>
      </trkpt>
      <trkpt lat="45.9427817" lon="7.655398">
        <ele>2417.6</ele>
        <time>2014-01-30T09:24:55Z</time>
      </trkpt>
      <trkpt lat="45.9429278" lon="7.655443">
        <ele>2415.2</ele>
        <time>2014-01-30T09:24:56Z</time>
      </trkpt>
      <trkpt lat="45.9431965" lon="7.6554639">
        <ele>2415.2</ele>
        <time>2014-01-30T09:24:59Z</time>
      </trkpt>
      <trkpt lat="45.9434403" lon="7.6553932">
        <ele>2415.2</ele>
        <time>2014-01-30T09:25:02Z</time>
      </trkpt>
      <trkpt lat="45.9435585" lon="7.6553021">
        <ele>2414</ele>
        <time>2014-01-30T09:25:04Z</time>
      </trkpt>
      <trkpt lat="45.9436781" lon="7.6552004">
        <ele>2413</ele>
        <time>2014-01-30T09:25:06Z</time>
      </trkpt>
      <trkpt lat="45.9437108" lon="7.655168">
        <ele>2413</ele>
        <time>2014-01-30T09:25:07Z</time>
      </trkpt>
      <trkpt lat="45.9437869" lon="7.6550899">
        <ele>2412</ele>
        <time>2014-01-30T09:25:08Z</time>
      </trkpt>
      <trkpt lat="45.9438889" lon="7.6549712">
        <ele>2411</ele>
        <time>2014-01-30T09:25:10Z</time>
      </trkpt>
      <trkpt lat="45.9439913" lon="7.6548271">
        <ele>2409.2</ele>
        <time>2014-01-30T09:25:12Z</time>
      </trkpt>
      <trkpt lat="45.9440262" lon="7.6547657">
        <ele>2408</ele>
        <time>2014-01-30T09:25:13Z</time>
      </trkpt>
      <trkpt lat="45.944091" lon="7.6546369">
        <ele>2406.8</ele>
        <time>2014-01-30T09:25:14Z</time>
      </trkpt>
      <trkpt lat="45.9441198" lon="7.654563">
        <ele>2405.4</ele>
        <time>2014-01-30T09:25:15Z</time>
      </trkpt>
      <trkpt lat="45.9441783" lon="7.6544217">
        <ele>2404</ele>
        <time>2014-01-30T09:25:16Z</time>
      </trkpt>
      <trkpt lat="45.94421" lon="7.6543472">
        <ele>2402</ele>
        <time>2014-01-30T09:25:17Z</time>
      </trkpt>
      <trkpt lat="45.9442861" lon="7.6541634">
        <ele>2398</ele>
        <time>2014-01-30T09:25:18Z</time>
      </trkpt>
      <trkpt lat="45.9443316" lon="7.6540553">
        <ele>2396.8</ele>
        <time>2014-01-30T09:25:19Z</time>
      </trkpt>
      <trkpt lat="45.9444117" lon="7.6538516">
        <ele>2392.4</ele>
        <time>2014-01-30T09:25:20Z</time>
      </trkpt>
      <trkpt lat="45.9444529" lon="7.6537499">
        <ele>2391</ele>
        <time>2014-01-30T09:25:21Z</time>
      </trkpt>
      <trkpt lat="45.9445258" lon="7.6535605">
        <ele>2389</ele>
        <time>2014-01-30T09:25:22Z</time>
      </trkpt>
      <trkpt lat="45.9445749" lon="7.6534357">
        <ele>2386.4</ele>
        <time>2014-01-30T09:25:23Z</time>
      </trkpt>
      <trkpt lat="45.9446619" lon="7.6532217">
        <ele>2382.4</ele>
        <time>2014-01-30T09:25:24Z</time>
      </trkpt>
      <trkpt lat="45.9447072" lon="7.6531077">
        <ele>2381</ele>
        <time>2014-01-30T09:25:25Z</time>
      </trkpt>
      <trkpt lat="45.944795" lon="7.6528779">
        <ele>2377.8</ele>
        <time>2014-01-30T09:25:26Z</time>
      </trkpt>
      <trkpt lat="45.9448282" lon="7.6527743">
        <ele>2375.4</ele>
        <time>2014-01-30T09:25:27Z</time>
      </trkpt>
      <trkpt lat="45.9449042" lon="7.6525381">
        <ele>2372</ele>
        <time>2014-01-30T09:25:28Z</time>
      </trkpt>
      <trkpt lat="45.9449907" lon="7.6521968">
        <ele>2370.8</ele>
        <time>2014-01-30T09:25:30Z</time>
      </trkpt>
      <trkpt lat="45.9450129" lon="7.6520952">
        <ele>2370.8</ele>
        <time>2014-01-30T09:25:31Z</time>
      </trkpt>
      <trkpt lat="45.9450532" lon="7.6519123">
        <ele>2369.6</ele>
        <time>2014-01-30T09:25:32Z</time>
      </trkpt>
      <trkpt lat="45.9451048" lon="7.6516376">
        <ele>2368.6</ele>
        <time>2014-01-30T09:25:34Z</time>
      </trkpt>
      <trkpt lat="45.9451556" lon="7.6513796">
        <ele>2367.4</ele>
        <time>2014-01-30T09:25:36Z</time>
      </trkpt>
      <trkpt lat="45.9452074" lon="7.651153">
        <ele>2366</ele>
        <time>2014-01-30T09:25:38Z</time>
      </trkpt>
      <trkpt lat="45.9452663" lon="7.6509278">
        <ele>2364.6</ele>
        <time>2014-01-30T09:25:40Z</time>
      </trkpt>
      <trkpt lat="45.9452882" lon="7.650844">
        <ele>2363.6</ele>
        <time>2014-01-30T09:25:41Z</time>
      </trkpt>
      <trkpt lat="45.9453306" lon="7.6506954">
        <ele>2362.4</ele>
        <time>2014-01-30T09:25:42Z</time>
      </trkpt>
      <trkpt lat="45.9454079" lon="7.6504733">
        <ele>2361.2</ele>
        <time>2014-01-30T09:25:44Z</time>
      </trkpt>
      <trkpt lat="45.9454807" lon="7.6503046">
        <ele>2359.8</ele>
        <time>2014-01-30T09:25:46Z</time>
      </trkpt>
      <trkpt lat="45.9455173" lon="7.6502279">
        <ele>2359.8</ele>
        <time>2014-01-30T09:25:47Z</time>
      </trkpt>
      <trkpt lat="45.9455861" lon="7.650101">
        <ele>2358</ele>
        <time>2014-01-30T09:25:48Z</time>
      </trkpt>
      <trkpt lat="45.9456282" lon="7.6500371">
        <ele>2357</ele>
        <time>2014-01-30T09:25:49Z</time>
      </trkpt>
      <trkpt lat="45.9457051" lon="7.6499289">
        <ele>2355.8</ele>
        <time>2014-01-30T09:25:50Z</time>
      </trkpt>
      <trkpt lat="45.9457492" lon="7.6498821">
        <ele>2355.8</ele>
        <time>2014-01-30T09:25:51Z</time>
      </trkpt>
      <trkpt lat="45.9458342" lon="7.6498065">
        <ele>2354.4</ele>
        <time>2014-01-30T09:25:52Z</time>
      </trkpt>
      <trkpt lat="45.945989" lon="7.6496945">
        <ele>2352.4</ele>
        <time>2014-01-30T09:25:54Z</time>
      </trkpt>
      <trkpt lat="45.9460446" lon="7.6496847">
        <ele>2351.4</ele>
        <time>2014-01-30T09:25:55Z</time>
      </trkpt>
      <trkpt lat="45.9461512" lon="7.6496661">
        <ele>2350.2</ele>
        <time>2014-01-30T09:25:56Z</time>
      </trkpt>
      <trkpt lat="45.9461892" lon="7.6496381">
        <ele>2348.8</ele>
        <time>2014-01-30T09:25:57Z</time>
      </trkpt>
      <trkpt lat="45.9462929" lon="7.6496342">
        <ele>2347.8</ele>
        <time>2014-01-30T09:25:58Z</time>
      </trkpt>
      <trkpt lat="45.9463527" lon="7.6496071">
        <ele>2346.6</ele>
        <time>2014-01-30T09:25:59Z</time>
      </trkpt>
      <trkpt lat="45.9464568" lon="7.6495708">
        <ele>2343.4</ele>
        <time>2014-01-30T09:26:00Z</time>
      </trkpt>
      <trkpt lat="45.9465179" lon="7.649585">
        <ele>2343.4</ele>
        <time>2014-01-30T09:26:01Z</time>
      </trkpt>
      <trkpt lat="45.9466128" lon="7.6495309">
        <ele>2339.8</ele>
        <time>2014-01-30T09:26:02Z</time>
      </trkpt>
      <trkpt lat="45.9466736" lon="7.6495264">
        <ele>2338.6</ele>
        <time>2014-01-30T09:26:03Z</time>
      </trkpt>
      <trkpt lat="45.9467909" lon="7.6495347">
        <ele>2335.6</ele>
        <time>2014-01-30T09:26:04Z</time>
      </trkpt>
      <trkpt lat="45.9468411" lon="7.6494923">
        <ele>2334.4</ele>
        <time>2014-01-30T09:26:05Z</time>
      </trkpt>
      <trkpt lat="45.9469616" lon="7.6494926">
        <ele>2330.8</ele>
        <time>2014-01-30T09:26:06Z</time>
      </trkpt>
      <trkpt lat="45.9470126" lon="7.6494746">
        <ele>2329.4</ele>
        <time>2014-01-30T09:26:07Z</time>
      </trkpt>
      <trkpt lat="45.9471369" lon="7.6494465">
        <ele>2325.8</ele>
        <time>2014-01-30T09:26:08Z</time>
      </trkpt>
      <trkpt lat="45.9472037" lon="7.6494533">
        <ele>2325.8</ele>
        <time>2014-01-30T09:26:09Z</time>
      </trkpt>
      <trkpt lat="45.9473027" lon="7.6493802">
        <ele>2322.4</ele>
        <time>2014-01-30T09:26:10Z</time>
      </trkpt>
      <trkpt lat="45.9474575" lon="7.6492972">
        <ele>2320</ele>
        <time>2014-01-30T09:26:12Z</time>
      </trkpt>
      <trkpt lat="45.9475148" lon="7.6492678">
        <ele>2320</ele>
        <time>2014-01-30T09:26:13Z</time>
      </trkpt>
      <trkpt lat="45.9475998" lon="7.6492525">
        <ele>2318.8</ele>
        <time>2014-01-30T09:26:14Z</time>
      </trkpt>
      <trkpt lat="45.9477235" lon="7.6492496">
        <ele>2318.8</ele>
        <time>2014-01-30T09:26:17Z</time>
      </trkpt>
      <trkpt lat="45.9477687" lon="7.6493029">
        <ele>2318.8</ele>
        <time>2014-01-30T09:26:20Z</time>
      </trkpt>
      <trkpt lat="45.9477777" lon="7.6493197">
        <ele>2318.8</ele>
        <time>2014-01-30T09:26:25Z</time>
      </trkpt>
      <trkpt lat="45.9478061" lon="7.6493654">
        <ele>2318.8</ele>
        <time>2014-01-30T09:26:31Z</time>
      </trkpt>
      <trkpt lat="45.9478171" lon="7.6493816">
        <ele>2318.8</ele>
        <time>2014-01-30T09:26:32Z</time>
      </trkpt>
      <trkpt lat="45.9478234" lon="7.6493869">
        <ele>2317.8</ele>
        <time>2014-01-30T09:26:33Z</time>
      </trkpt>
      <trkpt lat="45.9478387" lon="7.6494167">
        <ele>2317.8</ele>
        <time>2014-01-30T09:26:38Z</time>
      </trkpt>
      <trkpt lat="45.9478382" lon="7.649446">
        <ele>2317.8</ele>
        <time>2014-01-30T09:26:43Z</time>
      </trkpt>
      <trkpt lat="45.9478462" lon="7.649476">
        <ele>2317.8</ele>
        <time>2014-01-30T09:26:49Z</time>
      </trkpt>
      <trkpt lat="45.9478595" lon="7.6495281">
        <ele>2317.8</ele>
        <time>2014-01-30T09:26:54Z</time>
      </trkpt>
      <trkpt lat="45.9478823" lon="7.649539">
        <ele>2317.8</ele>
        <time>2014-01-30T09:26:57Z</time>
      </trkpt>
      <trkpt lat="45.9479558" lon="7.6495466">
        <ele>2317.8</ele>
        <time>2014-01-30T09:26:59Z</time>
      </trkpt>
      <trkpt lat="45.9480311" lon="7.6496429">
        <ele>2320.4</ele>
        <time>2014-01-30T09:27:02Z</time>
      </trkpt>
      <trkpt lat="45.9480474" lon="7.6496805">
        <ele>2321.8</ele>
        <time>2014-01-30T09:27:03Z</time>
      </trkpt>
      <trkpt lat="45.9480751" lon="7.6497424">
        <ele>2324</ele>
        <time>2014-01-30T09:27:04Z</time>
      </trkpt>
      <trkpt lat="45.9480945" lon="7.6497894">
        <ele>2325</ele>
        <time>2014-01-30T09:27:05Z</time>
      </trkpt>
      <trkpt lat="45.9481196" lon="7.6498501">
        <ele>2327.4</ele>
        <time>2014-01-30T09:27:06Z</time>
      </trkpt>
      <trkpt lat="45.9481353" lon="7.6498814">
        <ele>2328.6</ele>
        <time>2014-01-30T09:27:07Z</time>
      </trkpt>
      <trkpt lat="45.9481673" lon="7.6499491">
        <ele>2330</ele>
        <time>2014-01-30T09:27:08Z</time>
      </trkpt>
      <trkpt lat="45.9481836" lon="7.6499825">
        <ele>2331.4</ele>
        <time>2014-01-30T09:27:09Z</time>
      </trkpt>
      <trkpt lat="45.948212" lon="7.6500412">
        <ele>2334.2</ele>
        <time>2014-01-30T09:27:10Z</time>
      </trkpt>
      <trkpt lat="45.94822" lon="7.6500648">
        <ele>2335.6</ele>
        <time>2014-01-30T09:27:11Z</time>
      </trkpt>
      <trkpt lat="45.948242" lon="7.6501049">
        <ele>2337</ele>
        <time>2014-01-30T09:27:12Z</time>
      </trkpt>
      <trkpt lat="45.9482591" lon="7.6501396">
        <ele>2338</ele>
        <time>2014-01-30T09:27:13Z</time>
      </trkpt>
      <trkpt lat="45.9482866" lon="7.6502074">
        <ele>2338</ele>
        <time>2014-01-30T09:27:14Z</time>
      </trkpt>
      <trkpt lat="45.9483204" lon="7.6502976">
        <ele>2339.4</ele>
        <time>2014-01-30T09:27:16Z</time>
      </trkpt>
      <trkpt lat="45.9483605" lon="7.650399">
        <ele>2340.6</ele>
        <time>2014-01-30T09:27:18Z</time>
      </trkpt>
      <trkpt lat="45.9483724" lon="7.6504353">
        <ele>2341.8</ele>
        <time>2014-01-30T09:27:19Z</time>
      </trkpt>
      <trkpt lat="45.9483973" lon="7.6504979">
        <ele>2343</ele>
        <time>2014-01-30T09:27:20Z</time>
      </trkpt>
      <trkpt lat="45.9484094" lon="7.650531">
        <ele>2344.2</ele>
        <time>2014-01-30T09:27:21Z</time>
      </trkpt>
      <trkpt lat="45.9484469" lon="7.6506293">
        <ele>2345.4</ele>
        <time>2014-01-30T09:27:23Z</time>
      </trkpt>
      <trkpt lat="45.9484697" lon="7.6506881">
        <ele>2346.8</ele>
        <time>2014-01-30T09:27:24Z</time>
      </trkpt>
      <trkpt lat="45.9484839" lon="7.6507251">
        <ele>2347.8</ele>
        <time>2014-01-30T09:27:25Z</time>
      </trkpt>
      <trkpt lat="45.9485082" lon="7.6507906">
        <ele>2349</ele>
        <time>2014-01-30T09:27:26Z</time>
      </trkpt>
      <trkpt lat="45.9485434" lon="7.6508814">
        <ele>2350.4</ele>
        <time>2014-01-30T09:27:28Z</time>
      </trkpt>
      <trkpt lat="45.9485584" lon="7.6509176">
        <ele>2351.6</ele>
        <time>2014-01-30T09:27:29Z</time>
      </trkpt>
      <trkpt lat="45.9485821" lon="7.6509746">
        <ele>2353.6</ele>
        <time>2014-01-30T09:27:30Z</time>
      </trkpt>
      <trkpt lat="45.9486188" lon="7.651065">
        <ele>2355</ele>
        <time>2014-01-30T09:27:32Z</time>
      </trkpt>
      <trkpt lat="45.9486331" lon="7.6511015">
        <ele>2356.2</ele>
        <time>2014-01-30T09:27:33Z</time>
      </trkpt>
      <trkpt lat="45.948672" lon="7.6511979">
        <ele>2357.4</ele>
        <time>2014-01-30T09:27:35Z</time>
      </trkpt>
      <trkpt lat="45.9486977" lon="7.6512591">
        <ele>2358.4</ele>
        <time>2014-01-30T09:27:36Z</time>
      </trkpt>
      <trkpt lat="45.9487366" lon="7.6513481">
        <ele>2359.6</ele>
        <time>2014-01-30T09:27:38Z</time>
      </trkpt>
      <trkpt lat="45.9487492" lon="7.6513816">
        <ele>2360.6</ele>
        <time>2014-01-30T09:27:39Z</time>
      </trkpt>
      <trkpt lat="45.9487766" lon="7.651444">
        <ele>2361.8</ele>
        <time>2014-01-30T09:27:40Z</time>
      </trkpt>
      <trkpt lat="45.9488138" lon="7.6515373">
        <ele>2362.8</ele>
        <time>2014-01-30T09:27:42Z</time>
      </trkpt>
      <trkpt lat="45.9488278" lon="7.6515749">
        <ele>2364</ele>
        <time>2014-01-30T09:27:43Z</time>
      </trkpt>
      <trkpt lat="45.9488542" lon="7.6516342">
        <ele>2365.2</ele>
        <time>2014-01-30T09:27:44Z</time>
      </trkpt>
      <trkpt lat="45.9488666" lon="7.6516654">
        <ele>2366.4</ele>
        <time>2014-01-30T09:27:45Z</time>
      </trkpt>
      <trkpt lat="45.9488914" lon="7.6517235">
        <ele>2367.6</ele>
        <time>2014-01-30T09:27:46Z</time>
      </trkpt>
      <trkpt lat="45.9489032" lon="7.6517514">
        <ele>2367.6</ele>
        <time>2014-01-30T09:27:47Z</time>
      </trkpt>
      <trkpt lat="45.9489319" lon="7.6518091">
        <ele>2368.6</ele>
        <time>2014-01-30T09:27:48Z</time>
      </trkpt>
      <trkpt lat="45.9489479" lon="7.6518495">
        <ele>2368.6</ele>
        <time>2014-01-30T09:27:49Z</time>
      </trkpt>
      <trkpt lat="45.9490332" lon="7.652036">
        <ele>2368.6</ele>
        <time>2014-01-30T09:27:53Z</time>
      </trkpt>
      <trkpt lat="45.9490589" lon="7.652093">
        <ele>2369.8</ele>
        <time>2014-01-30T09:27:54Z</time>
      </trkpt>
      <trkpt lat="45.9491582" lon="7.6523129">
        <ele>2370.8</ele>
        <time>2014-01-30T09:27:59Z</time>
      </trkpt>
      <trkpt lat="45.9491986" lon="7.6524012">
        <ele>2372</ele>
        <time>2014-01-30T09:28:01Z</time>
      </trkpt>
      <trkpt lat="45.9492391" lon="7.6524938">
        <ele>2373</ele>
        <time>2014-01-30T09:28:03Z</time>
      </trkpt>
      <trkpt lat="45.9492754" lon="7.6525835">
        <ele>2374.2</ele>
        <time>2014-01-30T09:28:05Z</time>
      </trkpt>
      <trkpt lat="45.9493143" lon="7.6526713">
        <ele>2375.2</ele>
        <time>2014-01-30T09:28:07Z</time>
      </trkpt>
      <trkpt lat="45.9493411" lon="7.6527353">
        <ele>2376.4</ele>
        <time>2014-01-30T09:28:08Z</time>
      </trkpt>
      <trkpt lat="45.9493859" lon="7.6528259">
        <ele>2377.4</ele>
        <time>2014-01-30T09:28:10Z</time>
      </trkpt>
      <trkpt lat="45.9493974" lon="7.6528603">
        <ele>2378.6</ele>
        <time>2014-01-30T09:28:11Z</time>
      </trkpt>
      <trkpt lat="45.9494237" lon="7.6529184">
        <ele>2379.8</ele>
        <time>2014-01-30T09:28:12Z</time>
      </trkpt>
      <trkpt lat="45.9494397" lon="7.6529513">
        <ele>2379.8</ele>
        <time>2014-01-30T09:28:13Z</time>
      </trkpt>
      <trkpt lat="45.9494674" lon="7.6530115">
        <ele>2381</ele>
        <time>2014-01-30T09:28:14Z</time>
      </trkpt>
      <trkpt lat="45.9495079" lon="7.6530962">
        <ele>2382.4</ele>
        <time>2014-01-30T09:28:16Z</time>
      </trkpt>
      <trkpt lat="45.9495198" lon="7.6531229">
        <ele>2383.4</ele>
        <time>2014-01-30T09:28:17Z</time>
      </trkpt>
      <trkpt lat="45.9495479" lon="7.6531855">
        <ele>2384.4</ele>
        <time>2014-01-30T09:28:18Z</time>
      </trkpt>
      <trkpt lat="45.949563" lon="7.6532183">
        <ele>2385.6</ele>
        <time>2014-01-30T09:28:19Z</time>
      </trkpt>
      <trkpt lat="45.94959" lon="7.6532775">
        <ele>2386.6</ele>
        <time>2014-01-30T09:28:20Z</time>
      </trkpt>
      <trkpt lat="45.9496032" lon="7.6533052">
        <ele>2387.6</ele>
        <time>2014-01-30T09:28:21Z</time>
      </trkpt>
      <trkpt lat="45.9496291" lon="7.6533586">
        <ele>2388.8</ele>
        <time>2014-01-30T09:28:22Z</time>
      </trkpt>
      <trkpt lat="45.9496706" lon="7.6534532">
        <ele>2390</ele>
        <time>2014-01-30T09:28:24Z</time>
      </trkpt>
      <trkpt lat="45.9497137" lon="7.6535471">
        <ele>2391.2</ele>
        <time>2014-01-30T09:28:26Z</time>
      </trkpt>
      <trkpt lat="45.9497249" lon="7.6535715">
        <ele>2392.2</ele>
        <time>2014-01-30T09:28:27Z</time>
      </trkpt>
      <trkpt lat="45.9497701" lon="7.6536678">
        <ele>2393.6</ele>
        <time>2014-01-30T09:28:29Z</time>
      </trkpt>
      <trkpt lat="45.9497959" lon="7.653725">
        <ele>2394.8</ele>
        <time>2014-01-30T09:28:30Z</time>
      </trkpt>
      <trkpt lat="45.9498091" lon="7.6537559">
        <ele>2394.8</ele>
        <time>2014-01-30T09:28:31Z</time>
      </trkpt>
      <trkpt lat="45.9498349" lon="7.6538164">
        <ele>2396.2</ele>
        <time>2014-01-30T09:28:32Z</time>
      </trkpt>
      <trkpt lat="45.94985" lon="7.6538492">
        <ele>2397.4</ele>
        <time>2014-01-30T09:28:33Z</time>
      </trkpt>
      <trkpt lat="45.9498754" lon="7.6539062">
        <ele>2398.6</ele>
        <time>2014-01-30T09:28:34Z</time>
      </trkpt>
      <trkpt lat="45.9499172" lon="7.6539974">
        <ele>2399.8</ele>
        <time>2014-01-30T09:28:36Z</time>
      </trkpt>
      <trkpt lat="45.9499289" lon="7.6540238">
        <ele>2401.2</ele>
        <time>2014-01-30T09:28:37Z</time>
      </trkpt>
      <trkpt lat="45.94996" lon="7.654088">
        <ele>2402.6</ele>
        <time>2014-01-30T09:28:38Z</time>
      </trkpt>
      <trkpt lat="45.9499746" lon="7.6541181">
        <ele>2403.8</ele>
        <time>2014-01-30T09:28:39Z</time>
      </trkpt>
      <trkpt lat="45.9500039" lon="7.6541756">
        <ele>2405</ele>
        <time>2014-01-30T09:28:40Z</time>
      </trkpt>
      <trkpt lat="45.9500204" lon="7.6542074">
        <ele>2406.2</ele>
        <time>2014-01-30T09:28:41Z</time>
      </trkpt>
      <trkpt lat="45.9500466" lon="7.6542636">
        <ele>2407.2</ele>
        <time>2014-01-30T09:28:42Z</time>
      </trkpt>
      <trkpt lat="45.9500598" lon="7.6542961">
        <ele>2408.2</ele>
        <time>2014-01-30T09:28:43Z</time>
      </trkpt>
      <trkpt lat="45.9500821" lon="7.6543546">
        <ele>2409.6</ele>
        <time>2014-01-30T09:28:44Z</time>
      </trkpt>
      <trkpt lat="45.9500947" lon="7.6543857">
        <ele>2411</ele>
        <time>2014-01-30T09:28:45Z</time>
      </trkpt>
      <trkpt lat="45.9501156" lon="7.6544357">
        <ele>2412.2</ele>
        <time>2014-01-30T09:28:46Z</time>
      </trkpt>
      <trkpt lat="45.9501302" lon="7.654475">
        <ele>2413.6</ele>
        <time>2014-01-30T09:28:47Z</time>
      </trkpt>
      <trkpt lat="45.9501536" lon="7.6545399">
        <ele>2416</ele>
        <time>2014-01-30T09:28:48Z</time>
      </trkpt>
      <trkpt lat="45.9501702" lon="7.6545769">
        <ele>2417.2</ele>
        <time>2014-01-30T09:28:49Z</time>
      </trkpt>
      <trkpt lat="45.9501994" lon="7.6546318">
        <ele>2418.4</ele>
        <time>2014-01-30T09:28:50Z</time>
      </trkpt>
      <trkpt lat="45.9502343" lon="7.6547193">
        <ele>2419.8</ele>
        <time>2014-01-30T09:28:52Z</time>
      </trkpt>
      <trkpt lat="45.9502496" lon="7.6547527">
        <ele>2421.2</ele>
        <time>2014-01-30T09:28:53Z</time>
      </trkpt>
      <trkpt lat="45.9502734" lon="7.6548067">
        <ele>2423.4</ele>
        <time>2014-01-30T09:28:54Z</time>
      </trkpt>
      <trkpt lat="45.9502881" lon="7.6548383">
        <ele>2424.4</ele>
        <time>2014-01-30T09:28:55Z</time>
      </trkpt>
      <trkpt lat="45.9503146" lon="7.6548951">
        <ele>2425.6</ele>
        <time>2014-01-30T09:28:56Z</time>
      </trkpt>
      <trkpt lat="45.9503252" lon="7.6549183">
        <ele>2426.8</ele>
        <time>2014-01-30T09:28:57Z</time>
      </trkpt>
      <trkpt lat="45.9503507" lon="7.6549743">
        <ele>2429</ele>
        <time>2014-01-30T09:28:58Z</time>
      </trkpt>
      <trkpt lat="45.9503662" lon="7.6550089">
        <ele>2430.2</ele>
        <time>2014-01-30T09:28:59Z</time>
      </trkpt>
      <trkpt lat="45.9503906" lon="7.6550653">
        <ele>2432.4</ele>
        <time>2014-01-30T09:29:00Z</time>
      </trkpt>
      <trkpt lat="45.9504042" lon="7.6550939">
        <ele>2432.4</ele>
        <time>2014-01-30T09:29:01Z</time>
      </trkpt>
      <trkpt lat="45.95043" lon="7.6551473">
        <ele>2435.4</ele>
        <time>2014-01-30T09:29:02Z</time>
      </trkpt>
      <trkpt lat="45.9504459" lon="7.655178">
        <ele>2436.6</ele>
        <time>2014-01-30T09:29:03Z</time>
      </trkpt>
      <trkpt lat="45.9504696" lon="7.6552317">
        <ele>2437.6</ele>
        <time>2014-01-30T09:29:04Z</time>
      </trkpt>
      <trkpt lat="45.9504788" lon="7.6552617">
        <ele>2439</ele>
        <time>2014-01-30T09:29:05Z</time>
      </trkpt>
      <trkpt lat="45.9505063" lon="7.6553125">
        <ele>2440</ele>
        <time>2014-01-30T09:29:06Z</time>
      </trkpt>
      <trkpt lat="45.9505502" lon="7.655402">
        <ele>2441.4</ele>
        <time>2014-01-30T09:29:08Z</time>
      </trkpt>
      <trkpt lat="45.9505907" lon="7.6554884">
        <ele>2442.4</ele>
        <time>2014-01-30T09:29:10Z</time>
      </trkpt>
      <trkpt lat="45.9506045" lon="7.655519">
        <ele>2443.6</ele>
        <time>2014-01-30T09:29:11Z</time>
      </trkpt>
      <trkpt lat="45.950629" lon="7.655574">
        <ele>2444.6</ele>
        <time>2014-01-30T09:29:12Z</time>
      </trkpt>
      <trkpt lat="45.9506691" lon="7.6556628">
        <ele>2445.6</ele>
        <time>2014-01-30T09:29:14Z</time>
      </trkpt>
      <trkpt lat="45.9506833" lon="7.6556911">
        <ele>2446.6</ele>
        <time>2014-01-30T09:29:15Z</time>
      </trkpt>
      <trkpt lat="45.950709" lon="7.655747">
        <ele>2447.8</ele>
        <time>2014-01-30T09:29:16Z</time>
      </trkpt>
      <trkpt lat="45.950749" lon="7.6558319">
        <ele>2448.8</ele>
        <time>2014-01-30T09:29:18Z</time>
      </trkpt>
      <trkpt lat="45.9507644" lon="7.6558655">
        <ele>2450</ele>
        <time>2014-01-30T09:29:19Z</time>
      </trkpt>
      <trkpt lat="45.9507914" lon="7.6559229">
        <ele>2451.2</ele>
        <time>2014-01-30T09:29:20Z</time>
      </trkpt>
      <trkpt lat="45.9508034" lon="7.6559517">
        <ele>2452.4</ele>
        <time>2014-01-30T09:29:21Z</time>
      </trkpt>
      <trkpt lat="45.9508277" lon="7.6560048">
        <ele>2453.6</ele>
        <time>2014-01-30T09:29:22Z</time>
      </trkpt>
      <trkpt lat="45.9508439" lon="7.6560383">
        <ele>2454.6</ele>
        <time>2014-01-30T09:29:23Z</time>
      </trkpt>
      <trkpt lat="45.9508672" lon="7.6560939">
        <ele>2455.6</ele>
        <time>2014-01-30T09:29:24Z</time>
      </trkpt>
      <trkpt lat="45.9508805" lon="7.6561286">
        <ele>2456.8</ele>
        <time>2014-01-30T09:29:25Z</time>
      </trkpt>
      <trkpt lat="45.9509063" lon="7.6561873">
        <ele>2457.8</ele>
        <time>2014-01-30T09:29:26Z</time>
      </trkpt>
      <trkpt lat="45.9509167" lon="7.6562136">
        <ele>2459.2</ele>
        <time>2014-01-30T09:29:27Z</time>
      </trkpt>
      <trkpt lat="45.9509412" lon="7.656273">
        <ele>2460.6</ele>
        <time>2014-01-30T09:29:28Z</time>
      </trkpt>
      <trkpt lat="45.9509574" lon="7.6563067">
        <ele>2461.8</ele>
        <time>2014-01-30T09:29:29Z</time>
      </trkpt>
      <trkpt lat="45.950984" lon="7.6563638">
        <ele>2462.8</ele>
        <time>2014-01-30T09:29:30Z</time>
      </trkpt>
      <trkpt lat="45.950997" lon="7.6563931">
        <ele>2464</ele>
        <time>2014-01-30T09:29:31Z</time>
      </trkpt>
      <trkpt lat="45.9510224" lon="7.6564501">
        <ele>2466.2</ele>
        <time>2014-01-30T09:29:32Z</time>
      </trkpt>
      <trkpt lat="45.9510365" lon="7.6564826">
        <ele>2467.2</ele>
        <time>2014-01-30T09:29:33Z</time>
      </trkpt>
      <trkpt lat="45.9510625" lon="7.656525">
        <ele>2468.4</ele>
        <time>2014-01-30T09:29:34Z</time>
      </trkpt>
      <trkpt lat="45.951077" lon="7.6565634">
        <ele>2468.4</ele>
        <time>2014-01-30T09:29:35Z</time>
      </trkpt>
      <trkpt lat="45.9511168" lon="7.6566504">
        <ele>2469.6</ele>
        <time>2014-01-30T09:29:37Z</time>
      </trkpt>
      <trkpt lat="45.9511461" lon="7.6567111">
        <ele>2470.6</ele>
        <time>2014-01-30T09:29:38Z</time>
      </trkpt>
      <trkpt lat="45.9511842" lon="7.656801">
        <ele>2471.8</ele>
        <time>2014-01-30T09:29:40Z</time>
      </trkpt>
      <trkpt lat="45.9512246" lon="7.6568898">
        <ele>2472.8</ele>
        <time>2014-01-30T09:29:42Z</time>
      </trkpt>
      <trkpt lat="45.9512396" lon="7.6569219">
        <ele>2474</ele>
        <time>2014-01-30T09:29:43Z</time>
      </trkpt>
      <trkpt lat="45.9512661" lon="7.6569809">
        <ele>2475.2</ele>
        <time>2014-01-30T09:29:44Z</time>
      </trkpt>
      <trkpt lat="45.9513066" lon="7.6570695">
        <ele>2476.2</ele>
        <time>2014-01-30T09:29:46Z</time>
      </trkpt>
      <trkpt lat="45.951349" lon="7.6571552">
        <ele>2477.6</ele>
        <time>2014-01-30T09:29:48Z</time>
      </trkpt>
      <trkpt lat="45.9513637" lon="7.6571887">
        <ele>2479</ele>
        <time>2014-01-30T09:29:49Z</time>
      </trkpt>
      <trkpt lat="45.9513912" lon="7.6572451">
        <ele>2480</ele>
        <time>2014-01-30T09:29:50Z</time>
      </trkpt>
      <trkpt lat="45.9514053" lon="7.6572739">
        <ele>2481.6</ele>
        <time>2014-01-30T09:29:51Z</time>
      </trkpt>
      <trkpt lat="45.9514287" lon="7.6573259">
        <ele>2482.8</ele>
        <time>2014-01-30T09:29:52Z</time>
      </trkpt>
      <trkpt lat="45.9514701" lon="7.6574163">
        <ele>2484</ele>
        <time>2014-01-30T09:29:54Z</time>
      </trkpt>
      <trkpt lat="45.9514843" lon="7.657448">
        <ele>2485.4</ele>
        <time>2014-01-30T09:29:55Z</time>
      </trkpt>
      <trkpt lat="45.9515095" lon="7.6575061">
        <ele>2486.6</ele>
        <time>2014-01-30T09:29:56Z</time>
      </trkpt>
      <trkpt lat="45.9515209" lon="7.6575319">
        <ele>2488.2</ele>
        <time>2014-01-30T09:29:57Z</time>
      </trkpt>
      <trkpt lat="45.951548" lon="7.6575906">
        <ele>2489.6</ele>
        <time>2014-01-30T09:29:58Z</time>
      </trkpt>
      <trkpt lat="45.9515893" lon="7.6576782">
        <ele>2490.8</ele>
        <time>2014-01-30T09:30:00Z</time>
      </trkpt>
      <trkpt lat="45.9516022" lon="7.657707">
        <ele>2492</ele>
        <time>2014-01-30T09:30:01Z</time>
      </trkpt>
      <trkpt lat="45.9516442" lon="7.6577995">
        <ele>2492</ele>
        <time>2014-01-30T09:30:03Z</time>
      </trkpt>
      <trkpt lat="45.9516676" lon="7.6578535">
        <ele>2493.2</ele>
        <time>2014-01-30T09:30:04Z</time>
      </trkpt>
      <trkpt lat="45.951709" lon="7.6579477">
        <ele>2494.2</ele>
        <time>2014-01-30T09:30:06Z</time>
      </trkpt>
      <trkpt lat="45.9517476" lon="7.658033">
        <ele>2495.4</ele>
        <time>2014-01-30T09:30:08Z</time>
      </trkpt>
      <trkpt lat="45.9517891" lon="7.6581249">
        <ele>2496.6</ele>
        <time>2014-01-30T09:30:10Z</time>
      </trkpt>
      <trkpt lat="45.9518295" lon="7.6582124">
        <ele>2497.6</ele>
        <time>2014-01-30T09:30:12Z</time>
      </trkpt>
      <trkpt lat="45.9518439" lon="7.6582444">
        <ele>2498.8</ele>
        <time>2014-01-30T09:30:13Z</time>
      </trkpt>
      <trkpt lat="45.9518685" lon="7.6583003">
        <ele>2500</ele>
        <time>2014-01-30T09:30:14Z</time>
      </trkpt>
      <trkpt lat="45.9519059" lon="7.6583881">
        <ele>2501</ele>
        <time>2014-01-30T09:30:16Z</time>
      </trkpt>
      <trkpt lat="45.9519179" lon="7.6584161">
        <ele>2502</ele>
        <time>2014-01-30T09:30:17Z</time>
      </trkpt>
      <trkpt lat="45.9519449" lon="7.6584778">
        <ele>2503.4</ele>
        <time>2014-01-30T09:30:18Z</time>
      </trkpt>
      <trkpt lat="45.9519849" lon="7.6585682">
        <ele>2504.4</ele>
        <time>2014-01-30T09:30:20Z</time>
      </trkpt>
      <trkpt lat="45.9519983" lon="7.6585973">
        <ele>2505.8</ele>
        <time>2014-01-30T09:30:21Z</time>
      </trkpt>
      <trkpt lat="45.9520229" lon="7.6586523">
        <ele>2507</ele>
        <time>2014-01-30T09:30:22Z</time>
      </trkpt>
      <trkpt lat="45.9520389" lon="7.6586866">
        <ele>2508.2</ele>
        <time>2014-01-30T09:30:23Z</time>
      </trkpt>
      <trkpt lat="45.9520635" lon="7.6587392">
        <ele>2509.4</ele>
        <time>2014-01-30T09:30:24Z</time>
      </trkpt>
      <trkpt lat="45.9521045" lon="7.658828">
        <ele>2512</ele>
        <time>2014-01-30T09:30:26Z</time>
      </trkpt>
      <trkpt lat="45.9521429" lon="7.6589115">
        <ele>2514.4</ele>
        <time>2014-01-30T09:30:28Z</time>
      </trkpt>
      <trkpt lat="45.9521848" lon="7.6590024">
        <ele>2516.6</ele>
        <time>2014-01-30T09:30:30Z</time>
      </trkpt>
      <trkpt lat="45.952225" lon="7.6590866">
        <ele>2519</ele>
        <time>2014-01-30T09:30:32Z</time>
      </trkpt>
      <trkpt lat="45.9522604" lon="7.6591814">
        <ele>2520.2</ele>
        <time>2014-01-30T09:30:34Z</time>
      </trkpt>
      <trkpt lat="45.9523064" lon="7.6592867">
        <ele>2520.2</ele>
        <time>2014-01-30T09:30:36Z</time>
      </trkpt>
      <trkpt lat="45.9523179" lon="7.6593109">
        <ele>2521.4</ele>
        <time>2014-01-30T09:30:37Z</time>
      </trkpt>
      <trkpt lat="45.9523885" lon="7.6594632">
        <ele>2522.4</ele>
        <time>2014-01-30T09:30:40Z</time>
      </trkpt>
      <trkpt lat="45.9524307" lon="7.6595534">
        <ele>2523.4</ele>
        <time>2014-01-30T09:30:42Z</time>
      </trkpt>
      <trkpt lat="45.952472" lon="7.6596448">
        <ele>2524.6</ele>
        <time>2014-01-30T09:30:44Z</time>
      </trkpt>
      <trkpt lat="45.9524887" lon="7.6596815">
        <ele>2524.6</ele>
        <time>2014-01-30T09:30:45Z</time>
      </trkpt>
      <trkpt lat="45.9525122" lon="7.6597339">
        <ele>2525.8</ele>
        <time>2014-01-30T09:30:46Z</time>
      </trkpt>
      <trkpt lat="45.952553" lon="7.6598235">
        <ele>2526.8</ele>
        <time>2014-01-30T09:30:48Z</time>
      </trkpt>
      <trkpt lat="45.9525708" lon="7.6598614">
        <ele>2528</ele>
        <time>2014-01-30T09:30:49Z</time>
      </trkpt>
      <trkpt lat="45.9525958" lon="7.6599139">
        <ele>2529</ele>
        <time>2014-01-30T09:30:50Z</time>
      </trkpt>
      <trkpt lat="45.9526358" lon="7.6599978">
        <ele>2530</ele>
        <time>2014-01-30T09:30:52Z</time>
      </trkpt>
      <trkpt lat="45.952678" lon="7.6600834">
        <ele>2531.2</ele>
        <time>2014-01-30T09:30:54Z</time>
      </trkpt>
      <trkpt lat="45.9526964" lon="7.6601201">
        <ele>2532.2</ele>
        <time>2014-01-30T09:30:55Z</time>
      </trkpt>
      <trkpt lat="45.9527214" lon="7.6601713">
        <ele>2533.2</ele>
        <time>2014-01-30T09:30:56Z</time>
      </trkpt>
      <trkpt lat="45.9527327" lon="7.6601963">
        <ele>2534.2</ele>
        <time>2014-01-30T09:30:57Z</time>
      </trkpt>
      <trkpt lat="45.9527603" lon="7.6602548">
        <ele>2535.6</ele>
        <time>2014-01-30T09:30:58Z</time>
      </trkpt>
      <trkpt lat="45.9528084" lon="7.6603501">
        <ele>2536.6</ele>
        <time>2014-01-30T09:31:00Z</time>
      </trkpt>
      <trkpt lat="45.9528703" lon="7.6604665">
        <ele>2536.6</ele>
        <time>2014-01-30T09:31:03Z</time>
      </trkpt>
      <trkpt lat="45.9530132" lon="7.6607971">
        <ele>2533.6</ele>
        <time>2014-01-30T09:31:10Z</time>
      </trkpt>
      <trkpt lat="45.9530307" lon="7.6608336">
        <ele>2533.6</ele>
        <time>2014-01-30T09:31:11Z</time>
      </trkpt>
      <trkpt lat="45.9530953" lon="7.6609831">
        <ele>2532.6</ele>
        <time>2014-01-30T09:31:14Z</time>
      </trkpt>
      <trkpt lat="45.9531903" lon="7.6611958">
        <ele>2531.6</ele>
        <time>2014-01-30T09:31:19Z</time>
      </trkpt>
      <trkpt lat="45.9532694" lon="7.6613571">
        <ele>2531.6</ele>
        <time>2014-01-30T09:31:22Z</time>
      </trkpt>
      <trkpt lat="45.953293" lon="7.6613788">
        <ele>2531.6</ele>
        <time>2014-01-30T09:31:23Z</time>
      </trkpt>
      <trkpt lat="45.9533612" lon="7.6615089">
        <ele>2534.8</ele>
        <time>2014-01-30T09:31:26Z</time>
      </trkpt>
      <trkpt lat="45.953372" lon="7.6615334">
        <ele>2534.8</ele>
        <time>2014-01-30T09:31:27Z</time>
      </trkpt>
      <trkpt lat="45.9533993" lon="7.6615912">
        <ele>2536.2</ele>
        <time>2014-01-30T09:31:28Z</time>
      </trkpt>
      <trkpt lat="45.9534177" lon="7.6616317">
        <ele>2537.2</ele>
        <time>2014-01-30T09:31:29Z</time>
      </trkpt>
      <trkpt lat="45.9534415" lon="7.6616848">
        <ele>2538.4</ele>
        <time>2014-01-30T09:31:30Z</time>
      </trkpt>
      <trkpt lat="45.9534565" lon="7.6617187">
        <ele>2539.6</ele>
        <time>2014-01-30T09:31:31Z</time>
      </trkpt>
      <trkpt lat="45.953479" lon="7.6617691">
        <ele>2541</ele>
        <time>2014-01-30T09:31:32Z</time>
      </trkpt>
      <trkpt lat="45.9534963" lon="7.6618073">
        <ele>2542</ele>
        <time>2014-01-30T09:31:33Z</time>
      </trkpt>
      <trkpt lat="45.9535189" lon="7.6618589">
        <ele>2543</ele>
        <time>2014-01-30T09:31:34Z</time>
      </trkpt>
      <trkpt lat="45.9535327" lon="7.6618885">
        <ele>2544.2</ele>
        <time>2014-01-30T09:31:35Z</time>
      </trkpt>
      <trkpt lat="45.95356" lon="7.6619478">
        <ele>2545.4</ele>
        <time>2014-01-30T09:31:36Z</time>
      </trkpt>
      <trkpt lat="45.953571" lon="7.6619728">
        <ele>2546.6</ele>
        <time>2014-01-30T09:31:37Z</time>
      </trkpt>
      <trkpt lat="45.9535984" lon="7.6620348">
        <ele>2548</ele>
        <time>2014-01-30T09:31:38Z</time>
      </trkpt>
      <trkpt lat="45.953637" lon="7.6621236">
        <ele>2550.6</ele>
        <time>2014-01-30T09:31:40Z</time>
      </trkpt>
      <trkpt lat="45.9536531" lon="7.6621605">
        <ele>2551.8</ele>
        <time>2014-01-30T09:31:41Z</time>
      </trkpt>
      <trkpt lat="45.953676" lon="7.6622118">
        <ele>2553.2</ele>
        <time>2014-01-30T09:31:42Z</time>
      </trkpt>
      <trkpt lat="45.9537126" lon="7.6623009">
        <ele>2555.6</ele>
        <time>2014-01-30T09:31:44Z</time>
      </trkpt>
      <trkpt lat="45.9537257" lon="7.6623309">
        <ele>2556.8</ele>
        <time>2014-01-30T09:31:45Z</time>
      </trkpt>
      <trkpt lat="45.9537457" lon="7.6623759">
        <ele>2558.2</ele>
        <time>2014-01-30T09:31:46Z</time>
      </trkpt>
      <trkpt lat="45.9537616" lon="7.6624122">
        <ele>2559.4</ele>
        <time>2014-01-30T09:31:47Z</time>
      </trkpt>
      <trkpt lat="45.9537871" lon="7.6624705">
        <ele>2560.8</ele>
        <time>2014-01-30T09:31:48Z</time>
      </trkpt>
      <trkpt lat="45.9538003" lon="7.6625027">
        <ele>2562</ele>
        <time>2014-01-30T09:31:49Z</time>
      </trkpt>
      <trkpt lat="45.9538239" lon="7.6625584">
        <ele>2564</ele>
        <time>2014-01-30T09:31:50Z</time>
      </trkpt>
      <trkpt lat="45.953837" lon="7.6625872">
        <ele>2565.6</ele>
        <time>2014-01-30T09:31:51Z</time>
      </trkpt>
      <trkpt lat="45.9538608" lon="7.6626383">
        <ele>2567.2</ele>
        <time>2014-01-30T09:31:52Z</time>
      </trkpt>
      <trkpt lat="45.9538735" lon="7.6626702">
        <ele>2568.2</ele>
        <time>2014-01-30T09:31:53Z</time>
      </trkpt>
      <trkpt lat="45.9538965" lon="7.662724">
        <ele>2570.6</ele>
        <time>2014-01-30T09:31:54Z</time>
      </trkpt>
      <trkpt lat="45.9539118" lon="7.6627592">
        <ele>2572</ele>
        <time>2014-01-30T09:31:55Z</time>
      </trkpt>
      <trkpt lat="45.9539377" lon="7.6628145">
        <ele>2573</ele>
        <time>2014-01-30T09:31:56Z</time>
      </trkpt>
      <trkpt lat="45.9539473" lon="7.6628376">
        <ele>2574.6</ele>
        <time>2014-01-30T09:31:57Z</time>
      </trkpt>
      <trkpt lat="45.9539726" lon="7.6628935">
        <ele>2577.2</ele>
        <time>2014-01-30T09:31:58Z</time>
      </trkpt>
      <trkpt lat="45.9539878" lon="7.6629262">
        <ele>2578.2</ele>
        <time>2014-01-30T09:31:59Z</time>
      </trkpt>
      <trkpt lat="45.9540118" lon="7.6629801">
        <ele>2580.6</ele>
        <time>2014-01-30T09:32:00Z</time>
      </trkpt>
      <trkpt lat="45.9540211" lon="7.66301">
        <ele>2581.8</ele>
        <time>2014-01-30T09:32:01Z</time>
      </trkpt>
      <trkpt lat="45.9540389" lon="7.6630634">
        <ele>2582.8</ele>
        <time>2014-01-30T09:32:02Z</time>
      </trkpt>
      <trkpt lat="45.9540541" lon="7.6630976">
        <ele>2584</ele>
        <time>2014-01-30T09:32:03Z</time>
      </trkpt>
      <trkpt lat="45.9540778" lon="7.6631533">
        <ele>2586.4</ele>
        <time>2014-01-30T09:32:04Z</time>
      </trkpt>
      <trkpt lat="45.9541193" lon="7.6632396">
        <ele>2589</ele>
        <time>2014-01-30T09:32:06Z</time>
      </trkpt>
      <trkpt lat="45.9541307" lon="7.6632647">
        <ele>2590.6</ele>
        <time>2014-01-30T09:32:07Z</time>
      </trkpt>
      <trkpt lat="45.9541571" lon="7.6633229">
        <ele>2591.6</ele>
        <time>2014-01-30T09:32:08Z</time>
      </trkpt>
      <trkpt lat="45.9541699" lon="7.6633504">
        <ele>2593</ele>
        <time>2014-01-30T09:32:09Z</time>
      </trkpt>
      <trkpt lat="45.9541964" lon="7.6634066">
        <ele>2595.6</ele>
        <time>2014-01-30T09:32:10Z</time>
      </trkpt>
      <trkpt lat="45.95421" lon="7.6634362">
        <ele>2596.6</ele>
        <time>2014-01-30T09:32:11Z</time>
      </trkpt>
      <trkpt lat="45.9542351" lon="7.6634899">
        <ele>2598.8</ele>
        <time>2014-01-30T09:32:12Z</time>
      </trkpt>
      <trkpt lat="45.9542501" lon="7.663522">
        <ele>2599.8</ele>
        <time>2014-01-30T09:32:13Z</time>
      </trkpt>
      <trkpt lat="45.9542754" lon="7.6635767">
        <ele>2602</ele>
        <time>2014-01-30T09:32:14Z</time>
      </trkpt>
      <trkpt lat="45.9542883" lon="7.6636068">
        <ele>2603.2</ele>
        <time>2014-01-30T09:32:15Z</time>
      </trkpt>
      <trkpt lat="45.9543083" lon="7.6636521">
        <ele>2605.8</ele>
        <time>2014-01-30T09:32:16Z</time>
      </trkpt>
      <trkpt lat="45.9543511" lon="7.6637466">
        <ele>2609.2</ele>
        <time>2014-01-30T09:32:18Z</time>
      </trkpt>
      <trkpt lat="45.9543651" lon="7.6637782">
        <ele>2610.8</ele>
        <time>2014-01-30T09:32:19Z</time>
      </trkpt>
      <trkpt lat="45.9543891" lon="7.6638321">
        <ele>2612.2</ele>
        <time>2014-01-30T09:32:20Z</time>
      </trkpt>
      <trkpt lat="45.9544026" lon="7.6638591">
        <ele>2613.6</ele>
        <time>2014-01-30T09:32:21Z</time>
      </trkpt>
      <trkpt lat="45.9544264" lon="7.6639091">
        <ele>2616.6</ele>
        <time>2014-01-30T09:32:22Z</time>
      </trkpt>
      <trkpt lat="45.9544403" lon="7.6639406">
        <ele>2618.2</ele>
        <time>2014-01-30T09:32:23Z</time>
      </trkpt>
      <trkpt lat="45.9544635" lon="7.66399">
        <ele>2619.6</ele>
        <time>2014-01-30T09:32:24Z</time>
      </trkpt>
      <trkpt lat="45.9544798" lon="7.6640231">
        <ele>2620.6</ele>
        <time>2014-01-30T09:32:25Z</time>
      </trkpt>
      <trkpt lat="45.9545084" lon="7.6640818">
        <ele>2621.6</ele>
        <time>2014-01-30T09:32:26Z</time>
      </trkpt>
      <trkpt lat="45.9545465" lon="7.6641652">
        <ele>2622.6</ele>
        <time>2014-01-30T09:32:28Z</time>
      </trkpt>
      <trkpt lat="45.9545639" lon="7.6642015">
        <ele>2622.6</ele>
        <time>2014-01-30T09:32:29Z</time>
      </trkpt>
      <trkpt lat="45.9545911" lon="7.6642607">
        <ele>2623.8</ele>
        <time>2014-01-30T09:32:30Z</time>
      </trkpt>
      <trkpt lat="45.9546316" lon="7.6643471">
        <ele>2625</ele>
        <time>2014-01-30T09:32:32Z</time>
      </trkpt>
      <trkpt lat="45.9546466" lon="7.6643793">
        <ele>2626.2</ele>
        <time>2014-01-30T09:32:33Z</time>
      </trkpt>
      <trkpt lat="45.9546734" lon="7.664436">
        <ele>2627.4</ele>
        <time>2014-01-30T09:32:34Z</time>
      </trkpt>
      <trkpt lat="45.9547151" lon="7.6645274">
        <ele>2628.6</ele>
        <time>2014-01-30T09:32:36Z</time>
      </trkpt>
      <trkpt lat="45.9547551" lon="7.6646157">
        <ele>2629.8</ele>
        <time>2014-01-30T09:32:38Z</time>
      </trkpt>
      <trkpt lat="45.9547699" lon="7.6646485">
        <ele>2631</ele>
        <time>2014-01-30T09:32:39Z</time>
      </trkpt>
      <trkpt lat="45.9548124" lon="7.6647388">
        <ele>2632.4</ele>
        <time>2014-01-30T09:32:41Z</time>
      </trkpt>
      <trkpt lat="45.9548408" lon="7.6647979">
        <ele>2633.8</ele>
        <time>2014-01-30T09:32:42Z</time>
      </trkpt>
      <trkpt lat="45.9548593" lon="7.6648343">
        <ele>2635.2</ele>
        <time>2014-01-30T09:32:43Z</time>
      </trkpt>
      <trkpt lat="45.9549051" lon="7.6649261">
        <ele>2636.4</ele>
        <time>2014-01-30T09:32:45Z</time>
      </trkpt>
      <trkpt lat="45.9549343" lon="7.6649834">
        <ele>2637.6</ele>
        <time>2014-01-30T09:32:46Z</time>
      </trkpt>
      <trkpt lat="45.9549491" lon="7.6650118">
        <ele>2638.8</ele>
        <time>2014-01-30T09:32:47Z</time>
      </trkpt>
      <trkpt lat="45.9549828" lon="7.6650769">
        <ele>2639.8</ele>
        <time>2014-01-30T09:32:48Z</time>
      </trkpt>
      <trkpt lat="45.9550309" lon="7.6651729">
        <ele>2641.2</ele>
        <time>2014-01-30T09:32:50Z</time>
      </trkpt>
      <trkpt lat="45.9550478" lon="7.6652069">
        <ele>2642.6</ele>
        <time>2014-01-30T09:32:51Z</time>
      </trkpt>
      <trkpt lat="45.9550749" lon="7.6652629">
        <ele>2644</ele>
        <time>2014-01-30T09:32:52Z</time>
      </trkpt>
      <trkpt lat="45.9550925" lon="7.6653005">
        <ele>2645.4</ele>
        <time>2014-01-30T09:32:53Z</time>
      </trkpt>
      <trkpt lat="45.9551226" lon="7.6653565">
        <ele>2647.6</ele>
        <time>2014-01-30T09:32:54Z</time>
      </trkpt>
      <trkpt lat="45.9551425" lon="7.6653863">
        <ele>2648.6</ele>
        <time>2014-01-30T09:32:55Z</time>
      </trkpt>
      <trkpt lat="45.9551652" lon="7.6654336">
        <ele>2650.8</ele>
        <time>2014-01-30T09:32:56Z</time>
      </trkpt>
      <trkpt lat="45.9552178" lon="7.6655226">
        <ele>2650.8</ele>
        <time>2014-01-30T09:32:58Z</time>
      </trkpt>
      <trkpt lat="45.9552901" lon="7.6656524">
        <ele>2653.2</ele>
        <time>2014-01-30T09:33:01Z</time>
      </trkpt>
      <trkpt lat="45.9553223" lon="7.6657106">
        <ele>2654.2</ele>
        <time>2014-01-30T09:33:02Z</time>
      </trkpt>
      <trkpt lat="45.9553738" lon="7.665801">
        <ele>2655.4</ele>
        <time>2014-01-30T09:33:04Z</time>
      </trkpt>
      <trkpt lat="45.9554268" lon="7.6658967">
        <ele>2656.8</ele>
        <time>2014-01-30T09:33:06Z</time>
      </trkpt>
      <trkpt lat="45.9554771" lon="7.6659838">
        <ele>2658.4</ele>
        <time>2014-01-30T09:33:08Z</time>
      </trkpt>
      <trkpt lat="45.9554944" lon="7.6660153">
        <ele>2658.4</ele>
        <time>2014-01-30T09:33:09Z</time>
      </trkpt>
      <trkpt lat="45.9555283" lon="7.6660749">
        <ele>2660.2</ele>
        <time>2014-01-30T09:33:10Z</time>
      </trkpt>
      <trkpt lat="45.9555459" lon="7.6661053">
        <ele>2661.2</ele>
        <time>2014-01-30T09:33:11Z</time>
      </trkpt>
      <trkpt lat="45.9555962" lon="7.6661953">
        <ele>2663</ele>
        <time>2014-01-30T09:33:13Z</time>
      </trkpt>
      <trkpt lat="45.9556287" lon="7.6662547">
        <ele>2664.2</ele>
        <time>2014-01-30T09:33:14Z</time>
      </trkpt>
      <trkpt lat="45.9556452" lon="7.6662845">
        <ele>2665.2</ele>
        <time>2014-01-30T09:33:15Z</time>
      </trkpt>
      <trkpt lat="45.9556749" lon="7.6663387">
        <ele>2666.2</ele>
        <time>2014-01-30T09:33:16Z</time>
      </trkpt>
      <trkpt lat="45.9556893" lon="7.6663687">
        <ele>2667.2</ele>
        <time>2014-01-30T09:33:17Z</time>
      </trkpt>
      <trkpt lat="45.9557219" lon="7.6664305">
        <ele>2668.4</ele>
        <time>2014-01-30T09:33:18Z</time>
      </trkpt>
      <trkpt lat="45.9557402" lon="7.666463">
        <ele>2669.4</ele>
        <time>2014-01-30T09:33:19Z</time>
      </trkpt>
      <trkpt lat="45.9557714" lon="7.6665185">
        <ele>2670.4</ele>
        <time>2014-01-30T09:33:20Z</time>
      </trkpt>
      <trkpt lat="45.9557877" lon="7.6665534">
        <ele>2671.6</ele>
        <time>2014-01-30T09:33:21Z</time>
      </trkpt>
      <trkpt lat="45.9558204" lon="7.6665954">
        <ele>2672.6</ele>
        <time>2014-01-30T09:33:22Z</time>
      </trkpt>
      <trkpt lat="45.9558415" lon="7.6666354">
        <ele>2672.6</ele>
        <time>2014-01-30T09:33:23Z</time>
      </trkpt>
      <trkpt lat="45.955871" lon="7.6666915">
        <ele>2674.2</ele>
        <time>2014-01-30T09:33:24Z</time>
      </trkpt>
      <trkpt lat="45.9558882" lon="7.6667229">
        <ele>2675.2</ele>
        <time>2014-01-30T09:33:25Z</time>
      </trkpt>
      <trkpt lat="45.9559212" lon="7.6667817">
        <ele>2676.4</ele>
        <time>2014-01-30T09:33:26Z</time>
      </trkpt>
      <trkpt lat="45.955934" lon="7.6668059">
        <ele>2677.4</ele>
        <time>2014-01-30T09:33:27Z</time>
      </trkpt>
      <trkpt lat="45.9559647" lon="7.6668636">
        <ele>2678.4</ele>
        <time>2014-01-30T09:33:28Z</time>
      </trkpt>
      <trkpt lat="45.9559822" lon="7.6668972">
        <ele>2679.6</ele>
        <time>2014-01-30T09:33:29Z</time>
      </trkpt>
      <trkpt lat="45.9560132" lon="7.666954">
        <ele>2680.8</ele>
        <time>2014-01-30T09:33:30Z</time>
      </trkpt>
      <trkpt lat="45.9560275" lon="7.6669827">
        <ele>2682.2</ele>
        <time>2014-01-30T09:33:31Z</time>
      </trkpt>
      <trkpt lat="45.9560566" lon="7.6670371">
        <ele>2683.8</ele>
        <time>2014-01-30T09:33:32Z</time>
      </trkpt>
      <trkpt lat="45.9560709" lon="7.6670672">
        <ele>2685.4</ele>
        <time>2014-01-30T09:33:33Z</time>
      </trkpt>
      <trkpt lat="45.9560996" lon="7.6671183">
        <ele>2686.8</ele>
        <time>2014-01-30T09:33:34Z</time>
      </trkpt>
      <trkpt lat="45.9561148" lon="7.6671473">
        <ele>2688.2</ele>
        <time>2014-01-30T09:33:35Z</time>
      </trkpt>
      <trkpt lat="45.956144" lon="7.667202">
        <ele>2689.8</ele>
        <time>2014-01-30T09:33:36Z</time>
      </trkpt>
      <trkpt lat="45.9561548" lon="7.6672251">
        <ele>2691.4</ele>
        <time>2014-01-30T09:33:37Z</time>
      </trkpt>
      <trkpt lat="45.9561846" lon="7.6672801">
        <ele>2693.2</ele>
        <time>2014-01-30T09:33:38Z</time>
      </trkpt>
      <trkpt lat="45.956199" lon="7.667308">
        <ele>2694.8</ele>
        <time>2014-01-30T09:33:39Z</time>
      </trkpt>
      <trkpt lat="45.9562272" lon="7.6673627">
        <ele>2696.6</ele>
        <time>2014-01-30T09:33:40Z</time>
      </trkpt>
      <trkpt lat="45.9562389" lon="7.6673888">
        <ele>2698.6</ele>
        <time>2014-01-30T09:33:41Z</time>
      </trkpt>
      <trkpt lat="45.9562659" lon="7.6674416">
        <ele>2700.2</ele>
        <time>2014-01-30T09:33:42Z</time>
      </trkpt>
      <trkpt lat="45.9562793" lon="7.6674706">
        <ele>2702.2</ele>
        <time>2014-01-30T09:33:43Z</time>
      </trkpt>
      <trkpt lat="45.9563065" lon="7.6675214">
        <ele>2703.8</ele>
        <time>2014-01-30T09:33:44Z</time>
      </trkpt>
      <trkpt lat="45.9563188" lon="7.6675485">
        <ele>2706</ele>
        <time>2014-01-30T09:33:45Z</time>
      </trkpt>
      <trkpt lat="45.9563427" lon="7.6675963">
        <ele>2708.2</ele>
        <time>2014-01-30T09:33:46Z</time>
      </trkpt>
      <trkpt lat="45.9563515" lon="7.6676183">
        <ele>2710.6</ele>
        <time>2014-01-30T09:33:47Z</time>
      </trkpt>
      <trkpt lat="45.9563781" lon="7.6676725">
        <ele>2713</ele>
        <time>2014-01-30T09:33:48Z</time>
      </trkpt>
      <trkpt lat="45.9563887" lon="7.6676991">
        <ele>2715.6</ele>
        <time>2014-01-30T09:33:49Z</time>
      </trkpt>
      <trkpt lat="45.9564122" lon="7.667749">
        <ele>2719.2</ele>
        <time>2014-01-30T09:33:50Z</time>
      </trkpt>
      <trkpt lat="45.9564218" lon="7.6677729">
        <ele>2720.6</ele>
        <time>2014-01-30T09:33:51Z</time>
      </trkpt>
      <trkpt lat="45.9564434" lon="7.6678179">
        <ele>2723.2</ele>
        <time>2014-01-30T09:33:52Z</time>
      </trkpt>
      <trkpt lat="45.9564539" lon="7.6678472">
        <ele>2726.2</ele>
        <time>2014-01-30T09:33:53Z</time>
      </trkpt>
      <trkpt lat="45.9564735" lon="7.6678935">
        <ele>2729.2</ele>
        <time>2014-01-30T09:33:54Z</time>
      </trkpt>
      <trkpt lat="45.9564857" lon="7.667923">
        <ele>2731.8</ele>
        <time>2014-01-30T09:33:55Z</time>
      </trkpt>
      <trkpt lat="45.9565086" lon="7.6679671">
        <ele>2734</ele>
        <time>2014-01-30T09:33:56Z</time>
      </trkpt>
      <trkpt lat="45.9565202" lon="7.6679969">
        <ele>2736.2</ele>
        <time>2014-01-30T09:33:57Z</time>
      </trkpt>
      <trkpt lat="45.9565412" lon="7.6680452">
        <ele>2740.4</ele>
        <time>2014-01-30T09:33:58Z</time>
      </trkpt>
      <trkpt lat="45.9565528" lon="7.6680723">
        <ele>2741.6</ele>
        <time>2014-01-30T09:33:59Z</time>
      </trkpt>
      <trkpt lat="45.9565756" lon="7.6681227">
        <ele>2745.2</ele>
        <time>2014-01-30T09:34:00Z</time>
      </trkpt>
      <trkpt lat="45.956585" lon="7.6681495">
        <ele>2747.2</ele>
        <time>2014-01-30T09:34:01Z</time>
      </trkpt>
      <trkpt lat="45.9566055" lon="7.6681979">
        <ele>2751.2</ele>
        <time>2014-01-30T09:34:02Z</time>
      </trkpt>
      <trkpt lat="45.9566158" lon="7.6682255">
        <ele>2752.6</ele>
        <time>2014-01-30T09:34:03Z</time>
      </trkpt>
      <trkpt lat="45.9566382" lon="7.6682725">
        <ele>2756.4</ele>
        <time>2014-01-30T09:34:04Z</time>
      </trkpt>
      <trkpt lat="45.9566493" lon="7.6682984">
        <ele>2757.4</ele>
        <time>2014-01-30T09:34:05Z</time>
      </trkpt>
      <trkpt lat="45.9566728" lon="7.6683495">
        <ele>2761</ele>
        <time>2014-01-30T09:34:06Z</time>
      </trkpt>
      <trkpt lat="45.9566818" lon="7.668373">
        <ele>2762.2</ele>
        <time>2014-01-30T09:34:07Z</time>
      </trkpt>
      <trkpt lat="45.9567054" lon="7.6684248">
        <ele>2766</ele>
        <time>2014-01-30T09:34:08Z</time>
      </trkpt>
      <trkpt lat="45.9567143" lon="7.6684481">
        <ele>2767.6</ele>
        <time>2014-01-30T09:34:09Z</time>
      </trkpt>
      <trkpt lat="45.9567352" lon="7.6684967">
        <ele>2771.6</ele>
        <time>2014-01-30T09:34:10Z</time>
      </trkpt>
      <trkpt lat="45.9567436" lon="7.6685218">
        <ele>2773.4</ele>
        <time>2014-01-30T09:34:11Z</time>
      </trkpt>
      <trkpt lat="45.9567637" lon="7.668562">
        <ele>2774.4</ele>
        <time>2014-01-30T09:34:12Z</time>
      </trkpt>
      <trkpt lat="45.9567722" lon="7.6685919">
        <ele>2779</ele>
        <time>2014-01-30T09:34:13Z</time>
      </trkpt>
      <trkpt lat="45.9567948" lon="7.6686424">
        <ele>2781.6</ele>
        <time>2014-01-30T09:34:14Z</time>
      </trkpt>
      <trkpt lat="45.9568067" lon="7.6686697">
        <ele>2783.8</ele>
        <time>2014-01-30T09:34:15Z</time>
      </trkpt>
      <trkpt lat="45.9568252" lon="7.6687135">
        <ele>2786.8</ele>
        <time>2014-01-30T09:34:16Z</time>
      </trkpt>
      <trkpt lat="45.9568347" lon="7.6687339">
        <ele>2789</ele>
        <time>2014-01-30T09:34:17Z</time>
      </trkpt>
      <trkpt lat="45.9568585" lon="7.6687849">
        <ele>2791.2</ele>
        <time>2014-01-30T09:34:18Z</time>
      </trkpt>
      <trkpt lat="45.956871" lon="7.6688129">
        <ele>2793.6</ele>
        <time>2014-01-30T09:34:19Z</time>
      </trkpt>
      <trkpt lat="45.9568919" lon="7.6688542">
        <ele>2797.4</ele>
        <time>2014-01-30T09:34:20Z</time>
      </trkpt>
      <trkpt lat="45.9569015" lon="7.668858">
        <ele>2798.6</ele>
        <time>2014-01-30T09:34:21Z</time>
      </trkpt>
      <trkpt lat="45.9569189" lon="7.6688824">
        <ele>2800.8</ele>
        <time>2014-01-30T09:34:22Z</time>
      </trkpt>
      <trkpt lat="45.9569306" lon="7.6688873">
        <ele>2802.4</ele>
        <time>2014-01-30T09:34:23Z</time>
      </trkpt>
      <trkpt lat="45.9569502" lon="7.668895">
        <ele>2804.6</ele>
        <time>2014-01-30T09:34:24Z</time>
      </trkpt>
      <trkpt lat="45.9569508" lon="7.6688997">
        <ele>2806.6</ele>
        <time>2014-01-30T09:34:25Z</time>
      </trkpt>
      <trkpt lat="45.95696" lon="7.6688999">
        <ele>2808.6</ele>
        <time>2014-01-30T09:34:26Z</time>
      </trkpt>
      <trkpt lat="45.9569512" lon="7.6689014">
        <ele>2810.6</ele>
        <time>2014-01-30T09:34:27Z</time>
      </trkpt>
      <trkpt lat="45.9569745" lon="7.6689239">
        <ele>2811.8</ele>
        <time>2014-01-30T09:34:28Z</time>
      </trkpt>
      <trkpt lat="45.957017" lon="7.6689796">
        <ele>2813.2</ele>
        <time>2014-01-30T09:34:30Z</time>
      </trkpt>
      <trkpt lat="45.9570161" lon="7.668996">
        <ele>2813.2</ele>
        <time>2014-01-30T09:34:31Z</time>
      </trkpt>
      <trkpt lat="45.957016" lon="7.6690133">
        <ele>2814.8</ele>
        <time>2014-01-30T09:34:32Z</time>
      </trkpt>
      <trkpt lat="45.9570036" lon="7.669012">
        <ele>2816.4</ele>
        <time>2014-01-30T09:34:34Z</time>
      </trkpt>
      <trkpt lat="45.9570188" lon="7.6690506">
        <ele>2817.6</ele>
        <time>2014-01-30T09:34:36Z</time>
      </trkpt>
      <trkpt lat="45.9570299" lon="7.6690811">
        <ele>2818.8</ele>
        <time>2014-01-30T09:34:37Z</time>
      </trkpt>
      <trkpt lat="45.9570507" lon="7.6691136">
        <ele>2820</ele>
        <time>2014-01-30T09:34:38Z</time>
      </trkpt>
      <trkpt lat="45.9570608" lon="7.669131">
        <ele>2821</ele>
        <time>2014-01-30T09:34:39Z</time>
      </trkpt>
      <trkpt lat="45.95708" lon="7.6691597">
        <ele>2822.6</ele>
        <time>2014-01-30T09:34:40Z</time>
      </trkpt>
      <trkpt lat="45.9570831" lon="7.6691702">
        <ele>2824</ele>
        <time>2014-01-30T09:34:41Z</time>
      </trkpt>
      <trkpt lat="45.9570921" lon="7.6691796">
        <ele>2825.2</ele>
        <time>2014-01-30T09:34:42Z</time>
      </trkpt>
      <trkpt lat="45.9570895" lon="7.6691798">
        <ele>2826.2</ele>
        <time>2014-01-30T09:34:43Z</time>
      </trkpt>
      <trkpt lat="45.9570873" lon="7.6691785">
        <ele>2827.4</ele>
        <time>2014-01-30T09:34:44Z</time>
      </trkpt>
      <trkpt lat="45.957081" lon="7.6691807">
        <ele>2827.4</ele>
        <time>2014-01-30T09:34:45Z</time>
      </trkpt>
      <trkpt lat="45.9570737" lon="7.6691868">
        <ele>2829.6</ele>
        <time>2014-01-30T09:34:46Z</time>
      </trkpt>
      <trkpt lat="45.9570672" lon="7.6691935">
        <ele>2830.8</ele>
        <time>2014-01-30T09:34:47Z</time>
      </trkpt>
      <trkpt lat="45.9570579" lon="7.6691992">
        <ele>2832.6</ele>
        <time>2014-01-30T09:34:49Z</time>
      </trkpt>
      <trkpt lat="45.9570537" lon="7.6692032">
        <ele>2833.6</ele>
        <time>2014-01-30T09:34:50Z</time>
      </trkpt>
      <trkpt lat="45.9570482" lon="7.6692123">
        <ele>2835</ele>
        <time>2014-01-30T09:34:52Z</time>
      </trkpt>
      <trkpt lat="45.9570425" lon="7.6692112">
        <ele>2836</ele>
        <time>2014-01-30T09:34:53Z</time>
      </trkpt>
      <trkpt lat="45.9570341" lon="7.6691997">
        <ele>2836</ele>
        <time>2014-01-30T09:34:54Z</time>
      </trkpt>
      <trkpt lat="45.9570377" lon="7.6692074">
        <ele>2837.2</ele>
        <time>2014-01-30T09:34:55Z</time>
      </trkpt>
      <trkpt lat="45.9570289" lon="7.6692025">
        <ele>2838.6</ele>
        <time>2014-01-30T09:34:57Z</time>
      </trkpt>
      <trkpt lat="45.95699" lon="7.6691479">
        <ele>2838.6</ele>
        <time>2014-01-30T09:35:07Z</time>
      </trkpt>
      <trkpt lat="45.9570026" lon="7.6691661">
        <ele>2838.6</ele>
        <time>2014-01-30T09:35:15Z</time>
      </trkpt>
      <trkpt lat="45.9570043" lon="7.6691764">
        <ele>2838.6</ele>
        <time>2014-01-30T09:35:19Z</time>
      </trkpt>
      <trkpt lat="45.9570201" lon="7.6692234">
        <ele>2838.6</ele>
        <time>2014-01-30T09:35:29Z</time>
      </trkpt>
      <trkpt lat="45.9570359" lon="7.669249">
        <ele>2838.6</ele>
        <time>2014-01-30T09:35:35Z</time>
      </trkpt>
      <trkpt lat="45.9570449" lon="7.6692442">
        <ele>2838.6</ele>
        <time>2014-01-30T09:35:37Z</time>
      </trkpt>
      <trkpt lat="45.9570604" lon="7.6692364">
        <ele>2838.6</ele>
        <time>2014-01-30T09:35:39Z</time>
      </trkpt>
      <trkpt lat="45.9571015" lon="7.6692183">
        <ele>2838.6</ele>
        <time>2014-01-30T09:35:43Z</time>
      </trkpt>
      <trkpt lat="45.9571176" lon="7.6692115">
        <ele>2838.6</ele>
        <time>2014-01-30T09:35:44Z</time>
      </trkpt>
      <trkpt lat="45.957182" lon="7.6691713">
        <ele>2841.2</ele>
        <time>2014-01-30T09:35:52Z</time>
      </trkpt>
      <trkpt lat="45.9571953" lon="7.6691585">
        <ele>2841.2</ele>
        <time>2014-01-30T09:35:54Z</time>
      </trkpt>
      <trkpt lat="45.9572133" lon="7.6691375">
        <ele>2841.2</ele>
        <time>2014-01-30T09:35:57Z</time>
      </trkpt>
      <trkpt lat="45.9572274" lon="7.6691293">
        <ele>2841.2</ele>
        <time>2014-01-30T09:35:58Z</time>
      </trkpt>
      <trkpt lat="45.9572599" lon="7.6691116">
        <ele>2841.2</ele>
        <time>2014-01-30T09:36:02Z</time>
      </trkpt>
      <trkpt lat="45.9572922" lon="7.6690968">
        <ele>2841.2</ele>
        <time>2014-01-30T09:36:08Z</time>
      </trkpt>
      <trkpt lat="45.9573454" lon="7.6690815">
        <ele>2841.2</ele>
        <time>2014-01-30T09:36:13Z</time>
      </trkpt>
      <trkpt lat="45.9573989" lon="7.6690592">
        <ele>2841.2</ele>
        <time>2014-01-30T09:36:17Z</time>
      </trkpt>
      <trkpt lat="45.9574407" lon="7.6690356">
        <ele>2841.2</ele>
        <time>2014-01-30T09:36:20Z</time>
      </trkpt>
      <trkpt lat="45.9574698" lon="7.6690215">
        <ele>2841.2</ele>
        <time>2014-01-30T09:36:22Z</time>
      </trkpt>
      <trkpt lat="45.9575059" lon="7.6690025">
        <ele>2841.2</ele>
        <time>2014-01-30T09:36:25Z</time>
      </trkpt>
      <trkpt lat="45.9575303" lon="7.6689872">
        <ele>2841.2</ele>
        <time>2014-01-30T09:36:27Z</time>
      </trkpt>
      <trkpt lat="45.9575909" lon="7.6689343">
        <ele>2841.2</ele>
        <time>2014-01-30T09:36:32Z</time>
      </trkpt>
      <trkpt lat="45.9576005" lon="7.6689294">
        <ele>2841.2</ele>
        <time>2014-01-30T09:36:33Z</time>
      </trkpt>
      <trkpt lat="45.9576312" lon="7.6689058">
        <ele>2841.2</ele>
        <time>2014-01-30T09:36:36Z</time>
      </trkpt>
      <trkpt lat="45.9576485" lon="7.668886">
        <ele>2841.2</ele>
        <time>2014-01-30T09:36:38Z</time>
      </trkpt>
      <trkpt lat="45.9576996" lon="7.6688408">
        <ele>2841.2</ele>
        <time>2014-01-30T09:36:46Z</time>
      </trkpt>
      <trkpt lat="45.957703" lon="7.6688332">
        <ele>2841.2</ele>
        <time>2014-01-30T09:36:47Z</time>
      </trkpt>
      <trkpt lat="45.9577632" lon="7.6687599">
        <ele>2838.2</ele>
        <time>2014-01-30T09:36:52Z</time>
      </trkpt>
      <trkpt lat="45.957808" lon="7.6686969">
        <ele>2837</ele>
        <time>2014-01-30T09:36:54Z</time>
      </trkpt>
      <trkpt lat="45.9578649" lon="7.6685999">
        <ele>2835.6</ele>
        <time>2014-01-30T09:36:56Z</time>
      </trkpt>
      <trkpt lat="45.9578966" lon="7.668577">
        <ele>2833.8</ele>
        <time>2014-01-30T09:36:57Z</time>
      </trkpt>
      <trkpt lat="45.9579474" lon="7.6684971">
        <ele>2832.4</ele>
        <time>2014-01-30T09:36:58Z</time>
      </trkpt>
      <trkpt lat="45.9579466" lon="7.6684279">
        <ele>2831.2</ele>
        <time>2014-01-30T09:36:59Z</time>
      </trkpt>
      <trkpt lat="45.9579991" lon="7.6683625">
        <ele>2827.6</ele>
        <time>2014-01-30T09:37:00Z</time>
      </trkpt>
      <trkpt lat="45.9580504" lon="7.6683223">
        <ele>2824.6</ele>
        <time>2014-01-30T09:37:01Z</time>
      </trkpt>
      <trkpt lat="45.9580747" lon="7.6682202">
        <ele>2823.2</ele>
        <time>2014-01-30T09:37:02Z</time>
      </trkpt>
      <trkpt lat="45.9581224" lon="7.6681641">
        <ele>2820</ele>
        <time>2014-01-30T09:37:03Z</time>
      </trkpt>
      <trkpt lat="45.9582089" lon="7.6681477">
        <ele>2816.4</ele>
        <time>2014-01-30T09:37:04Z</time>
      </trkpt>
      <trkpt lat="45.9582359" lon="7.6680545">
        <ele>2815</ele>
        <time>2014-01-30T09:37:05Z</time>
      </trkpt>
      <trkpt lat="45.9582431" lon="7.6679399">
        <ele>2811.4</ele>
        <time>2014-01-30T09:37:06Z</time>
      </trkpt>
      <trkpt lat="45.9582855" lon="7.6679053">
        <ele>2807.2</ele>
        <time>2014-01-30T09:37:07Z</time>
      </trkpt>
      <trkpt lat="45.9583752" lon="7.6678209">
        <ele>2802</ele>
        <time>2014-01-30T09:37:08Z</time>
      </trkpt>
      <trkpt lat="45.9583792" lon="7.6677298">
        <ele>2800.6</ele>
        <time>2014-01-30T09:37:09Z</time>
      </trkpt>
      <trkpt lat="45.9583754" lon="7.6676281">
        <ele>2797.4</ele>
        <time>2014-01-30T09:37:10Z</time>
      </trkpt>
      <trkpt lat="45.9584151" lon="7.6675513">
        <ele>2794.8</ele>
        <time>2014-01-30T09:37:11Z</time>
      </trkpt>
      <trkpt lat="45.9584939" lon="7.6675052">
        <ele>2789.6</ele>
        <time>2014-01-30T09:37:12Z</time>
      </trkpt>
      <trkpt lat="45.958551" lon="7.6674584">
        <ele>2786.2</ele>
        <time>2014-01-30T09:37:13Z</time>
      </trkpt>
      <trkpt lat="45.9585585" lon="7.6673429">
        <ele>2781.8</ele>
        <time>2014-01-30T09:37:14Z</time>
      </trkpt>
      <trkpt lat="45.9585357" lon="7.6672769">
        <ele>2780.2</ele>
        <time>2014-01-30T09:37:15Z</time>
      </trkpt>
      <trkpt lat="45.958517" lon="7.6672032">
        <ele>2776</ele>
        <time>2014-01-30T09:37:16Z</time>
      </trkpt>
      <trkpt lat="45.9585547" lon="7.6671618">
        <ele>2774.6</ele>
        <time>2014-01-30T09:37:17Z</time>
      </trkpt>
      <trkpt lat="45.9586174" lon="7.6670885">
        <ele>2768.6</ele>
        <time>2014-01-30T09:37:18Z</time>
      </trkpt>
      <trkpt lat="45.9585986" lon="7.6670072">
        <ele>2767.4</ele>
        <time>2014-01-30T09:37:19Z</time>
      </trkpt>
      <trkpt lat="45.9585592" lon="7.6669359">
        <ele>2763.2</ele>
        <time>2014-01-30T09:37:20Z</time>
      </trkpt>
      <trkpt lat="45.9585434" lon="7.6668635">
        <ele>2758.8</ele>
        <time>2014-01-30T09:37:22Z</time>
      </trkpt>
      <trkpt lat="45.9585855" lon="7.6668225">
        <ele>2757.2</ele>
        <time>2014-01-30T09:37:23Z</time>
      </trkpt>
      <trkpt lat="45.9585949" lon="7.6667384">
        <ele>2753.4</ele>
        <time>2014-01-30T09:37:24Z</time>
      </trkpt>
      <trkpt lat="45.9585649" lon="7.6667252">
        <ele>2753.4</ele>
        <time>2014-01-30T09:37:25Z</time>
      </trkpt>
      <trkpt lat="45.9585596" lon="7.6666983">
        <ele>2753.4</ele>
        <time>2014-01-30T09:37:28Z</time>
      </trkpt>
      <trkpt lat="45.9585575" lon="7.6667015">
        <ele>2753.4</ele>
        <time>2014-01-30T09:37:38Z</time>
      </trkpt>
      <trkpt lat="45.958557" lon="7.6667048">
        <ele>2753.4</ele>
        <time>2014-01-30T09:37:56Z</time>
      </trkpt>
      <trkpt lat="45.9585539" lon="7.6667044">
        <ele>2753.4</ele>
        <time>2014-01-30T09:38:09Z</time>
      </trkpt>
      <trkpt lat="45.9585258" lon="7.6666842">
        <ele>2753.4</ele>
        <time>2014-01-30T09:38:18Z</time>
      </trkpt>
      <trkpt lat="45.958485" lon="7.6666265">
        <ele>2751.4</ele>
        <time>2014-01-30T09:38:26Z</time>
      </trkpt>
      <trkpt lat="45.9584742" lon="7.6665996">
        <ele>2749.6</ele>
        <time>2014-01-30T09:38:27Z</time>
      </trkpt>
      <trkpt lat="45.9585011" lon="7.6665475">
        <ele>2746.6</ele>
        <time>2014-01-30T09:38:28Z</time>
      </trkpt>
      <trkpt lat="45.9585078" lon="7.6664884">
        <ele>2746.6</ele>
        <time>2014-01-30T09:38:29Z</time>
      </trkpt>
      <trkpt lat="45.958497" lon="7.666382">
        <ele>2744.2</ele>
        <time>2014-01-30T09:38:31Z</time>
      </trkpt>
      <trkpt lat="45.9585249" lon="7.6663121">
        <ele>2743</ele>
        <time>2014-01-30T09:38:32Z</time>
      </trkpt>
      <trkpt lat="45.9584988" lon="7.666239">
        <ele>2741.6</ele>
        <time>2014-01-30T09:38:33Z</time>
      </trkpt>
      <trkpt lat="45.9584625" lon="7.6662007">
        <ele>2739</ele>
        <time>2014-01-30T09:38:34Z</time>
      </trkpt>
      <trkpt lat="45.9584872" lon="7.6661684">
        <ele>2737.4</ele>
        <time>2014-01-30T09:38:35Z</time>
      </trkpt>
      <trkpt lat="45.958526" lon="7.6661162">
        <ele>2734</ele>
        <time>2014-01-30T09:38:36Z</time>
      </trkpt>
      <trkpt lat="45.9585432" lon="7.6660618">
        <ele>2731.2</ele>
        <time>2014-01-30T09:38:37Z</time>
      </trkpt>
      <trkpt lat="45.9585295" lon="7.6659802">
        <ele>2727.4</ele>
        <time>2014-01-30T09:38:38Z</time>
      </trkpt>
      <trkpt lat="45.9585332" lon="7.665946">
        <ele>2725.8</ele>
        <time>2014-01-30T09:38:39Z</time>
      </trkpt>
      <trkpt lat="45.9585733" lon="7.6658974">
        <ele>2722.6</ele>
        <time>2014-01-30T09:38:40Z</time>
      </trkpt>
      <trkpt lat="45.9585784" lon="7.66584">
        <ele>2720.8</ele>
        <time>2014-01-30T09:38:41Z</time>
      </trkpt>
      <trkpt lat="45.958579" lon="7.6657973">
        <ele>2716.4</ele>
        <time>2014-01-30T09:38:42Z</time>
      </trkpt>
      <trkpt lat="45.9585787" lon="7.6657952">
        <ele>2714.8</ele>
        <time>2014-01-30T09:38:43Z</time>
      </trkpt>
      <trkpt lat="45.9585815" lon="7.6658122">
        <ele>2714.8</ele>
        <time>2014-01-30T09:38:44Z</time>
      </trkpt>
      <trkpt lat="45.958557" lon="7.6658082">
        <ele>2714.8</ele>
        <time>2014-01-30T09:38:49Z</time>
      </trkpt>
      <trkpt lat="45.9585468" lon="7.6658169">
        <ele>2714.8</ele>
        <time>2014-01-30T09:38:55Z</time>
      </trkpt>
      <trkpt lat="45.9585393" lon="7.6658217">
        <ele>2714.8</ele>
        <time>2014-01-30T09:39:00Z</time>
      </trkpt>
      <trkpt lat="45.9585413" lon="7.6658192">
        <ele>2713.6</ele>
        <time>2014-01-30T09:39:02Z</time>
      </trkpt>
      <trkpt lat="45.9585358" lon="7.6658048">
        <ele>2713.6</ele>
        <time>2014-01-30T09:39:04Z</time>
      </trkpt>
      <trkpt lat="45.958525" lon="7.6657986">
        <ele>2713.6</ele>
        <time>2014-01-30T09:39:05Z</time>
      </trkpt>
      <trkpt lat="45.9585052" lon="7.6657917">
        <ele>2712.6</ele>
        <time>2014-01-30T09:39:06Z</time>
      </trkpt>
      <trkpt lat="45.9585047" lon="7.6657949">
        <ele>2712.6</ele>
        <time>2014-01-30T09:39:09Z</time>
      </trkpt>
      <trkpt lat="45.9585063" lon="7.6657991">
        <ele>2711.6</ele>
        <time>2014-01-30T09:39:14Z</time>
      </trkpt>
      <trkpt lat="45.9585112" lon="7.6657284">
        <ele>2711.6</ele>
        <time>2014-01-30T09:39:17Z</time>
      </trkpt>
      <trkpt lat="45.9585456" lon="7.6656648">
        <ele>2707.6</ele>
        <time>2014-01-30T09:39:18Z</time>
      </trkpt>
      <trkpt lat="45.9585451" lon="7.6656151">
        <ele>2706.6</ele>
        <time>2014-01-30T09:39:19Z</time>
      </trkpt>
      <trkpt lat="45.9585202" lon="7.6655726">
        <ele>2705</ele>
        <time>2014-01-30T09:39:20Z</time>
      </trkpt>
      <trkpt lat="45.9585402" lon="7.6655278">
        <ele>2703.8</ele>
        <time>2014-01-30T09:39:22Z</time>
      </trkpt>
      <trkpt lat="45.9585482" lon="7.6655165">
        <ele>2703.8</ele>
        <time>2014-01-30T09:39:23Z</time>
      </trkpt>
      <trkpt lat="45.9585646" lon="7.6655036">
        <ele>2702.6</ele>
        <time>2014-01-30T09:39:25Z</time>
      </trkpt>
      <trkpt lat="45.9585841" lon="7.6654182">
        <ele>2700.2</ele>
        <time>2014-01-30T09:39:28Z</time>
      </trkpt>
      <trkpt lat="45.9585746" lon="7.6653748">
        <ele>2698.8</ele>
        <time>2014-01-30T09:39:29Z</time>
      </trkpt>
      <trkpt lat="45.9585552" lon="7.6653091">
        <ele>2697.2</ele>
        <time>2014-01-30T09:39:30Z</time>
      </trkpt>
      <trkpt lat="45.9585698" lon="7.6652531">
        <ele>2695.6</ele>
        <time>2014-01-30T09:39:31Z</time>
      </trkpt>
      <trkpt lat="45.9585569" lon="7.6651639">
        <ele>2691.6</ele>
        <time>2014-01-30T09:39:32Z</time>
      </trkpt>
      <trkpt lat="45.9585542" lon="7.6650945">
        <ele>2690.2</ele>
        <time>2014-01-30T09:39:33Z</time>
      </trkpt>
      <trkpt lat="45.9585225" lon="7.6649987">
        <ele>2687.4</ele>
        <time>2014-01-30T09:39:34Z</time>
      </trkpt>
      <trkpt lat="45.9585292" lon="7.6649247">
        <ele>2685.2</ele>
        <time>2014-01-30T09:39:35Z</time>
      </trkpt>
      <trkpt lat="45.9585135" lon="7.6648066">
        <ele>2682.8</ele>
        <time>2014-01-30T09:39:36Z</time>
      </trkpt>
      <trkpt lat="45.958508" lon="7.6647418">
        <ele>2679</ele>
        <time>2014-01-30T09:39:37Z</time>
      </trkpt>
      <trkpt lat="45.9584786" lon="7.664601">
        <ele>2674.2</ele>
        <time>2014-01-30T09:39:38Z</time>
      </trkpt>
      <trkpt lat="45.9584942" lon="7.6645299">
        <ele>2671.2</ele>
        <time>2014-01-30T09:39:39Z</time>
      </trkpt>
      <trkpt lat="45.9584706" lon="7.6644061">
        <ele>2667.4</ele>
        <time>2014-01-30T09:39:40Z</time>
      </trkpt>
      <trkpt lat="45.9584168" lon="7.6643714">
        <ele>2665.8</ele>
        <time>2014-01-30T09:39:41Z</time>
      </trkpt>
      <trkpt lat="45.9583752" lon="7.6642769">
        <ele>2663.4</ele>
        <time>2014-01-30T09:39:42Z</time>
      </trkpt>
      <trkpt lat="45.9583854" lon="7.6642262">
        <ele>2661.6</ele>
        <time>2014-01-30T09:39:43Z</time>
      </trkpt>
      <trkpt lat="45.9584083" lon="7.6641118">
        <ele>2656.8</ele>
        <time>2014-01-30T09:39:44Z</time>
      </trkpt>
      <trkpt lat="45.9583745" lon="7.6640576">
        <ele>2653.8</ele>
        <time>2014-01-30T09:39:45Z</time>
      </trkpt>
      <trkpt lat="45.9583042" lon="7.6640095">
        <ele>2652.2</ele>
        <time>2014-01-30T09:39:46Z</time>
      </trkpt>
      <trkpt lat="45.9582669" lon="7.6639995">
        <ele>2650.8</ele>
        <time>2014-01-30T09:39:47Z</time>
      </trkpt>
      <trkpt lat="45.9582019" lon="7.6639268">
        <ele>2648.4</ele>
        <time>2014-01-30T09:39:48Z</time>
      </trkpt>
      <trkpt lat="45.9581879" lon="7.6638712">
        <ele>2645.4</ele>
        <time>2014-01-30T09:39:49Z</time>
      </trkpt>
      <trkpt lat="45.9581815" lon="7.6637483">
        <ele>2643</ele>
        <time>2014-01-30T09:39:50Z</time>
      </trkpt>
      <trkpt lat="45.9581582" lon="7.6636769">
        <ele>2641.4</ele>
        <time>2014-01-30T09:39:51Z</time>
      </trkpt>
      <trkpt lat="45.9581572" lon="7.6635562">
        <ele>2638.8</ele>
        <time>2014-01-30T09:39:52Z</time>
      </trkpt>
      <trkpt lat="45.958148" lon="7.6634905">
        <ele>2637.6</ele>
        <time>2014-01-30T09:39:53Z</time>
      </trkpt>
      <trkpt lat="45.9581208" lon="7.6634833">
        <ele>2636.6</ele>
        <time>2014-01-30T09:39:54Z</time>
      </trkpt>
      <trkpt lat="45.9581372" lon="7.6634904">
        <ele>2636.6</ele>
        <time>2014-01-30T09:39:55Z</time>
      </trkpt>
      <trkpt lat="45.9581322" lon="7.6634984">
        <ele>2636.6</ele>
        <time>2014-01-30T09:40:03Z</time>
      </trkpt>
      <trkpt lat="45.9581451" lon="7.6635185">
        <ele>2636.6</ele>
        <time>2014-01-30T09:40:21Z</time>
      </trkpt>
      <trkpt lat="45.9581126" lon="7.6635438">
        <ele>2636.6</ele>
        <time>2014-01-30T09:40:29Z</time>
      </trkpt>
      <trkpt lat="45.9580452" lon="7.6635378">
        <ele>2635.6</ele>
        <time>2014-01-30T09:40:33Z</time>
      </trkpt>
      <trkpt lat="45.9580285" lon="7.6634937">
        <ele>2635.6</ele>
        <time>2014-01-30T09:40:34Z</time>
      </trkpt>
      <trkpt lat="45.9580069" lon="7.6634995">
        <ele>2634.4</ele>
        <time>2014-01-30T09:40:35Z</time>
      </trkpt>
      <trkpt lat="45.9579726" lon="7.6635091">
        <ele>2634.4</ele>
        <time>2014-01-30T09:40:37Z</time>
      </trkpt>
      <trkpt lat="45.9579332" lon="7.6634903">
        <ele>2633.2</ele>
        <time>2014-01-30T09:40:38Z</time>
      </trkpt>
      <trkpt lat="45.9578437" lon="7.6634478">
        <ele>2632.2</ele>
        <time>2014-01-30T09:40:40Z</time>
      </trkpt>
      <trkpt lat="45.9578031" lon="7.6634278">
        <ele>2630.8</ele>
        <time>2014-01-30T09:40:41Z</time>
      </trkpt>
      <trkpt lat="45.9577304" lon="7.6634114">
        <ele>2629.6</ele>
        <time>2014-01-30T09:40:42Z</time>
      </trkpt>
      <trkpt lat="45.9576313" lon="7.6634146">
        <ele>2628.4</ele>
        <time>2014-01-30T09:40:44Z</time>
      </trkpt>
      <trkpt lat="45.9575413" lon="7.6634239">
        <ele>2627</ele>
        <time>2014-01-30T09:40:46Z</time>
      </trkpt>
      <trkpt lat="45.9575192" lon="7.6634364">
        <ele>2627</ele>
        <time>2014-01-30T09:40:47Z</time>
      </trkpt>
      <trkpt lat="45.9574507" lon="7.6634365">
        <ele>2625.8</ele>
        <time>2014-01-30T09:40:48Z</time>
      </trkpt>
      <trkpt lat="45.9573635" lon="7.6634622">
        <ele>2624.2</ele>
        <time>2014-01-30T09:40:50Z</time>
      </trkpt>
      <trkpt lat="45.9573258" lon="7.6634732">
        <ele>2622.6</ele>
        <time>2014-01-30T09:40:51Z</time>
      </trkpt>
      <trkpt lat="45.9572347" lon="7.6634927">
        <ele>2622.6</ele>
        <time>2014-01-30T09:40:53Z</time>
      </trkpt>
      <trkpt lat="45.9571804" lon="7.6635182">
        <ele>2621.4</ele>
        <time>2014-01-30T09:40:54Z</time>
      </trkpt>
      <trkpt lat="45.9571475" lon="7.6635325">
        <ele>2620.4</ele>
        <time>2014-01-30T09:40:55Z</time>
      </trkpt>
      <trkpt lat="45.9570724" lon="7.6635597">
        <ele>2618.8</ele>
        <time>2014-01-30T09:40:56Z</time>
      </trkpt>
      <trkpt lat="45.957046" lon="7.6635879">
        <ele>2617.6</ele>
        <time>2014-01-30T09:40:57Z</time>
      </trkpt>
      <trkpt lat="45.9569618" lon="7.6635925">
        <ele>2614</ele>
        <time>2014-01-30T09:40:58Z</time>
      </trkpt>
      <trkpt lat="45.9569117" lon="7.6636177">
        <ele>2614</ele>
        <time>2014-01-30T09:40:59Z</time>
      </trkpt>
      <trkpt lat="45.9568286" lon="7.6636148">
        <ele>2609</ele>
        <time>2014-01-30T09:41:00Z</time>
      </trkpt>
      <trkpt lat="45.9567808" lon="7.6636264">
        <ele>2607.6</ele>
        <time>2014-01-30T09:41:01Z</time>
      </trkpt>
      <trkpt lat="45.9567003" lon="7.6636301">
        <ele>2606</ele>
        <time>2014-01-30T09:41:02Z</time>
      </trkpt>
      <trkpt lat="45.9565723" lon="7.6636079">
        <ele>2605</ele>
        <time>2014-01-30T09:41:04Z</time>
      </trkpt>
      <trkpt lat="45.9565259" lon="7.6635636">
        <ele>2603.2</ele>
        <time>2014-01-30T09:41:05Z</time>
      </trkpt>
      <trkpt lat="45.9564392" lon="7.6635366">
        <ele>2602</ele>
        <time>2014-01-30T09:41:06Z</time>
      </trkpt>
      <trkpt lat="45.9563268" lon="7.6634245">
        <ele>2598.6</ele>
        <time>2014-01-30T09:41:08Z</time>
      </trkpt>
      <trkpt lat="45.9562823" lon="7.6634209">
        <ele>2597.6</ele>
        <time>2014-01-30T09:41:09Z</time>
      </trkpt>
      <trkpt lat="45.9562184" lon="7.6633377">
        <ele>2595.2</ele>
        <time>2014-01-30T09:41:10Z</time>
      </trkpt>
      <trkpt lat="45.9561129" lon="7.6632183">
        <ele>2594</ele>
        <time>2014-01-30T09:41:12Z</time>
      </trkpt>
      <trkpt lat="45.9560843" lon="7.663141">
        <ele>2592.2</ele>
        <time>2014-01-30T09:41:13Z</time>
      </trkpt>
      <trkpt lat="45.9560386" lon="7.6630298">
        <ele>2589.4</ele>
        <time>2014-01-30T09:41:14Z</time>
      </trkpt>
      <trkpt lat="45.956008" lon="7.6629773">
        <ele>2588.4</ele>
        <time>2014-01-30T09:41:15Z</time>
      </trkpt>
      <trkpt lat="45.9559744" lon="7.6628368">
        <ele>2586</ele>
        <time>2014-01-30T09:41:16Z</time>
      </trkpt>
      <trkpt lat="45.9559431" lon="7.6627872">
        <ele>2584.4</ele>
        <time>2014-01-30T09:41:17Z</time>
      </trkpt>
      <trkpt lat="45.9559078" lon="7.6626402">
        <ele>2583</ele>
        <time>2014-01-30T09:41:18Z</time>
      </trkpt>
      <trkpt lat="45.9558658" lon="7.6625936">
        <ele>2581.8</ele>
        <time>2014-01-30T09:41:19Z</time>
      </trkpt>
      <trkpt lat="45.955836" lon="7.6624871">
        <ele>2580.6</ele>
        <time>2014-01-30T09:41:20Z</time>
      </trkpt>
      <trkpt lat="45.9558082" lon="7.6624387">
        <ele>2579.2</ele>
        <time>2014-01-30T09:41:21Z</time>
      </trkpt>
      <trkpt lat="45.9557755" lon="7.6623544">
        <ele>2576</ele>
        <time>2014-01-30T09:41:22Z</time>
      </trkpt>
      <trkpt lat="45.955782" lon="7.6622717">
        <ele>2574.2</ele>
        <time>2014-01-30T09:41:23Z</time>
      </trkpt>
      <trkpt lat="45.955744" lon="7.6621783">
        <ele>2573</ele>
        <time>2014-01-30T09:41:24Z</time>
      </trkpt>
      <trkpt lat="45.9557414" lon="7.6621115">
        <ele>2569.8</ele>
        <time>2014-01-30T09:41:25Z</time>
      </trkpt>
      <trkpt lat="45.9557201" lon="7.661984">
        <ele>2566.8</ele>
        <time>2014-01-30T09:41:26Z</time>
      </trkpt>
      <trkpt lat="45.9557058" lon="7.6619279">
        <ele>2565.8</ele>
        <time>2014-01-30T09:41:27Z</time>
      </trkpt>
      <trkpt lat="45.9557196" lon="7.6617001">
        <ele>2562.4</ele>
        <time>2014-01-30T09:41:29Z</time>
      </trkpt>
      <trkpt lat="45.9557214" lon="7.6615315">
        <ele>2555.8</ele>
        <time>2014-01-30T09:41:30Z</time>
      </trkpt>
      <trkpt lat="45.9557434" lon="7.6614201">
        <ele>2554.6</ele>
        <time>2014-01-30T09:41:31Z</time>
      </trkpt>
      <trkpt lat="45.9557686" lon="7.6612079">
        <ele>2548.2</ele>
        <time>2014-01-30T09:41:32Z</time>
      </trkpt>
      <trkpt lat="45.9557923" lon="7.6610779">
        <ele>2547</ele>
        <time>2014-01-30T09:41:33Z</time>
      </trkpt>
      <trkpt lat="45.9558346" lon="7.6608709">
        <ele>2544.4</ele>
        <time>2014-01-30T09:41:34Z</time>
      </trkpt>
      <trkpt lat="45.9558966" lon="7.660563">
        <ele>2544.4</ele>
        <time>2014-01-30T09:41:36Z</time>
      </trkpt>
      <trkpt lat="45.9558986" lon="7.6603177">
        <ele>2542.6</ele>
        <time>2014-01-30T09:41:38Z</time>
      </trkpt>
      <trkpt lat="45.9558792" lon="7.6603076">
        <ele>2542.6</ele>
        <time>2014-01-30T09:41:39Z</time>
      </trkpt>
      <trkpt lat="45.9558571" lon="7.66028">
        <ele>2541.4</ele>
        <time>2014-01-30T09:41:40Z</time>
      </trkpt>
      <trkpt lat="45.9558257" lon="7.6602579">
        <ele>2541.4</ele>
        <time>2014-01-30T09:41:42Z</time>
      </trkpt>
      <trkpt lat="45.9558213" lon="7.660259">
        <ele>2541.4</ele>
        <time>2014-01-30T09:41:47Z</time>
      </trkpt>
      <trkpt lat="45.9558245" lon="7.660261">
        <ele>2540.4</ele>
        <time>2014-01-30T09:41:50Z</time>
      </trkpt>
      <trkpt lat="45.9558292" lon="7.6602671">
        <ele>2540.4</ele>
        <time>2014-01-30T09:41:59Z</time>
      </trkpt>
      <trkpt lat="45.9558369" lon="7.6602763">
        <ele>2539.4</ele>
        <time>2014-01-30T09:42:11Z</time>
      </trkpt>
      <trkpt lat="45.9558404" lon="7.6602799">
        <ele>2539.4</ele>
        <time>2014-01-30T09:42:16Z</time>
      </trkpt>
      <trkpt lat="45.9558379" lon="7.6602494">
        <ele>2539.4</ele>
        <time>2014-01-30T09:42:21Z</time>
      </trkpt>
      <trkpt lat="45.9558307" lon="7.6602097">
        <ele>2539.4</ele>
        <time>2014-01-30T09:42:22Z</time>
      </trkpt>
      <trkpt lat="45.955791" lon="7.6600816">
        <ele>2537.2</ele>
        <time>2014-01-30T09:42:24Z</time>
      </trkpt>
      <trkpt lat="45.9557546" lon="7.6600152">
        <ele>2536</ele>
        <time>2014-01-30T09:42:25Z</time>
      </trkpt>
      <trkpt lat="45.9556889" lon="7.6599209">
        <ele>2535</ele>
        <time>2014-01-30T09:42:26Z</time>
      </trkpt>
      <trkpt lat="45.9556411" lon="7.6598718">
        <ele>2533.8</ele>
        <time>2014-01-30T09:42:27Z</time>
      </trkpt>
      <trkpt lat="45.9555298" lon="7.659758">
        <ele>2525.8</ele>
        <time>2014-01-30T09:42:28Z</time>
      </trkpt>
      <trkpt lat="45.9554322" lon="7.6596622">
        <ele>2522.2</ele>
        <time>2014-01-30T09:42:29Z</time>
      </trkpt>
      <trkpt lat="45.9552082" lon="7.6594879">
        <ele>2521</ele>
        <time>2014-01-30T09:42:31Z</time>
      </trkpt>
      <trkpt lat="45.9550736" lon="7.6593853">
        <ele>2518.8</ele>
        <time>2014-01-30T09:42:32Z</time>
      </trkpt>
      <trkpt lat="45.9549707" lon="7.659313">
        <ele>2517</ele>
        <time>2014-01-30T09:42:33Z</time>
      </trkpt>
      <trkpt lat="45.9548154" lon="7.6592143">
        <ele>2515.4</ele>
        <time>2014-01-30T09:42:34Z</time>
      </trkpt>
      <trkpt lat="45.9547217" lon="7.6591556">
        <ele>2512.8</ele>
        <time>2014-01-30T09:42:35Z</time>
      </trkpt>
      <trkpt lat="45.9545502" lon="7.659045">
        <ele>2507.6</ele>
        <time>2014-01-30T09:42:36Z</time>
      </trkpt>
      <trkpt lat="45.9544689" lon="7.6589983">
        <ele>2506.4</ele>
        <time>2014-01-30T09:42:37Z</time>
      </trkpt>
      <trkpt lat="45.9542891" lon="7.6589038">
        <ele>2503.6</ele>
        <time>2014-01-30T09:42:38Z</time>
      </trkpt>
      <trkpt lat="45.9540589" lon="7.6587883">
        <ele>2500.6</ele>
        <time>2014-01-30T09:42:40Z</time>
      </trkpt>
      <trkpt lat="45.9539592" lon="7.6587602">
        <ele>2498.8</ele>
        <time>2014-01-30T09:42:41Z</time>
      </trkpt>
      <trkpt lat="45.9537808" lon="7.6587056">
        <ele>2493.8</ele>
        <time>2014-01-30T09:42:42Z</time>
      </trkpt>
      <trkpt lat="45.9536809" lon="7.6586463">
        <ele>2491</ele>
        <time>2014-01-30T09:42:43Z</time>
      </trkpt>
      <trkpt lat="45.9535172" lon="7.6585185">
        <ele>2486.8</ele>
        <time>2014-01-30T09:42:44Z</time>
      </trkpt>
      <trkpt lat="45.9533333" lon="7.6582876">
        <ele>2483.6</ele>
        <time>2014-01-30T09:42:46Z</time>
      </trkpt>
      <trkpt lat="45.9532743" lon="7.658219">
        <ele>2483.6</ele>
        <time>2014-01-30T09:42:47Z</time>
      </trkpt>
      <trkpt lat="45.9531547" lon="7.6580836">
        <ele>2482.6</ele>
        <time>2014-01-30T09:42:48Z</time>
      </trkpt>
      <trkpt lat="45.9529895" lon="7.6579403">
        <ele>2482.6</ele>
        <time>2014-01-30T09:42:50Z</time>
      </trkpt>
      <trkpt lat="45.9527195" lon="7.6577825">
        <ele>2482.6</ele>
        <time>2014-01-30T09:42:54Z</time>
      </trkpt>
      <trkpt lat="45.9525598" lon="7.6576883">
        <ele>2481.2</ele>
        <time>2014-01-30T09:42:57Z</time>
      </trkpt>
      <trkpt lat="45.9524677" lon="7.6576299">
        <ele>2480.2</ele>
        <time>2014-01-30T09:42:58Z</time>
      </trkpt>
      <trkpt lat="45.9523989" lon="7.6575927">
        <ele>2479</ele>
        <time>2014-01-30T09:42:59Z</time>
      </trkpt>
      <trkpt lat="45.9522901" lon="7.657531">
        <ele>2478</ele>
        <time>2014-01-30T09:43:00Z</time>
      </trkpt>
      <trkpt lat="45.9522309" lon="7.6574971">
        <ele>2477</ele>
        <time>2014-01-30T09:43:01Z</time>
      </trkpt>
      <trkpt lat="45.9521093" lon="7.6574187">
        <ele>2475.6</ele>
        <time>2014-01-30T09:43:02Z</time>
      </trkpt>
      <trkpt lat="45.9520323" lon="7.6573539">
        <ele>2474.2</ele>
        <time>2014-01-30T09:43:03Z</time>
      </trkpt>
      <trkpt lat="45.9519197" lon="7.6572431">
        <ele>2472.6</ele>
        <time>2014-01-30T09:43:04Z</time>
      </trkpt>
      <trkpt lat="45.9518561" lon="7.6571686">
        <ele>2471.2</ele>
        <time>2014-01-30T09:43:05Z</time>
      </trkpt>
      <trkpt lat="45.9517494" lon="7.6570344">
        <ele>2469.8</ele>
        <time>2014-01-30T09:43:06Z</time>
      </trkpt>
      <trkpt lat="45.9517024" lon="7.6569679">
        <ele>2468.4</ele>
        <time>2014-01-30T09:43:07Z</time>
      </trkpt>
      <trkpt lat="45.9515913" lon="7.6568235">
        <ele>2467.2</ele>
        <time>2014-01-30T09:43:08Z</time>
      </trkpt>
      <trkpt lat="45.951534" lon="7.6567644">
        <ele>2466</ele>
        <time>2014-01-30T09:43:09Z</time>
      </trkpt>
      <trkpt lat="45.9514615" lon="7.6566257">
        <ele>2465</ele>
        <time>2014-01-30T09:43:10Z</time>
      </trkpt>
      <trkpt lat="45.9514205" lon="7.6565547">
        <ele>2465</ele>
        <time>2014-01-30T09:43:11Z</time>
      </trkpt>
      <trkpt lat="45.9513562" lon="7.6564621">
        <ele>2463</ele>
        <time>2014-01-30T09:43:12Z</time>
      </trkpt>
      <trkpt lat="45.9513462" lon="7.6563889">
        <ele>2461.8</ele>
        <time>2014-01-30T09:43:13Z</time>
      </trkpt>
      <trkpt lat="45.9513024" lon="7.656317">
        <ele>2460.8</ele>
        <time>2014-01-30T09:43:14Z</time>
      </trkpt>
      <trkpt lat="45.951289" lon="7.6562784">
        <ele>2459.8</ele>
        <time>2014-01-30T09:43:15Z</time>
      </trkpt>
      <trkpt lat="45.9512774" lon="7.6561887">
        <ele>2458.8</ele>
        <time>2014-01-30T09:43:16Z</time>
      </trkpt>
      <trkpt lat="45.9512546" lon="7.6561678">
        <ele>2458.8</ele>
        <time>2014-01-30T09:43:17Z</time>
      </trkpt>
      <trkpt lat="45.9512257" lon="7.6561076">
        <ele>2457</ele>
        <time>2014-01-30T09:43:18Z</time>
      </trkpt>
      <trkpt lat="45.9512418" lon="7.6560736">
        <ele>2457</ele>
        <time>2014-01-30T09:43:20Z</time>
      </trkpt>
      <trkpt lat="45.9512303" lon="7.6560568">
        <ele>2457</ele>
        <time>2014-01-30T09:43:25Z</time>
      </trkpt>
      <trkpt lat="45.9512054" lon="7.65598">
        <ele>2454.8</ele>
        <time>2014-01-30T09:43:30Z</time>
      </trkpt>
      <trkpt lat="45.9511818" lon="7.6559388">
        <ele>2453.6</ele>
        <time>2014-01-30T09:43:31Z</time>
      </trkpt>
      <trkpt lat="45.9511205" lon="7.6558698">
        <ele>2452.6</ele>
        <time>2014-01-30T09:43:32Z</time>
      </trkpt>
      <trkpt lat="45.9510929" lon="7.6558027">
        <ele>2450.8</ele>
        <time>2014-01-30T09:43:33Z</time>
      </trkpt>
      <trkpt lat="45.9510435" lon="7.6556621">
        <ele>2446.8</ele>
        <time>2014-01-30T09:43:34Z</time>
      </trkpt>
      <trkpt lat="45.9509889" lon="7.6556026">
        <ele>2446.8</ele>
        <time>2014-01-30T09:43:35Z</time>
      </trkpt>
      <trkpt lat="45.9509263" lon="7.6554316">
        <ele>2439.8</ele>
        <time>2014-01-30T09:43:36Z</time>
      </trkpt>
      <trkpt lat="45.9508809" lon="7.6553569">
        <ele>2439.8</ele>
        <time>2014-01-30T09:43:37Z</time>
      </trkpt>
      <trkpt lat="45.9507819" lon="7.6551751">
        <ele>2435.4</ele>
        <time>2014-01-30T09:43:38Z</time>
      </trkpt>
      <trkpt lat="45.9507315" lon="7.655045">
        <ele>2433.4</ele>
        <time>2014-01-30T09:43:39Z</time>
      </trkpt>
      <trkpt lat="45.9506164" lon="7.6548447">
        <ele>2425.4</ele>
        <time>2014-01-30T09:43:40Z</time>
      </trkpt>
      <trkpt lat="45.9505527" lon="7.6547029">
        <ele>2421.8</ele>
        <time>2014-01-30T09:43:41Z</time>
      </trkpt>
      <trkpt lat="45.9504267" lon="7.6544663">
        <ele>2412.6</ele>
        <time>2014-01-30T09:43:42Z</time>
      </trkpt>
      <trkpt lat="45.9503409" lon="7.654312">
        <ele>2409</ele>
        <time>2014-01-30T09:43:43Z</time>
      </trkpt>
      <trkpt lat="45.950202" lon="7.6540593">
        <ele>2400.8</ele>
        <time>2014-01-30T09:43:44Z</time>
      </trkpt>
      <trkpt lat="45.9501271" lon="7.6539235">
        <ele>2398.2</ele>
        <time>2014-01-30T09:43:45Z</time>
      </trkpt>
      <trkpt lat="45.94998" lon="7.6536424">
        <ele>2390.8</ele>
        <time>2014-01-30T09:43:46Z</time>
      </trkpt>
      <trkpt lat="45.9498919" lon="7.6535144">
        <ele>2388.8</ele>
        <time>2014-01-30T09:43:47Z</time>
      </trkpt>
      <trkpt lat="45.9497221" lon="7.6532456">
        <ele>2382.2</ele>
        <time>2014-01-30T09:43:48Z</time>
      </trkpt>
      <trkpt lat="45.9496113" lon="7.6530955">
        <ele>2378.8</ele>
        <time>2014-01-30T09:43:49Z</time>
      </trkpt>
      <trkpt lat="45.9494832" lon="7.6529531">
        <ele>2376</ele>
        <time>2014-01-30T09:43:50Z</time>
      </trkpt>
      <trkpt lat="45.9493901" lon="7.6528863">
        <ele>2376</ele>
        <time>2014-01-30T09:43:51Z</time>
      </trkpt>
      <trkpt lat="45.9492497" lon="7.6527228">
        <ele>2372.8</ele>
        <time>2014-01-30T09:43:52Z</time>
      </trkpt>
      <trkpt lat="45.9491062" lon="7.6523438">
        <ele>2371.4</ele>
        <time>2014-01-30T09:43:54Z</time>
      </trkpt>
      <trkpt lat="45.9490252" lon="7.6519804">
        <ele>2370</ele>
        <time>2014-01-30T09:43:56Z</time>
      </trkpt>
      <trkpt lat="45.949007" lon="7.6518857">
        <ele>2368.8</ele>
        <time>2014-01-30T09:43:57Z</time>
      </trkpt>
      <trkpt lat="45.9489576" lon="7.6516658">
        <ele>2367.4</ele>
        <time>2014-01-30T09:43:58Z</time>
      </trkpt>
      <trkpt lat="45.9489215" lon="7.6515136">
        <ele>2366</ele>
        <time>2014-01-30T09:43:59Z</time>
      </trkpt>
      <trkpt lat="45.948871" lon="7.6512806">
        <ele>2362.6</ele>
        <time>2014-01-30T09:44:00Z</time>
      </trkpt>
      <trkpt lat="45.9487863" lon="7.6509216">
        <ele>2358.8</ele>
        <time>2014-01-30T09:44:02Z</time>
      </trkpt>
      <trkpt lat="45.9487544" lon="7.6507892">
        <ele>2357.4</ele>
        <time>2014-01-30T09:44:03Z</time>
      </trkpt>
      <trkpt lat="45.9487117" lon="7.6506121">
        <ele>2356.2</ele>
        <time>2014-01-30T09:44:04Z</time>
      </trkpt>
      <trkpt lat="45.948663" lon="7.650439">
        <ele>2354</ele>
        <time>2014-01-30T09:44:05Z</time>
      </trkpt>
      <trkpt lat="45.9485778" lon="7.6502234">
        <ele>2350.2</ele>
        <time>2014-01-30T09:44:06Z</time>
      </trkpt>
      <trkpt lat="45.9485275" lon="7.650138">
        <ele>2349</ele>
        <time>2014-01-30T09:44:07Z</time>
      </trkpt>
      <trkpt lat="45.9483969" lon="7.6499729">
        <ele>2345.4</ele>
        <time>2014-01-30T09:44:08Z</time>
      </trkpt>
      <trkpt lat="45.9483325" lon="7.6498759">
        <ele>2343.8</ele>
        <time>2014-01-30T09:44:09Z</time>
      </trkpt>
      <trkpt lat="45.948202" lon="7.6497096">
        <ele>2338.8</ele>
        <time>2014-01-30T09:44:10Z</time>
      </trkpt>
      <trkpt lat="45.9481208" lon="7.649647">
        <ele>2337.4</ele>
        <time>2014-01-30T09:44:11Z</time>
      </trkpt>
      <trkpt lat="45.9480206" lon="7.6494841">
        <ele>2335.8</ele>
        <time>2014-01-30T09:44:12Z</time>
      </trkpt>
      <trkpt lat="45.9479724" lon="7.6493797">
        <ele>2334.8</ele>
        <time>2014-01-30T09:44:13Z</time>
      </trkpt>
      <trkpt lat="45.9478691" lon="7.6492924">
        <ele>2333.8</ele>
        <time>2014-01-30T09:44:14Z</time>
      </trkpt>
      <trkpt lat="45.9478367" lon="7.6492331">
        <ele>2333.8</ele>
        <time>2014-01-30T09:44:15Z</time>
      </trkpt>
      <trkpt lat="45.947774" lon="7.6491485">
        <ele>2333.8</ele>
        <time>2014-01-30T09:44:16Z</time>
      </trkpt>
      <trkpt lat="45.9477436" lon="7.6491592">
        <ele>2333.8</ele>
        <time>2014-01-30T09:44:17Z</time>
      </trkpt>
      <trkpt lat="45.947694" lon="7.6491406">
        <ele>2333.8</ele>
        <time>2014-01-30T09:44:18Z</time>
      </trkpt>
      <trkpt lat="45.9476653" lon="7.6491991">
        <ele>2333.8</ele>
        <time>2014-01-30T09:44:21Z</time>
      </trkpt>
      <trkpt lat="45.9476813" lon="7.6492214">
        <ele>2333.8</ele>
        <time>2014-01-30T09:44:23Z</time>
      </trkpt>
      <trkpt lat="45.9476947" lon="7.6492345">
        <ele>2332.6</ele>
        <time>2014-01-30T09:44:26Z</time>
      </trkpt>
      <trkpt lat="45.9477198" lon="7.6492599">
        <ele>2332.6</ele>
        <time>2014-01-30T09:44:35Z</time>
      </trkpt>
      <trkpt lat="45.9477222" lon="7.6492614">
        <ele>2331.6</ele>
        <time>2014-01-30T09:44:36Z</time>
      </trkpt>
      <trkpt lat="45.9477338" lon="7.6492796">
        <ele>2331.6</ele>
        <time>2014-01-30T09:44:42Z</time>
      </trkpt>
      <trkpt lat="45.9477536" lon="7.649313">
        <ele>2331.6</ele>
        <time>2014-01-30T09:44:53Z</time>
      </trkpt>
      <trkpt lat="45.9477793" lon="7.6493608">
        <ele>2331.6</ele>
        <time>2014-01-30T09:45:04Z</time>
      </trkpt>
      <trkpt lat="45.9477831" lon="7.6493806">
        <ele>2331.6</ele>
        <time>2014-01-30T09:45:11Z</time>
      </trkpt>
      <trkpt lat="45.9477898" lon="7.6494031">
        <ele>2331.6</ele>
        <time>2014-01-30T09:45:16Z</time>
      </trkpt>
      <trkpt lat="45.9478047" lon="7.6494324">
        <ele>2331.6</ele>
        <time>2014-01-30T09:45:22Z</time>
      </trkpt>
      <trkpt lat="45.9478047" lon="7.6494553">
        <ele>2331.6</ele>
        <time>2014-01-30T09:45:25Z</time>
      </trkpt>
      <trkpt lat="45.9477962" lon="7.6494837">
        <ele>2331.6</ele>
        <time>2014-01-30T09:45:27Z</time>
      </trkpt>
      <trkpt lat="45.9478177" lon="7.6495351">
        <ele>2331.6</ele>
        <time>2014-01-30T09:45:32Z</time>
      </trkpt>
      <trkpt lat="45.9478123" lon="7.6495513">
        <ele>2331.6</ele>
        <time>2014-01-30T09:45:33Z</time>
      </trkpt>
      <trkpt lat="45.9478441" lon="7.6496671">
        <ele>2331.6</ele>
        <time>2014-01-30T09:45:36Z</time>
      </trkpt>
      <trkpt lat="45.9479118" lon="7.6498022">
        <ele>2333.6</ele>
        <time>2014-01-30T09:45:39Z</time>
      </trkpt>
      <trkpt lat="45.9479303" lon="7.6498665">
        <ele>2335.8</ele>
        <time>2014-01-30T09:45:40Z</time>
      </trkpt>
      <trkpt lat="45.9479466" lon="7.649902">
        <ele>2336.8</ele>
        <time>2014-01-30T09:45:41Z</time>
      </trkpt>
      <trkpt lat="45.9479645" lon="7.6499588">
        <ele>2338.8</ele>
        <time>2014-01-30T09:45:42Z</time>
      </trkpt>
      <trkpt lat="45.9479843" lon="7.6499868">
        <ele>2340.2</ele>
        <time>2014-01-30T09:45:43Z</time>
      </trkpt>
      <trkpt lat="45.9480158" lon="7.6500381">
        <ele>2342.8</ele>
        <time>2014-01-30T09:45:44Z</time>
      </trkpt>
      <trkpt lat="45.9480373" lon="7.650064">
        <ele>2344</ele>
        <time>2014-01-30T09:45:45Z</time>
      </trkpt>
      <trkpt lat="45.9480675" lon="7.6501108">
        <ele>2346.6</ele>
        <time>2014-01-30T09:45:46Z</time>
      </trkpt>
      <trkpt lat="45.9480811" lon="7.6501379">
        <ele>2348.2</ele>
        <time>2014-01-30T09:45:47Z</time>
      </trkpt>
      <trkpt lat="45.9481125" lon="7.6501749">
        <ele>2349.2</ele>
        <time>2014-01-30T09:45:48Z</time>
      </trkpt>
      <trkpt lat="45.9481571" lon="7.6502591">
        <ele>2350.4</ele>
        <time>2014-01-30T09:45:50Z</time>
      </trkpt>
      <trkpt lat="45.948177" lon="7.650289">
        <ele>2350.4</ele>
        <time>2014-01-30T09:45:51Z</time>
      </trkpt>
      <trkpt lat="45.9482022" lon="7.6503523">
        <ele>2351.4</ele>
        <time>2014-01-30T09:45:52Z</time>
      </trkpt>
      <trkpt lat="45.9482622" lon="7.6504619">
        <ele>2352.8</ele>
        <time>2014-01-30T09:45:54Z</time>
      </trkpt>
      <trkpt lat="45.9482809" lon="7.650497">
        <ele>2353.8</ele>
        <time>2014-01-30T09:45:55Z</time>
      </trkpt>
      <trkpt lat="45.9483124" lon="7.6505555">
        <ele>2355</ele>
        <time>2014-01-30T09:45:56Z</time>
      </trkpt>
      <trkpt lat="45.948361" lon="7.6506366">
        <ele>2356.2</ele>
        <time>2014-01-30T09:45:58Z</time>
      </trkpt>
      <trkpt lat="45.9483807" lon="7.6506775">
        <ele>2357.2</ele>
        <time>2014-01-30T09:45:59Z</time>
      </trkpt>
      <trkpt lat="45.9484091" lon="7.6507311">
        <ele>2358.4</ele>
        <time>2014-01-30T09:46:00Z</time>
      </trkpt>
      <trkpt lat="45.9484225" lon="7.6507585">
        <ele>2359.4</ele>
        <time>2014-01-30T09:46:01Z</time>
      </trkpt>
      <trkpt lat="45.9484597" lon="7.6508283">
        <ele>2360.6</ele>
        <time>2014-01-30T09:46:02Z</time>
      </trkpt>
      <trkpt lat="45.948476" lon="7.6508773">
        <ele>2361.8</ele>
        <time>2014-01-30T09:46:03Z</time>
      </trkpt>
      <trkpt lat="45.9484915" lon="7.6509234">
        <ele>2363</ele>
        <time>2014-01-30T09:46:04Z</time>
      </trkpt>
      <trkpt lat="45.948514" lon="7.6509735">
        <ele>2364.4</ele>
        <time>2014-01-30T09:46:05Z</time>
      </trkpt>
      <trkpt lat="45.9485333" lon="7.6510171">
        <ele>2365.6</ele>
        <time>2014-01-30T09:46:06Z</time>
      </trkpt>
      <trkpt lat="45.9485586" lon="7.6510633">
        <ele>2367</ele>
        <time>2014-01-30T09:46:07Z</time>
      </trkpt>
      <trkpt lat="45.9485905" lon="7.6511316">
        <ele>2368.2</ele>
        <time>2014-01-30T09:46:09Z</time>
      </trkpt>
      <trkpt lat="45.9486384" lon="7.6512253">
        <ele>2369.4</ele>
        <time>2014-01-30T09:46:11Z</time>
      </trkpt>
      <trkpt lat="45.9486866" lon="7.6513264">
        <ele>2370.4</ele>
        <time>2014-01-30T09:46:13Z</time>
      </trkpt>
      <trkpt lat="45.9487058" lon="7.6513671">
        <ele>2371.6</ele>
        <time>2014-01-30T09:46:14Z</time>
      </trkpt>
      <trkpt lat="45.9487475" lon="7.65144">
        <ele>2372.8</ele>
        <time>2014-01-30T09:46:16Z</time>
      </trkpt>
      <trkpt lat="45.9487707" lon="7.651488">
        <ele>2373.8</ele>
        <time>2014-01-30T09:46:17Z</time>
      </trkpt>
      <trkpt lat="45.948787" lon="7.6515299">
        <ele>2374.8</ele>
        <time>2014-01-30T09:46:18Z</time>
      </trkpt>
      <trkpt lat="45.9488024" lon="7.6515776">
        <ele>2376.2</ele>
        <time>2014-01-30T09:46:19Z</time>
      </trkpt>
      <trkpt lat="45.9488362" lon="7.6516497">
        <ele>2377.4</ele>
        <time>2014-01-30T09:46:21Z</time>
      </trkpt>
      <trkpt lat="45.9488512" lon="7.6517032">
        <ele>2378.8</ele>
        <time>2014-01-30T09:46:22Z</time>
      </trkpt>
      <trkpt lat="45.9488692" lon="7.6517449">
        <ele>2379.8</ele>
        <time>2014-01-30T09:46:23Z</time>
      </trkpt>
      <trkpt lat="45.9489383" lon="7.651888">
        <ele>2379.8</ele>
        <time>2014-01-30T09:46:26Z</time>
      </trkpt>
      <trkpt lat="45.9489813" lon="7.6519723">
        <ele>2380.8</ele>
        <time>2014-01-30T09:46:28Z</time>
      </trkpt>
      <trkpt lat="45.9490536" lon="7.6521662">
        <ele>2382</ele>
        <time>2014-01-30T09:46:32Z</time>
      </trkpt>
      <trkpt lat="45.9490954" lon="7.6522619">
        <ele>2382</ele>
        <time>2014-01-30T09:46:34Z</time>
      </trkpt>
      <trkpt lat="45.9491356" lon="7.6523579">
        <ele>2383</ele>
        <time>2014-01-30T09:46:36Z</time>
      </trkpt>
      <trkpt lat="45.9491771" lon="7.6524558">
        <ele>2384</ele>
        <time>2014-01-30T09:46:38Z</time>
      </trkpt>
      <trkpt lat="45.9492181" lon="7.6525276">
        <ele>2385.4</ele>
        <time>2014-01-30T09:46:40Z</time>
      </trkpt>
      <trkpt lat="45.9492352" lon="7.652562">
        <ele>2385.4</ele>
        <time>2014-01-30T09:46:41Z</time>
      </trkpt>
      <trkpt lat="45.949288" lon="7.6526655">
        <ele>2386.6</ele>
        <time>2014-01-30T09:46:43Z</time>
      </trkpt>
      <trkpt lat="45.9493629" lon="7.6528503">
        <ele>2388.8</ele>
        <time>2014-01-30T09:46:47Z</time>
      </trkpt>
      <trkpt lat="45.9494025" lon="7.652931">
        <ele>2390</ele>
        <time>2014-01-30T09:46:49Z</time>
      </trkpt>
      <trkpt lat="45.9494483" lon="7.6530669">
        <ele>2391</ele>
        <time>2014-01-30T09:46:52Z</time>
      </trkpt>
      <trkpt lat="45.9494759" lon="7.6531146">
        <ele>2392.4</ele>
        <time>2014-01-30T09:46:53Z</time>
      </trkpt>
      <trkpt lat="45.9495194" lon="7.6532028">
        <ele>2394</ele>
        <time>2014-01-30T09:46:55Z</time>
      </trkpt>
      <trkpt lat="45.9495556" lon="7.6532801">
        <ele>2395</ele>
        <time>2014-01-30T09:46:57Z</time>
      </trkpt>
      <trkpt lat="45.9495991" lon="7.6533756">
        <ele>2396.4</ele>
        <time>2014-01-30T09:46:59Z</time>
      </trkpt>
      <trkpt lat="45.9496608" lon="7.6535071">
        <ele>2397.8</ele>
        <time>2014-01-30T09:47:02Z</time>
      </trkpt>
      <trkpt lat="45.9496851" lon="7.6535501">
        <ele>2399</ele>
        <time>2014-01-30T09:47:03Z</time>
      </trkpt>
      <trkpt lat="45.9497338" lon="7.6536402">
        <ele>2400.2</ele>
        <time>2014-01-30T09:47:05Z</time>
      </trkpt>
      <trkpt lat="45.9497778" lon="7.6537306">
        <ele>2401.8</ele>
        <time>2014-01-30T09:47:07Z</time>
      </trkpt>
      <trkpt lat="45.9498089" lon="7.653801">
        <ele>2403</ele>
        <time>2014-01-30T09:47:09Z</time>
      </trkpt>
      <trkpt lat="45.9498385" lon="7.6538613">
        <ele>2404</ele>
        <time>2014-01-30T09:47:10Z</time>
      </trkpt>
      <trkpt lat="45.9498654" lon="7.6539028">
        <ele>2406</ele>
        <time>2014-01-30T09:47:11Z</time>
      </trkpt>
      <trkpt lat="45.9499098" lon="7.6539986">
        <ele>2408.6</ele>
        <time>2014-01-30T09:47:13Z</time>
      </trkpt>
      <trkpt lat="45.949947" lon="7.6540675">
        <ele>2410</ele>
        <time>2014-01-30T09:47:15Z</time>
      </trkpt>
      <trkpt lat="45.9499741" lon="7.6541234">
        <ele>2411.6</ele>
        <time>2014-01-30T09:47:16Z</time>
      </trkpt>
      <trkpt lat="45.9499993" lon="7.6541775">
        <ele>2414.2</ele>
        <time>2014-01-30T09:47:17Z</time>
      </trkpt>
      <trkpt lat="45.950019" lon="7.6542211">
        <ele>2414.2</ele>
        <time>2014-01-30T09:47:18Z</time>
      </trkpt>
      <trkpt lat="45.9500398" lon="7.6542594">
        <ele>2416.6</ele>
        <time>2014-01-30T09:47:19Z</time>
      </trkpt>
      <trkpt lat="45.9500704" lon="7.6543329">
        <ele>2418</ele>
        <time>2014-01-30T09:47:21Z</time>
      </trkpt>
      <trkpt lat="45.9500974" lon="7.6543881">
        <ele>2419.2</ele>
        <time>2014-01-30T09:47:22Z</time>
      </trkpt>
      <trkpt lat="45.950128" lon="7.6544302">
        <ele>2420.4</ele>
        <time>2014-01-30T09:47:23Z</time>
      </trkpt>
      <trkpt lat="45.9501497" lon="7.6544616">
        <ele>2421.4</ele>
        <time>2014-01-30T09:47:24Z</time>
      </trkpt>
      <trkpt lat="45.9501617" lon="7.6545148">
        <ele>2423</ele>
        <time>2014-01-30T09:47:25Z</time>
      </trkpt>
      <trkpt lat="45.9501997" lon="7.6545991">
        <ele>2424</ele>
        <time>2014-01-30T09:47:27Z</time>
      </trkpt>
      <trkpt lat="45.9502172" lon="7.6546423">
        <ele>2425</ele>
        <time>2014-01-30T09:47:28Z</time>
      </trkpt>
      <trkpt lat="45.9502313" lon="7.6546906">
        <ele>2426.4</ele>
        <time>2014-01-30T09:47:29Z</time>
      </trkpt>
      <trkpt lat="45.9502597" lon="7.6547706">
        <ele>2427.4</ele>
        <time>2014-01-30T09:47:31Z</time>
      </trkpt>
      <trkpt lat="45.9502964" lon="7.654842">
        <ele>2428.4</ele>
        <time>2014-01-30T09:47:33Z</time>
      </trkpt>
      <trkpt lat="45.9503128" lon="7.6548776">
        <ele>2430.6</ele>
        <time>2014-01-30T09:47:34Z</time>
      </trkpt>
      <trkpt lat="45.9503336" lon="7.6549187">
        <ele>2431.8</ele>
        <time>2014-01-30T09:47:35Z</time>
      </trkpt>
      <trkpt lat="45.9503469" lon="7.6549581">
        <ele>2432.8</ele>
        <time>2014-01-30T09:47:36Z</time>
      </trkpt>
      <trkpt lat="45.9503611" lon="7.6550056">
        <ele>2434.4</ele>
        <time>2014-01-30T09:47:37Z</time>
      </trkpt>
      <trkpt lat="45.9503719" lon="7.6550478">
        <ele>2435.6</ele>
        <time>2014-01-30T09:47:38Z</time>
      </trkpt>
      <trkpt lat="45.9503953" lon="7.6550714">
        <ele>2438.2</ele>
        <time>2014-01-30T09:47:39Z</time>
      </trkpt>
      <trkpt lat="45.9504065" lon="7.6551045">
        <ele>2439.6</ele>
        <time>2014-01-30T09:47:40Z</time>
      </trkpt>
      <trkpt lat="45.9504195" lon="7.6551488">
        <ele>2440.8</ele>
        <time>2014-01-30T09:47:41Z</time>
      </trkpt>
      <trkpt lat="45.9504559" lon="7.6552448">
        <ele>2442</ele>
        <time>2014-01-30T09:47:43Z</time>
      </trkpt>
      <trkpt lat="45.9505025" lon="7.6553309">
        <ele>2443.2</ele>
        <time>2014-01-30T09:47:45Z</time>
      </trkpt>
      <trkpt lat="45.9505553" lon="7.6554214">
        <ele>2445.2</ele>
        <time>2014-01-30T09:47:47Z</time>
      </trkpt>
      <trkpt lat="45.9506032" lon="7.6554996">
        <ele>2446.4</ele>
        <time>2014-01-30T09:47:49Z</time>
      </trkpt>
      <trkpt lat="45.9506238" lon="7.6555393">
        <ele>2447.4</ele>
        <time>2014-01-30T09:47:50Z</time>
      </trkpt>
      <trkpt lat="45.9506407" lon="7.6555689">
        <ele>2447.4</ele>
        <time>2014-01-30T09:47:51Z</time>
      </trkpt>
      <trkpt lat="45.9506597" lon="7.6556236">
        <ele>2448.4</ele>
        <time>2014-01-30T09:47:52Z</time>
      </trkpt>
      <trkpt lat="45.9506803" lon="7.6556795">
        <ele>2449.4</ele>
        <time>2014-01-30T09:47:53Z</time>
      </trkpt>
      <trkpt lat="45.9506975" lon="7.6557199">
        <ele>2450.8</ele>
        <time>2014-01-30T09:47:54Z</time>
      </trkpt>
      <trkpt lat="45.9507173" lon="7.6557725">
        <ele>2452</ele>
        <time>2014-01-30T09:47:55Z</time>
      </trkpt>
      <trkpt lat="45.9507553" lon="7.6558564">
        <ele>2453.2</ele>
        <time>2014-01-30T09:47:57Z</time>
      </trkpt>
      <trkpt lat="45.9507735" lon="7.6558931">
        <ele>2454.4</ele>
        <time>2014-01-30T09:47:58Z</time>
      </trkpt>
      <trkpt lat="45.9507897" lon="7.6559479">
        <ele>2455.8</ele>
        <time>2014-01-30T09:47:59Z</time>
      </trkpt>
      <trkpt lat="45.9508014" lon="7.6559921">
        <ele>2457.2</ele>
        <time>2014-01-30T09:48:00Z</time>
      </trkpt>
      <trkpt lat="45.9508416" lon="7.6561294">
        <ele>2460.2</ele>
        <time>2014-01-30T09:48:03Z</time>
      </trkpt>
      <trkpt lat="45.9508556" lon="7.656173">
        <ele>2461.6</ele>
        <time>2014-01-30T09:48:04Z</time>
      </trkpt>
      <trkpt lat="45.9508673" lon="7.6562221">
        <ele>2462.6</ele>
        <time>2014-01-30T09:48:05Z</time>
      </trkpt>
      <trkpt lat="45.9508793" lon="7.6562636">
        <ele>2464.2</ele>
        <time>2014-01-30T09:48:06Z</time>
      </trkpt>
      <trkpt lat="45.9508958" lon="7.656314">
        <ele>2465.2</ele>
        <time>2014-01-30T09:48:07Z</time>
      </trkpt>
      <trkpt lat="45.9509077" lon="7.6563541">
        <ele>2466.6</ele>
        <time>2014-01-30T09:48:08Z</time>
      </trkpt>
      <trkpt lat="45.9509184" lon="7.6563796">
        <ele>2467.8</ele>
        <time>2014-01-30T09:48:09Z</time>
      </trkpt>
      <trkpt lat="45.9509386" lon="7.6564286">
        <ele>2469.2</ele>
        <time>2014-01-30T09:48:10Z</time>
      </trkpt>
      <trkpt lat="45.950981" lon="7.6565304">
        <ele>2470.2</ele>
        <time>2014-01-30T09:48:12Z</time>
      </trkpt>
      <trkpt lat="45.9510169" lon="7.6566324">
        <ele>2471.4</ele>
        <time>2014-01-30T09:48:14Z</time>
      </trkpt>
      <trkpt lat="45.9510551" lon="7.6567196">
        <ele>2472.6</ele>
        <time>2014-01-30T09:48:16Z</time>
      </trkpt>
      <trkpt lat="45.9510749" lon="7.6567741">
        <ele>2473.8</ele>
        <time>2014-01-30T09:48:17Z</time>
      </trkpt>
      <trkpt lat="45.9510881" lon="7.6568209">
        <ele>2473.8</ele>
        <time>2014-01-30T09:48:18Z</time>
      </trkpt>
      <trkpt lat="45.9511103" lon="7.6568718">
        <ele>2475</ele>
        <time>2014-01-30T09:48:19Z</time>
      </trkpt>
      <trkpt lat="45.9511412" lon="7.6569504">
        <ele>2476.2</ele>
        <time>2014-01-30T09:48:21Z</time>
      </trkpt>
      <trkpt lat="45.9511585" lon="7.6570046">
        <ele>2477.2</ele>
        <time>2014-01-30T09:48:22Z</time>
      </trkpt>
      <trkpt lat="45.9511905" lon="7.6570477">
        <ele>2478.2</ele>
        <time>2014-01-30T09:48:23Z</time>
      </trkpt>
      <trkpt lat="45.9512381" lon="7.657127">
        <ele>2479.6</ele>
        <time>2014-01-30T09:48:25Z</time>
      </trkpt>
      <trkpt lat="45.9512546" lon="7.6571662">
        <ele>2480.8</ele>
        <time>2014-01-30T09:48:26Z</time>
      </trkpt>
      <trkpt lat="45.9512817" lon="7.6572063">
        <ele>2482</ele>
        <time>2014-01-30T09:48:27Z</time>
      </trkpt>
      <trkpt lat="45.9512962" lon="7.657248">
        <ele>2483.2</ele>
        <time>2014-01-30T09:48:28Z</time>
      </trkpt>
      <trkpt lat="45.9513301" lon="7.6572929">
        <ele>2484.6</ele>
        <time>2014-01-30T09:48:29Z</time>
      </trkpt>
      <trkpt lat="45.9513505" lon="7.6573338">
        <ele>2486</ele>
        <time>2014-01-30T09:48:30Z</time>
      </trkpt>
      <trkpt lat="45.951398" lon="7.6574167">
        <ele>2487.8</ele>
        <time>2014-01-30T09:48:32Z</time>
      </trkpt>
      <trkpt lat="45.9514284" lon="7.6574656">
        <ele>2490.8</ele>
        <time>2014-01-30T09:48:33Z</time>
      </trkpt>
      <trkpt lat="45.9514469" lon="7.657512">
        <ele>2491.8</ele>
        <time>2014-01-30T09:48:34Z</time>
      </trkpt>
      <trkpt lat="45.9514677" lon="7.6575502">
        <ele>2493</ele>
        <time>2014-01-30T09:48:35Z</time>
      </trkpt>
      <trkpt lat="45.9514759" lon="7.6575924">
        <ele>2494.4</ele>
        <time>2014-01-30T09:48:36Z</time>
      </trkpt>
      <trkpt lat="45.9515075" lon="7.6576449">
        <ele>2494.4</ele>
        <time>2014-01-30T09:48:37Z</time>
      </trkpt>
      <trkpt lat="45.9515518" lon="7.6577341">
        <ele>2495.4</ele>
        <time>2014-01-30T09:48:39Z</time>
      </trkpt>
      <trkpt lat="45.9516256" lon="7.6578531">
        <ele>2496.4</ele>
        <time>2014-01-30T09:48:42Z</time>
      </trkpt>
      <trkpt lat="45.9516473" lon="7.6579045">
        <ele>2497.8</ele>
        <time>2014-01-30T09:48:43Z</time>
      </trkpt>
      <trkpt lat="45.9516799" lon="7.6579855">
        <ele>2497.8</ele>
        <time>2014-01-30T09:48:45Z</time>
      </trkpt>
      <trkpt lat="45.9517062" lon="7.6580431">
        <ele>2499</ele>
        <time>2014-01-30T09:48:46Z</time>
      </trkpt>
      <trkpt lat="45.9517375" lon="7.6580973">
        <ele>2500</ele>
        <time>2014-01-30T09:48:47Z</time>
      </trkpt>
      <trkpt lat="45.9517802" lon="7.6581922">
        <ele>2501.2</ele>
        <time>2014-01-30T09:48:49Z</time>
      </trkpt>
      <trkpt lat="45.9517977" lon="7.6582384">
        <ele>2502.4</ele>
        <time>2014-01-30T09:48:50Z</time>
      </trkpt>
      <trkpt lat="45.9518382" lon="7.6583316">
        <ele>2503.4</ele>
        <time>2014-01-30T09:48:52Z</time>
      </trkpt>
      <trkpt lat="45.951869" lon="7.6583841">
        <ele>2504.8</ele>
        <time>2014-01-30T09:48:53Z</time>
      </trkpt>
      <trkpt lat="45.9518923" lon="7.6584261">
        <ele>2504.8</ele>
        <time>2014-01-30T09:48:54Z</time>
      </trkpt>
      <trkpt lat="45.9519165" lon="7.6584785">
        <ele>2507</ele>
        <time>2014-01-30T09:48:55Z</time>
      </trkpt>
      <trkpt lat="45.9520102" lon="7.6586564">
        <ele>2510.6</ele>
        <time>2014-01-30T09:48:59Z</time>
      </trkpt>
      <trkpt lat="45.9520435" lon="7.6587263">
        <ele>2511.8</ele>
        <time>2014-01-30T09:49:01Z</time>
      </trkpt>
      <trkpt lat="45.9520756" lon="7.6587883">
        <ele>2513.2</ele>
        <time>2014-01-30T09:49:02Z</time>
      </trkpt>
      <trkpt lat="45.9520977" lon="7.6588235">
        <ele>2514.6</ele>
        <time>2014-01-30T09:49:03Z</time>
      </trkpt>
      <trkpt lat="45.9521221" lon="7.6588739">
        <ele>2515.8</ele>
        <time>2014-01-30T09:49:04Z</time>
      </trkpt>
      <trkpt lat="45.9521457" lon="7.6589307">
        <ele>2518.2</ele>
        <time>2014-01-30T09:49:05Z</time>
      </trkpt>
      <trkpt lat="45.9521832" lon="7.6590237">
        <ele>2519.2</ele>
        <time>2014-01-30T09:49:07Z</time>
      </trkpt>
      <trkpt lat="45.9522005" lon="7.6590672">
        <ele>2520.4</ele>
        <time>2014-01-30T09:49:08Z</time>
      </trkpt>
      <trkpt lat="45.9522114" lon="7.6590868">
        <ele>2520.4</ele>
        <time>2014-01-30T09:49:09Z</time>
      </trkpt>
      <trkpt lat="45.9522281" lon="7.6591236">
        <ele>2521.6</ele>
        <time>2014-01-30T09:49:10Z</time>
      </trkpt>
      <trkpt lat="45.9522786" lon="7.6592124">
        <ele>2522.6</ele>
        <time>2014-01-30T09:49:12Z</time>
      </trkpt>
      <trkpt lat="45.9523112" lon="7.6592602">
        <ele>2524.4</ele>
        <time>2014-01-30T09:49:13Z</time>
      </trkpt>
      <trkpt lat="45.9523687" lon="7.6594039">
        <ele>2525.8</ele>
        <time>2014-01-30T09:49:16Z</time>
      </trkpt>
      <trkpt lat="45.9523979" lon="7.6594534">
        <ele>2527.4</ele>
        <time>2014-01-30T09:49:17Z</time>
      </trkpt>
      <trkpt lat="45.9524401" lon="7.6595477">
        <ele>2529</ele>
        <time>2014-01-30T09:49:19Z</time>
      </trkpt>
      <trkpt lat="45.9524914" lon="7.6596836">
        <ele>2530.2</ele>
        <time>2014-01-30T09:49:22Z</time>
      </trkpt>
      <trkpt lat="45.9525412" lon="7.6597737">
        <ele>2531.8</ele>
        <time>2014-01-30T09:49:24Z</time>
      </trkpt>
      <trkpt lat="45.952561" lon="7.6598222">
        <ele>2533.4</ele>
        <time>2014-01-30T09:49:25Z</time>
      </trkpt>
      <trkpt lat="45.9525779" lon="7.6598676">
        <ele>2533.4</ele>
        <time>2014-01-30T09:49:26Z</time>
      </trkpt>
      <trkpt lat="45.9526198" lon="7.6599588">
        <ele>2535.2</ele>
        <time>2014-01-30T09:49:28Z</time>
      </trkpt>
      <trkpt lat="45.9526473" lon="7.6600056">
        <ele>2536.8</ele>
        <time>2014-01-30T09:49:29Z</time>
      </trkpt>
      <trkpt lat="45.9527068" lon="7.6601351">
        <ele>2538.4</ele>
        <time>2014-01-30T09:49:32Z</time>
      </trkpt>
      <trkpt lat="45.9527449" lon="7.6602266">
        <ele>2539.8</ele>
        <time>2014-01-30T09:49:34Z</time>
      </trkpt>
      <trkpt lat="45.9527643" lon="7.660276">
        <ele>2539.8</ele>
        <time>2014-01-30T09:49:35Z</time>
      </trkpt>
      <trkpt lat="45.9527806" lon="7.6603224">
        <ele>2541.2</ele>
        <time>2014-01-30T09:49:36Z</time>
      </trkpt>
      <trkpt lat="45.9527971" lon="7.6603601">
        <ele>2542.2</ele>
        <time>2014-01-30T09:49:37Z</time>
      </trkpt>
      <trkpt lat="45.9528366" lon="7.6604289">
        <ele>2542.2</ele>
        <time>2014-01-30T09:49:39Z</time>
      </trkpt>
      <trkpt lat="45.9528934" lon="7.6605209">
        <ele>2542.2</ele>
        <time>2014-01-30T09:49:41Z</time>
      </trkpt>
      <trkpt lat="45.9529204" lon="7.660577">
        <ele>2543.4</ele>
        <time>2014-01-30T09:49:42Z</time>
      </trkpt>
      <trkpt lat="45.9530388" lon="7.660801">
        <ele>2544.4</ele>
        <time>2014-01-30T09:49:47Z</time>
      </trkpt>
      <trkpt lat="45.9530998" lon="7.6609381">
        <ele>2544.4</ele>
        <time>2014-01-30T09:49:50Z</time>
      </trkpt>
      <trkpt lat="45.9532445" lon="7.6612583">
        <ele>2545.6</ele>
        <time>2014-01-30T09:49:57Z</time>
      </trkpt>
      <trkpt lat="45.9532757" lon="7.6613533">
        <ele>2545.6</ele>
        <time>2014-01-30T09:49:59Z</time>
      </trkpt>
      <trkpt lat="45.9533402" lon="7.6615548">
        <ele>2546.6</ele>
        <time>2014-01-30T09:50:03Z</time>
      </trkpt>
      <trkpt lat="45.9533813" lon="7.6616622">
        <ele>2548</ele>
        <time>2014-01-30T09:50:05Z</time>
      </trkpt>
      <trkpt lat="45.9534288" lon="7.6617732">
        <ele>2548</ele>
        <time>2014-01-30T09:50:07Z</time>
      </trkpt>
      <trkpt lat="45.9534666" lon="7.6618709">
        <ele>2549.2</ele>
        <time>2014-01-30T09:50:09Z</time>
      </trkpt>
      <trkpt lat="45.9535244" lon="7.6620211">
        <ele>2550.4</ele>
        <time>2014-01-30T09:50:12Z</time>
      </trkpt>
      <trkpt lat="45.9535539" lon="7.6620737">
        <ele>2551.6</ele>
        <time>2014-01-30T09:50:13Z</time>
      </trkpt>
      <trkpt lat="45.9535743" lon="7.6621248">
        <ele>2551.6</ele>
        <time>2014-01-30T09:50:14Z</time>
      </trkpt>
      <trkpt lat="45.9536067" lon="7.6622196">
        <ele>2552.6</ele>
        <time>2014-01-30T09:50:16Z</time>
      </trkpt>
      <trkpt lat="45.9536336" lon="7.6622747">
        <ele>2554</ele>
        <time>2014-01-30T09:50:17Z</time>
      </trkpt>
      <trkpt lat="45.9536744" lon="7.662374">
        <ele>2555</ele>
        <time>2014-01-30T09:50:19Z</time>
      </trkpt>
      <trkpt lat="45.9537058" lon="7.6624573">
        <ele>2555</ele>
        <time>2014-01-30T09:50:21Z</time>
      </trkpt>
      <trkpt lat="45.9537295" lon="7.6625151">
        <ele>2556.4</ele>
        <time>2014-01-30T09:50:22Z</time>
      </trkpt>
      <trkpt lat="45.9537555" lon="7.6625672">
        <ele>2557.6</ele>
        <time>2014-01-30T09:50:23Z</time>
      </trkpt>
      <trkpt lat="45.9537966" lon="7.6626661">
        <ele>2559.2</ele>
        <time>2014-01-30T09:50:25Z</time>
      </trkpt>
      <trkpt lat="45.953852" lon="7.6628128">
        <ele>2560.6</ele>
        <time>2014-01-30T09:50:28Z</time>
      </trkpt>
      <trkpt lat="45.953878" lon="7.6628594">
        <ele>2562.6</ele>
        <time>2014-01-30T09:50:29Z</time>
      </trkpt>
      <trkpt lat="45.9539093" lon="7.6629366">
        <ele>2562.6</ele>
        <time>2014-01-30T09:50:31Z</time>
      </trkpt>
      <trkpt lat="45.9539592" lon="7.6630468">
        <ele>2565</ele>
        <time>2014-01-30T09:50:33Z</time>
      </trkpt>
      <trkpt lat="45.9539742" lon="7.6630971">
        <ele>2566.4</ele>
        <time>2014-01-30T09:50:34Z</time>
      </trkpt>
      <trkpt lat="45.953997" lon="7.6631444">
        <ele>2569</ele>
        <time>2014-01-30T09:50:35Z</time>
      </trkpt>
      <trkpt lat="45.9540141" lon="7.6631947">
        <ele>2570.4</ele>
        <time>2014-01-30T09:50:36Z</time>
      </trkpt>
      <trkpt lat="45.9540462" lon="7.6632375">
        <ele>2571.8</ele>
        <time>2014-01-30T09:50:37Z</time>
      </trkpt>
      <trkpt lat="45.9540665" lon="7.663282">
        <ele>2573.2</ele>
        <time>2014-01-30T09:50:38Z</time>
      </trkpt>
      <trkpt lat="45.9540839" lon="7.6633234">
        <ele>2574.4</ele>
        <time>2014-01-30T09:50:39Z</time>
      </trkpt>
      <trkpt lat="45.9541019" lon="7.663376">
        <ele>2575.6</ele>
        <time>2014-01-30T09:50:40Z</time>
      </trkpt>
      <trkpt lat="45.9541174" lon="7.6634068">
        <ele>2576.8</ele>
        <time>2014-01-30T09:50:41Z</time>
      </trkpt>
      <trkpt lat="45.9541471" lon="7.6634695">
        <ele>2579.6</ele>
        <time>2014-01-30T09:50:42Z</time>
      </trkpt>
      <trkpt lat="45.95417" lon="7.6635147">
        <ele>2580.6</ele>
        <time>2014-01-30T09:50:43Z</time>
      </trkpt>
      <trkpt lat="45.9541865" lon="7.6635648">
        <ele>2582.2</ele>
        <time>2014-01-30T09:50:44Z</time>
      </trkpt>
      <trkpt lat="45.9542031" lon="7.6635977">
        <ele>2583.2</ele>
        <time>2014-01-30T09:50:45Z</time>
      </trkpt>
      <trkpt lat="45.9542236" lon="7.6636492">
        <ele>2585.8</ele>
        <time>2014-01-30T09:50:46Z</time>
      </trkpt>
      <trkpt lat="45.9542539" lon="7.6636938">
        <ele>2587</ele>
        <time>2014-01-30T09:50:47Z</time>
      </trkpt>
      <trkpt lat="45.954272" lon="7.6637427">
        <ele>2588.2</ele>
        <time>2014-01-30T09:50:48Z</time>
      </trkpt>
      <trkpt lat="45.9542911" lon="7.6637792">
        <ele>2591</ele>
        <time>2014-01-30T09:50:49Z</time>
      </trkpt>
      <trkpt lat="45.9543082" lon="7.6638289">
        <ele>2592.4</ele>
        <time>2014-01-30T09:50:50Z</time>
      </trkpt>
      <trkpt lat="45.9543243" lon="7.6638585">
        <ele>2593.8</ele>
        <time>2014-01-30T09:50:51Z</time>
      </trkpt>
      <trkpt lat="45.9543471" lon="7.6639113">
        <ele>2595.2</ele>
        <time>2014-01-30T09:50:52Z</time>
      </trkpt>
      <trkpt lat="45.9543723" lon="7.6639554">
        <ele>2597.6</ele>
        <time>2014-01-30T09:50:53Z</time>
      </trkpt>
      <trkpt lat="45.9543901" lon="7.6640059">
        <ele>2599</ele>
        <time>2014-01-30T09:50:54Z</time>
      </trkpt>
      <trkpt lat="45.9544174" lon="7.6640411">
        <ele>2600.4</ele>
        <time>2014-01-30T09:50:55Z</time>
      </trkpt>
      <trkpt lat="45.9544368" lon="7.6640884">
        <ele>2601.8</ele>
        <time>2014-01-30T09:50:56Z</time>
      </trkpt>
      <trkpt lat="45.9544582" lon="7.6641184">
        <ele>2604.6</ele>
        <time>2014-01-30T09:50:57Z</time>
      </trkpt>
      <trkpt lat="45.9544751" lon="7.6641641">
        <ele>2606</ele>
        <time>2014-01-30T09:50:58Z</time>
      </trkpt>
      <trkpt lat="45.9545024" lon="7.6641946">
        <ele>2609</ele>
        <time>2014-01-30T09:50:59Z</time>
      </trkpt>
      <trkpt lat="45.954538" lon="7.6642471">
        <ele>2610</ele>
        <time>2014-01-30T09:51:01Z</time>
      </trkpt>
      <trkpt lat="45.9545583" lon="7.6642785">
        <ele>2611.4</ele>
        <time>2014-01-30T09:51:02Z</time>
      </trkpt>
      <trkpt lat="45.9545932" lon="7.6643431">
        <ele>2611.4</ele>
        <time>2014-01-30T09:51:03Z</time>
      </trkpt>
      <trkpt lat="45.9546155" lon="7.6643859">
        <ele>2612.6</ele>
        <time>2014-01-30T09:51:04Z</time>
      </trkpt>
      <trkpt lat="45.954664" lon="7.6644984">
        <ele>2613.6</ele>
        <time>2014-01-30T09:51:06Z</time>
      </trkpt>
      <trkpt lat="45.9546911" lon="7.6645482">
        <ele>2614.8</ele>
        <time>2014-01-30T09:51:07Z</time>
      </trkpt>
      <trkpt lat="45.9547222" lon="7.6646282">
        <ele>2616</ele>
        <time>2014-01-30T09:51:09Z</time>
      </trkpt>
      <trkpt lat="45.9547621" lon="7.6647151">
        <ele>2617.2</ele>
        <time>2014-01-30T09:51:11Z</time>
      </trkpt>
      <trkpt lat="45.9547844" lon="7.664765">
        <ele>2618.2</ele>
        <time>2014-01-30T09:51:12Z</time>
      </trkpt>
      <trkpt lat="45.9548267" lon="7.6648544">
        <ele>2619.6</ele>
        <time>2014-01-30T09:51:14Z</time>
      </trkpt>
      <trkpt lat="45.9548662" lon="7.6649426">
        <ele>2620.8</ele>
        <time>2014-01-30T09:51:16Z</time>
      </trkpt>
      <trkpt lat="45.9548916" lon="7.6649965">
        <ele>2622.2</ele>
        <time>2014-01-30T09:51:17Z</time>
      </trkpt>
      <trkpt lat="45.9549113" lon="7.6650481">
        <ele>2623.4</ele>
        <time>2014-01-30T09:51:18Z</time>
      </trkpt>
      <trkpt lat="45.9549296" lon="7.6650836">
        <ele>2624.4</ele>
        <time>2014-01-30T09:51:19Z</time>
      </trkpt>
      <trkpt lat="45.954961" lon="7.6651631">
        <ele>2626.8</ele>
        <time>2014-01-30T09:51:21Z</time>
      </trkpt>
      <trkpt lat="45.9550025" lon="7.6652445">
        <ele>2628.2</ele>
        <time>2014-01-30T09:51:23Z</time>
      </trkpt>
      <trkpt lat="45.9550235" lon="7.6652893">
        <ele>2629.4</ele>
        <time>2014-01-30T09:51:24Z</time>
      </trkpt>
      <trkpt lat="45.9550729" lon="7.6654068">
        <ele>2632</ele>
        <time>2014-01-30T09:51:26Z</time>
      </trkpt>
      <trkpt lat="45.9551048" lon="7.6654853">
        <ele>2633.4</ele>
        <time>2014-01-30T09:51:28Z</time>
      </trkpt>
      <trkpt lat="45.9551277" lon="7.6655362">
        <ele>2634.8</ele>
        <time>2014-01-30T09:51:29Z</time>
      </trkpt>
      <trkpt lat="45.9551409" lon="7.6655897">
        <ele>2636</ele>
        <time>2014-01-30T09:51:30Z</time>
      </trkpt>
      <trkpt lat="45.9551447" lon="7.6656049">
        <ele>2637</ele>
        <time>2014-01-30T09:51:31Z</time>
      </trkpt>
      <trkpt lat="45.9551601" lon="7.6656622">
        <ele>2638.4</ele>
        <time>2014-01-30T09:51:32Z</time>
      </trkpt>
      <trkpt lat="45.9551798" lon="7.6657067">
        <ele>2641.8</ele>
        <time>2014-01-30T09:51:33Z</time>
      </trkpt>
      <trkpt lat="45.9551945" lon="7.6657581">
        <ele>2643.2</ele>
        <time>2014-01-30T09:51:34Z</time>
      </trkpt>
      <trkpt lat="45.9552156" lon="7.6657995">
        <ele>2644.6</ele>
        <time>2014-01-30T09:51:35Z</time>
      </trkpt>
      <trkpt lat="45.9552321" lon="7.6658479">
        <ele>2646</ele>
        <time>2014-01-30T09:51:36Z</time>
      </trkpt>
      <trkpt lat="45.9552494" lon="7.665891">
        <ele>2649</ele>
        <time>2014-01-30T09:51:37Z</time>
      </trkpt>
      <trkpt lat="45.9552633" lon="7.6659425">
        <ele>2650.6</ele>
        <time>2014-01-30T09:51:38Z</time>
      </trkpt>
      <trkpt lat="45.9552795" lon="7.6659746">
        <ele>2652.2</ele>
        <time>2014-01-30T09:51:39Z</time>
      </trkpt>
      <trkpt lat="45.9552919" lon="7.6660238">
        <ele>2653.6</ele>
        <time>2014-01-30T09:51:40Z</time>
      </trkpt>
      <trkpt lat="45.9553025" lon="7.666056">
        <ele>2655.4</ele>
        <time>2014-01-30T09:51:41Z</time>
      </trkpt>
      <trkpt lat="45.9553187" lon="7.6661128">
        <ele>2657</ele>
        <time>2014-01-30T09:51:42Z</time>
      </trkpt>
      <trkpt lat="45.9553444" lon="7.66615">
        <ele>2661</ele>
        <time>2014-01-30T09:51:43Z</time>
      </trkpt>
      <trkpt lat="45.9553594" lon="7.6662001">
        <ele>2662.6</ele>
        <time>2014-01-30T09:51:44Z</time>
      </trkpt>
      <trkpt lat="45.9553748" lon="7.6662307">
        <ele>2664.2</ele>
        <time>2014-01-30T09:51:45Z</time>
      </trkpt>
      <trkpt lat="45.9553944" lon="7.6662799">
        <ele>2667.2</ele>
        <time>2014-01-30T09:51:46Z</time>
      </trkpt>
      <trkpt lat="45.9554529" lon="7.6664088">
        <ele>2671.4</ele>
        <time>2014-01-30T09:51:49Z</time>
      </trkpt>
      <trkpt lat="45.9554834" lon="7.6664839">
        <ele>2672.6</ele>
        <time>2014-01-30T09:51:51Z</time>
      </trkpt>
      <trkpt lat="45.9555075" lon="7.6665363">
        <ele>2674</ele>
        <time>2014-01-30T09:51:52Z</time>
      </trkpt>
      <trkpt lat="45.9555412" lon="7.6665812">
        <ele>2676.2</ele>
        <time>2014-01-30T09:51:53Z</time>
      </trkpt>
      <trkpt lat="45.955595" lon="7.6666517">
        <ele>2678.4</ele>
        <time>2014-01-30T09:51:55Z</time>
      </trkpt>
      <trkpt lat="45.9556459" lon="7.6667084">
        <ele>2680</ele>
        <time>2014-01-30T09:51:57Z</time>
      </trkpt>
      <trkpt lat="45.9556773" lon="7.66675">
        <ele>2681</ele>
        <time>2014-01-30T09:51:58Z</time>
      </trkpt>
      <trkpt lat="45.9557113" lon="7.6667856">
        <ele>2683</ele>
        <time>2014-01-30T09:51:59Z</time>
      </trkpt>
      <trkpt lat="45.9557544" lon="7.6668506">
        <ele>2684.2</ele>
        <time>2014-01-30T09:52:01Z</time>
      </trkpt>
      <trkpt lat="45.9557914" lon="7.6668963">
        <ele>2685.2</ele>
        <time>2014-01-30T09:52:02Z</time>
      </trkpt>
      <trkpt lat="45.9558142" lon="7.6669288">
        <ele>2686.4</ele>
        <time>2014-01-30T09:52:03Z</time>
      </trkpt>
      <trkpt lat="45.9558417" lon="7.6669706">
        <ele>2687.4</ele>
        <time>2014-01-30T09:52:04Z</time>
      </trkpt>
      <trkpt lat="45.955869" lon="7.6670036">
        <ele>2689.4</ele>
        <time>2014-01-30T09:52:05Z</time>
      </trkpt>
      <trkpt lat="45.9559175" lon="7.6670819">
        <ele>2691.8</ele>
        <time>2014-01-30T09:52:07Z</time>
      </trkpt>
      <trkpt lat="45.9559643" lon="7.667152">
        <ele>2694.2</ele>
        <time>2014-01-30T09:52:09Z</time>
      </trkpt>
      <trkpt lat="45.9559908" lon="7.6671931">
        <ele>2694.2</ele>
        <time>2014-01-30T09:52:10Z</time>
      </trkpt>
      <trkpt lat="45.9560141" lon="7.6672282">
        <ele>2695.4</ele>
        <time>2014-01-30T09:52:11Z</time>
      </trkpt>
      <trkpt lat="45.9560379" lon="7.6672699">
        <ele>2696.6</ele>
        <time>2014-01-30T09:52:12Z</time>
      </trkpt>
      <trkpt lat="45.9560652" lon="7.6673068">
        <ele>2699</ele>
        <time>2014-01-30T09:52:13Z</time>
      </trkpt>
      <trkpt lat="45.9561093" lon="7.6673743">
        <ele>2700.2</ele>
        <time>2014-01-30T09:52:15Z</time>
      </trkpt>
      <trkpt lat="45.9561364" lon="7.6674204">
        <ele>2701.4</ele>
        <time>2014-01-30T09:52:16Z</time>
      </trkpt>
      <trkpt lat="45.956169" lon="7.6674595">
        <ele>2703.6</ele>
        <time>2014-01-30T09:52:17Z</time>
      </trkpt>
      <trkpt lat="45.9562221" lon="7.6675295">
        <ele>2706</ele>
        <time>2014-01-30T09:52:19Z</time>
      </trkpt>
      <trkpt lat="45.9562708" lon="7.667592">
        <ele>2707.2</ele>
        <time>2014-01-30T09:52:21Z</time>
      </trkpt>
      <trkpt lat="45.9562992" lon="7.6676376">
        <ele>2708.2</ele>
        <time>2014-01-30T09:52:22Z</time>
      </trkpt>
      <trkpt lat="45.9563171" lon="7.6676878">
        <ele>2710.6</ele>
        <time>2014-01-30T09:52:23Z</time>
      </trkpt>
      <trkpt lat="45.9563614" lon="7.6677648">
        <ele>2713</ele>
        <time>2014-01-30T09:52:25Z</time>
      </trkpt>
      <trkpt lat="45.9564047" lon="7.6678327">
        <ele>2714.2</ele>
        <time>2014-01-30T09:52:27Z</time>
      </trkpt>
      <trkpt lat="45.956443" lon="7.667894">
        <ele>2715.6</ele>
        <time>2014-01-30T09:52:28Z</time>
      </trkpt>
      <trkpt lat="45.9564634" lon="7.6679212">
        <ele>2718.2</ele>
        <time>2014-01-30T09:52:29Z</time>
      </trkpt>
      <trkpt lat="45.9564975" lon="7.6679709">
        <ele>2719.6</ele>
        <time>2014-01-30T09:52:31Z</time>
      </trkpt>
      <trkpt lat="45.9565278" lon="7.6680109">
        <ele>2720.6</ele>
        <time>2014-01-30T09:52:32Z</time>
      </trkpt>
      <trkpt lat="45.9565645" lon="7.6680441">
        <ele>2722.2</ele>
        <time>2014-01-30T09:52:33Z</time>
      </trkpt>
      <trkpt lat="45.956627" lon="7.6680992">
        <ele>2724</ele>
        <time>2014-01-30T09:52:35Z</time>
      </trkpt>
      <trkpt lat="45.9566821" lon="7.6681637">
        <ele>2725.2</ele>
        <time>2014-01-30T09:52:37Z</time>
      </trkpt>
      <trkpt lat="45.9567048" lon="7.668202">
        <ele>2725.2</ele>
        <time>2014-01-30T09:52:38Z</time>
      </trkpt>
      <trkpt lat="45.9567342" lon="7.6682311">
        <ele>2726.8</ele>
        <time>2014-01-30T09:52:39Z</time>
      </trkpt>
      <trkpt lat="45.956781" lon="7.6682969">
        <ele>2728.2</ele>
        <time>2014-01-30T09:52:41Z</time>
      </trkpt>
      <trkpt lat="45.9568327" lon="7.6683777">
        <ele>2729.4</ele>
        <time>2014-01-30T09:52:43Z</time>
      </trkpt>
      <trkpt lat="45.9568558" lon="7.6684156">
        <ele>2729.4</ele>
        <time>2014-01-30T09:52:44Z</time>
      </trkpt>
      <trkpt lat="45.9568965" lon="7.6684843">
        <ele>2730.6</ele>
        <time>2014-01-30T09:52:46Z</time>
      </trkpt>
      <trkpt lat="45.9569263" lon="7.6685243">
        <ele>2731.8</ele>
        <time>2014-01-30T09:52:47Z</time>
      </trkpt>
      <trkpt lat="45.9569802" lon="7.668606">
        <ele>2733.2</ele>
        <time>2014-01-30T09:52:49Z</time>
      </trkpt>
      <trkpt lat="45.9570076" lon="7.6686486">
        <ele>2733.2</ele>
        <time>2014-01-30T09:52:50Z</time>
      </trkpt>
      <trkpt lat="45.9570592" lon="7.668725">
        <ele>2734.8</ele>
        <time>2014-01-30T09:52:52Z</time>
      </trkpt>
      <trkpt lat="45.9570924" lon="7.6687905">
        <ele>2736.8</ele>
        <time>2014-01-30T09:52:53Z</time>
      </trkpt>
      <trkpt lat="45.9571299" lon="7.6688782">
        <ele>2740.8</ele>
        <time>2014-01-30T09:52:55Z</time>
      </trkpt>
      <trkpt lat="45.9571682" lon="7.6689396">
        <ele>2742.6</ele>
        <time>2014-01-30T09:52:57Z</time>
      </trkpt>
      <trkpt lat="45.9572024" lon="7.6689796">
        <ele>2744</ele>
        <time>2014-01-30T09:52:58Z</time>
      </trkpt>
      <trkpt lat="45.9572333" lon="7.6690397">
        <ele>2747</ele>
        <time>2014-01-30T09:52:59Z</time>
      </trkpt>
      <trkpt lat="45.957275" lon="7.6691142">
        <ele>2748.8</ele>
        <time>2014-01-30T09:53:01Z</time>
      </trkpt>
      <trkpt lat="45.9573103" lon="7.669192">
        <ele>2750.2</ele>
        <time>2014-01-30T09:53:02Z</time>
      </trkpt>
      <trkpt lat="45.9573239" lon="7.6692317">
        <ele>2751.6</ele>
        <time>2014-01-30T09:53:03Z</time>
      </trkpt>
      <trkpt lat="45.9573568" lon="7.669323">
        <ele>2752.8</ele>
        <time>2014-01-30T09:53:05Z</time>
      </trkpt>
      <trkpt lat="45.9573657" lon="7.6693904">
        <ele>2754</ele>
        <time>2014-01-30T09:53:07Z</time>
      </trkpt>
      <trkpt lat="45.9573465" lon="7.6694347">
        <ele>2755.4</ele>
        <time>2014-01-30T09:53:09Z</time>
      </trkpt>
      <trkpt lat="45.9573415" lon="7.6694955">
        <ele>2759.4</ele>
        <time>2014-01-30T09:53:11Z</time>
      </trkpt>
      <trkpt lat="45.9573375" lon="7.6695831">
        <ele>2762.8</ele>
        <time>2014-01-30T09:53:13Z</time>
      </trkpt>
      <trkpt lat="45.9573602" lon="7.6696387">
        <ele>2762.8</ele>
        <time>2014-01-30T09:53:20Z</time>
      </trkpt>
      <trkpt lat="45.9573785" lon="7.6695868">
        <ele>2762.8</ele>
        <time>2014-01-30T09:53:29Z</time>
      </trkpt>
      <trkpt lat="45.9573516" lon="7.6695141">
        <ele>2762.8</ele>
        <time>2014-01-30T09:53:35Z</time>
      </trkpt>
      <trkpt lat="45.9573174" lon="7.6694722">
        <ele>2760.8</ele>
        <time>2014-01-30T09:53:42Z</time>
      </trkpt>
      <trkpt lat="45.9572729" lon="7.6693981">
        <ele>2760.8</ele>
        <time>2014-01-30T09:53:51Z</time>
      </trkpt>
      <trkpt lat="45.9572454" lon="7.6693458">
        <ele>2760.8</ele>
        <time>2014-01-30T09:54:02Z</time>
      </trkpt>
      <trkpt lat="45.9572277" lon="7.6693089">
        <ele>2760.8</ele>
        <time>2014-01-30T09:54:10Z</time>
      </trkpt>
      <trkpt lat="45.9572148" lon="7.6692729">
        <ele>2760.8</ele>
        <time>2014-01-30T09:54:20Z</time>
      </trkpt>
      <trkpt lat="45.9572066" lon="7.6692485">
        <ele>2760.8</ele>
        <time>2014-01-30T09:54:28Z</time>
      </trkpt>
      <trkpt lat="45.9571939" lon="7.6692253">
        <ele>2759.6</ele>
        <time>2014-01-30T09:54:39Z</time>
      </trkpt>
      <trkpt lat="45.9571934" lon="7.6692215">
        <ele>2759.6</ele>
        <time>2014-01-30T09:54:41Z</time>
      </trkpt>
      <trkpt lat="45.9571807" lon="7.669202">
        <ele>2759.6</ele>
        <time>2014-01-30T09:54:48Z</time>
      </trkpt>
      <trkpt lat="45.9571807" lon="7.669193">
        <ele>2759.6</ele>
        <time>2014-01-30T09:54:54Z</time>
      </trkpt>
      <trkpt lat="45.9571791" lon="7.669181">
        <ele>2759.6</ele>
        <time>2014-01-30T09:55:08Z</time>
      </trkpt>
      <trkpt lat="45.9571701" lon="7.6691573">
        <ele>2759.6</ele>
        <time>2014-01-30T09:55:10Z</time>
      </trkpt>
      <trkpt lat="45.9571732" lon="7.6691603">
        <ele>2759.6</ele>
        <time>2014-01-30T09:55:12Z</time>
      </trkpt>
      <trkpt lat="45.9571656" lon="7.6691422">
        <ele>2759.6</ele>
        <time>2014-01-30T09:55:24Z</time>
      </trkpt>
      <trkpt lat="45.9571592" lon="7.6691315">
        <ele>2759.6</ele>
        <time>2014-01-30T09:55:34Z</time>
      </trkpt>
      <trkpt lat="45.9571521" lon="7.6691194">
        <ele>2759.6</ele>
        <time>2014-01-30T09:55:50Z</time>
      </trkpt>
      <trkpt lat="45.9571491" lon="7.6691138">
        <ele>2759.6</ele>
        <time>2014-01-30T09:55:55Z</time>
      </trkpt>
      <trkpt lat="45.9571501" lon="7.6691142">
        <ele>2759.6</ele>
        <time>2014-01-30T09:56:03Z</time>
      </trkpt>
      <trkpt lat="45.9571561" lon="7.6690992">
        <ele>2759.6</ele>
        <time>2014-01-30T09:56:14Z</time>
      </trkpt>
      <trkpt lat="45.9571516" lon="7.6690975">
        <ele>2759.6</ele>
        <time>2014-01-30T09:56:24Z</time>
      </trkpt>
      <trkpt lat="45.9571485" lon="7.6690993">
        <ele>2759.6</ele>
        <time>2014-01-30T09:56:36Z</time>
      </trkpt>
      <trkpt lat="45.9571489" lon="7.6691007">
        <ele>2759.6</ele>
        <time>2014-01-30T09:56:42Z</time>
      </trkpt>
      <trkpt lat="45.9571469" lon="7.6690951">
        <ele>2759.6</ele>
        <time>2014-01-30T09:56:52Z</time>
      </trkpt>
      <trkpt lat="45.9572066" lon="7.6690777">
        <ele>2759.6</ele>
        <time>2014-01-30T09:56:58Z</time>
      </trkpt>
      <trkpt lat="45.9573168" lon="7.6690504">
        <ele>2762.6</ele>
        <time>2014-01-30T09:57:04Z</time>
      </trkpt>
      <trkpt lat="45.9574039" lon="7.6689988">
        <ele>2762.6</ele>
        <time>2014-01-30T09:57:08Z</time>
      </trkpt>
      <trkpt lat="45.9575276" lon="7.6689346">
        <ele>2762.6</ele>
        <time>2014-01-30T09:57:14Z</time>
      </trkpt>
      <trkpt lat="45.9576581" lon="7.668861">
        <ele>2762.6</ele>
        <time>2014-01-30T09:57:21Z</time>
      </trkpt>
      <trkpt lat="45.9577027" lon="7.6688246">
        <ele>2759.6</ele>
        <time>2014-01-30T09:57:23Z</time>
      </trkpt>
      <trkpt lat="45.9578318" lon="7.6687584">
        <ele>2758.4</ele>
        <time>2014-01-30T09:57:28Z</time>
      </trkpt>
      <trkpt lat="45.9578636" lon="7.6687734">
        <ele>2758.4</ele>
        <time>2014-01-30T09:57:29Z</time>
      </trkpt>
      <trkpt lat="45.9579268" lon="7.6688086">
        <ele>2758.4</ele>
        <time>2014-01-30T09:57:32Z</time>
      </trkpt>
      <trkpt lat="45.9579895" lon="7.6688212">
        <ele>2757.2</ele>
        <time>2014-01-30T09:57:36Z</time>
      </trkpt>
      <trkpt lat="45.9580338" lon="7.668838">
        <ele>2757.2</ele>
        <time>2014-01-30T09:57:38Z</time>
      </trkpt>
      <trkpt lat="45.9580893" lon="7.6688444">
        <ele>2756</ele>
        <time>2014-01-30T09:57:40Z</time>
      </trkpt>
      <trkpt lat="45.9581331" lon="7.6688506">
        <ele>2755</ele>
        <time>2014-01-30T09:57:42Z</time>
      </trkpt>
      <trkpt lat="45.9581879" lon="7.6688263">
        <ele>2754</ele>
        <time>2014-01-30T09:57:44Z</time>
      </trkpt>
      <trkpt lat="45.9582208" lon="7.6688294">
        <ele>2752.8</ele>
        <time>2014-01-30T09:57:45Z</time>
      </trkpt>
      <trkpt lat="45.9582194" lon="7.668805">
        <ele>2752.8</ele>
        <time>2014-01-30T09:57:46Z</time>
      </trkpt>
      <trkpt lat="45.9582211" lon="7.6687936">
        <ele>2751.8</ele>
        <time>2014-01-30T09:57:47Z</time>
      </trkpt>
      <trkpt lat="45.9582261" lon="7.6688057">
        <ele>2751.8</ele>
        <time>2014-01-30T09:57:49Z</time>
      </trkpt>
      <trkpt lat="45.9582352" lon="7.6687838">
        <ele>2751.8</ele>
        <time>2014-01-30T09:57:58Z</time>
      </trkpt>
      <trkpt lat="45.9582374" lon="7.668779">
        <ele>2751.8</ele>
        <time>2014-01-30T09:58:09Z</time>
      </trkpt>
      <trkpt lat="45.9582416" lon="7.6687418">
        <ele>2750.4</ele>
        <time>2014-01-30T09:58:12Z</time>
      </trkpt>
      <trkpt lat="45.9582716" lon="7.6686889">
        <ele>2747.6</ele>
        <time>2014-01-30T09:58:13Z</time>
      </trkpt>
      <trkpt lat="45.9582932" lon="7.6686423">
        <ele>2746.2</ele>
        <time>2014-01-30T09:58:14Z</time>
      </trkpt>
      <trkpt lat="45.958333" lon="7.6685823">
        <ele>2745</ele>
        <time>2014-01-30T09:58:15Z</time>
      </trkpt>
      <trkpt lat="45.9583938" lon="7.6685078">
        <ele>2741.6</ele>
        <time>2014-01-30T09:58:16Z</time>
      </trkpt>
      <trkpt lat="45.9584329" lon="7.6683976">
        <ele>2738</ele>
        <time>2014-01-30T09:58:17Z</time>
      </trkpt>
      <trkpt lat="45.9584687" lon="7.6683128">
        <ele>2736.4</ele>
        <time>2014-01-30T09:58:18Z</time>
      </trkpt>
      <trkpt lat="45.9584971" lon="7.668201">
        <ele>2732.8</ele>
        <time>2014-01-30T09:58:19Z</time>
      </trkpt>
      <trkpt lat="45.9585327" lon="7.668091">
        <ele>2729.8</ele>
        <time>2014-01-30T09:58:20Z</time>
      </trkpt>
      <trkpt lat="45.9585069" lon="7.6680261">
        <ele>2728.4</ele>
        <time>2014-01-30T09:58:21Z</time>
      </trkpt>
      <trkpt lat="45.9585607" lon="7.6679313">
        <ele>2725</ele>
        <time>2014-01-30T09:58:22Z</time>
      </trkpt>
      <trkpt lat="45.9585799" lon="7.6678309">
        <ele>2719.8</ele>
        <time>2014-01-30T09:58:23Z</time>
      </trkpt>
      <trkpt lat="45.9585999" lon="7.6677462">
        <ele>2717.8</ele>
        <time>2014-01-30T09:58:24Z</time>
      </trkpt>
      <trkpt lat="45.9586521" lon="7.6677339">
        <ele>2716.2</ele>
        <time>2014-01-30T09:58:25Z</time>
      </trkpt>
      <trkpt lat="45.9586943" lon="7.667706">
        <ele>2714.8</ele>
        <time>2014-01-30T09:58:26Z</time>
      </trkpt>
      <trkpt lat="45.9586759" lon="7.6676957">
        <ele>2714.8</ele>
        <time>2014-01-30T09:58:27Z</time>
      </trkpt>
      <trkpt lat="45.9586765" lon="7.6676966">
        <ele>2714.8</ele>
        <time>2014-01-30T09:58:28Z</time>
      </trkpt>
      <trkpt lat="45.9586583" lon="7.667703">
        <ele>2714.8</ele>
        <time>2014-01-30T09:58:35Z</time>
      </trkpt>
      <trkpt lat="45.958656" lon="7.667715">
        <ele>2714.8</ele>
        <time>2014-01-30T09:58:54Z</time>
      </trkpt>
      <trkpt lat="45.9586559" lon="7.6677215">
        <ele>2714.8</ele>
        <time>2014-01-30T09:59:04Z</time>
      </trkpt>
      <trkpt lat="45.958652" lon="7.6676971">
        <ele>2713.8</ele>
        <time>2014-01-30T09:59:21Z</time>
      </trkpt>
      <trkpt lat="45.9586687" lon="7.6676354">
        <ele>2712.6</ele>
        <time>2014-01-30T09:59:22Z</time>
      </trkpt>
      <trkpt lat="45.9586689" lon="7.6675942">
        <ele>2711.4</ele>
        <time>2014-01-30T09:59:23Z</time>
      </trkpt>
      <trkpt lat="45.9586933" lon="7.6675356">
        <ele>2709.8</ele>
        <time>2014-01-30T09:59:24Z</time>
      </trkpt>
      <trkpt lat="45.9587165" lon="7.6674751">
        <ele>2706.6</ele>
        <time>2014-01-30T09:59:25Z</time>
      </trkpt>
      <trkpt lat="45.9587245" lon="7.6674213">
        <ele>2704.8</ele>
        <time>2014-01-30T09:59:26Z</time>
      </trkpt>
      <trkpt lat="45.9587541" lon="7.6674235">
        <ele>2703.6</ele>
        <time>2014-01-30T09:59:27Z</time>
      </trkpt>
      <trkpt lat="45.9587565" lon="7.6673645">
        <ele>2702</ele>
        <time>2014-01-30T09:59:28Z</time>
      </trkpt>
      <trkpt lat="45.9587786" lon="7.6673014">
        <ele>2697.8</ele>
        <time>2014-01-30T09:59:29Z</time>
      </trkpt>
      <trkpt lat="45.9587926" lon="7.6672092">
        <ele>2695</ele>
        <time>2014-01-30T09:59:31Z</time>
      </trkpt>
      <trkpt lat="45.9588431" lon="7.6671625">
        <ele>2693.2</ele>
        <time>2014-01-30T09:59:32Z</time>
      </trkpt>
      <trkpt lat="45.9588668" lon="7.6671564">
        <ele>2692.2</ele>
        <time>2014-01-30T09:59:33Z</time>
      </trkpt>
      <trkpt lat="45.9588843" lon="7.6671337">
        <ele>2691.2</ele>
        <time>2014-01-30T09:59:35Z</time>
      </trkpt>
      <trkpt lat="45.9588826" lon="7.6671262">
        <ele>2691.2</ele>
        <time>2014-01-30T09:59:40Z</time>
      </trkpt>
      <trkpt lat="45.9588756" lon="7.6671253">
        <ele>2690.2</ele>
        <time>2014-01-30T09:59:41Z</time>
      </trkpt>
      <trkpt lat="45.9588624" lon="7.6671247">
        <ele>2689.2</ele>
        <time>2014-01-30T09:59:47Z</time>
      </trkpt>
      <trkpt lat="45.9588386" lon="7.6671156">
        <ele>2689.2</ele>
        <time>2014-01-30T09:59:56Z</time>
      </trkpt>
      <trkpt lat="45.9588382" lon="7.6671156">
        <ele>2688.2</ele>
        <time>2014-01-30T09:59:57Z</time>
      </trkpt>
      <trkpt lat="45.9588191" lon="7.6671044">
        <ele>2688.2</ele>
        <time>2014-01-30T10:00:04Z</time>
      </trkpt>
      <trkpt lat="45.9587954" lon="7.667049">
        <ele>2686.4</ele>
        <time>2014-01-30T10:00:09Z</time>
      </trkpt>
      <trkpt lat="45.9587627" lon="7.6670247">
        <ele>2685.4</ele>
        <time>2014-01-30T10:00:10Z</time>
      </trkpt>
      <trkpt lat="45.9587363" lon="7.6670074">
        <ele>2684.2</ele>
        <time>2014-01-30T10:00:11Z</time>
      </trkpt>
      <trkpt lat="45.9586923" lon="7.6669698">
        <ele>2683.2</ele>
        <time>2014-01-30T10:00:12Z</time>
      </trkpt>
      <trkpt lat="45.958657" lon="7.6669273">
        <ele>2680.8</ele>
        <time>2014-01-30T10:00:13Z</time>
      </trkpt>
      <trkpt lat="45.9586302" lon="7.6668928">
        <ele>2680.8</ele>
        <time>2014-01-30T10:00:14Z</time>
      </trkpt>
      <trkpt lat="45.9586143" lon="7.6668746">
        <ele>2679.6</ele>
        <time>2014-01-30T10:00:15Z</time>
      </trkpt>
      <trkpt lat="45.958593" lon="7.666848">
        <ele>2678.6</ele>
        <time>2014-01-30T10:00:16Z</time>
      </trkpt>
      <trkpt lat="45.9585861" lon="7.6668287">
        <ele>2677.2</ele>
        <time>2014-01-30T10:00:17Z</time>
      </trkpt>
      <trkpt lat="45.9585835" lon="7.6668173">
        <ele>2677.2</ele>
        <time>2014-01-30T10:00:18Z</time>
      </trkpt>
      <trkpt lat="45.9585676" lon="7.6667863">
        <ele>2675.6</ele>
        <time>2014-01-30T10:00:19Z</time>
      </trkpt>
      <trkpt lat="45.9585589" lon="7.666759">
        <ele>2675.6</ele>
        <time>2014-01-30T10:00:21Z</time>
      </trkpt>
      <trkpt lat="45.9585679" lon="7.666752">
        <ele>2674.6</ele>
        <time>2014-01-30T10:00:22Z</time>
      </trkpt>
      <trkpt lat="45.958552" lon="7.6667199">
        <ele>2673</ele>
        <time>2014-01-30T10:00:25Z</time>
      </trkpt>
      <trkpt lat="45.9584974" lon="7.666663">
        <ele>2671.8</ele>
        <time>2014-01-30T10:00:28Z</time>
      </trkpt>
      <trkpt lat="45.9585218" lon="7.666614">
        <ele>2669.4</ele>
        <time>2014-01-30T10:00:29Z</time>
      </trkpt>
      <trkpt lat="45.9585352" lon="7.6665437">
        <ele>2667</ele>
        <time>2014-01-30T10:00:31Z</time>
      </trkpt>
      <trkpt lat="45.9585358" lon="7.6664804">
        <ele>2664.4</ele>
        <time>2014-01-30T10:00:32Z</time>
      </trkpt>
      <trkpt lat="45.9585773" lon="7.6664418">
        <ele>2660.2</ele>
        <time>2014-01-30T10:00:33Z</time>
      </trkpt>
      <trkpt lat="45.9585483" lon="7.6663533">
        <ele>2659.2</ele>
        <time>2014-01-30T10:00:34Z</time>
      </trkpt>
      <trkpt lat="45.9585746" lon="7.6662938">
        <ele>2653.6</ele>
        <time>2014-01-30T10:00:35Z</time>
      </trkpt>
      <trkpt lat="45.9586031" lon="7.6661486">
        <ele>2648</ele>
        <time>2014-01-30T10:00:37Z</time>
      </trkpt>
      <trkpt lat="45.9586012" lon="7.6660763">
        <ele>2646.2</ele>
        <time>2014-01-30T10:00:38Z</time>
      </trkpt>
      <trkpt lat="45.9586429" lon="7.6660275">
        <ele>2644</ele>
        <time>2014-01-30T10:00:39Z</time>
      </trkpt>
      <trkpt lat="45.9586146" lon="7.665953">
        <ele>2640.6</ele>
        <time>2014-01-30T10:00:40Z</time>
      </trkpt>
      <trkpt lat="45.9586399" lon="7.6658933">
        <ele>2638.8</ele>
        <time>2014-01-30T10:00:41Z</time>
      </trkpt>
      <trkpt lat="45.9586424" lon="7.6657968">
        <ele>2633.8</ele>
        <time>2014-01-30T10:00:42Z</time>
      </trkpt>
      <trkpt lat="45.9586257" lon="7.6657027">
        <ele>2626.2</ele>
        <time>2014-01-30T10:00:43Z</time>
      </trkpt>
      <trkpt lat="45.9586462" lon="7.6656096">
        <ele>2624.2</ele>
        <time>2014-01-30T10:00:44Z</time>
      </trkpt>
      <trkpt lat="45.958653" lon="7.6655369">
        <ele>2622.2</ele>
        <time>2014-01-30T10:00:45Z</time>
      </trkpt>
      <trkpt lat="45.9587059" lon="7.6654273">
        <ele>2618</ele>
        <time>2014-01-30T10:00:46Z</time>
      </trkpt>
      <trkpt lat="45.9587236" lon="7.6653061">
        <ele>2612.8</ele>
        <time>2014-01-30T10:00:47Z</time>
      </trkpt>
      <trkpt lat="45.9587459" lon="7.6652003">
        <ele>2611.2</ele>
        <time>2014-01-30T10:00:48Z</time>
      </trkpt>
      <trkpt lat="45.9586941" lon="7.6651157">
        <ele>2605.2</ele>
        <time>2014-01-30T10:00:49Z</time>
      </trkpt>
      <trkpt lat="45.958673" lon="7.6650096">
        <ele>2603.6</ele>
        <time>2014-01-30T10:00:50Z</time>
      </trkpt>
      <trkpt lat="45.9586417" lon="7.664964">
        <ele>2602</ele>
        <time>2014-01-30T10:00:51Z</time>
      </trkpt>
      <trkpt lat="45.9586048" lon="7.6649089">
        <ele>2599.6</ele>
        <time>2014-01-30T10:00:52Z</time>
      </trkpt>
      <trkpt lat="45.9586268" lon="7.6648733">
        <ele>2597.4</ele>
        <time>2014-01-30T10:00:53Z</time>
      </trkpt>
      <trkpt lat="45.9586221" lon="7.6648667">
        <ele>2597.4</ele>
        <time>2014-01-30T10:00:58Z</time>
      </trkpt>
      <trkpt lat="45.9586222" lon="7.6648702">
        <ele>2596.4</ele>
        <time>2014-01-30T10:01:01Z</time>
      </trkpt>
      <trkpt lat="45.9586262" lon="7.6648708">
        <ele>2596.4</ele>
        <time>2014-01-30T10:01:08Z</time>
      </trkpt>
      <trkpt lat="45.9586255" lon="7.6648649">
        <ele>2596.4</ele>
        <time>2014-01-30T10:01:15Z</time>
      </trkpt>
      <trkpt lat="45.9586306" lon="7.6648353">
        <ele>2595.4</ele>
        <time>2014-01-30T10:01:16Z</time>
      </trkpt>
      <trkpt lat="45.9586003" lon="7.6647917">
        <ele>2593.8</ele>
        <time>2014-01-30T10:01:17Z</time>
      </trkpt>
      <trkpt lat="45.9585757" lon="7.6647677">
        <ele>2593.8</ele>
        <time>2014-01-30T10:01:18Z</time>
      </trkpt>
      <trkpt lat="45.9585457" lon="7.6647036">
        <ele>2590.4</ele>
        <time>2014-01-30T10:01:19Z</time>
      </trkpt>
      <trkpt lat="45.9585188" lon="7.6646351">
        <ele>2588.8</ele>
        <time>2014-01-30T10:01:20Z</time>
      </trkpt>
      <trkpt lat="45.9585175" lon="7.6645557">
        <ele>2587.6</ele>
        <time>2014-01-30T10:01:21Z</time>
      </trkpt>
      <trkpt lat="45.958495" lon="7.6644411">
        <ele>2583.6</ele>
        <time>2014-01-30T10:01:22Z</time>
      </trkpt>
      <trkpt lat="45.958467" lon="7.6643217">
        <ele>2578.4</ele>
        <time>2014-01-30T10:01:23Z</time>
      </trkpt>
      <trkpt lat="45.9584411" lon="7.6642108">
        <ele>2576.6</ele>
        <time>2014-01-30T10:01:24Z</time>
      </trkpt>
      <trkpt lat="45.9584022" lon="7.6640994">
        <ele>2571</ele>
        <time>2014-01-30T10:01:25Z</time>
      </trkpt>
      <trkpt lat="45.9583638" lon="7.6639818">
        <ele>2568.8</ele>
        <time>2014-01-30T10:01:26Z</time>
      </trkpt>
      <trkpt lat="45.9583359" lon="7.6638606">
        <ele>2562.4</ele>
        <time>2014-01-30T10:01:27Z</time>
      </trkpt>
      <trkpt lat="45.9583139" lon="7.6637277">
        <ele>2560.4</ele>
        <time>2014-01-30T10:01:28Z</time>
      </trkpt>
      <trkpt lat="45.9582496" lon="7.6636023">
        <ele>2555.6</ele>
        <time>2014-01-30T10:01:29Z</time>
      </trkpt>
      <trkpt lat="45.9581803" lon="7.6635101">
        <ele>2554.2</ele>
        <time>2014-01-30T10:01:30Z</time>
      </trkpt>
      <trkpt lat="45.9581331" lon="7.6635128">
        <ele>2551.8</ele>
        <time>2014-01-30T10:01:31Z</time>
      </trkpt>
      <trkpt lat="45.9580923" lon="7.6634645">
        <ele>2551.8</ele>
        <time>2014-01-30T10:01:32Z</time>
      </trkpt>
      <trkpt lat="45.9580789" lon="7.6634581">
        <ele>2550.6</ele>
        <time>2014-01-30T10:01:33Z</time>
      </trkpt>
      <trkpt lat="45.958074" lon="7.6634584">
        <ele>2550.6</ele>
        <time>2014-01-30T10:01:34Z</time>
      </trkpt>
      <trkpt lat="45.9580768" lon="7.6634535">
        <ele>2549.6</ele>
        <time>2014-01-30T10:01:41Z</time>
      </trkpt>
      <trkpt lat="45.9580768" lon="7.6634535">
        <ele>2549.6</ele>
        <time>2014-01-30T10:01:42Z</time>
      </trkpt>
      <trkpt lat="45.9579741" lon="7.6634633">
        <ele>2548.2</ele>
        <time>2014-01-30T10:01:46Z</time>
      </trkpt>
      <trkpt lat="45.9579164" lon="7.6634622">
        <ele>2546.8</ele>
        <time>2014-01-30T10:01:47Z</time>
      </trkpt>
      <trkpt lat="45.9578027" lon="7.6634545">
        <ele>2545.6</ele>
        <time>2014-01-30T10:01:49Z</time>
      </trkpt>
      <trkpt lat="45.9577399" lon="7.6634497">
        <ele>2544.6</ele>
        <time>2014-01-30T10:01:50Z</time>
      </trkpt>
      <trkpt lat="45.9576058" lon="7.6634509">
        <ele>2543</ele>
        <time>2014-01-30T10:01:52Z</time>
      </trkpt>
      <trkpt lat="45.9575404" lon="7.6634862">
        <ele>2542</ele>
        <time>2014-01-30T10:01:53Z</time>
      </trkpt>
      <trkpt lat="45.9574829" lon="7.6635043">
        <ele>2540.8</ele>
        <time>2014-01-30T10:01:54Z</time>
      </trkpt>
      <trkpt lat="45.957429" lon="7.6634779">
        <ele>2539</ele>
        <time>2014-01-30T10:01:55Z</time>
      </trkpt>
      <trkpt lat="45.9573199" lon="7.6634816">
        <ele>2536.8</ele>
        <time>2014-01-30T10:01:57Z</time>
      </trkpt>
      <trkpt lat="45.9572668" lon="7.6635028">
        <ele>2536.8</ele>
        <time>2014-01-30T10:01:58Z</time>
      </trkpt>
      <trkpt lat="45.9571988" lon="7.6634971">
        <ele>2535.8</ele>
        <time>2014-01-30T10:01:59Z</time>
      </trkpt>
      <trkpt lat="45.9571419" lon="7.6635144">
        <ele>2534.6</ele>
        <time>2014-01-30T10:02:00Z</time>
      </trkpt>
      <trkpt lat="45.9570873" lon="7.6635306">
        <ele>2532</ele>
        <time>2014-01-30T10:02:01Z</time>
      </trkpt>
      <trkpt lat="45.9569594" lon="7.6635719">
        <ele>2529</ele>
        <time>2014-01-30T10:02:03Z</time>
      </trkpt>
      <trkpt lat="45.9568936" lon="7.6635896">
        <ele>2529</ele>
        <time>2014-01-30T10:02:04Z</time>
      </trkpt>
      <trkpt lat="45.9568406" lon="7.6636339">
        <ele>2525.6</ele>
        <time>2014-01-30T10:02:05Z</time>
      </trkpt>
      <trkpt lat="45.956775" lon="7.6636538">
        <ele>2524.6</ele>
        <time>2014-01-30T10:02:06Z</time>
      </trkpt>
      <trkpt lat="45.9567216" lon="7.6636928">
        <ele>2523.6</ele>
        <time>2014-01-30T10:02:07Z</time>
      </trkpt>
      <trkpt lat="45.9566834" lon="7.6637316">
        <ele>2523.6</ele>
        <time>2014-01-30T10:02:08Z</time>
      </trkpt>
      <trkpt lat="45.956701" lon="7.6637186">
        <ele>2523.6</ele>
        <time>2014-01-30T10:02:10Z</time>
      </trkpt>
      <trkpt lat="45.9566921" lon="7.6637338">
        <ele>2523.6</ele>
        <time>2014-01-30T10:02:18Z</time>
      </trkpt>
      <trkpt lat="45.9566957" lon="7.6637436">
        <ele>2523.6</ele>
        <time>2014-01-30T10:02:31Z</time>
      </trkpt>
      <trkpt lat="45.9566419" lon="7.6637466">
        <ele>2523.6</ele>
        <time>2014-01-30T10:02:41Z</time>
      </trkpt>
      <trkpt lat="45.9565742" lon="7.6636775">
        <ele>2521.4</ele>
        <time>2014-01-30T10:02:43Z</time>
      </trkpt>
      <trkpt lat="45.9564997" lon="7.6635727">
        <ele>2518.6</ele>
        <time>2014-01-30T10:02:45Z</time>
      </trkpt>
      <trkpt lat="45.956443" lon="7.6635057">
        <ele>2517.4</ele>
        <time>2014-01-30T10:02:46Z</time>
      </trkpt>
      <trkpt lat="45.956396" lon="7.6634835">
        <ele>2516.4</ele>
        <time>2014-01-30T10:02:47Z</time>
      </trkpt>
      <trkpt lat="45.9563672" lon="7.663493">
        <ele>2515.4</ele>
        <time>2014-01-30T10:02:48Z</time>
      </trkpt>
      <trkpt lat="45.9563699" lon="7.6634895">
        <ele>2515.4</ele>
        <time>2014-01-30T10:02:51Z</time>
      </trkpt>
      <trkpt lat="45.956368" lon="7.6634916">
        <ele>2515.4</ele>
        <time>2014-01-30T10:03:01Z</time>
      </trkpt>
      <trkpt lat="45.9563695" lon="7.6634892">
        <ele>2515.4</ele>
        <time>2014-01-30T10:03:17Z</time>
      </trkpt>
      <trkpt lat="45.9563644" lon="7.6634909">
        <ele>2514</ele>
        <time>2014-01-30T10:03:25Z</time>
      </trkpt>
      <trkpt lat="45.9563622" lon="7.6634939">
        <ele>2514</ele>
        <time>2014-01-30T10:03:27Z</time>
      </trkpt>
      <trkpt lat="45.9563666" lon="7.6635094">
        <ele>2514</ele>
        <time>2014-01-30T10:03:28Z</time>
      </trkpt>
      <trkpt lat="45.9563641" lon="7.6635121">
        <ele>2514</ele>
        <time>2014-01-30T10:03:33Z</time>
      </trkpt>
      <trkpt lat="45.9563705" lon="7.6635162">
        <ele>2514</ele>
        <time>2014-01-30T10:03:47Z</time>
      </trkpt>
      <trkpt lat="45.9563664" lon="7.6635111">
        <ele>2514</ele>
        <time>2014-01-30T10:04:00Z</time>
      </trkpt>
      <trkpt lat="45.9563715" lon="7.6635031">
        <ele>2514</ele>
        <time>2014-01-30T10:04:11Z</time>
      </trkpt>
      <trkpt lat="45.9563706" lon="7.6635001">
        <ele>2514</ele>
        <time>2014-01-30T10:04:19Z</time>
      </trkpt>
      <trkpt lat="45.9563665" lon="7.6635061">
        <ele>2514</ele>
        <time>2014-01-30T10:04:29Z</time>
      </trkpt>
      <trkpt lat="45.9563637" lon="7.6635037">
        <ele>2514</ele>
        <time>2014-01-30T10:04:42Z</time>
      </trkpt>
      <trkpt lat="45.9563658" lon="7.6635016">
        <ele>2514</ele>
        <time>2014-01-30T10:05:08Z</time>
      </trkpt>
      <trkpt lat="45.956359" lon="7.6634821">
        <ele>2514</ele>
        <time>2014-01-30T10:05:13Z</time>
      </trkpt>
      <trkpt lat="45.9563309" lon="7.6634262">
        <ele>2514</ele>
        <time>2014-01-30T10:05:16Z</time>
      </trkpt>
      <trkpt lat="45.9562238" lon="7.6633034">
        <ele>2513</ele>
        <time>2014-01-30T10:05:19Z</time>
      </trkpt>
      <trkpt lat="45.9561869" lon="7.6632477">
        <ele>2511.6</ele>
        <time>2014-01-30T10:05:20Z</time>
      </trkpt>
      <trkpt lat="45.9561542" lon="7.6631829">
        <ele>2510.6</ele>
        <time>2014-01-30T10:05:21Z</time>
      </trkpt>
      <trkpt lat="45.9561176" lon="7.6630784">
        <ele>2509.2</ele>
        <time>2014-01-30T10:05:22Z</time>
      </trkpt>
      <trkpt lat="45.9560512" lon="7.6629856">
        <ele>2506.2</ele>
        <time>2014-01-30T10:05:23Z</time>
      </trkpt>
      <trkpt lat="45.9560079" lon="7.6628906">
        <ele>2505.2</ele>
        <time>2014-01-30T10:05:24Z</time>
      </trkpt>
      <trkpt lat="45.9559696" lon="7.662798">
        <ele>2503.2</ele>
        <time>2014-01-30T10:05:25Z</time>
      </trkpt>
      <trkpt lat="45.9559313" lon="7.6626975">
        <ele>2502</ele>
        <time>2014-01-30T10:05:26Z</time>
      </trkpt>
      <trkpt lat="45.9558852" lon="7.6625871">
        <ele>2498.4</ele>
        <time>2014-01-30T10:05:27Z</time>
      </trkpt>
      <trkpt lat="45.955845" lon="7.662507">
        <ele>2498.4</ele>
        <time>2014-01-30T10:05:28Z</time>
      </trkpt>
      <trkpt lat="45.9558228" lon="7.6624205">
        <ele>2495</ele>
        <time>2014-01-30T10:05:29Z</time>
      </trkpt>
      <trkpt lat="45.9557796" lon="7.6622828">
        <ele>2493.4</ele>
        <time>2014-01-30T10:05:31Z</time>
      </trkpt>
      <trkpt lat="45.9557642" lon="7.6622065">
        <ele>2492</ele>
        <time>2014-01-30T10:05:32Z</time>
      </trkpt>
      <trkpt lat="45.9557558" lon="7.6621264">
        <ele>2488.8</ele>
        <time>2014-01-30T10:05:33Z</time>
      </trkpt>
      <trkpt lat="45.9557408" lon="7.661919">
        <ele>2484</ele>
        <time>2014-01-30T10:05:35Z</time>
      </trkpt>
      <trkpt lat="45.9557355" lon="7.6616541">
        <ele>2477.4</ele>
        <time>2014-01-30T10:05:37Z</time>
      </trkpt>
      <trkpt lat="45.9557401" lon="7.6615101">
        <ele>2475.8</ele>
        <time>2014-01-30T10:05:38Z</time>
      </trkpt>
      <trkpt lat="45.9558016" lon="7.6613542">
        <ele>2470</ele>
        <time>2014-01-30T10:05:39Z</time>
      </trkpt>
      <trkpt lat="45.9558522" lon="7.66119">
        <ele>2468</ele>
        <time>2014-01-30T10:05:40Z</time>
      </trkpt>
      <trkpt lat="45.9558842" lon="7.6610113">
        <ele>2466.6</ele>
        <time>2014-01-30T10:05:41Z</time>
      </trkpt>
      <trkpt lat="45.9559179" lon="7.6608469">
        <ele>2465.2</ele>
        <time>2014-01-30T10:05:42Z</time>
      </trkpt>
      <trkpt lat="45.9559313" lon="7.6606825">
        <ele>2465.2</ele>
        <time>2014-01-30T10:05:43Z</time>
      </trkpt>
      <trkpt lat="45.9559443" lon="7.660423">
        <ele>2463.8</ele>
        <time>2014-01-30T10:05:45Z</time>
      </trkpt>
      <trkpt lat="45.9559218" lon="7.6602844">
        <ele>2462.8</ele>
        <time>2014-01-30T10:05:46Z</time>
      </trkpt>
      <trkpt lat="45.9558603" lon="7.660118">
        <ele>2458.2</ele>
        <time>2014-01-30T10:05:47Z</time>
      </trkpt>
      <trkpt lat="45.9557902" lon="7.6599916">
        <ele>2455.2</ele>
        <time>2014-01-30T10:05:48Z</time>
      </trkpt>
      <trkpt lat="45.9557004" lon="7.6598799">
        <ele>2451.6</ele>
        <time>2014-01-30T10:05:49Z</time>
      </trkpt>
      <trkpt lat="45.9555907" lon="7.6597815">
        <ele>2447.6</ele>
        <time>2014-01-30T10:05:50Z</time>
      </trkpt>
      <trkpt lat="45.9554739" lon="7.6596912">
        <ele>2446</ele>
        <time>2014-01-30T10:05:51Z</time>
      </trkpt>
      <trkpt lat="45.9553469" lon="7.6595799">
        <ele>2441.6</ele>
        <time>2014-01-30T10:05:52Z</time>
      </trkpt>
      <trkpt lat="45.9552233" lon="7.6595106">
        <ele>2439.2</ele>
        <time>2014-01-30T10:05:53Z</time>
      </trkpt>
      <trkpt lat="45.955107" lon="7.6594324">
        <ele>2437</ele>
        <time>2014-01-30T10:05:54Z</time>
      </trkpt>
      <trkpt lat="45.95499" lon="7.6593607">
        <ele>2434.8</ele>
        <time>2014-01-30T10:05:55Z</time>
      </trkpt>
      <trkpt lat="45.9548705" lon="7.6593052">
        <ele>2434.8</ele>
        <time>2014-01-30T10:05:56Z</time>
      </trkpt>
      <trkpt lat="45.9547766" lon="7.6592446">
        <ele>2431.2</ele>
        <time>2014-01-30T10:05:57Z</time>
      </trkpt>
      <trkpt lat="45.9546426" lon="7.6591018">
        <ele>2427</ele>
        <time>2014-01-30T10:05:58Z</time>
      </trkpt>
      <trkpt lat="45.9545361" lon="7.6589939">
        <ele>2426</ele>
        <time>2014-01-30T10:05:59Z</time>
      </trkpt>
      <trkpt lat="45.9544859" lon="7.658837">
        <ele>2423.6</ele>
        <time>2014-01-30T10:06:00Z</time>
      </trkpt>
      <trkpt lat="45.9544259" lon="7.6586833">
        <ele>2423.6</ele>
        <time>2014-01-30T10:06:01Z</time>
      </trkpt>
      <trkpt lat="45.9543984" lon="7.6585158">
        <ele>2422.4</ele>
        <time>2014-01-30T10:06:02Z</time>
      </trkpt>
      <trkpt lat="45.9543362" lon="7.6583839">
        <ele>2420.6</ele>
        <time>2014-01-30T10:06:03Z</time>
      </trkpt>
      <trkpt lat="45.9543138" lon="7.6582776">
        <ele>2419.6</ele>
        <time>2014-01-30T10:06:04Z</time>
      </trkpt>
      <trkpt lat="45.9542556" lon="7.6580678">
        <ele>2418.4</ele>
        <time>2014-01-30T10:06:06Z</time>
      </trkpt>
      <trkpt lat="45.9541881" lon="7.6578976">
        <ele>2417.4</ele>
        <time>2014-01-30T10:06:08Z</time>
      </trkpt>
      <trkpt lat="45.9541745" lon="7.6578198">
        <ele>2417.4</ele>
        <time>2014-01-30T10:06:09Z</time>
      </trkpt>
      <trkpt lat="45.9541853" lon="7.6577562">
        <ele>2417.4</ele>
        <time>2014-01-30T10:06:11Z</time>
      </trkpt>
      <trkpt lat="45.9541892" lon="7.6577269">
        <ele>2417.4</ele>
        <time>2014-01-30T10:06:12Z</time>
      </trkpt>
      <trkpt lat="45.9541901" lon="7.6576827">
        <ele>2416.2</ele>
        <time>2014-01-30T10:06:13Z</time>
      </trkpt>
      <trkpt lat="45.9541954" lon="7.6575678">
        <ele>2415</ele>
        <time>2014-01-30T10:06:15Z</time>
      </trkpt>
      <trkpt lat="45.954202" lon="7.6574904">
        <ele>2413.8</ele>
        <time>2014-01-30T10:06:16Z</time>
      </trkpt>
      <trkpt lat="45.954215" lon="7.65737">
        <ele>2412.2</ele>
        <time>2014-01-30T10:06:17Z</time>
      </trkpt>
      <trkpt lat="45.9542297" lon="7.6572747">
        <ele>2409.6</ele>
        <time>2014-01-30T10:06:18Z</time>
      </trkpt>
      <trkpt lat="45.9542726" lon="7.6571215">
        <ele>2407.2</ele>
        <time>2014-01-30T10:06:19Z</time>
      </trkpt>
      <trkpt lat="45.9543057" lon="7.6570051">
        <ele>2405</ele>
        <time>2014-01-30T10:06:20Z</time>
      </trkpt>
      <trkpt lat="45.9543352" lon="7.6568548">
        <ele>2402.8</ele>
        <time>2014-01-30T10:06:21Z</time>
      </trkpt>
      <trkpt lat="45.954368" lon="7.6567071">
        <ele>2400.6</ele>
        <time>2014-01-30T10:06:22Z</time>
      </trkpt>
      <trkpt lat="45.9543963" lon="7.6565219">
        <ele>2397.8</ele>
        <time>2014-01-30T10:06:23Z</time>
      </trkpt>
      <trkpt lat="45.9544171" lon="7.6563752">
        <ele>2394.8</ele>
        <time>2014-01-30T10:06:24Z</time>
      </trkpt>
      <trkpt lat="45.9544535" lon="7.6561759">
        <ele>2392</ele>
        <time>2014-01-30T10:06:25Z</time>
      </trkpt>
      <trkpt lat="45.9544685" lon="7.6560293">
        <ele>2389.2</ele>
        <time>2014-01-30T10:06:26Z</time>
      </trkpt>
      <trkpt lat="45.9544939" lon="7.6558449">
        <ele>2387</ele>
        <time>2014-01-30T10:06:27Z</time>
      </trkpt>
      <trkpt lat="45.9545067" lon="7.655726">
        <ele>2384.6</ele>
        <time>2014-01-30T10:06:28Z</time>
      </trkpt>
      <trkpt lat="45.954526" lon="7.6555726">
        <ele>2383</ele>
        <time>2014-01-30T10:06:29Z</time>
      </trkpt>
      <trkpt lat="45.9545155" lon="7.6554826">
        <ele>2382</ele>
        <time>2014-01-30T10:06:30Z</time>
      </trkpt>
      <trkpt lat="45.9544907" lon="7.6553516">
        <ele>2379.8</ele>
        <time>2014-01-30T10:06:31Z</time>
      </trkpt>
      <trkpt lat="45.9544393" lon="7.6551094">
        <ele>2377.4</ele>
        <time>2014-01-30T10:06:33Z</time>
      </trkpt>
      <trkpt lat="45.9544036" lon="7.6550063">
        <ele>2376</ele>
        <time>2014-01-30T10:06:34Z</time>
      </trkpt>
      <trkpt lat="45.9543475" lon="7.6548918">
        <ele>2373.8</ele>
        <time>2014-01-30T10:06:35Z</time>
      </trkpt>
      <trkpt lat="45.9543048" lon="7.6548049">
        <ele>2372.6</ele>
        <time>2014-01-30T10:06:36Z</time>
      </trkpt>
      <trkpt lat="45.9542347" lon="7.6546826">
        <ele>2369.4</ele>
        <time>2014-01-30T10:06:37Z</time>
      </trkpt>
      <trkpt lat="45.9541144" lon="7.6544963">
        <ele>2367.8</ele>
        <time>2014-01-30T10:06:39Z</time>
      </trkpt>
      <trkpt lat="45.9540597" lon="7.6544279">
        <ele>2366.4</ele>
        <time>2014-01-30T10:06:40Z</time>
      </trkpt>
      <trkpt lat="45.9540086" lon="7.6543271">
        <ele>2363</ele>
        <time>2014-01-30T10:06:41Z</time>
      </trkpt>
      <trkpt lat="45.9539591" lon="7.6542731">
        <ele>2361</ele>
        <time>2014-01-30T10:06:42Z</time>
      </trkpt>
      <trkpt lat="45.9539001" lon="7.6542258">
        <ele>2359.8</ele>
        <time>2014-01-30T10:06:43Z</time>
      </trkpt>
      <trkpt lat="45.9538835" lon="7.654171">
        <ele>2358.4</ele>
        <time>2014-01-30T10:06:44Z</time>
      </trkpt>
      <trkpt lat="45.9538856" lon="7.6541076">
        <ele>2357.2</ele>
        <time>2014-01-30T10:06:45Z</time>
      </trkpt>
      <trkpt lat="45.9539106" lon="7.6540014">
        <ele>2357.2</ele>
        <time>2014-01-30T10:06:49Z</time>
      </trkpt>
      <trkpt lat="45.9539286" lon="7.6539687">
        <ele>2357.2</ele>
        <time>2014-01-30T10:06:53Z</time>
      </trkpt>
      <trkpt lat="45.9539313" lon="7.6539636">
        <ele>2357.2</ele>
        <time>2014-01-30T10:06:55Z</time>
      </trkpt>
      <trkpt lat="45.9539531" lon="7.6539289">
        <ele>2357.2</ele>
        <time>2014-01-30T10:07:02Z</time>
      </trkpt>
      <trkpt lat="45.9539664" lon="7.6538842">
        <ele>2357.2</ele>
        <time>2014-01-30T10:07:07Z</time>
      </trkpt>
      <trkpt lat="45.9539873" lon="7.653824">
        <ele>2357.2</ele>
        <time>2014-01-30T10:07:12Z</time>
      </trkpt>
      <trkpt lat="45.9540052" lon="7.6538034">
        <ele>2355.2</ele>
        <time>2014-01-30T10:07:19Z</time>
      </trkpt>
      <trkpt lat="45.9540114" lon="7.6538031">
        <ele>2355.2</ele>
        <time>2014-01-30T10:07:27Z</time>
      </trkpt>
      <trkpt lat="45.9540146" lon="7.6538035">
        <ele>2355.2</ele>
        <time>2014-01-30T10:07:34Z</time>
      </trkpt>
      <trkpt lat="45.9540168" lon="7.6538065">
        <ele>2355.2</ele>
        <time>2014-01-30T10:07:45Z</time>
      </trkpt>
      <trkpt lat="45.9540167" lon="7.6538097">
        <ele>2354</ele>
        <time>2014-01-30T10:07:46Z</time>
      </trkpt>
      <trkpt lat="45.9540245" lon="7.6538065">
        <ele>2354</ele>
        <time>2014-01-30T10:07:51Z</time>
      </trkpt>
      <trkpt lat="45.9540884" lon="7.6537158">
        <ele>2351.6</ele>
        <time>2014-01-30T10:07:55Z</time>
      </trkpt>
      <trkpt lat="45.9540957" lon="7.6536869">
        <ele>2350.4</ele>
        <time>2014-01-30T10:07:56Z</time>
      </trkpt>
      <trkpt lat="45.9540752" lon="7.6536458">
        <ele>2348.4</ele>
        <time>2014-01-30T10:07:57Z</time>
      </trkpt>
      <trkpt lat="45.9540669" lon="7.653594">
        <ele>2345.8</ele>
        <time>2014-01-30T10:07:58Z</time>
      </trkpt>
      <trkpt lat="45.9540295" lon="7.6535089">
        <ele>2342.2</ele>
        <time>2014-01-30T10:07:59Z</time>
      </trkpt>
      <trkpt lat="45.953998" lon="7.6534805">
        <ele>2340.8</ele>
        <time>2014-01-30T10:08:00Z</time>
      </trkpt>
      <trkpt lat="45.9539654" lon="7.6534364">
        <ele>2338</ele>
        <time>2014-01-30T10:08:01Z</time>
      </trkpt>
      <trkpt lat="45.9539329" lon="7.6533916">
        <ele>2333.4</ele>
        <time>2014-01-30T10:08:02Z</time>
      </trkpt>
      <trkpt lat="45.9538888" lon="7.6533591">
        <ele>2332.2</ele>
        <time>2014-01-30T10:08:03Z</time>
      </trkpt>
      <trkpt lat="45.95385" lon="7.6533435">
        <ele>2331</ele>
        <time>2014-01-30T10:08:04Z</time>
      </trkpt>
      <trkpt lat="45.9537751" lon="7.6533317">
        <ele>2329.8</ele>
        <time>2014-01-30T10:08:06Z</time>
      </trkpt>
      <trkpt lat="45.9537498" lon="7.6533327">
        <ele>2329.8</ele>
        <time>2014-01-30T10:08:07Z</time>
      </trkpt>
      <trkpt lat="45.9537357" lon="7.6533305">
        <ele>2329.8</ele>
        <time>2014-01-30T10:08:08Z</time>
      </trkpt>
      <trkpt lat="45.9537183" lon="7.6533268">
        <ele>2328.8</ele>
        <time>2014-01-30T10:08:09Z</time>
      </trkpt>
      <trkpt lat="45.9536577" lon="7.6533163">
        <ele>2327.8</ele>
        <time>2014-01-30T10:08:13Z</time>
      </trkpt>
      <trkpt lat="45.9536519" lon="7.6533154">
        <ele>2327.8</ele>
        <time>2014-01-30T10:08:15Z</time>
      </trkpt>
      <trkpt lat="45.953614" lon="7.6533023">
        <ele>2327.8</ele>
        <time>2014-01-30T10:08:22Z</time>
      </trkpt>
      <trkpt lat="45.9535706" lon="7.6532836">
        <ele>2326.6</ele>
        <time>2014-01-30T10:08:24Z</time>
      </trkpt>
      <trkpt lat="45.953503" lon="7.653263">
        <ele>2325.6</ele>
        <time>2014-01-30T10:08:26Z</time>
      </trkpt>
      <trkpt lat="45.953422" lon="7.6532503">
        <ele>2324.4</ele>
        <time>2014-01-30T10:08:28Z</time>
      </trkpt>
      <trkpt lat="45.9533582" lon="7.6532349">
        <ele>2324.4</ele>
        <time>2014-01-30T10:08:30Z</time>
      </trkpt>
      <trkpt lat="45.9532482" lon="7.6532059">
        <ele>2324.4</ele>
        <time>2014-01-30T10:08:35Z</time>
      </trkpt>
      <trkpt lat="45.953226" lon="7.6531983">
        <ele>2324.4</ele>
        <time>2014-01-30T10:08:40Z</time>
      </trkpt>
      <trkpt lat="45.953208" lon="7.6531947">
        <ele>2323.4</ele>
        <time>2014-01-30T10:08:42Z</time>
      </trkpt>
      <trkpt lat="45.9531931" lon="7.6531895">
        <ele>2323.4</ele>
        <time>2014-01-30T10:08:44Z</time>
      </trkpt>
      <trkpt lat="45.9531781" lon="7.6531754">
        <ele>2322.4</ele>
        <time>2014-01-30T10:08:45Z</time>
      </trkpt>
      <trkpt lat="45.9531568" lon="7.653162">
        <ele>2322.4</ele>
        <time>2014-01-30T10:08:46Z</time>
      </trkpt>
      <trkpt lat="45.9531239" lon="7.6531477">
        <ele>2321.4</ele>
        <time>2014-01-30T10:08:47Z</time>
      </trkpt>
      <trkpt lat="45.9530836" lon="7.6531187">
        <ele>2320.4</ele>
        <time>2014-01-30T10:08:50Z</time>
      </trkpt>
      <trkpt lat="45.9530889" lon="7.6531135">
        <ele>2320.4</ele>
        <time>2014-01-30T10:08:55Z</time>
      </trkpt>
      <trkpt lat="45.9530869" lon="7.653099">
        <ele>2320.4</ele>
        <time>2014-01-30T10:08:57Z</time>
      </trkpt>
      <trkpt lat="45.9530784" lon="7.65302">
        <ele>2317.6</ele>
        <time>2014-01-30T10:08:59Z</time>
      </trkpt>
      <trkpt lat="45.9530627" lon="7.6529886">
        <ele>2316.4</ele>
        <time>2014-01-30T10:09:00Z</time>
      </trkpt>
      <trkpt lat="45.9530531" lon="7.6529306">
        <ele>2315.2</ele>
        <time>2014-01-30T10:09:01Z</time>
      </trkpt>
      <trkpt lat="45.9530317" lon="7.6528876">
        <ele>2313.2</ele>
        <time>2014-01-30T10:09:02Z</time>
      </trkpt>
      <trkpt lat="45.9530018" lon="7.6528529">
        <ele>2311.8</ele>
        <time>2014-01-30T10:09:03Z</time>
      </trkpt>
      <trkpt lat="45.9529931" lon="7.6528032">
        <ele>2309.8</ele>
        <time>2014-01-30T10:09:04Z</time>
      </trkpt>
      <trkpt lat="45.9529641" lon="7.6527441">
        <ele>2306.2</ele>
        <time>2014-01-30T10:09:05Z</time>
      </trkpt>
      <trkpt lat="45.9529474" lon="7.6526991">
        <ele>2305</ele>
        <time>2014-01-30T10:09:06Z</time>
      </trkpt>
      <trkpt lat="45.9529167" lon="7.6526158">
        <ele>2301.6</ele>
        <time>2014-01-30T10:09:07Z</time>
      </trkpt>
      <trkpt lat="45.9528865" lon="7.6525882">
        <ele>2299</ele>
        <time>2014-01-30T10:09:08Z</time>
      </trkpt>
      <trkpt lat="45.9528501" lon="7.652533">
        <ele>2296.4</ele>
        <time>2014-01-30T10:09:09Z</time>
      </trkpt>
      <trkpt lat="45.9528133" lon="7.6524775">
        <ele>2292.4</ele>
        <time>2014-01-30T10:09:10Z</time>
      </trkpt>
      <trkpt lat="45.9527693" lon="7.6524246">
        <ele>2291.4</ele>
        <time>2014-01-30T10:09:11Z</time>
      </trkpt>
      <trkpt lat="45.9527406" lon="7.6523631">
        <ele>2288.6</ele>
        <time>2014-01-30T10:09:12Z</time>
      </trkpt>
      <trkpt lat="45.952695" lon="7.6522953">
        <ele>2286.6</ele>
        <time>2014-01-30T10:09:13Z</time>
      </trkpt>
      <trkpt lat="45.9526884" lon="7.6522305">
        <ele>2283.8</ele>
        <time>2014-01-30T10:09:14Z</time>
      </trkpt>
      <trkpt lat="45.9526688" lon="7.6521625">
        <ele>2282.6</ele>
        <time>2014-01-30T10:09:15Z</time>
      </trkpt>
      <trkpt lat="45.9526639" lon="7.6520993">
        <ele>2280.2</ele>
        <time>2014-01-30T10:09:16Z</time>
      </trkpt>
      <trkpt lat="45.9526432" lon="7.6520203">
        <ele>2276.8</ele>
        <time>2014-01-30T10:09:17Z</time>
      </trkpt>
      <trkpt lat="45.952647" lon="7.6519594">
        <ele>2274.6</ele>
        <time>2014-01-30T10:09:18Z</time>
      </trkpt>
      <trkpt lat="45.9526522" lon="7.6518587">
        <ele>2270.6</ele>
        <time>2014-01-30T10:09:19Z</time>
      </trkpt>
      <trkpt lat="45.9526512" lon="7.6517911">
        <ele>2269.4</ele>
        <time>2014-01-30T10:09:20Z</time>
      </trkpt>
      <trkpt lat="45.9526445" lon="7.6517071">
        <ele>2266.2</ele>
        <time>2014-01-30T10:09:21Z</time>
      </trkpt>
      <trkpt lat="45.952622" lon="7.6516378">
        <ele>2263.2</ele>
        <time>2014-01-30T10:09:22Z</time>
      </trkpt>
      <trkpt lat="45.9525953" lon="7.6515419">
        <ele>2260.6</ele>
        <time>2014-01-30T10:09:23Z</time>
      </trkpt>
      <trkpt lat="45.9525727" lon="7.6514725">
        <ele>2259.6</ele>
        <time>2014-01-30T10:09:24Z</time>
      </trkpt>
      <trkpt lat="45.9525616" lon="7.6513662">
        <ele>2255.2</ele>
        <time>2014-01-30T10:09:25Z</time>
      </trkpt>
      <trkpt lat="45.9525449" lon="7.6513001">
        <ele>2253.8</ele>
        <time>2014-01-30T10:09:26Z</time>
      </trkpt>
      <trkpt lat="45.9525537" lon="7.6512257">
        <ele>2251.4</ele>
        <time>2014-01-30T10:09:27Z</time>
      </trkpt>
      <trkpt lat="45.9525464" lon="7.6511652">
        <ele>2248.8</ele>
        <time>2014-01-30T10:09:28Z</time>
      </trkpt>
      <trkpt lat="45.9525067" lon="7.6511091">
        <ele>2247.6</ele>
        <time>2014-01-30T10:09:29Z</time>
      </trkpt>
      <trkpt lat="45.9524823" lon="7.6510855">
        <ele>2247.6</ele>
        <time>2014-01-30T10:09:30Z</time>
      </trkpt>
      <trkpt lat="45.952442" lon="7.6510454">
        <ele>2247.6</ele>
        <time>2014-01-30T10:09:34Z</time>
      </trkpt>
      <trkpt lat="45.9524549" lon="7.651049">
        <ele>2246.6</ele>
        <time>2014-01-30T10:09:37Z</time>
      </trkpt>
      <trkpt lat="45.9524605" lon="7.6510491">
        <ele>2246.6</ele>
        <time>2014-01-30T10:09:40Z</time>
      </trkpt>
      <trkpt lat="45.9524621" lon="7.6510386">
        <ele>2246.6</ele>
        <time>2014-01-30T10:09:46Z</time>
      </trkpt>
      <trkpt lat="45.9524754" lon="7.6510343">
        <ele>2246.6</ele>
        <time>2014-01-30T10:09:52Z</time>
      </trkpt>
      <trkpt lat="45.9524857" lon="7.6510338">
        <ele>2246.6</ele>
        <time>2014-01-30T10:09:57Z</time>
      </trkpt>
      <trkpt lat="45.9524907" lon="7.6510362">
        <ele>2245.4</ele>
        <time>2014-01-30T10:10:00Z</time>
      </trkpt>
      <trkpt lat="45.9524911" lon="7.6510363">
        <ele>2245.4</ele>
        <time>2014-01-30T10:10:02Z</time>
      </trkpt>
      <trkpt lat="45.9524994" lon="7.6510382">
        <ele>2245.4</ele>
        <time>2014-01-30T10:10:13Z</time>
      </trkpt>
      <trkpt lat="45.9525075" lon="7.6510309">
        <ele>2245.4</ele>
        <time>2014-01-30T10:10:20Z</time>
      </trkpt>
      <trkpt lat="45.9525159" lon="7.6510286">
        <ele>2245.4</ele>
        <time>2014-01-30T10:10:26Z</time>
      </trkpt>
      <trkpt lat="45.9525292" lon="7.651026">
        <ele>2245.4</ele>
        <time>2014-01-30T10:10:32Z</time>
      </trkpt>
      <trkpt lat="45.9525356" lon="7.6510249">
        <ele>2245.4</ele>
        <time>2014-01-30T10:10:38Z</time>
      </trkpt>
      <trkpt lat="45.9525424" lon="7.6510218">
        <ele>2245.4</ele>
        <time>2014-01-30T10:10:43Z</time>
      </trkpt>
      <trkpt lat="45.9525457" lon="7.6510104">
        <ele>2244.2</ele>
        <time>2014-01-30T10:10:48Z</time>
      </trkpt>
      <trkpt lat="45.9525497" lon="7.6509374">
        <ele>2243</ele>
        <time>2014-01-30T10:10:50Z</time>
      </trkpt>
      <trkpt lat="45.9525486" lon="7.65088">
        <ele>2240.6</ele>
        <time>2014-01-30T10:10:51Z</time>
      </trkpt>
      <trkpt lat="45.9525354" lon="7.6508359">
        <ele>2238.2</ele>
        <time>2014-01-30T10:10:52Z</time>
      </trkpt>
      <trkpt lat="45.952514" lon="7.6507686">
        <ele>2237</ele>
        <time>2014-01-30T10:10:53Z</time>
      </trkpt>
      <trkpt lat="45.952502" lon="7.6507023">
        <ele>2235</ele>
        <time>2014-01-30T10:10:54Z</time>
      </trkpt>
      <trkpt lat="45.9524762" lon="7.6506343">
        <ele>2232.6</ele>
        <time>2014-01-30T10:10:55Z</time>
      </trkpt>
      <trkpt lat="45.9524476" lon="7.6505889">
        <ele>2232.6</ele>
        <time>2014-01-30T10:10:57Z</time>
      </trkpt>
      <trkpt lat="45.9524449" lon="7.6505815">
        <ele>2231.6</ele>
        <time>2014-01-30T10:10:59Z</time>
      </trkpt>
      <trkpt lat="45.952433" lon="7.6505695">
        <ele>2231.6</ele>
        <time>2014-01-30T10:11:01Z</time>
      </trkpt>
      <trkpt lat="45.9524208" lon="7.6505548">
        <ele>2231.6</ele>
        <time>2014-01-30T10:11:07Z</time>
      </trkpt>
      <trkpt lat="45.9524137" lon="7.6505347">
        <ele>2231.6</ele>
        <time>2014-01-30T10:11:09Z</time>
      </trkpt>
      <trkpt lat="45.9524056" lon="7.6505117">
        <ele>2230.6</ele>
        <time>2014-01-30T10:11:10Z</time>
      </trkpt>
      <trkpt lat="45.9523976" lon="7.6504694">
        <ele>2229.2</ele>
        <time>2014-01-30T10:11:11Z</time>
      </trkpt>
      <trkpt lat="45.9523903" lon="7.6504048">
        <ele>2225.4</ele>
        <time>2014-01-30T10:11:12Z</time>
      </trkpt>
      <trkpt lat="45.9523652" lon="7.6503142">
        <ele>2224.2</ele>
        <time>2014-01-30T10:11:13Z</time>
      </trkpt>
      <trkpt lat="45.9523418" lon="7.6502433">
        <ele>2221</ele>
        <time>2014-01-30T10:11:14Z</time>
      </trkpt>
      <trkpt lat="45.9523055" lon="7.6501572">
        <ele>2218.2</ele>
        <time>2014-01-30T10:11:15Z</time>
      </trkpt>
      <trkpt lat="45.9522808" lon="7.6501001">
        <ele>2217</ele>
        <time>2014-01-30T10:11:16Z</time>
      </trkpt>
      <trkpt lat="45.9522577" lon="7.6500144">
        <ele>2213</ele>
        <time>2014-01-30T10:11:17Z</time>
      </trkpt>
      <trkpt lat="45.9522456" lon="7.649935">
        <ele>2212</ele>
        <time>2014-01-30T10:11:18Z</time>
      </trkpt>
      <trkpt lat="45.952219" lon="7.6498128">
        <ele>2207.6</ele>
        <time>2014-01-30T10:11:19Z</time>
      </trkpt>
      <trkpt lat="45.9521879" lon="7.6497154">
        <ele>2202.4</ele>
        <time>2014-01-30T10:11:20Z</time>
      </trkpt>
      <trkpt lat="45.9521429" lon="7.6496235">
        <ele>2201.2</ele>
        <time>2014-01-30T10:11:21Z</time>
      </trkpt>
      <trkpt lat="45.9521056" lon="7.6495438">
        <ele>2199.4</ele>
        <time>2014-01-30T10:11:22Z</time>
      </trkpt>
      <trkpt lat="45.9520597" lon="7.6494242">
        <ele>2196.4</ele>
        <time>2014-01-30T10:11:23Z</time>
      </trkpt>
      <trkpt lat="45.9520267" lon="7.6493281">
        <ele>2194.6</ele>
        <time>2014-01-30T10:11:24Z</time>
      </trkpt>
      <trkpt lat="45.9519748" lon="7.6492379">
        <ele>2191.2</ele>
        <time>2014-01-30T10:11:25Z</time>
      </trkpt>
      <trkpt lat="45.951952" lon="7.6491735">
        <ele>2188.4</ele>
        <time>2014-01-30T10:11:26Z</time>
      </trkpt>
      <trkpt lat="45.9519078" lon="7.6490694">
        <ele>2186.2</ele>
        <time>2014-01-30T10:11:27Z</time>
      </trkpt>
      <trkpt lat="45.9518803" lon="7.6489922">
        <ele>2184.2</ele>
        <time>2014-01-30T10:11:28Z</time>
      </trkpt>
      <trkpt lat="45.9518441" lon="7.6489114">
        <ele>2182.6</ele>
        <time>2014-01-30T10:11:29Z</time>
      </trkpt>
      <trkpt lat="45.9518264" lon="7.6488756">
        <ele>2181.4</ele>
        <time>2014-01-30T10:11:30Z</time>
      </trkpt>
      <trkpt lat="45.9518029" lon="7.6488258">
        <ele>2180.4</ele>
        <time>2014-01-30T10:11:31Z</time>
      </trkpt>
      <trkpt lat="45.9517646" lon="7.6487501">
        <ele>2179.2</ele>
        <time>2014-01-30T10:11:33Z</time>
      </trkpt>
      <trkpt lat="45.9517535" lon="7.648727">
        <ele>2178.2</ele>
        <time>2014-01-30T10:11:34Z</time>
      </trkpt>
      <trkpt lat="45.9517297" lon="7.648671">
        <ele>2177</ele>
        <time>2014-01-30T10:11:36Z</time>
      </trkpt>
      <trkpt lat="45.9516992" lon="7.6486257">
        <ele>2174.8</ele>
        <time>2014-01-30T10:11:37Z</time>
      </trkpt>
      <trkpt lat="45.9516727" lon="7.648591">
        <ele>2173.4</ele>
        <time>2014-01-30T10:11:38Z</time>
      </trkpt>
      <trkpt lat="45.9516351" lon="7.6485116">
        <ele>2171</ele>
        <time>2014-01-30T10:11:39Z</time>
      </trkpt>
      <trkpt lat="45.9516043" lon="7.6484245">
        <ele>2168.4</ele>
        <time>2014-01-30T10:11:40Z</time>
      </trkpt>
      <trkpt lat="45.9515731" lon="7.6483118">
        <ele>2165.8</ele>
        <time>2014-01-30T10:11:41Z</time>
      </trkpt>
      <trkpt lat="45.9515442" lon="7.6482074">
        <ele>2163.2</ele>
        <time>2014-01-30T10:11:42Z</time>
      </trkpt>
      <trkpt lat="45.9514945" lon="7.6480891">
        <ele>2161.2</ele>
        <time>2014-01-30T10:11:43Z</time>
      </trkpt>
      <trkpt lat="45.9514567" lon="7.6480048">
        <ele>2160</ele>
        <time>2014-01-30T10:11:44Z</time>
      </trkpt>
      <trkpt lat="45.9514136" lon="7.6479194">
        <ele>2158.4</ele>
        <time>2014-01-30T10:11:45Z</time>
      </trkpt>
      <trkpt lat="45.9513808" lon="7.6478531">
        <ele>2156.8</ele>
        <time>2014-01-30T10:11:46Z</time>
      </trkpt>
      <trkpt lat="45.9513351" lon="7.6478027">
        <ele>2155.6</ele>
        <time>2014-01-30T10:11:47Z</time>
      </trkpt>
      <trkpt lat="45.9513178" lon="7.6477814">
        <ele>2154.6</ele>
        <time>2014-01-30T10:11:48Z</time>
      </trkpt>
      <trkpt lat="45.9513179" lon="7.647767">
        <ele>2154.6</ele>
        <time>2014-01-30T10:11:50Z</time>
      </trkpt>
      <trkpt lat="45.9513235" lon="7.647775">
        <ele>2153.4</ele>
        <time>2014-01-30T10:11:56Z</time>
      </trkpt>
      <trkpt lat="45.9513296" lon="7.647784">
        <ele>2153.4</ele>
        <time>2014-01-30T10:12:08Z</time>
      </trkpt>
      <trkpt lat="45.9513355" lon="7.647791">
        <ele>2153.4</ele>
        <time>2014-01-30T10:12:21Z</time>
      </trkpt>
      <trkpt lat="45.9513407" lon="7.6478044">
        <ele>2153.4</ele>
        <time>2014-01-30T10:12:32Z</time>
      </trkpt>
      <trkpt lat="45.9513443" lon="7.6478109">
        <ele>2153.4</ele>
        <time>2014-01-30T10:12:51Z</time>
      </trkpt>
      <trkpt lat="45.9513451" lon="7.6478111">
        <ele>2153.4</ele>
        <time>2014-01-30T10:13:03Z</time>
      </trkpt>
      <trkpt lat="45.9513508" lon="7.6478085">
        <ele>2153.4</ele>
        <time>2014-01-30T10:13:19Z</time>
      </trkpt>
      <trkpt lat="45.9513552" lon="7.6478109">
        <ele>2153.4</ele>
        <time>2014-01-30T10:13:27Z</time>
      </trkpt>
      <trkpt lat="45.9513588" lon="7.6478138">
        <ele>2153.4</ele>
        <time>2014-01-30T10:13:38Z</time>
      </trkpt>
      <trkpt lat="45.9513844" lon="7.6477778">
        <ele>2153.4</ele>
        <time>2014-01-30T10:13:44Z</time>
      </trkpt>
      <trkpt lat="45.9514374" lon="7.647646">
        <ele>2151.2</ele>
        <time>2014-01-30T10:13:47Z</time>
      </trkpt>
      <trkpt lat="45.9514534" lon="7.6475873">
        <ele>2149.4</ele>
        <time>2014-01-30T10:13:48Z</time>
      </trkpt>
      <trkpt lat="45.9514784" lon="7.6474869">
        <ele>2148</ele>
        <time>2014-01-30T10:13:49Z</time>
      </trkpt>
      <trkpt lat="45.9515156" lon="7.6474092">
        <ele>2146.8</ele>
        <time>2014-01-30T10:13:50Z</time>
      </trkpt>
      <trkpt lat="45.9515758" lon="7.6473302">
        <ele>2143.4</ele>
        <time>2014-01-30T10:13:51Z</time>
      </trkpt>
      <trkpt lat="45.9516703" lon="7.6471546">
        <ele>2142.2</ele>
        <time>2014-01-30T10:13:53Z</time>
      </trkpt>
      <trkpt lat="45.9516989" lon="7.6470779">
        <ele>2140.8</ele>
        <time>2014-01-30T10:13:54Z</time>
      </trkpt>
      <trkpt lat="45.9517348" lon="7.6469719">
        <ele>2139.6</ele>
        <time>2014-01-30T10:13:55Z</time>
      </trkpt>
      <trkpt lat="45.9517494" lon="7.6468964">
        <ele>2138</ele>
        <time>2014-01-30T10:13:56Z</time>
      </trkpt>
      <trkpt lat="45.9517775" lon="7.6468129">
        <ele>2135.4</ele>
        <time>2014-01-30T10:13:57Z</time>
      </trkpt>
      <trkpt lat="45.9518294" lon="7.6467583">
        <ele>2135.4</ele>
        <time>2014-01-30T10:13:59Z</time>
      </trkpt>
      <trkpt lat="45.9518322" lon="7.6467549">
        <ele>2135.4</ele>
        <time>2014-01-30T10:14:03Z</time>
      </trkpt>
      <trkpt lat="45.9518343" lon="7.6467625">
        <ele>2135.4</ele>
        <time>2014-01-30T10:14:12Z</time>
      </trkpt>
      <trkpt lat="45.9518352" lon="7.6467674">
        <ele>2135.4</ele>
        <time>2014-01-30T10:14:23Z</time>
      </trkpt>
      <trkpt lat="45.9518426" lon="7.6467745">
        <ele>2135.4</ele>
        <time>2014-01-30T10:14:45Z</time>
      </trkpt>
      <trkpt lat="45.9518448" lon="7.6467813">
        <ele>2135.4</ele>
        <time>2014-01-30T10:15:05Z</time>
      </trkpt>
      <trkpt lat="45.9518432" lon="7.6467793">
        <ele>2135.4</ele>
        <time>2014-01-30T10:15:22Z</time>
      </trkpt>
      <trkpt lat="45.9518458" lon="7.6467808">
        <ele>2135.4</ele>
        <time>2014-01-30T10:15:34Z</time>
      </trkpt>
      <trkpt lat="45.9518462" lon="7.6467754">
        <ele>2135.4</ele>
        <time>2014-01-30T10:15:47Z</time>
      </trkpt>
      <trkpt lat="45.9518399" lon="7.6467559">
        <ele>2135.4</ele>
        <time>2014-01-30T10:15:58Z</time>
      </trkpt>
      <trkpt lat="45.9518415" lon="7.6467571">
        <ele>2135.4</ele>
        <time>2014-01-30T10:16:14Z</time>
      </trkpt>
      <trkpt lat="45.9518362" lon="7.6467456">
        <ele>2135.4</ele>
        <time>2014-01-30T10:16:27Z</time>
      </trkpt>
      <trkpt lat="45.9518343" lon="7.6467409">
        <ele>2135.4</ele>
        <time>2014-01-30T10:16:35Z</time>
      </trkpt>
      <trkpt lat="45.9518307" lon="7.6467227">
        <ele>2135.4</ele>
        <time>2014-01-30T10:16:44Z</time>
      </trkpt>
      <trkpt lat="45.9518261" lon="7.6467146">
        <ele>2135.4</ele>
        <time>2014-01-30T10:16:54Z</time>
      </trkpt>
      <trkpt lat="45.9518263" lon="7.6467104">
        <ele>2135.4</ele>
        <time>2014-01-30T10:17:02Z</time>
      </trkpt>
      <trkpt lat="45.9518259" lon="7.6467068">
        <ele>2135.4</ele>
        <time>2014-01-30T10:17:09Z</time>
      </trkpt>
      <trkpt lat="45.9518254" lon="7.6466964">
        <ele>2135.4</ele>
        <time>2014-01-30T10:17:17Z</time>
      </trkpt>
      <trkpt lat="45.9518301" lon="7.6466964">
        <ele>2135.4</ele>
        <time>2014-01-30T10:17:24Z</time>
      </trkpt>
      <trkpt lat="45.9518302" lon="7.6466959">
        <ele>2135.4</ele>
        <time>2014-01-30T10:17:34Z</time>
      </trkpt>
      <trkpt lat="45.9518292" lon="7.6467019">
        <ele>2135.4</ele>
        <time>2014-01-30T10:17:44Z</time>
      </trkpt>
      <trkpt lat="45.9518361" lon="7.6467057">
        <ele>2135.4</ele>
        <time>2014-01-30T10:17:58Z</time>
      </trkpt>
      <trkpt lat="45.9518344" lon="7.6467116">
        <ele>2135.4</ele>
        <time>2014-01-30T10:18:07Z</time>
      </trkpt>
      <trkpt lat="45.9518358" lon="7.6467156">
        <ele>2135.4</ele>
        <time>2014-01-30T10:18:13Z</time>
      </trkpt>
      <trkpt lat="45.9518378" lon="7.6467153">
        <ele>2135.4</ele>
        <time>2014-01-30T10:18:23Z</time>
      </trkpt>
      <trkpt lat="45.9518379" lon="7.6467155">
        <ele>2135.4</ele>
        <time>2014-01-30T10:18:30Z</time>
      </trkpt>
      <trkpt lat="45.9518369" lon="7.6467159">
        <ele>2135.4</ele>
        <time>2014-01-30T10:18:39Z</time>
      </trkpt>
      <trkpt lat="45.951837" lon="7.6467162">
        <ele>2135.4</ele>
        <time>2014-01-30T10:18:54Z</time>
      </trkpt>
      <trkpt lat="45.9518378" lon="7.6467169">
        <ele>2135.4</ele>
        <time>2014-01-30T10:19:05Z</time>
      </trkpt>
      <trkpt lat="45.9518389" lon="7.6467193">
        <ele>2135.4</ele>
        <time>2014-01-30T10:19:13Z</time>
      </trkpt>
      <trkpt lat="45.9518406" lon="7.6467135">
        <ele>2135.4</ele>
        <time>2014-01-30T10:19:23Z</time>
      </trkpt>
      <trkpt lat="45.95184" lon="7.6465901">
        <ele>2135.4</ele>
        <time>2014-01-30T10:19:29Z</time>
      </trkpt>
      <trkpt lat="45.9518605" lon="7.6463612">
        <ele>2135.4</ele>
        <time>2014-01-30T10:19:34Z</time>
      </trkpt>
      <trkpt lat="45.9518638" lon="7.6462967">
        <ele>2134.4</ele>
        <time>2014-01-30T10:19:35Z</time>
      </trkpt>
      <trkpt lat="45.9518766" lon="7.6461948">
        <ele>2133.4</ele>
        <time>2014-01-30T10:19:37Z</time>
      </trkpt>
      <trkpt lat="45.9518862" lon="7.6461287">
        <ele>2133.4</ele>
        <time>2014-01-30T10:19:39Z</time>
      </trkpt>
      <trkpt lat="45.9518993" lon="7.6460169">
        <ele>2132.4</ele>
        <time>2014-01-30T10:19:42Z</time>
      </trkpt>
      <trkpt lat="45.951904" lon="7.6459108">
        <ele>2132.4</ele>
        <time>2014-01-30T10:19:44Z</time>
      </trkpt>
      <trkpt lat="45.9519048" lon="7.6458459">
        <ele>2131.4</ele>
        <time>2014-01-30T10:19:45Z</time>
      </trkpt>
      <trkpt lat="45.951908" lon="7.6457849">
        <ele>2130.4</ele>
        <time>2014-01-30T10:19:46Z</time>
      </trkpt>
      <trkpt lat="45.9519199" lon="7.6457052">
        <ele>2128.8</ele>
        <time>2014-01-30T10:19:47Z</time>
      </trkpt>
      <trkpt lat="45.9519299" lon="7.6456452">
        <ele>2126.6</ele>
        <time>2014-01-30T10:19:48Z</time>
      </trkpt>
      <trkpt lat="45.9519262" lon="7.645537">
        <ele>2126.6</ele>
        <time>2014-01-30T10:19:49Z</time>
      </trkpt>
      <trkpt lat="45.9519112" lon="7.6454588">
        <ele>2125.2</ele>
        <time>2014-01-30T10:19:50Z</time>
      </trkpt>
      <trkpt lat="45.95189" lon="7.6453594">
        <ele>2123</ele>
        <time>2014-01-30T10:19:51Z</time>
      </trkpt>
      <trkpt lat="45.951865" lon="7.6452845">
        <ele>2121.8</ele>
        <time>2014-01-30T10:19:52Z</time>
      </trkpt>
      <trkpt lat="45.9518283" lon="7.6451827">
        <ele>2120.8</ele>
        <time>2014-01-30T10:19:53Z</time>
      </trkpt>
      <trkpt lat="45.9517945" lon="7.6451079">
        <ele>2117.8</ele>
        <time>2014-01-30T10:19:54Z</time>
      </trkpt>
      <trkpt lat="45.9517398" lon="7.6450434">
        <ele>2116.6</ele>
        <time>2014-01-30T10:19:55Z</time>
      </trkpt>
      <trkpt lat="45.9517045" lon="7.6449978">
        <ele>2115.6</ele>
        <time>2014-01-30T10:19:56Z</time>
      </trkpt>
      <trkpt lat="45.9516554" lon="7.6449243">
        <ele>2112.8</ele>
        <time>2014-01-30T10:19:57Z</time>
      </trkpt>
      <trkpt lat="45.9516057" lon="7.6448789">
        <ele>2111.6</ele>
        <time>2014-01-30T10:19:58Z</time>
      </trkpt>
      <trkpt lat="45.9515507" lon="7.6447963">
        <ele>2110.4</ele>
        <time>2014-01-30T10:19:59Z</time>
      </trkpt>
      <trkpt lat="45.9515266" lon="7.6447209">
        <ele>2109</ele>
        <time>2014-01-30T10:20:00Z</time>
      </trkpt>
      <trkpt lat="45.9514811" lon="7.6446309">
        <ele>2106</ele>
        <time>2014-01-30T10:20:01Z</time>
      </trkpt>
      <trkpt lat="45.9514366" lon="7.6445487">
        <ele>2104.2</ele>
        <time>2014-01-30T10:20:02Z</time>
      </trkpt>
      <trkpt lat="45.9513833" lon="7.6444508">
        <ele>2102.8</ele>
        <time>2014-01-30T10:20:03Z</time>
      </trkpt>
      <trkpt lat="45.9513422" lon="7.6443558">
        <ele>2100.2</ele>
        <time>2014-01-30T10:20:04Z</time>
      </trkpt>
      <trkpt lat="45.9512807" lon="7.644255">
        <ele>2099</ele>
        <time>2014-01-30T10:20:05Z</time>
      </trkpt>
      <trkpt lat="45.9512428" lon="7.6441664">
        <ele>2095.6</ele>
        <time>2014-01-30T10:20:06Z</time>
      </trkpt>
      <trkpt lat="45.9511772" lon="7.6440567">
        <ele>2093.2</ele>
        <time>2014-01-30T10:20:07Z</time>
      </trkpt>
      <trkpt lat="45.9511382" lon="7.6439722">
        <ele>2093.2</ele>
        <time>2014-01-30T10:20:08Z</time>
      </trkpt>
      <trkpt lat="45.9510825" lon="7.6438537">
        <ele>2090</ele>
        <time>2014-01-30T10:20:09Z</time>
      </trkpt>
      <trkpt lat="45.9510323" lon="7.6437569">
        <ele>2090</ele>
        <time>2014-01-30T10:20:10Z</time>
      </trkpt>
      <trkpt lat="45.9509837" lon="7.6436298">
        <ele>2084.8</ele>
        <time>2014-01-30T10:20:11Z</time>
      </trkpt>
      <trkpt lat="45.9509305" lon="7.6435404">
        <ele>2083.6</ele>
        <time>2014-01-30T10:20:12Z</time>
      </trkpt>
      <trkpt lat="45.950878" lon="7.6434195">
        <ele>2082.6</ele>
        <time>2014-01-30T10:20:13Z</time>
      </trkpt>
      <trkpt lat="45.9508368" lon="7.6433273">
        <ele>2079.6</ele>
        <time>2014-01-30T10:20:14Z</time>
      </trkpt>
      <trkpt lat="45.9507785" lon="7.6432336">
        <ele>2077.4</ele>
        <time>2014-01-30T10:20:15Z</time>
      </trkpt>
      <trkpt lat="45.9507424" lon="7.6431454">
        <ele>2075.6</ele>
        <time>2014-01-30T10:20:16Z</time>
      </trkpt>
      <trkpt lat="45.9506849" lon="7.6430388">
        <ele>2074.6</ele>
        <time>2014-01-30T10:20:17Z</time>
      </trkpt>
      <trkpt lat="45.9505817" lon="7.6428462">
        <ele>2071.4</ele>
        <time>2014-01-30T10:20:19Z</time>
      </trkpt>
      <trkpt lat="45.9505264" lon="7.6427762">
        <ele>2070.2</ele>
        <time>2014-01-30T10:20:20Z</time>
      </trkpt>
      <trkpt lat="45.950456" lon="7.6426847">
        <ele>2069</ele>
        <time>2014-01-30T10:20:21Z</time>
      </trkpt>
      <trkpt lat="45.9503996" lon="7.642583">
        <ele>2066.2</ele>
        <time>2014-01-30T10:20:22Z</time>
      </trkpt>
      <trkpt lat="45.9503183" lon="7.6424407">
        <ele>2065</ele>
        <time>2014-01-30T10:20:23Z</time>
      </trkpt>
      <trkpt lat="45.950252" lon="7.6423299">
        <ele>2062.2</ele>
        <time>2014-01-30T10:20:24Z</time>
      </trkpt>
      <trkpt lat="45.9501546" lon="7.6421851">
        <ele>2060.6</ele>
        <time>2014-01-30T10:20:25Z</time>
      </trkpt>
      <trkpt lat="45.950083" lon="7.6420762">
        <ele>2053.2</ele>
        <time>2014-01-30T10:20:26Z</time>
      </trkpt>
      <trkpt lat="45.950001" lon="7.6419423">
        <ele>2050.2</ele>
        <time>2014-01-30T10:20:27Z</time>
      </trkpt>
      <trkpt lat="45.9498974" lon="7.6417885">
        <ele>2045.6</ele>
        <time>2014-01-30T10:20:28Z</time>
      </trkpt>
      <trkpt lat="45.949757" lon="7.6416413">
        <ele>2044.4</ele>
        <time>2014-01-30T10:20:29Z</time>
      </trkpt>
      <trkpt lat="45.9496447" lon="7.6415659">
        <ele>2044.4</ele>
        <time>2014-01-30T10:20:30Z</time>
      </trkpt>
      <trkpt lat="45.9495025" lon="7.6414587">
        <ele>2040.6</ele>
        <time>2014-01-30T10:20:31Z</time>
      </trkpt>
      <trkpt lat="45.9493886" lon="7.6413387">
        <ele>2035.4</ele>
        <time>2014-01-30T10:20:32Z</time>
      </trkpt>
      <trkpt lat="45.9492591" lon="7.6411844">
        <ele>2031.2</ele>
        <time>2014-01-30T10:20:33Z</time>
      </trkpt>
      <trkpt lat="45.9491515" lon="7.6410474">
        <ele>2028.4</ele>
        <time>2014-01-30T10:20:34Z</time>
      </trkpt>
      <trkpt lat="45.9490225" lon="7.6408686">
        <ele>2025</ele>
        <time>2014-01-30T10:20:35Z</time>
      </trkpt>
      <trkpt lat="45.9489285" lon="7.6407394">
        <ele>2022.8</ele>
        <time>2014-01-30T10:20:36Z</time>
      </trkpt>
      <trkpt lat="45.9487859" lon="7.6405559">
        <ele>2020</ele>
        <time>2014-01-30T10:20:37Z</time>
      </trkpt>
      <trkpt lat="45.9486936" lon="7.6404296">
        <ele>2017.8</ele>
        <time>2014-01-30T10:20:38Z</time>
      </trkpt>
      <trkpt lat="45.9485589" lon="7.6402581">
        <ele>2015.8</ele>
        <time>2014-01-30T10:20:39Z</time>
      </trkpt>
      <trkpt lat="45.9484446" lon="7.6401384">
        <ele>2013.8</ele>
        <time>2014-01-30T10:20:40Z</time>
      </trkpt>
      <trkpt lat="45.9483134" lon="7.6399923">
        <ele>2011.4</ele>
        <time>2014-01-30T10:20:41Z</time>
      </trkpt>
      <trkpt lat="45.9482091" lon="7.6398608">
        <ele>2009</ele>
        <time>2014-01-30T10:20:42Z</time>
      </trkpt>
      <trkpt lat="45.9480855" lon="7.6396936">
        <ele>2006.6</ele>
        <time>2014-01-30T10:20:43Z</time>
      </trkpt>
      <trkpt lat="45.9479907" lon="7.6395623">
        <ele>2004.2</ele>
        <time>2014-01-30T10:20:44Z</time>
      </trkpt>
      <trkpt lat="45.9478831" lon="7.6394033">
        <ele>2001.8</ele>
        <time>2014-01-30T10:20:45Z</time>
      </trkpt>
      <trkpt lat="45.9478007" lon="7.6392671">
        <ele>1999.4</ele>
        <time>2014-01-30T10:20:46Z</time>
      </trkpt>
      <trkpt lat="45.9476906" lon="7.6390827">
        <ele>1997.2</ele>
        <time>2014-01-30T10:20:47Z</time>
      </trkpt>
      <trkpt lat="45.9476248" lon="7.6389552">
        <ele>1995.8</ele>
        <time>2014-01-30T10:20:48Z</time>
      </trkpt>
      <trkpt lat="45.9475301" lon="7.6387504">
        <ele>1993</ele>
        <time>2014-01-30T10:20:49Z</time>
      </trkpt>
      <trkpt lat="45.9474611" lon="7.6386179">
        <ele>1990.6</ele>
        <time>2014-01-30T10:20:50Z</time>
      </trkpt>
      <trkpt lat="45.9473867" lon="7.6384468">
        <ele>1989</ele>
        <time>2014-01-30T10:20:51Z</time>
      </trkpt>
      <trkpt lat="45.9473282" lon="7.6383052">
        <ele>1987.2</ele>
        <time>2014-01-30T10:20:52Z</time>
      </trkpt>
      <trkpt lat="45.9472452" lon="7.6381232">
        <ele>1985.8</ele>
        <time>2014-01-30T10:20:53Z</time>
      </trkpt>
      <trkpt lat="45.9471929" lon="7.6379891">
        <ele>1984.4</ele>
        <time>2014-01-30T10:20:54Z</time>
      </trkpt>
      <trkpt lat="45.9471365" lon="7.6378219">
        <ele>1983.4</ele>
        <time>2014-01-30T10:20:55Z</time>
      </trkpt>
      <trkpt lat="45.9470552" lon="7.6375614">
        <ele>1982.2</ele>
        <time>2014-01-30T10:20:57Z</time>
      </trkpt>
      <trkpt lat="45.947018" lon="7.6374372">
        <ele>1980.4</ele>
        <time>2014-01-30T10:20:58Z</time>
      </trkpt>
      <trkpt lat="45.946956" lon="7.6372721">
        <ele>1979.4</ele>
        <time>2014-01-30T10:20:59Z</time>
      </trkpt>
      <trkpt lat="45.9469001" lon="7.6371867">
        <ele>1978.4</ele>
        <time>2014-01-30T10:21:00Z</time>
      </trkpt>
      <trkpt lat="45.9468307" lon="7.6370822">
        <ele>1977.2</ele>
        <time>2014-01-30T10:21:01Z</time>
      </trkpt>
      <trkpt lat="45.946783" lon="7.6369836">
        <ele>1976</ele>
        <time>2014-01-30T10:21:02Z</time>
      </trkpt>
      <trkpt lat="45.9467193" lon="7.6368834">
        <ele>1974.8</ele>
        <time>2014-01-30T10:21:03Z</time>
      </trkpt>
      <trkpt lat="45.9466713" lon="7.6367814">
        <ele>1973.4</ele>
        <time>2014-01-30T10:21:04Z</time>
      </trkpt>
      <trkpt lat="45.946624" lon="7.6366421">
        <ele>1972</ele>
        <time>2014-01-30T10:21:05Z</time>
      </trkpt>
      <trkpt lat="45.9465763" lon="7.6365556">
        <ele>1970.4</ele>
        <time>2014-01-30T10:21:06Z</time>
      </trkpt>
      <trkpt lat="45.946513" lon="7.6364265">
        <ele>1969.4</ele>
        <time>2014-01-30T10:21:07Z</time>
      </trkpt>
      <trkpt lat="45.9464425" lon="7.6362176">
        <ele>1967.8</ele>
        <time>2014-01-30T10:21:09Z</time>
      </trkpt>
      <trkpt lat="45.9463981" lon="7.6361118">
        <ele>1967.8</ele>
        <time>2014-01-30T10:21:10Z</time>
      </trkpt>
      <trkpt lat="45.9463509" lon="7.6360038">
        <ele>1966.6</ele>
        <time>2014-01-30T10:21:11Z</time>
      </trkpt>
      <trkpt lat="45.9463067" lon="7.635904">
        <ele>1965.2</ele>
        <time>2014-01-30T10:21:12Z</time>
      </trkpt>
      <trkpt lat="45.946251" lon="7.6358173">
        <ele>1964</ele>
        <time>2014-01-30T10:21:13Z</time>
      </trkpt>
      <trkpt lat="45.9461973" lon="7.6357405">
        <ele>1962.8</ele>
        <time>2014-01-30T10:21:14Z</time>
      </trkpt>
      <trkpt lat="45.9461311" lon="7.6356543">
        <ele>1961.6</ele>
        <time>2014-01-30T10:21:15Z</time>
      </trkpt>
      <trkpt lat="45.946075" lon="7.6355849">
        <ele>1960.4</ele>
        <time>2014-01-30T10:21:16Z</time>
      </trkpt>
      <trkpt lat="45.9459984" lon="7.6354916">
        <ele>1959.4</ele>
        <time>2014-01-30T10:21:17Z</time>
      </trkpt>
      <trkpt lat="45.9458677" lon="7.6353463">
        <ele>1957.4</ele>
        <time>2014-01-30T10:21:19Z</time>
      </trkpt>
      <trkpt lat="45.9457364" lon="7.6352251">
        <ele>1956.2</ele>
        <time>2014-01-30T10:21:21Z</time>
      </trkpt>
      <trkpt lat="45.9456729" lon="7.6351721">
        <ele>1954.8</ele>
        <time>2014-01-30T10:21:22Z</time>
      </trkpt>
      <trkpt lat="45.9455886" lon="7.6351023">
        <ele>1953.8</ele>
        <time>2014-01-30T10:21:23Z</time>
      </trkpt>
      <trkpt lat="45.9455235" lon="7.6350538">
        <ele>1952.6</ele>
        <time>2014-01-30T10:21:24Z</time>
      </trkpt>
      <trkpt lat="45.9454351" lon="7.6349941">
        <ele>1951.2</ele>
        <time>2014-01-30T10:21:25Z</time>
      </trkpt>
      <trkpt lat="45.9453694" lon="7.6349526">
        <ele>1950</ele>
        <time>2014-01-30T10:21:26Z</time>
      </trkpt>
      <trkpt lat="45.9452832" lon="7.6348872">
        <ele>1949</ele>
        <time>2014-01-30T10:21:27Z</time>
      </trkpt>
      <trkpt lat="45.9451468" lon="7.6347325">
        <ele>1946.6</ele>
        <time>2014-01-30T10:21:29Z</time>
      </trkpt>
      <trkpt lat="45.9450892" lon="7.6346628">
        <ele>1945.2</ele>
        <time>2014-01-30T10:21:30Z</time>
      </trkpt>
      <trkpt lat="45.9450059" lon="7.6345755">
        <ele>1943.4</ele>
        <time>2014-01-30T10:21:31Z</time>
      </trkpt>
      <trkpt lat="45.944927" lon="7.6345051">
        <ele>1941.6</ele>
        <time>2014-01-30T10:21:32Z</time>
      </trkpt>
      <trkpt lat="45.9448305" lon="7.6344273">
        <ele>1939.6</ele>
        <time>2014-01-30T10:21:33Z</time>
      </trkpt>
      <trkpt lat="45.944744" lon="7.6343582">
        <ele>1937.6</ele>
        <time>2014-01-30T10:21:34Z</time>
      </trkpt>
      <trkpt lat="45.9446379" lon="7.6342672">
        <ele>1935.6</ele>
        <time>2014-01-30T10:21:35Z</time>
      </trkpt>
      <trkpt lat="45.9445604" lon="7.6341932">
        <ele>1933.4</ele>
        <time>2014-01-30T10:21:36Z</time>
      </trkpt>
      <trkpt lat="45.944449" lon="7.634081">
        <ele>1931.8</ele>
        <time>2014-01-30T10:21:37Z</time>
      </trkpt>
      <trkpt lat="45.944376" lon="7.6340066">
        <ele>1930.8</ele>
        <time>2014-01-30T10:21:38Z</time>
      </trkpt>
      <trkpt lat="45.9441982" lon="7.6338316">
        <ele>1929.6</ele>
        <time>2014-01-30T10:21:40Z</time>
      </trkpt>
      <trkpt lat="45.9440398" lon="7.6336925">
        <ele>1928.6</ele>
        <time>2014-01-30T10:21:42Z</time>
      </trkpt>
      <trkpt lat="45.9439553" lon="7.6336247">
        <ele>1927.4</ele>
        <time>2014-01-30T10:21:43Z</time>
      </trkpt>
      <trkpt lat="45.9438874" lon="7.63358">
        <ele>1926.4</ele>
        <time>2014-01-30T10:21:44Z</time>
      </trkpt>
      <trkpt lat="45.9437997" lon="7.6335329">
        <ele>1925</ele>
        <time>2014-01-30T10:21:45Z</time>
      </trkpt>
      <trkpt lat="45.9437227" lon="7.6335009">
        <ele>1923.4</ele>
        <time>2014-01-30T10:21:46Z</time>
      </trkpt>
      <trkpt lat="45.943609" lon="7.6334752">
        <ele>1921.4</ele>
        <time>2014-01-30T10:21:47Z</time>
      </trkpt>
      <trkpt lat="45.943529" lon="7.6334815">
        <ele>1920.2</ele>
        <time>2014-01-30T10:21:48Z</time>
      </trkpt>
      <trkpt lat="45.9434088" lon="7.6335156">
        <ele>1919</ele>
        <time>2014-01-30T10:21:49Z</time>
      </trkpt>
      <trkpt lat="45.943327" lon="7.6335531">
        <ele>1917.6</ele>
        <time>2014-01-30T10:21:50Z</time>
      </trkpt>
      <trkpt lat="45.9432281" lon="7.6335901">
        <ele>1915</ele>
        <time>2014-01-30T10:21:51Z</time>
      </trkpt>
      <trkpt lat="45.9431329" lon="7.6336175">
        <ele>1912.8</ele>
        <time>2014-01-30T10:21:52Z</time>
      </trkpt>
      <trkpt lat="45.943007" lon="7.6336662">
        <ele>1910.8</ele>
        <time>2014-01-30T10:21:53Z</time>
      </trkpt>
      <trkpt lat="45.9429091" lon="7.6336934">
        <ele>1908.4</ele>
        <time>2014-01-30T10:21:54Z</time>
      </trkpt>
      <trkpt lat="45.9427758" lon="7.6337288">
        <ele>1905.6</ele>
        <time>2014-01-30T10:21:55Z</time>
      </trkpt>
      <trkpt lat="45.9426799" lon="7.6337551">
        <ele>1904.2</ele>
        <time>2014-01-30T10:21:56Z</time>
      </trkpt>
      <trkpt lat="45.9425491" lon="7.6337809">
        <ele>1903.2</ele>
        <time>2014-01-30T10:21:57Z</time>
      </trkpt>
      <trkpt lat="45.9424531" lon="7.633784">
        <ele>1901.8</ele>
        <time>2014-01-30T10:21:58Z</time>
      </trkpt>
      <trkpt lat="45.9423231" lon="7.6337692">
        <ele>1900.6</ele>
        <time>2014-01-30T10:21:59Z</time>
      </trkpt>
      <trkpt lat="45.9422383" lon="7.633747">
        <ele>1899.6</ele>
        <time>2014-01-30T10:22:00Z</time>
      </trkpt>
      <trkpt lat="45.9421378" lon="7.6337109">
        <ele>1899.6</ele>
        <time>2014-01-30T10:22:01Z</time>
      </trkpt>
      <trkpt lat="45.9420569" lon="7.6336737">
        <ele>1898.2</ele>
        <time>2014-01-30T10:22:02Z</time>
      </trkpt>
      <trkpt lat="45.941961" lon="7.633627">
        <ele>1897</ele>
        <time>2014-01-30T10:22:03Z</time>
      </trkpt>
      <trkpt lat="45.9417828" lon="7.6335492">
        <ele>1895.8</ele>
        <time>2014-01-30T10:22:05Z</time>
      </trkpt>
      <trkpt lat="45.9417176" lon="7.6335218">
        <ele>1895.8</ele>
        <time>2014-01-30T10:22:06Z</time>
      </trkpt>
      <trkpt lat="45.9415707" lon="7.6334607">
        <ele>1894.8</ele>
        <time>2014-01-30T10:22:08Z</time>
      </trkpt>
      <trkpt lat="45.9413699" lon="7.6333652">
        <ele>1893.6</ele>
        <time>2014-01-30T10:22:11Z</time>
      </trkpt>
      <trkpt lat="45.9412435" lon="7.6332986">
        <ele>1892.6</ele>
        <time>2014-01-30T10:22:13Z</time>
      </trkpt>
      <trkpt lat="45.9411247" lon="7.6332268">
        <ele>1891.2</ele>
        <time>2014-01-30T10:22:15Z</time>
      </trkpt>
      <trkpt lat="45.9409982" lon="7.6331537">
        <ele>1890.2</ele>
        <time>2014-01-30T10:22:17Z</time>
      </trkpt>
      <trkpt lat="45.9409516" lon="7.6331259">
        <ele>1890.2</ele>
        <time>2014-01-30T10:22:18Z</time>
      </trkpt>
      <trkpt lat="45.9408819" lon="7.6330823">
        <ele>1889.2</ele>
        <time>2014-01-30T10:22:19Z</time>
      </trkpt>
      <trkpt lat="45.940764" lon="7.6330034">
        <ele>1887.8</ele>
        <time>2014-01-30T10:22:21Z</time>
      </trkpt>
      <trkpt lat="45.9406266" lon="7.6329098">
        <ele>1886.4</ele>
        <time>2014-01-30T10:22:23Z</time>
      </trkpt>
      <trkpt lat="45.9405659" lon="7.632869">
        <ele>1886.4</ele>
        <time>2014-01-30T10:22:24Z</time>
      </trkpt>
      <trkpt lat="45.9404873" lon="7.6328223">
        <ele>1885.2</ele>
        <time>2014-01-30T10:22:25Z</time>
      </trkpt>
      <trkpt lat="45.9402952" lon="7.6327165">
        <ele>1884.2</ele>
        <time>2014-01-30T10:22:28Z</time>
      </trkpt>
      <trkpt lat="45.9401608" lon="7.632664">
        <ele>1883.2</ele>
        <time>2014-01-30T10:22:30Z</time>
      </trkpt>
      <trkpt lat="45.9399343" lon="7.6326594">
        <ele>1881.8</ele>
        <time>2014-01-30T10:22:34Z</time>
      </trkpt>
      <trkpt lat="45.9398185" lon="7.6326733">
        <ele>1880.4</ele>
        <time>2014-01-30T10:22:36Z</time>
      </trkpt>
      <trkpt lat="45.9397421" lon="7.6326863">
        <ele>1879.4</ele>
        <time>2014-01-30T10:22:37Z</time>
      </trkpt>
      <trkpt lat="45.9396103" lon="7.6326909">
        <ele>1878</ele>
        <time>2014-01-30T10:22:39Z</time>
      </trkpt>
      <trkpt lat="45.9394703" lon="7.6326609">
        <ele>1877</ele>
        <time>2014-01-30T10:22:41Z</time>
      </trkpt>
      <trkpt lat="45.939401" lon="7.6326278">
        <ele>1875.6</ele>
        <time>2014-01-30T10:22:42Z</time>
      </trkpt>
      <trkpt lat="45.9393111" lon="7.6326062">
        <ele>1873.6</ele>
        <time>2014-01-30T10:22:43Z</time>
      </trkpt>
      <trkpt lat="45.9392439" lon="7.6325713">
        <ele>1872</ele>
        <time>2014-01-30T10:22:44Z</time>
      </trkpt>
      <trkpt lat="45.9391627" lon="7.6325038">
        <ele>1870.4</ele>
        <time>2014-01-30T10:22:45Z</time>
      </trkpt>
      <trkpt lat="45.9390863" lon="7.6324801">
        <ele>1868.8</ele>
        <time>2014-01-30T10:22:46Z</time>
      </trkpt>
      <trkpt lat="45.938982" lon="7.6324547">
        <ele>1867.2</ele>
        <time>2014-01-30T10:22:47Z</time>
      </trkpt>
      <trkpt lat="45.9389269" lon="7.6323948">
        <ele>1865.6</ele>
        <time>2014-01-30T10:22:48Z</time>
      </trkpt>
      <trkpt lat="45.9388391" lon="7.6323099">
        <ele>1864</ele>
        <time>2014-01-30T10:22:49Z</time>
      </trkpt>
      <trkpt lat="45.9387832" lon="7.6322622">
        <ele>1862.8</ele>
        <time>2014-01-30T10:22:50Z</time>
      </trkpt>
      <trkpt lat="45.9387139" lon="7.6321836">
        <ele>1861.4</ele>
        <time>2014-01-30T10:22:51Z</time>
      </trkpt>
      <trkpt lat="45.9386458" lon="7.6321417">
        <ele>1858.4</ele>
        <time>2014-01-30T10:22:52Z</time>
      </trkpt>
      <trkpt lat="45.9385584" lon="7.6320778">
        <ele>1856.2</ele>
        <time>2014-01-30T10:22:53Z</time>
      </trkpt>
      <trkpt lat="45.9384903" lon="7.6320151">
        <ele>1853.4</ele>
        <time>2014-01-30T10:22:54Z</time>
      </trkpt>
      <trkpt lat="45.9383899" lon="7.6319668">
        <ele>1848.8</ele>
        <time>2014-01-30T10:22:55Z</time>
      </trkpt>
      <trkpt lat="45.938319" lon="7.6318948">
        <ele>1846.4</ele>
        <time>2014-01-30T10:22:56Z</time>
      </trkpt>
      <trkpt lat="45.9382082" lon="7.6318183">
        <ele>1842.8</ele>
        <time>2014-01-30T10:22:57Z</time>
      </trkpt>
      <trkpt lat="45.9381261" lon="7.6317453">
        <ele>1839</ele>
        <time>2014-01-30T10:22:58Z</time>
      </trkpt>
      <trkpt lat="45.9380106" lon="7.6316265">
        <ele>1834.2</ele>
        <time>2014-01-30T10:22:59Z</time>
      </trkpt>
      <trkpt lat="45.9379299" lon="7.6315917">
        <ele>1831.6</ele>
        <time>2014-01-30T10:23:00Z</time>
      </trkpt>
      <trkpt lat="45.93785" lon="7.6315308">
        <ele>1829.4</ele>
        <time>2014-01-30T10:23:01Z</time>
      </trkpt>
      <trkpt lat="45.9377933" lon="7.6314525">
        <ele>1828</ele>
        <time>2014-01-30T10:23:02Z</time>
      </trkpt>
      <trkpt lat="45.9377255" lon="7.6314133">
        <ele>1825.4</ele>
        <time>2014-01-30T10:23:03Z</time>
      </trkpt>
      <trkpt lat="45.9376771" lon="7.6313792">
        <ele>1824.2</ele>
        <time>2014-01-30T10:23:04Z</time>
      </trkpt>
      <trkpt lat="45.9376199" lon="7.6313261">
        <ele>1824.2</ele>
        <time>2014-01-30T10:23:05Z</time>
      </trkpt>
      <trkpt lat="45.9375764" lon="7.6313144">
        <ele>1823</ele>
        <time>2014-01-30T10:23:06Z</time>
      </trkpt>
      <trkpt lat="45.9375206" lon="7.6312982">
        <ele>1823</ele>
        <time>2014-01-30T10:23:07Z</time>
      </trkpt>
      <trkpt lat="45.9373461" lon="7.6312284">
        <ele>1823</ele>
        <time>2014-01-30T10:23:11Z</time>
      </trkpt>
      <trkpt lat="45.9372493" lon="7.6311864">
        <ele>1823</ele>
        <time>2014-01-30T10:23:15Z</time>
      </trkpt>
      <trkpt lat="45.9372182" lon="7.6311918">
        <ele>1823</ele>
        <time>2014-01-30T10:23:17Z</time>
      </trkpt>
      <trkpt lat="45.9371931" lon="7.6311967">
        <ele>1823</ele>
        <time>2014-01-30T10:23:19Z</time>
      </trkpt>
      <trkpt lat="45.9371794" lon="7.6312042">
        <ele>1823</ele>
        <time>2014-01-30T10:23:21Z</time>
      </trkpt>
      <trkpt lat="45.9371694" lon="7.6312196">
        <ele>1823</ele>
        <time>2014-01-30T10:23:28Z</time>
      </trkpt>
      <trkpt lat="45.9371623" lon="7.6312269">
        <ele>1823</ele>
        <time>2014-01-30T10:23:29Z</time>
      </trkpt>
      <trkpt lat="45.9371343" lon="7.6312415">
        <ele>1823</ele>
        <time>2014-01-30T10:23:36Z</time>
      </trkpt>
      <trkpt lat="45.9371298" lon="7.6312406">
        <ele>1823</ele>
        <time>2014-01-30T10:23:46Z</time>
      </trkpt>
      <trkpt lat="45.9371021" lon="7.6312719">
        <ele>1823</ele>
        <time>2014-01-30T10:23:55Z</time>
      </trkpt>
      <trkpt lat="45.9370822" lon="7.6312762">
        <ele>1823</ele>
        <time>2014-01-30T10:24:03Z</time>
      </trkpt>
      <trkpt lat="45.9370679" lon="7.6312906">
        <ele>1823</ele>
        <time>2014-01-30T10:24:06Z</time>
      </trkpt>
      <trkpt lat="45.9370653" lon="7.6313147">
        <ele>1823</ele>
        <time>2014-01-30T10:24:08Z</time>
      </trkpt>
      <trkpt lat="45.9370884" lon="7.6313641">
        <ele>1823</ele>
        <time>2014-01-30T10:24:14Z</time>
      </trkpt>
      <trkpt lat="45.9371617" lon="7.6314736">
        <ele>1823</ele>
        <time>2014-01-30T10:24:18Z</time>
      </trkpt>
      <trkpt lat="45.9372331" lon="7.6316065">
        <ele>1826.6</ele>
        <time>2014-01-30T10:24:21Z</time>
      </trkpt>
      <trkpt lat="45.9372519" lon="7.6316458">
        <ele>1827.8</ele>
        <time>2014-01-30T10:24:22Z</time>
      </trkpt>
      <trkpt lat="45.9372774" lon="7.6316971">
        <ele>1830.4</ele>
        <time>2014-01-30T10:24:23Z</time>
      </trkpt>
      <trkpt lat="45.9372953" lon="7.6317342">
        <ele>1831.8</ele>
        <time>2014-01-30T10:24:24Z</time>
      </trkpt>
      <trkpt lat="45.9373174" lon="7.6317818">
        <ele>1834.4</ele>
        <time>2014-01-30T10:24:25Z</time>
      </trkpt>
      <trkpt lat="45.9373326" lon="7.6318163">
        <ele>1835.6</ele>
        <time>2014-01-30T10:24:26Z</time>
      </trkpt>
      <trkpt lat="45.9373558" lon="7.6318647">
        <ele>1837</ele>
        <time>2014-01-30T10:24:27Z</time>
      </trkpt>
      <trkpt lat="45.9373753" lon="7.6319037">
        <ele>1840</ele>
        <time>2014-01-30T10:24:28Z</time>
      </trkpt>
      <trkpt lat="45.937397" lon="7.6319497">
        <ele>1841.6</ele>
        <time>2014-01-30T10:24:29Z</time>
      </trkpt>
      <trkpt lat="45.9374099" lon="7.6319783">
        <ele>1843</ele>
        <time>2014-01-30T10:24:30Z</time>
      </trkpt>
      <trkpt lat="45.9374331" lon="7.6320253">
        <ele>1846.6</ele>
        <time>2014-01-30T10:24:31Z</time>
      </trkpt>
      <trkpt lat="45.9374493" lon="7.6320578">
        <ele>1848.4</ele>
        <time>2014-01-30T10:24:32Z</time>
      </trkpt>
      <trkpt lat="45.9374696" lon="7.6321003">
        <ele>1850</ele>
        <time>2014-01-30T10:24:33Z</time>
      </trkpt>
      <trkpt lat="45.9374853" lon="7.6321361">
        <ele>1851.8</ele>
        <time>2014-01-30T10:24:34Z</time>
      </trkpt>
      <trkpt lat="45.937506" lon="7.6321852">
        <ele>1854</ele>
        <time>2014-01-30T10:24:35Z</time>
      </trkpt>
      <trkpt lat="45.9375495" lon="7.6322752">
        <ele>1855.2</ele>
        <time>2014-01-30T10:24:37Z</time>
      </trkpt>
      <trkpt lat="45.9375672" lon="7.6323116">
        <ele>1856.2</ele>
        <time>2014-01-30T10:24:38Z</time>
      </trkpt>
      <trkpt lat="45.9375914" lon="7.6323602">
        <ele>1857.2</ele>
        <time>2014-01-30T10:24:39Z</time>
      </trkpt>
      <trkpt lat="45.9376341" lon="7.6324478">
        <ele>1859.6</ele>
        <time>2014-01-30T10:24:41Z</time>
      </trkpt>
      <trkpt lat="45.9376544" lon="7.6324902">
        <ele>1860.8</ele>
        <time>2014-01-30T10:24:42Z</time>
      </trkpt>
      <trkpt lat="45.9376822" lon="7.6325465">
        <ele>1861.8</ele>
        <time>2014-01-30T10:24:43Z</time>
      </trkpt>
      <trkpt lat="45.9377006" lon="7.6325836">
        <ele>1861.8</ele>
        <time>2014-01-30T10:24:44Z</time>
      </trkpt>
      <trkpt lat="45.9377244" lon="7.6326327">
        <ele>1863</ele>
        <time>2014-01-30T10:24:45Z</time>
      </trkpt>
      <trkpt lat="45.93774" lon="7.6326654">
        <ele>1864.4</ele>
        <time>2014-01-30T10:24:46Z</time>
      </trkpt>
      <trkpt lat="45.9377626" lon="7.632712">
        <ele>1865.4</ele>
        <time>2014-01-30T10:24:47Z</time>
      </trkpt>
      <trkpt lat="45.9377812" lon="7.632749">
        <ele>1867</ele>
        <time>2014-01-30T10:24:48Z</time>
      </trkpt>
      <trkpt lat="45.9378063" lon="7.6327989">
        <ele>1868.4</ele>
        <time>2014-01-30T10:24:49Z</time>
      </trkpt>
      <trkpt lat="45.9378442" lon="7.6328783">
        <ele>1869.8</ele>
        <time>2014-01-30T10:24:51Z</time>
      </trkpt>
      <trkpt lat="45.9378631" lon="7.6329163">
        <ele>1871</ele>
        <time>2014-01-30T10:24:52Z</time>
      </trkpt>
      <trkpt lat="45.937891" lon="7.6329704">
        <ele>1872.2</ele>
        <time>2014-01-30T10:24:53Z</time>
      </trkpt>
      <trkpt lat="45.9379083" lon="7.633007">
        <ele>1873.6</ele>
        <time>2014-01-30T10:24:54Z</time>
      </trkpt>
      <trkpt lat="45.93793" lon="7.633055">
        <ele>1874.8</ele>
        <time>2014-01-30T10:24:55Z</time>
      </trkpt>
      <trkpt lat="45.9379464" lon="7.6330871">
        <ele>1876</ele>
        <time>2014-01-30T10:24:56Z</time>
      </trkpt>
      <trkpt lat="45.9379718" lon="7.6331353">
        <ele>1878.4</ele>
        <time>2014-01-30T10:24:57Z</time>
      </trkpt>
      <trkpt lat="45.9379864" lon="7.6331662">
        <ele>1879.8</ele>
        <time>2014-01-30T10:24:58Z</time>
      </trkpt>
      <trkpt lat="45.9380099" lon="7.6332162">
        <ele>1882</ele>
        <time>2014-01-30T10:24:59Z</time>
      </trkpt>
      <trkpt lat="45.9380661" lon="7.6333299">
        <ele>1884</ele>
        <time>2014-01-30T10:25:02Z</time>
      </trkpt>
      <trkpt lat="45.938092" lon="7.6333848">
        <ele>1885</ele>
        <time>2014-01-30T10:25:03Z</time>
      </trkpt>
      <trkpt lat="45.9381339" lon="7.6334672">
        <ele>1886.2</ele>
        <time>2014-01-30T10:25:05Z</time>
      </trkpt>
      <trkpt lat="45.9381498" lon="7.6335015">
        <ele>1887.2</ele>
        <time>2014-01-30T10:25:06Z</time>
      </trkpt>
      <trkpt lat="45.938171" lon="7.6335461">
        <ele>1888.2</ele>
        <time>2014-01-30T10:25:07Z</time>
      </trkpt>
      <trkpt lat="45.9382134" lon="7.6336291">
        <ele>1889.4</ele>
        <time>2014-01-30T10:25:09Z</time>
      </trkpt>
      <trkpt lat="45.9382337" lon="7.6336725">
        <ele>1890.4</ele>
        <time>2014-01-30T10:25:10Z</time>
      </trkpt>
      <trkpt lat="45.9382559" lon="7.6337184">
        <ele>1892</ele>
        <time>2014-01-30T10:25:11Z</time>
      </trkpt>
      <trkpt lat="45.9382992" lon="7.6338041">
        <ele>1893</ele>
        <time>2014-01-30T10:25:13Z</time>
      </trkpt>
      <trkpt lat="45.9383144" lon="7.6338361">
        <ele>1894.4</ele>
        <time>2014-01-30T10:25:14Z</time>
      </trkpt>
      <trkpt lat="45.9383386" lon="7.6338855">
        <ele>1896</ele>
        <time>2014-01-30T10:25:15Z</time>
      </trkpt>
      <trkpt lat="45.9383537" lon="7.6339157">
        <ele>1897</ele>
        <time>2014-01-30T10:25:16Z</time>
      </trkpt>
      <trkpt lat="45.9383775" lon="7.6339636">
        <ele>1898.2</ele>
        <time>2014-01-30T10:25:17Z</time>
      </trkpt>
      <trkpt lat="45.9383952" lon="7.6339996">
        <ele>1899.2</ele>
        <time>2014-01-30T10:25:18Z</time>
      </trkpt>
      <trkpt lat="45.9384195" lon="7.6340482">
        <ele>1900.6</ele>
        <time>2014-01-30T10:25:19Z</time>
      </trkpt>
      <trkpt lat="45.9384356" lon="7.6340813">
        <ele>1901.8</ele>
        <time>2014-01-30T10:25:20Z</time>
      </trkpt>
      <trkpt lat="45.9384588" lon="7.6341284">
        <ele>1903</ele>
        <time>2014-01-30T10:25:21Z</time>
      </trkpt>
      <trkpt lat="45.9384749" lon="7.6341604">
        <ele>1904.2</ele>
        <time>2014-01-30T10:25:22Z</time>
      </trkpt>
      <trkpt lat="45.9384992" lon="7.6342081">
        <ele>1905.4</ele>
        <time>2014-01-30T10:25:23Z</time>
      </trkpt>
      <trkpt lat="45.9385172" lon="7.6342465">
        <ele>1906.8</ele>
        <time>2014-01-30T10:25:24Z</time>
      </trkpt>
      <trkpt lat="45.9385399" lon="7.6342923">
        <ele>1908</ele>
        <time>2014-01-30T10:25:25Z</time>
      </trkpt>
      <trkpt lat="45.9385565" lon="7.6343242">
        <ele>1909.4</ele>
        <time>2014-01-30T10:25:26Z</time>
      </trkpt>
      <trkpt lat="45.9385805" lon="7.6343723">
        <ele>1910.8</ele>
        <time>2014-01-30T10:25:27Z</time>
      </trkpt>
      <trkpt lat="45.9385947" lon="7.634403">
        <ele>1912.4</ele>
        <time>2014-01-30T10:25:28Z</time>
      </trkpt>
      <trkpt lat="45.9386188" lon="7.6344524">
        <ele>1914</ele>
        <time>2014-01-30T10:25:29Z</time>
      </trkpt>
      <trkpt lat="45.9386369" lon="7.6344864">
        <ele>1915.2</ele>
        <time>2014-01-30T10:25:30Z</time>
      </trkpt>
      <trkpt lat="45.9386581" lon="7.6345356">
        <ele>1916.4</ele>
        <time>2014-01-30T10:25:31Z</time>
      </trkpt>
      <trkpt lat="45.9386998" lon="7.6346257">
        <ele>1917.6</ele>
        <time>2014-01-30T10:25:33Z</time>
      </trkpt>
      <trkpt lat="45.9387393" lon="7.6347059">
        <ele>1918.8</ele>
        <time>2014-01-30T10:25:35Z</time>
      </trkpt>
      <trkpt lat="45.9387812" lon="7.6347965">
        <ele>1920</ele>
        <time>2014-01-30T10:25:37Z</time>
      </trkpt>
      <trkpt lat="45.9388236" lon="7.6348835">
        <ele>1921.2</ele>
        <time>2014-01-30T10:25:39Z</time>
      </trkpt>
      <trkpt lat="45.9388632" lon="7.63496">
        <ele>1922.2</ele>
        <time>2014-01-30T10:25:41Z</time>
      </trkpt>
      <trkpt lat="45.9388841" lon="7.635">
        <ele>1922.2</ele>
        <time>2014-01-30T10:25:42Z</time>
      </trkpt>
      <trkpt lat="45.9389071" lon="7.6350494">
        <ele>1923.6</ele>
        <time>2014-01-30T10:25:43Z</time>
      </trkpt>
      <trkpt lat="45.9389634" lon="7.635167">
        <ele>1925.8</ele>
        <time>2014-01-30T10:25:46Z</time>
      </trkpt>
      <trkpt lat="45.9389866" lon="7.6352175">
        <ele>1926.8</ele>
        <time>2014-01-30T10:25:47Z</time>
      </trkpt>
      <trkpt lat="45.9390301" lon="7.6353093">
        <ele>1928.2</ele>
        <time>2014-01-30T10:25:49Z</time>
      </trkpt>
      <trkpt lat="45.9390465" lon="7.635343">
        <ele>1929.4</ele>
        <time>2014-01-30T10:25:50Z</time>
      </trkpt>
      <trkpt lat="45.9390705" lon="7.6353945">
        <ele>1930.6</ele>
        <time>2014-01-30T10:25:51Z</time>
      </trkpt>
      <trkpt lat="45.939086" lon="7.6354292">
        <ele>1932</ele>
        <time>2014-01-30T10:25:52Z</time>
      </trkpt>
      <trkpt lat="45.9391128" lon="7.6354836">
        <ele>1933.4</ele>
        <time>2014-01-30T10:25:53Z</time>
      </trkpt>
      <trkpt lat="45.9391311" lon="7.6355203">
        <ele>1934.4</ele>
        <time>2014-01-30T10:25:54Z</time>
      </trkpt>
      <trkpt lat="45.9391555" lon="7.6355703">
        <ele>1935.6</ele>
        <time>2014-01-30T10:25:55Z</time>
      </trkpt>
      <trkpt lat="45.939198" lon="7.6356622">
        <ele>1938.2</ele>
        <time>2014-01-30T10:25:57Z</time>
      </trkpt>
      <trkpt lat="45.9392136" lon="7.6356955">
        <ele>1939.2</ele>
        <time>2014-01-30T10:25:58Z</time>
      </trkpt>
      <trkpt lat="45.93924" lon="7.6357508">
        <ele>1940.2</ele>
        <time>2014-01-30T10:25:59Z</time>
      </trkpt>
      <trkpt lat="45.9392558" lon="7.6357863">
        <ele>1941.8</ele>
        <time>2014-01-30T10:26:00Z</time>
      </trkpt>
      <trkpt lat="45.9392789" lon="7.6358364">
        <ele>1943</ele>
        <time>2014-01-30T10:26:01Z</time>
      </trkpt>
      <trkpt lat="45.9392971" lon="7.6358767">
        <ele>1945.2</ele>
        <time>2014-01-30T10:26:02Z</time>
      </trkpt>
      <trkpt lat="45.9393204" lon="7.6359269">
        <ele>1946.4</ele>
        <time>2014-01-30T10:26:03Z</time>
      </trkpt>
      <trkpt lat="45.9393365" lon="7.6359609">
        <ele>1947.6</ele>
        <time>2014-01-30T10:26:04Z</time>
      </trkpt>
      <trkpt lat="45.9393597" lon="7.636009">
        <ele>1950</ele>
        <time>2014-01-30T10:26:05Z</time>
      </trkpt>
      <trkpt lat="45.9393753" lon="7.6360413">
        <ele>1951.2</ele>
        <time>2014-01-30T10:26:06Z</time>
      </trkpt>
      <trkpt lat="45.939398" lon="7.6360887">
        <ele>1952.2</ele>
        <time>2014-01-30T10:26:07Z</time>
      </trkpt>
      <trkpt lat="45.9394146" lon="7.636123">
        <ele>1954.6</ele>
        <time>2014-01-30T10:26:08Z</time>
      </trkpt>
      <trkpt lat="45.9394381" lon="7.6361715">
        <ele>1955.8</ele>
        <time>2014-01-30T10:26:09Z</time>
      </trkpt>
      <trkpt lat="45.9394544" lon="7.6362042">
        <ele>1958.2</ele>
        <time>2014-01-30T10:26:10Z</time>
      </trkpt>
      <trkpt lat="45.9394765" lon="7.6362491">
        <ele>1959.2</ele>
        <time>2014-01-30T10:26:11Z</time>
      </trkpt>
      <trkpt lat="45.9394925" lon="7.6362838">
        <ele>1961.4</ele>
        <time>2014-01-30T10:26:12Z</time>
      </trkpt>
      <trkpt lat="45.9395157" lon="7.6363317">
        <ele>1962.6</ele>
        <time>2014-01-30T10:26:13Z</time>
      </trkpt>
      <trkpt lat="45.9395338" lon="7.6363691">
        <ele>1965.2</ele>
        <time>2014-01-30T10:26:14Z</time>
      </trkpt>
      <trkpt lat="45.9395558" lon="7.6364152">
        <ele>1966.2</ele>
        <time>2014-01-30T10:26:15Z</time>
      </trkpt>
      <trkpt lat="45.9395701" lon="7.6364437">
        <ele>1967.4</ele>
        <time>2014-01-30T10:26:16Z</time>
      </trkpt>
      <trkpt lat="45.9395941" lon="7.6364879">
        <ele>1970.4</ele>
        <time>2014-01-30T10:26:17Z</time>
      </trkpt>
      <trkpt lat="45.9396068" lon="7.6365146">
        <ele>1971.8</ele>
        <time>2014-01-30T10:26:18Z</time>
      </trkpt>
      <trkpt lat="45.9396289" lon="7.6365571">
        <ele>1973.2</ele>
        <time>2014-01-30T10:26:19Z</time>
      </trkpt>
      <trkpt lat="45.9396444" lon="7.6365877">
        <ele>1974.6</ele>
        <time>2014-01-30T10:26:20Z</time>
      </trkpt>
      <trkpt lat="45.9396639" lon="7.6366248">
        <ele>1976.2</ele>
        <time>2014-01-30T10:26:21Z</time>
      </trkpt>
      <trkpt lat="45.9396783" lon="7.6366543">
        <ele>1979.2</ele>
        <time>2014-01-30T10:26:22Z</time>
      </trkpt>
      <trkpt lat="45.939704" lon="7.6367086">
        <ele>1980.2</ele>
        <time>2014-01-30T10:26:23Z</time>
      </trkpt>
      <trkpt lat="45.9397204" lon="7.6367424">
        <ele>1981.6</ele>
        <time>2014-01-30T10:26:24Z</time>
      </trkpt>
      <trkpt lat="45.9397819" lon="7.6368671">
        <ele>1984.4</ele>
        <time>2014-01-30T10:26:27Z</time>
      </trkpt>
      <trkpt lat="45.9397963" lon="7.6368951">
        <ele>1985.6</ele>
        <time>2014-01-30T10:26:28Z</time>
      </trkpt>
      <trkpt lat="45.9398228" lon="7.6369443">
        <ele>1986.8</ele>
        <time>2014-01-30T10:26:29Z</time>
      </trkpt>
      <trkpt lat="45.9398408" lon="7.6369795">
        <ele>1987.8</ele>
        <time>2014-01-30T10:26:30Z</time>
      </trkpt>
      <trkpt lat="45.9398628" lon="7.6370241">
        <ele>1989</ele>
        <time>2014-01-30T10:26:31Z</time>
      </trkpt>
      <trkpt lat="45.9398814" lon="7.6370606">
        <ele>1990</ele>
        <time>2014-01-30T10:26:32Z</time>
      </trkpt>
      <trkpt lat="45.9399059" lon="7.6371083">
        <ele>1991.2</ele>
        <time>2014-01-30T10:26:33Z</time>
      </trkpt>
      <trkpt lat="45.9399211" lon="7.6371381">
        <ele>1992.2</ele>
        <time>2014-01-30T10:26:34Z</time>
      </trkpt>
      <trkpt lat="45.9399453" lon="7.6371836">
        <ele>1993.4</ele>
        <time>2014-01-30T10:26:35Z</time>
      </trkpt>
      <trkpt lat="45.9399604" lon="7.6372147">
        <ele>1995</ele>
        <time>2014-01-30T10:26:36Z</time>
      </trkpt>
      <trkpt lat="45.9399833" lon="7.6372609">
        <ele>1996.4</ele>
        <time>2014-01-30T10:26:37Z</time>
      </trkpt>
      <trkpt lat="45.9399997" lon="7.6372935">
        <ele>1997.8</ele>
        <time>2014-01-30T10:26:38Z</time>
      </trkpt>
      <trkpt lat="45.9400232" lon="7.6373416">
        <ele>1999.4</ele>
        <time>2014-01-30T10:26:39Z</time>
      </trkpt>
      <trkpt lat="45.9400381" lon="7.6373743">
        <ele>2001.2</ele>
        <time>2014-01-30T10:26:40Z</time>
      </trkpt>
      <trkpt lat="45.9400601" lon="7.6374178">
        <ele>2002.8</ele>
        <time>2014-01-30T10:26:41Z</time>
      </trkpt>
      <trkpt lat="45.9400765" lon="7.637451">
        <ele>2005</ele>
        <time>2014-01-30T10:26:42Z</time>
      </trkpt>
      <trkpt lat="45.9400983" lon="7.6374916">
        <ele>2007</ele>
        <time>2014-01-30T10:26:43Z</time>
      </trkpt>
      <trkpt lat="45.9401138" lon="7.6375205">
        <ele>2009</ele>
        <time>2014-01-30T10:26:44Z</time>
      </trkpt>
      <trkpt lat="45.9401355" lon="7.6375618">
        <ele>2010.8</ele>
        <time>2014-01-30T10:26:45Z</time>
      </trkpt>
      <trkpt lat="45.9401489" lon="7.6375877">
        <ele>2012.8</ele>
        <time>2014-01-30T10:26:46Z</time>
      </trkpt>
      <trkpt lat="45.9401738" lon="7.6376324">
        <ele>2014.6</ele>
        <time>2014-01-30T10:26:47Z</time>
      </trkpt>
      <trkpt lat="45.9401889" lon="7.6376597">
        <ele>2016.4</ele>
        <time>2014-01-30T10:26:48Z</time>
      </trkpt>
      <trkpt lat="45.9402124" lon="7.6377009">
        <ele>2018.2</ele>
        <time>2014-01-30T10:26:49Z</time>
      </trkpt>
      <trkpt lat="45.9402288" lon="7.6377322">
        <ele>2020.2</ele>
        <time>2014-01-30T10:26:50Z</time>
      </trkpt>
      <trkpt lat="45.9402505" lon="7.637771">
        <ele>2021.8</ele>
        <time>2014-01-30T10:26:51Z</time>
      </trkpt>
      <trkpt lat="45.9402666" lon="7.6378011">
        <ele>2023</ele>
        <time>2014-01-30T10:26:52Z</time>
      </trkpt>
      <trkpt lat="45.9403096" lon="7.6378823">
        <ele>2024.2</ele>
        <time>2014-01-30T10:26:54Z</time>
      </trkpt>
      <trkpt lat="45.9403353" lon="7.637932">
        <ele>2025.2</ele>
        <time>2014-01-30T10:26:55Z</time>
      </trkpt>
      <trkpt lat="45.9403777" lon="7.6380127">
        <ele>2026.4</ele>
        <time>2014-01-30T10:26:57Z</time>
      </trkpt>
      <trkpt lat="45.94042" lon="7.6380899">
        <ele>2027.8</ele>
        <time>2014-01-30T10:26:59Z</time>
      </trkpt>
      <trkpt lat="45.940483" lon="7.6382006">
        <ele>2028.8</ele>
        <time>2014-01-30T10:27:02Z</time>
      </trkpt>
      <trkpt lat="45.9405257" lon="7.6382784">
        <ele>2030</ele>
        <time>2014-01-30T10:27:04Z</time>
      </trkpt>
      <trkpt lat="45.9405681" lon="7.6383563">
        <ele>2031.4</ele>
        <time>2014-01-30T10:27:06Z</time>
      </trkpt>
      <trkpt lat="45.9406104" lon="7.6384369">
        <ele>2032.8</ele>
        <time>2014-01-30T10:27:08Z</time>
      </trkpt>
      <trkpt lat="45.9406527" lon="7.6385197">
        <ele>2034</ele>
        <time>2014-01-30T10:27:10Z</time>
      </trkpt>
      <trkpt lat="45.9406764" lon="7.6385646">
        <ele>2035.2</ele>
        <time>2014-01-30T10:27:11Z</time>
      </trkpt>
      <trkpt lat="45.9407189" lon="7.638647">
        <ele>2036.4</ele>
        <time>2014-01-30T10:27:13Z</time>
      </trkpt>
      <trkpt lat="45.9407364" lon="7.6386815">
        <ele>2037.8</ele>
        <time>2014-01-30T10:27:14Z</time>
      </trkpt>
      <trkpt lat="45.9407603" lon="7.6387269">
        <ele>2038.8</ele>
        <time>2014-01-30T10:27:15Z</time>
      </trkpt>
      <trkpt lat="45.9407752" lon="7.6387575">
        <ele>2039.8</ele>
        <time>2014-01-30T10:27:16Z</time>
      </trkpt>
      <trkpt lat="45.940801" lon="7.6388097">
        <ele>2041</ele>
        <time>2014-01-30T10:27:17Z</time>
      </trkpt>
      <trkpt lat="45.9408415" lon="7.6388936">
        <ele>2042.4</ele>
        <time>2014-01-30T10:27:19Z</time>
      </trkpt>
      <trkpt lat="45.9408804" lon="7.6389748">
        <ele>2043.4</ele>
        <time>2014-01-30T10:27:21Z</time>
      </trkpt>
      <trkpt lat="45.9408965" lon="7.6390075">
        <ele>2044.6</ele>
        <time>2014-01-30T10:27:22Z</time>
      </trkpt>
      <trkpt lat="45.9409226" lon="7.6390614">
        <ele>2045.8</ele>
        <time>2014-01-30T10:27:23Z</time>
      </trkpt>
      <trkpt lat="45.9409627" lon="7.6391445">
        <ele>2047</ele>
        <time>2014-01-30T10:27:25Z</time>
      </trkpt>
      <trkpt lat="45.9409789" lon="7.6391783">
        <ele>2048</ele>
        <time>2014-01-30T10:27:26Z</time>
      </trkpt>
      <trkpt lat="45.9410032" lon="7.6392298">
        <ele>2049.4</ele>
        <time>2014-01-30T10:27:27Z</time>
      </trkpt>
      <trkpt lat="45.9410264" lon="7.6392779">
        <ele>2050.6</ele>
        <time>2014-01-30T10:27:29Z</time>
      </trkpt>
      <trkpt lat="45.9410597" lon="7.6393489">
        <ele>2052.6</ele>
        <time>2014-01-30T10:27:30Z</time>
      </trkpt>
      <trkpt lat="45.9410813" lon="7.6393945">
        <ele>2053.6</ele>
        <time>2014-01-30T10:27:31Z</time>
      </trkpt>
      <trkpt lat="45.941099" lon="7.6394324">
        <ele>2054.8</ele>
        <time>2014-01-30T10:27:32Z</time>
      </trkpt>
      <trkpt lat="45.9411226" lon="7.6394802">
        <ele>2056</ele>
        <time>2014-01-30T10:27:33Z</time>
      </trkpt>
      <trkpt lat="45.9411626" lon="7.6395639">
        <ele>2058</ele>
        <time>2014-01-30T10:27:35Z</time>
      </trkpt>
      <trkpt lat="45.9411785" lon="7.639597">
        <ele>2059</ele>
        <time>2014-01-30T10:27:36Z</time>
      </trkpt>
      <trkpt lat="45.941201" lon="7.6396439">
        <ele>2060.2</ele>
        <time>2014-01-30T10:27:37Z</time>
      </trkpt>
      <trkpt lat="45.9412179" lon="7.6396765">
        <ele>2061.4</ele>
        <time>2014-01-30T10:27:38Z</time>
      </trkpt>
      <trkpt lat="45.9412422" lon="7.6397225">
        <ele>2062.6</ele>
        <time>2014-01-30T10:27:39Z</time>
      </trkpt>
      <trkpt lat="45.9412832" lon="7.6398017">
        <ele>2065.4</ele>
        <time>2014-01-30T10:27:41Z</time>
      </trkpt>
      <trkpt lat="45.9412995" lon="7.639841">
        <ele>2066.8</ele>
        <time>2014-01-30T10:27:42Z</time>
      </trkpt>
      <trkpt lat="45.9413367" lon="7.639927">
        <ele>2069.4</ele>
        <time>2014-01-30T10:27:44Z</time>
      </trkpt>
      <trkpt lat="45.9413575" lon="7.6399671">
        <ele>2071</ele>
        <time>2014-01-30T10:27:45Z</time>
      </trkpt>
      <trkpt lat="45.9413728" lon="7.6399983">
        <ele>2072.8</ele>
        <time>2014-01-30T10:27:46Z</time>
      </trkpt>
      <trkpt lat="45.9413959" lon="7.6400468">
        <ele>2074.6</ele>
        <time>2014-01-30T10:27:47Z</time>
      </trkpt>
      <trkpt lat="45.9414085" lon="7.6400729">
        <ele>2077</ele>
        <time>2014-01-30T10:27:48Z</time>
      </trkpt>
      <trkpt lat="45.9414311" lon="7.6401109">
        <ele>2079.2</ele>
        <time>2014-01-30T10:27:49Z</time>
      </trkpt>
      <trkpt lat="45.9414452" lon="7.640141">
        <ele>2081.8</ele>
        <time>2014-01-30T10:27:50Z</time>
      </trkpt>
      <trkpt lat="45.9414642" lon="7.6401808">
        <ele>2084.2</ele>
        <time>2014-01-30T10:27:51Z</time>
      </trkpt>
      <trkpt lat="45.9414778" lon="7.6402088">
        <ele>2086.6</ele>
        <time>2014-01-30T10:27:52Z</time>
      </trkpt>
      <trkpt lat="45.9415023" lon="7.6402513">
        <ele>2088.8</ele>
        <time>2014-01-30T10:27:53Z</time>
      </trkpt>
      <trkpt lat="45.9415171" lon="7.6402818">
        <ele>2091.2</ele>
        <time>2014-01-30T10:27:54Z</time>
      </trkpt>
      <trkpt lat="45.9415365" lon="7.6403217">
        <ele>2093.6</ele>
        <time>2014-01-30T10:27:55Z</time>
      </trkpt>
      <trkpt lat="45.9415502" lon="7.6403487">
        <ele>2096.2</ele>
        <time>2014-01-30T10:27:56Z</time>
      </trkpt>
      <trkpt lat="45.9415714" lon="7.6403891">
        <ele>2098.4</ele>
        <time>2014-01-30T10:27:57Z</time>
      </trkpt>
      <trkpt lat="45.9415835" lon="7.640415">
        <ele>2100.8</ele>
        <time>2014-01-30T10:27:58Z</time>
      </trkpt>
      <trkpt lat="45.9416045" lon="7.640459">
        <ele>2103.2</ele>
        <time>2014-01-30T10:27:59Z</time>
      </trkpt>
      <trkpt lat="45.9416181" lon="7.6404906">
        <ele>2105.8</ele>
        <time>2014-01-30T10:28:00Z</time>
      </trkpt>
      <trkpt lat="45.9416368" lon="7.6405298">
        <ele>2108.2</ele>
        <time>2014-01-30T10:28:01Z</time>
      </trkpt>
      <trkpt lat="45.9416515" lon="7.6405626">
        <ele>2110.8</ele>
        <time>2014-01-30T10:28:02Z</time>
      </trkpt>
      <trkpt lat="45.9416714" lon="7.6406029">
        <ele>2113.4</ele>
        <time>2014-01-30T10:28:03Z</time>
      </trkpt>
      <trkpt lat="45.9416829" lon="7.6406312">
        <ele>2116</ele>
        <time>2014-01-30T10:28:04Z</time>
      </trkpt>
      <trkpt lat="45.9417015" lon="7.6406733">
        <ele>2118.6</ele>
        <time>2014-01-30T10:28:05Z</time>
      </trkpt>
      <trkpt lat="45.9417144" lon="7.6407004">
        <ele>2121.2</ele>
        <time>2014-01-30T10:28:06Z</time>
      </trkpt>
      <trkpt lat="45.9417337" lon="7.6407402">
        <ele>2123.8</ele>
        <time>2014-01-30T10:28:07Z</time>
      </trkpt>
      <trkpt lat="45.941747" lon="7.6407693">
        <ele>2126.4</ele>
        <time>2014-01-30T10:28:08Z</time>
      </trkpt>
      <trkpt lat="45.9417662" lon="7.6408099">
        <ele>2128.8</ele>
        <time>2014-01-30T10:28:09Z</time>
      </trkpt>
      <trkpt lat="45.9417802" lon="7.6408387">
        <ele>2130.6</ele>
        <time>2014-01-30T10:28:10Z</time>
      </trkpt>
      <trkpt lat="45.941799" lon="7.6408776">
        <ele>2134</ele>
        <time>2014-01-30T10:28:11Z</time>
      </trkpt>
      <trkpt lat="45.9418134" lon="7.6409085">
        <ele>2136.6</ele>
        <time>2014-01-30T10:28:12Z</time>
      </trkpt>
      <trkpt lat="45.9418325" lon="7.6409465">
        <ele>2139.2</ele>
        <time>2014-01-30T10:28:13Z</time>
      </trkpt>
      <trkpt lat="45.9418463" lon="7.6409745">
        <ele>2142.4</ele>
        <time>2014-01-30T10:28:14Z</time>
      </trkpt>
      <trkpt lat="45.9418647" lon="7.6410122">
        <ele>2144.4</ele>
        <time>2014-01-30T10:28:15Z</time>
      </trkpt>
      <trkpt lat="45.9418768" lon="7.6410365">
        <ele>2147</ele>
        <time>2014-01-30T10:28:16Z</time>
      </trkpt>
      <trkpt lat="45.9418973" lon="7.6410801">
        <ele>2149.2</ele>
        <time>2014-01-30T10:28:17Z</time>
      </trkpt>
      <trkpt lat="45.9419128" lon="7.6411115">
        <ele>2150.6</ele>
        <time>2014-01-30T10:28:18Z</time>
      </trkpt>
      <trkpt lat="45.9419365" lon="7.6411606">
        <ele>2153</ele>
        <time>2014-01-30T10:28:19Z</time>
      </trkpt>
      <trkpt lat="45.9419525" lon="7.6411929">
        <ele>2154</ele>
        <time>2014-01-30T10:28:20Z</time>
      </trkpt>
      <trkpt lat="45.9419731" lon="7.6412338">
        <ele>2156.4</ele>
        <time>2014-01-30T10:28:21Z</time>
      </trkpt>
      <trkpt lat="45.9419877" lon="7.6412617">
        <ele>2158.2</ele>
        <time>2014-01-30T10:28:22Z</time>
      </trkpt>
      <trkpt lat="45.9420133" lon="7.6413122">
        <ele>2159.8</ele>
        <time>2014-01-30T10:28:23Z</time>
      </trkpt>
      <trkpt lat="45.9420292" lon="7.6413451">
        <ele>2160.8</ele>
        <time>2014-01-30T10:28:24Z</time>
      </trkpt>
      <trkpt lat="45.9420518" lon="7.6413897">
        <ele>2163.2</ele>
        <time>2014-01-30T10:28:25Z</time>
      </trkpt>
      <trkpt lat="45.942067" lon="7.6414194">
        <ele>2164.2</ele>
        <time>2014-01-30T10:28:26Z</time>
      </trkpt>
      <trkpt lat="45.9420895" lon="7.6414647">
        <ele>2166.6</ele>
        <time>2014-01-30T10:28:27Z</time>
      </trkpt>
      <trkpt lat="45.9421031" lon="7.6414927">
        <ele>2167.8</ele>
        <time>2014-01-30T10:28:28Z</time>
      </trkpt>
      <trkpt lat="45.9421273" lon="7.6415408">
        <ele>2170.4</ele>
        <time>2014-01-30T10:28:29Z</time>
      </trkpt>
      <trkpt lat="45.9421438" lon="7.6415732">
        <ele>2172.2</ele>
        <time>2014-01-30T10:28:30Z</time>
      </trkpt>
      <trkpt lat="45.9421641" lon="7.6416143">
        <ele>2174</ele>
        <time>2014-01-30T10:28:31Z</time>
      </trkpt>
      <trkpt lat="45.9421804" lon="7.6416477">
        <ele>2175.8</ele>
        <time>2014-01-30T10:28:32Z</time>
      </trkpt>
      <trkpt lat="45.9422021" lon="7.6416906">
        <ele>2177.8</ele>
        <time>2014-01-30T10:28:33Z</time>
      </trkpt>
      <trkpt lat="45.9422169" lon="7.6417201">
        <ele>2179</ele>
        <time>2014-01-30T10:28:34Z</time>
      </trkpt>
      <trkpt lat="45.9422389" lon="7.641765">
        <ele>2181.6</ele>
        <time>2014-01-30T10:28:35Z</time>
      </trkpt>
      <trkpt lat="45.9422531" lon="7.6417943">
        <ele>2182.8</ele>
        <time>2014-01-30T10:28:36Z</time>
      </trkpt>
      <trkpt lat="45.9422754" lon="7.6418421">
        <ele>2185.2</ele>
        <time>2014-01-30T10:28:37Z</time>
      </trkpt>
      <trkpt lat="45.9423162" lon="7.6419314">
        <ele>2186.4</ele>
        <time>2014-01-30T10:28:39Z</time>
      </trkpt>
      <trkpt lat="45.942333" lon="7.6419629">
        <ele>2187.6</ele>
        <time>2014-01-30T10:28:40Z</time>
      </trkpt>
      <trkpt lat="45.9423568" lon="7.6420092">
        <ele>2188.8</ele>
        <time>2014-01-30T10:28:41Z</time>
      </trkpt>
      <trkpt lat="45.9423987" lon="7.642093">
        <ele>2190</ele>
        <time>2014-01-30T10:28:43Z</time>
      </trkpt>
      <trkpt lat="45.9424163" lon="7.6421274">
        <ele>2191.2</ele>
        <time>2014-01-30T10:28:44Z</time>
      </trkpt>
      <trkpt lat="45.9424403" lon="7.6421742">
        <ele>2192.6</ele>
        <time>2014-01-30T10:28:45Z</time>
      </trkpt>
      <trkpt lat="45.942481" lon="7.6422565">
        <ele>2193.8</ele>
        <time>2014-01-30T10:28:47Z</time>
      </trkpt>
      <trkpt lat="45.942497" lon="7.6422883">
        <ele>2195.2</ele>
        <time>2014-01-30T10:28:48Z</time>
      </trkpt>
      <trkpt lat="45.9425212" lon="7.6423359">
        <ele>2196.6</ele>
        <time>2014-01-30T10:28:49Z</time>
      </trkpt>
      <trkpt lat="45.9425386" lon="7.6423709">
        <ele>2197.8</ele>
        <time>2014-01-30T10:28:50Z</time>
      </trkpt>
      <trkpt lat="45.942576" lon="7.6424502">
        <ele>2198.8</ele>
        <time>2014-01-30T10:28:52Z</time>
      </trkpt>
      <trkpt lat="45.9426443" lon="7.6425898">
        <ele>2200</ele>
        <time>2014-01-30T10:28:55Z</time>
      </trkpt>
      <trkpt lat="45.9426866" lon="7.6426732">
        <ele>2200</ele>
        <time>2014-01-30T10:28:57Z</time>
      </trkpt>
      <trkpt lat="45.9427696" lon="7.6428389">
        <ele>2201</ele>
        <time>2014-01-30T10:29:01Z</time>
      </trkpt>
      <trkpt lat="45.942855" lon="7.6430101">
        <ele>2202.2</ele>
        <time>2014-01-30T10:29:05Z</time>
      </trkpt>
      <trkpt lat="45.9429976" lon="7.6432955">
        <ele>2204.2</ele>
        <time>2014-01-30T10:29:12Z</time>
      </trkpt>
      <trkpt lat="45.9430402" lon="7.6433806">
        <ele>2205.4</ele>
        <time>2014-01-30T10:29:14Z</time>
      </trkpt>
      <trkpt lat="45.9430796" lon="7.6434594">
        <ele>2206.6</ele>
        <time>2014-01-30T10:29:16Z</time>
      </trkpt>
      <trkpt lat="45.9431216" lon="7.6435438">
        <ele>2207.8</ele>
        <time>2014-01-30T10:29:18Z</time>
      </trkpt>
      <trkpt lat="45.9431649" lon="7.6436298">
        <ele>2208.8</ele>
        <time>2014-01-30T10:29:20Z</time>
      </trkpt>
      <trkpt lat="45.9432306" lon="7.6437634">
        <ele>2209.8</ele>
        <time>2014-01-30T10:29:23Z</time>
      </trkpt>
      <trkpt lat="45.9432723" lon="7.6438473">
        <ele>2211</ele>
        <time>2014-01-30T10:29:25Z</time>
      </trkpt>
      <trkpt lat="45.9432884" lon="7.6438797">
        <ele>2211</ele>
        <time>2014-01-30T10:29:26Z</time>
      </trkpt>
      <trkpt lat="45.9433139" lon="7.6439306">
        <ele>2212</ele>
        <time>2014-01-30T10:29:27Z</time>
      </trkpt>
      <trkpt lat="45.9433725" lon="7.6440508">
        <ele>2213.2</ele>
        <time>2014-01-30T10:29:30Z</time>
      </trkpt>
      <trkpt lat="45.9434144" lon="7.6441348">
        <ele>2214.2</ele>
        <time>2014-01-30T10:29:32Z</time>
      </trkpt>
      <trkpt lat="45.9434552" lon="7.6442171">
        <ele>2215.2</ele>
        <time>2014-01-30T10:29:34Z</time>
      </trkpt>
      <trkpt lat="45.9434795" lon="7.6442658">
        <ele>2216.2</ele>
        <time>2014-01-30T10:29:35Z</time>
      </trkpt>
      <trkpt lat="45.9435202" lon="7.6443469">
        <ele>2217.4</ele>
        <time>2014-01-30T10:29:37Z</time>
      </trkpt>
      <trkpt lat="45.9435377" lon="7.6443824">
        <ele>2218.6</ele>
        <time>2014-01-30T10:29:38Z</time>
      </trkpt>
      <trkpt lat="45.9435803" lon="7.644467">
        <ele>2219.6</ele>
        <time>2014-01-30T10:29:40Z</time>
      </trkpt>
      <trkpt lat="45.9436039" lon="7.6445149">
        <ele>2220.8</ele>
        <time>2014-01-30T10:29:41Z</time>
      </trkpt>
      <trkpt lat="45.9436225" lon="7.6445522">
        <ele>2220.8</ele>
        <time>2014-01-30T10:29:42Z</time>
      </trkpt>
      <trkpt lat="45.9436463" lon="7.6445996">
        <ele>2221.8</ele>
        <time>2014-01-30T10:29:43Z</time>
      </trkpt>
      <trkpt lat="45.9436637" lon="7.6446342">
        <ele>2223</ele>
        <time>2014-01-30T10:29:44Z</time>
      </trkpt>
      <trkpt lat="45.9437022" lon="7.6447121">
        <ele>2224.2</ele>
        <time>2014-01-30T10:29:46Z</time>
      </trkpt>
      <trkpt lat="45.9437453" lon="7.6447986">
        <ele>2225.2</ele>
        <time>2014-01-30T10:29:48Z</time>
      </trkpt>
      <trkpt lat="45.9438118" lon="7.644932">
        <ele>2226.4</ele>
        <time>2014-01-30T10:29:51Z</time>
      </trkpt>
      <trkpt lat="45.9438967" lon="7.645102">
        <ele>2227.6</ele>
        <time>2014-01-30T10:29:55Z</time>
      </trkpt>
      <trkpt lat="45.9439384" lon="7.6451862">
        <ele>2228.8</ele>
        <time>2014-01-30T10:29:57Z</time>
      </trkpt>
      <trkpt lat="45.9439801" lon="7.6452697">
        <ele>2230</ele>
        <time>2014-01-30T10:29:59Z</time>
      </trkpt>
      <trkpt lat="45.9440396" lon="7.6453889">
        <ele>2231</ele>
        <time>2014-01-30T10:30:02Z</time>
      </trkpt>
      <trkpt lat="45.9441506" lon="7.6456091">
        <ele>2234</ele>
        <time>2014-01-30T10:30:07Z</time>
      </trkpt>
      <trkpt lat="45.9441688" lon="7.6456479">
        <ele>2235.2</ele>
        <time>2014-01-30T10:30:08Z</time>
      </trkpt>
      <trkpt lat="45.944207" lon="7.6457207">
        <ele>2236.2</ele>
        <time>2014-01-30T10:30:10Z</time>
      </trkpt>
      <trkpt lat="45.9442505" lon="7.6458079">
        <ele>2237.2</ele>
        <time>2014-01-30T10:30:12Z</time>
      </trkpt>
      <trkpt lat="45.944276" lon="7.6458606">
        <ele>2238.4</ele>
        <time>2014-01-30T10:30:13Z</time>
      </trkpt>
      <trkpt lat="45.9442912" lon="7.6458891">
        <ele>2239.6</ele>
        <time>2014-01-30T10:30:14Z</time>
      </trkpt>
      <trkpt lat="45.9443306" lon="7.6459703">
        <ele>2240.8</ele>
        <time>2014-01-30T10:30:16Z</time>
      </trkpt>
      <trkpt lat="45.9443575" lon="7.6460233">
        <ele>2241.8</ele>
        <time>2014-01-30T10:30:17Z</time>
      </trkpt>
      <trkpt lat="45.9443748" lon="7.6460571">
        <ele>2243</ele>
        <time>2014-01-30T10:30:18Z</time>
      </trkpt>
      <trkpt lat="45.9444397" lon="7.6461822">
        <ele>2244.2</ele>
        <time>2014-01-30T10:30:21Z</time>
      </trkpt>
      <trkpt lat="45.9444533" lon="7.6462105">
        <ele>2245.2</ele>
        <time>2014-01-30T10:30:22Z</time>
      </trkpt>
      <trkpt lat="45.9444819" lon="7.6462682">
        <ele>2246.2</ele>
        <time>2014-01-30T10:30:23Z</time>
      </trkpt>
      <trkpt lat="45.9445226" lon="7.6463523">
        <ele>2247.4</ele>
        <time>2014-01-30T10:30:25Z</time>
      </trkpt>
      <trkpt lat="45.9445366" lon="7.6463804">
        <ele>2248.8</ele>
        <time>2014-01-30T10:30:26Z</time>
      </trkpt>
      <trkpt lat="45.9446046" lon="7.6465165">
        <ele>2250</ele>
        <time>2014-01-30T10:30:29Z</time>
      </trkpt>
      <trkpt lat="45.9446195" lon="7.6465464">
        <ele>2251.4</ele>
        <time>2014-01-30T10:30:30Z</time>
      </trkpt>
      <trkpt lat="45.9446448" lon="7.6465971">
        <ele>2252.6</ele>
        <time>2014-01-30T10:30:31Z</time>
      </trkpt>
      <trkpt lat="45.9446609" lon="7.6466296">
        <ele>2253.8</ele>
        <time>2014-01-30T10:30:32Z</time>
      </trkpt>
      <trkpt lat="45.9447029" lon="7.6467145">
        <ele>2255</ele>
        <time>2014-01-30T10:30:34Z</time>
      </trkpt>
      <trkpt lat="45.9447284" lon="7.6467655">
        <ele>2256.2</ele>
        <time>2014-01-30T10:30:35Z</time>
      </trkpt>
      <trkpt lat="45.9447417" lon="7.6467927">
        <ele>2257.2</ele>
        <time>2014-01-30T10:30:36Z</time>
      </trkpt>
      <trkpt lat="45.9447673" lon="7.6468451">
        <ele>2258.4</ele>
        <time>2014-01-30T10:30:37Z</time>
      </trkpt>
      <trkpt lat="45.944786" lon="7.6468822">
        <ele>2259.4</ele>
        <time>2014-01-30T10:30:38Z</time>
      </trkpt>
      <trkpt lat="45.944811" lon="7.6469326">
        <ele>2260.4</ele>
        <time>2014-01-30T10:30:39Z</time>
      </trkpt>
      <trkpt lat="45.9448227" lon="7.6469568">
        <ele>2261.6</ele>
        <time>2014-01-30T10:30:40Z</time>
      </trkpt>
      <trkpt lat="45.9448485" lon="7.647009">
        <ele>2263.2</ele>
        <time>2014-01-30T10:30:41Z</time>
      </trkpt>
      <trkpt lat="45.9448909" lon="7.6470941">
        <ele>2264.2</ele>
        <time>2014-01-30T10:30:43Z</time>
      </trkpt>
      <trkpt lat="45.9449054" lon="7.6471232">
        <ele>2265.4</ele>
        <time>2014-01-30T10:30:44Z</time>
      </trkpt>
      <trkpt lat="45.9449313" lon="7.647176">
        <ele>2266.8</ele>
        <time>2014-01-30T10:30:45Z</time>
      </trkpt>
      <trkpt lat="45.9449448" lon="7.647203">
        <ele>2268</ele>
        <time>2014-01-30T10:30:46Z</time>
      </trkpt>
      <trkpt lat="45.9449717" lon="7.6472559">
        <ele>2269.4</ele>
        <time>2014-01-30T10:30:47Z</time>
      </trkpt>
      <trkpt lat="45.9449882" lon="7.6472903">
        <ele>2270.4</ele>
        <time>2014-01-30T10:30:48Z</time>
      </trkpt>
      <trkpt lat="45.9450126" lon="7.6473399">
        <ele>2271.4</ele>
        <time>2014-01-30T10:30:49Z</time>
      </trkpt>
      <trkpt lat="45.9450255" lon="7.6473687">
        <ele>2272.6</ele>
        <time>2014-01-30T10:30:50Z</time>
      </trkpt>
      <trkpt lat="45.9450497" lon="7.6474194">
        <ele>2274</ele>
        <time>2014-01-30T10:30:51Z</time>
      </trkpt>
      <trkpt lat="45.9450629" lon="7.6474463">
        <ele>2275.2</ele>
        <time>2014-01-30T10:30:52Z</time>
      </trkpt>
      <trkpt lat="45.9450912" lon="7.6475037">
        <ele>2277.4</ele>
        <time>2014-01-30T10:30:53Z</time>
      </trkpt>
      <trkpt lat="45.9451074" lon="7.6475377">
        <ele>2278.6</ele>
        <time>2014-01-30T10:30:54Z</time>
      </trkpt>
      <trkpt lat="45.9451308" lon="7.6475853">
        <ele>2279.8</ele>
        <time>2014-01-30T10:30:55Z</time>
      </trkpt>
      <trkpt lat="45.9451439" lon="7.6476119">
        <ele>2281.2</ele>
        <time>2014-01-30T10:30:56Z</time>
      </trkpt>
      <trkpt lat="45.9451696" lon="7.6476661">
        <ele>2282.2</ele>
        <time>2014-01-30T10:30:57Z</time>
      </trkpt>
      <trkpt lat="45.9451853" lon="7.6476982">
        <ele>2283.2</ele>
        <time>2014-01-30T10:30:58Z</time>
      </trkpt>
      <trkpt lat="45.9452099" lon="7.647746">
        <ele>2284.4</ele>
        <time>2014-01-30T10:30:59Z</time>
      </trkpt>
      <trkpt lat="45.9452231" lon="7.6477719">
        <ele>2286</ele>
        <time>2014-01-30T10:31:00Z</time>
      </trkpt>
      <trkpt lat="45.9452473" lon="7.6478236">
        <ele>2287</ele>
        <time>2014-01-30T10:31:01Z</time>
      </trkpt>
      <trkpt lat="45.9452898" lon="7.6479103">
        <ele>2288.4</ele>
        <time>2014-01-30T10:31:03Z</time>
      </trkpt>
      <trkpt lat="45.9453054" lon="7.6479419">
        <ele>2289.4</ele>
        <time>2014-01-30T10:31:04Z</time>
      </trkpt>
      <trkpt lat="45.9453316" lon="7.6479947">
        <ele>2290.4</ele>
        <time>2014-01-30T10:31:05Z</time>
      </trkpt>
      <trkpt lat="45.9453457" lon="7.648023">
        <ele>2291.6</ele>
        <time>2014-01-30T10:31:06Z</time>
      </trkpt>
      <trkpt lat="45.9453901" lon="7.6481124">
        <ele>2292.8</ele>
        <time>2014-01-30T10:31:08Z</time>
      </trkpt>
      <trkpt lat="45.9454171" lon="7.6481658">
        <ele>2294</ele>
        <time>2014-01-30T10:31:09Z</time>
      </trkpt>
      <trkpt lat="45.9454576" lon="7.6482416">
        <ele>2295.2</ele>
        <time>2014-01-30T10:31:11Z</time>
      </trkpt>
      <trkpt lat="45.9455005" lon="7.6483281">
        <ele>2296.8</ele>
        <time>2014-01-30T10:31:13Z</time>
      </trkpt>
      <trkpt lat="45.9455196" lon="7.648367">
        <ele>2298.2</ele>
        <time>2014-01-30T10:31:14Z</time>
      </trkpt>
      <trkpt lat="45.9455857" lon="7.6485022">
        <ele>2298.2</ele>
        <time>2014-01-30T10:31:17Z</time>
      </trkpt>
      <trkpt lat="45.9456752" lon="7.6486886">
        <ele>2299.2</ele>
        <time>2014-01-30T10:31:23Z</time>
      </trkpt>
      <trkpt lat="45.9456813" lon="7.648741">
        <ele>2299.2</ele>
        <time>2014-01-30T10:31:28Z</time>
      </trkpt>
      <trkpt lat="45.9457273" lon="7.6488877">
        <ele>2299.2</ele>
        <time>2014-01-30T10:31:32Z</time>
      </trkpt>
      <trkpt lat="45.945772" lon="7.6490043">
        <ele>2296.2</ele>
        <time>2014-01-30T10:31:34Z</time>
      </trkpt>
      <trkpt lat="45.94586" lon="7.6492214">
        <ele>2295</ele>
        <time>2014-01-30T10:31:37Z</time>
      </trkpt>
      <trkpt lat="45.9458866" lon="7.6492853">
        <ele>2294</ele>
        <time>2014-01-30T10:31:38Z</time>
      </trkpt>
      <trkpt lat="45.9459476" lon="7.6493955">
        <ele>2292.8</ele>
        <time>2014-01-30T10:31:40Z</time>
      </trkpt>
      <trkpt lat="45.9460576" lon="7.6494354">
        <ele>2291.8</ele>
        <time>2014-01-30T10:31:42Z</time>
      </trkpt>
      <trkpt lat="45.9461656" lon="7.6494781">
        <ele>2290.6</ele>
        <time>2014-01-30T10:31:44Z</time>
      </trkpt>
      <trkpt lat="45.946233" lon="7.6495133">
        <ele>2290.6</ele>
        <time>2014-01-30T10:31:45Z</time>
      </trkpt>
      <trkpt lat="45.9462709" lon="7.6495143">
        <ele>2289.4</ele>
        <time>2014-01-30T10:31:46Z</time>
      </trkpt>
      <trkpt lat="45.9463495" lon="7.6495222">
        <ele>2288.4</ele>
        <time>2014-01-30T10:31:47Z</time>
      </trkpt>
      <trkpt lat="45.9463932" lon="7.6495498">
        <ele>2287.2</ele>
        <time>2014-01-30T10:31:48Z</time>
      </trkpt>
      <trkpt lat="45.9464628" lon="7.6496015">
        <ele>2286</ele>
        <time>2014-01-30T10:31:49Z</time>
      </trkpt>
      <trkpt lat="45.9465043" lon="7.6495944">
        <ele>2284.8</ele>
        <time>2014-01-30T10:31:50Z</time>
      </trkpt>
      <trkpt lat="45.9465839" lon="7.6496196">
        <ele>2283.6</ele>
        <time>2014-01-30T10:31:51Z</time>
      </trkpt>
      <trkpt lat="45.9466345" lon="7.6496368">
        <ele>2283.6</ele>
        <time>2014-01-30T10:31:52Z</time>
      </trkpt>
      <trkpt lat="45.946736" lon="7.6496248">
        <ele>2279.8</ele>
        <time>2014-01-30T10:31:53Z</time>
      </trkpt>
      <trkpt lat="45.9468088" lon="7.6496463">
        <ele>2278.4</ele>
        <time>2014-01-30T10:31:54Z</time>
      </trkpt>
      <trkpt lat="45.9469034" lon="7.6496457">
        <ele>2275</ele>
        <time>2014-01-30T10:31:55Z</time>
      </trkpt>
      <trkpt lat="45.947037" lon="7.6495755">
        <ele>2273.4</ele>
        <time>2014-01-30T10:31:57Z</time>
      </trkpt>
      <trkpt lat="45.9470948" lon="7.6495517">
        <ele>2271.4</ele>
        <time>2014-01-30T10:31:58Z</time>
      </trkpt>
      <trkpt lat="45.9471694" lon="7.649489">
        <ele>2268.8</ele>
        <time>2014-01-30T10:31:59Z</time>
      </trkpt>
      <trkpt lat="45.9472243" lon="7.6494683">
        <ele>2267.2</ele>
        <time>2014-01-30T10:32:00Z</time>
      </trkpt>
      <trkpt lat="45.9473178" lon="7.6494511">
        <ele>2266.2</ele>
        <time>2014-01-30T10:32:01Z</time>
      </trkpt>
      <trkpt lat="45.9474704" lon="7.6493962">
        <ele>2264.6</ele>
        <time>2014-01-30T10:32:03Z</time>
      </trkpt>
      <trkpt lat="45.9475103" lon="7.6493398">
        <ele>2263.4</ele>
        <time>2014-01-30T10:32:04Z</time>
      </trkpt>
      <trkpt lat="45.9476198" lon="7.6492918">
        <ele>2263.4</ele>
        <time>2014-01-30T10:32:06Z</time>
      </trkpt>
      <trkpt lat="45.9476752" lon="7.6492667">
        <ele>2262.2</ele>
        <time>2014-01-30T10:32:07Z</time>
      </trkpt>
      <trkpt lat="45.9477198" lon="7.6492458">
        <ele>2262.2</ele>
        <time>2014-01-30T10:32:09Z</time>
      </trkpt>
      <trkpt lat="45.9477447" lon="7.6492709">
        <ele>2262.2</ele>
        <time>2014-01-30T10:32:14Z</time>
      </trkpt>
      <trkpt lat="45.9477522" lon="7.6492843">
        <ele>2262.2</ele>
        <time>2014-01-30T10:32:15Z</time>
      </trkpt>
      <trkpt lat="45.9477611" lon="7.6493043">
        <ele>2262.2</ele>
        <time>2014-01-30T10:32:19Z</time>
      </trkpt>
      <trkpt lat="45.9477852" lon="7.6493445">
        <ele>2262.2</ele>
        <time>2014-01-30T10:32:26Z</time>
      </trkpt>
      <trkpt lat="45.9478176" lon="7.6493983">
        <ele>2262.2</ele>
        <time>2014-01-30T10:32:33Z</time>
      </trkpt>
      <trkpt lat="45.9478393" lon="7.6494263">
        <ele>2262.2</ele>
        <time>2014-01-30T10:32:41Z</time>
      </trkpt>
      <trkpt lat="45.9478586" lon="7.6494637">
        <ele>2262.2</ele>
        <time>2014-01-30T10:32:48Z</time>
      </trkpt>
      <trkpt lat="45.9478766" lon="7.6494874">
        <ele>2262.2</ele>
        <time>2014-01-30T10:32:54Z</time>
      </trkpt>
      <trkpt lat="45.9479321" lon="7.6496002">
        <ele>2262.2</ele>
        <time>2014-01-30T10:33:00Z</time>
      </trkpt>
      <trkpt lat="45.9480477" lon="7.6498309">
        <ele>2264.6</ele>
        <time>2014-01-30T10:33:05Z</time>
      </trkpt>
      <trkpt lat="45.9480616" lon="7.6498613">
        <ele>2265.6</ele>
        <time>2014-01-30T10:33:06Z</time>
      </trkpt>
      <trkpt lat="45.948086" lon="7.6499148">
        <ele>2268.2</ele>
        <time>2014-01-30T10:33:07Z</time>
      </trkpt>
      <trkpt lat="45.9481049" lon="7.6499552">
        <ele>2269.4</ele>
        <time>2014-01-30T10:33:08Z</time>
      </trkpt>
      <trkpt lat="45.9481259" lon="7.6500022">
        <ele>2270.8</ele>
        <time>2014-01-30T10:33:09Z</time>
      </trkpt>
      <trkpt lat="45.9481371" lon="7.6500285">
        <ele>2272</ele>
        <time>2014-01-30T10:33:10Z</time>
      </trkpt>
      <trkpt lat="45.948162" lon="7.6500837">
        <ele>2274.6</ele>
        <time>2014-01-30T10:33:11Z</time>
      </trkpt>
      <trkpt lat="45.9481767" lon="7.6501169">
        <ele>2276</ele>
        <time>2014-01-30T10:33:12Z</time>
      </trkpt>
      <trkpt lat="45.9482381" lon="7.6502568">
        <ele>2278.2</ele>
        <time>2014-01-30T10:33:15Z</time>
      </trkpt>
      <trkpt lat="45.9482525" lon="7.6502882">
        <ele>2278.2</ele>
        <time>2014-01-30T10:33:16Z</time>
      </trkpt>
      <trkpt lat="45.9482793" lon="7.6503484">
        <ele>2279.8</ele>
        <time>2014-01-30T10:33:17Z</time>
      </trkpt>
      <trkpt lat="45.9483218" lon="7.6504423">
        <ele>2281</ele>
        <time>2014-01-30T10:33:19Z</time>
      </trkpt>
      <trkpt lat="45.9483595" lon="7.6505262">
        <ele>2282.6</ele>
        <time>2014-01-30T10:33:21Z</time>
      </trkpt>
      <trkpt lat="45.9483732" lon="7.6505576">
        <ele>2282.6</ele>
        <time>2014-01-30T10:33:22Z</time>
      </trkpt>
      <trkpt lat="45.9484016" lon="7.6506193">
        <ele>2284.2</ele>
        <time>2014-01-30T10:33:23Z</time>
      </trkpt>
      <trkpt lat="45.9484185" lon="7.6506567">
        <ele>2285.4</ele>
        <time>2014-01-30T10:33:24Z</time>
      </trkpt>
      <trkpt lat="45.9484547" lon="7.6507387">
        <ele>2287</ele>
        <time>2014-01-30T10:33:26Z</time>
      </trkpt>
      <trkpt lat="45.9484814" lon="7.6507977">
        <ele>2288.2</ele>
        <time>2014-01-30T10:33:27Z</time>
      </trkpt>
      <trkpt lat="45.9485169" lon="7.6508761">
        <ele>2289.8</ele>
        <time>2014-01-30T10:33:29Z</time>
      </trkpt>
      <trkpt lat="45.9485356" lon="7.6509184">
        <ele>2290.8</ele>
        <time>2014-01-30T10:33:30Z</time>
      </trkpt>
      <trkpt lat="45.9485604" lon="7.6509731">
        <ele>2291.8</ele>
        <time>2014-01-30T10:33:31Z</time>
      </trkpt>
      <trkpt lat="45.948576" lon="7.651007">
        <ele>2293</ele>
        <time>2014-01-30T10:33:32Z</time>
      </trkpt>
      <trkpt lat="45.9486017" lon="7.6510635">
        <ele>2294.2</ele>
        <time>2014-01-30T10:33:33Z</time>
      </trkpt>
      <trkpt lat="45.9486162" lon="7.6510952">
        <ele>2295.4</ele>
        <time>2014-01-30T10:33:34Z</time>
      </trkpt>
      <trkpt lat="45.9486398" lon="7.6511506">
        <ele>2296.4</ele>
        <time>2014-01-30T10:33:35Z</time>
      </trkpt>
      <trkpt lat="45.9486809" lon="7.6512409">
        <ele>2297.6</ele>
        <time>2014-01-30T10:33:37Z</time>
      </trkpt>
      <trkpt lat="45.9487237" lon="7.6513362">
        <ele>2298.6</ele>
        <time>2014-01-30T10:33:39Z</time>
      </trkpt>
      <trkpt lat="45.9487622" lon="7.6514187">
        <ele>2300</ele>
        <time>2014-01-30T10:33:41Z</time>
      </trkpt>
      <trkpt lat="45.9488041" lon="7.6515101">
        <ele>2301.6</ele>
        <time>2014-01-30T10:33:43Z</time>
      </trkpt>
      <trkpt lat="45.9488454" lon="7.6516003">
        <ele>2303</ele>
        <time>2014-01-30T10:33:45Z</time>
      </trkpt>
      <trkpt lat="45.948858" lon="7.6516292">
        <ele>2304</ele>
        <time>2014-01-30T10:33:46Z</time>
      </trkpt>
      <trkpt lat="45.9488862" lon="7.6516905">
        <ele>2305.4</ele>
        <time>2014-01-30T10:33:47Z</time>
      </trkpt>
      <trkpt lat="45.9489292" lon="7.651777">
        <ele>2306.6</ele>
        <time>2014-01-30T10:33:49Z</time>
      </trkpt>
      <trkpt lat="45.9489821" lon="7.6518921">
        <ele>2306.6</ele>
        <time>2014-01-30T10:33:52Z</time>
      </trkpt>
      <trkpt lat="45.9490104" lon="7.6519548">
        <ele>2307.8</ele>
        <time>2014-01-30T10:33:53Z</time>
      </trkpt>
      <trkpt lat="45.9491316" lon="7.6522187">
        <ele>2308.8</ele>
        <time>2014-01-30T10:33:59Z</time>
      </trkpt>
      <trkpt lat="45.9491923" lon="7.6523512">
        <ele>2308.8</ele>
        <time>2014-01-30T10:34:02Z</time>
      </trkpt>
      <trkpt lat="45.9492196" lon="7.6524081">
        <ele>2309.8</ele>
        <time>2014-01-30T10:34:03Z</time>
      </trkpt>
      <trkpt lat="45.9493458" lon="7.6526784">
        <ele>2312</ele>
        <time>2014-01-30T10:34:09Z</time>
      </trkpt>
      <trkpt lat="45.9493851" lon="7.6527623">
        <ele>2313.2</ele>
        <time>2014-01-30T10:34:11Z</time>
      </trkpt>
      <trkpt lat="45.9494287" lon="7.6528524">
        <ele>2314.4</ele>
        <time>2014-01-30T10:34:13Z</time>
      </trkpt>
      <trkpt lat="45.9494429" lon="7.6528852">
        <ele>2315.6</ele>
        <time>2014-01-30T10:34:14Z</time>
      </trkpt>
      <trkpt lat="45.9494701" lon="7.6529394">
        <ele>2315.6</ele>
        <time>2014-01-30T10:34:15Z</time>
      </trkpt>
      <trkpt lat="45.9494828" lon="7.6529672">
        <ele>2316.8</ele>
        <time>2014-01-30T10:34:16Z</time>
      </trkpt>
      <trkpt lat="45.9495118" lon="7.6530264">
        <ele>2318.2</ele>
        <time>2014-01-30T10:34:17Z</time>
      </trkpt>
      <trkpt lat="45.9495523" lon="7.6531183">
        <ele>2319.2</ele>
        <time>2014-01-30T10:34:19Z</time>
      </trkpt>
      <trkpt lat="45.949565" lon="7.6531471">
        <ele>2320.6</ele>
        <time>2014-01-30T10:34:20Z</time>
      </trkpt>
      <trkpt lat="45.9495913" lon="7.6532023">
        <ele>2321.6</ele>
        <time>2014-01-30T10:34:21Z</time>
      </trkpt>
      <trkpt lat="45.9496317" lon="7.6532936">
        <ele>2322.8</ele>
        <time>2014-01-30T10:34:23Z</time>
      </trkpt>
      <trkpt lat="45.9496861" lon="7.6534133">
        <ele>2322.8</ele>
        <time>2014-01-30T10:34:26Z</time>
      </trkpt>
      <trkpt lat="45.9497127" lon="7.653473">
        <ele>2325.4</ele>
        <time>2014-01-30T10:34:27Z</time>
      </trkpt>
      <trkpt lat="45.9497545" lon="7.6535641">
        <ele>2326.6</ele>
        <time>2014-01-30T10:34:29Z</time>
      </trkpt>
      <trkpt lat="45.949793" lon="7.6536522">
        <ele>2327.6</ele>
        <time>2014-01-30T10:34:31Z</time>
      </trkpt>
      <trkpt lat="45.9498092" lon="7.6536873">
        <ele>2329</ele>
        <time>2014-01-30T10:34:32Z</time>
      </trkpt>
      <trkpt lat="45.9498354" lon="7.6537439">
        <ele>2330.2</ele>
        <time>2014-01-30T10:34:33Z</time>
      </trkpt>
      <trkpt lat="45.9498757" lon="7.6538346">
        <ele>2331.4</ele>
        <time>2014-01-30T10:34:35Z</time>
      </trkpt>
      <trkpt lat="45.9499155" lon="7.6539211">
        <ele>2333</ele>
        <time>2014-01-30T10:34:37Z</time>
      </trkpt>
      <trkpt lat="45.9499333" lon="7.6539581">
        <ele>2334</ele>
        <time>2014-01-30T10:34:38Z</time>
      </trkpt>
      <trkpt lat="45.9499585" lon="7.6540151">
        <ele>2335.2</ele>
        <time>2014-01-30T10:34:39Z</time>
      </trkpt>
      <trkpt lat="45.9499969" lon="7.6540986">
        <ele>2336.8</ele>
        <time>2014-01-30T10:34:41Z</time>
      </trkpt>
      <trkpt lat="45.9500127" lon="7.6541328">
        <ele>2337.8</ele>
        <time>2014-01-30T10:34:42Z</time>
      </trkpt>
      <trkpt lat="45.9500389" lon="7.6541897">
        <ele>2339</ele>
        <time>2014-01-30T10:34:43Z</time>
      </trkpt>
      <trkpt lat="45.9500792" lon="7.6542776">
        <ele>2340.8</ele>
        <time>2014-01-30T10:34:45Z</time>
      </trkpt>
      <trkpt lat="45.9500923" lon="7.6543077">
        <ele>2341.8</ele>
        <time>2014-01-30T10:34:46Z</time>
      </trkpt>
      <trkpt lat="45.9501191" lon="7.6543671">
        <ele>2342.8</ele>
        <time>2014-01-30T10:34:47Z</time>
      </trkpt>
      <trkpt lat="45.9501355" lon="7.6544059">
        <ele>2344.2</ele>
        <time>2014-01-30T10:34:48Z</time>
      </trkpt>
      <trkpt lat="45.9501588" lon="7.6544546">
        <ele>2345.2</ele>
        <time>2014-01-30T10:34:49Z</time>
      </trkpt>
      <trkpt lat="45.9501727" lon="7.6544832">
        <ele>2346.4</ele>
        <time>2014-01-30T10:34:50Z</time>
      </trkpt>
      <trkpt lat="45.9501977" lon="7.6545341">
        <ele>2347.4</ele>
        <time>2014-01-30T10:34:51Z</time>
      </trkpt>
      <trkpt lat="45.9502403" lon="7.654628">
        <ele>2349.6</ele>
        <time>2014-01-30T10:34:53Z</time>
      </trkpt>
      <trkpt lat="45.9502798" lon="7.6547184">
        <ele>2351</ele>
        <time>2014-01-30T10:34:55Z</time>
      </trkpt>
      <trkpt lat="45.9503227" lon="7.6548065">
        <ele>2352.6</ele>
        <time>2014-01-30T10:34:57Z</time>
      </trkpt>
      <trkpt lat="45.950336" lon="7.6548346">
        <ele>2352.6</ele>
        <time>2014-01-30T10:34:58Z</time>
      </trkpt>
      <trkpt lat="45.9503652" lon="7.6548955">
        <ele>2354</ele>
        <time>2014-01-30T10:34:59Z</time>
      </trkpt>
      <trkpt lat="45.9504036" lon="7.6549768">
        <ele>2355.8</ele>
        <time>2014-01-30T10:35:01Z</time>
      </trkpt>
      <trkpt lat="45.9504192" lon="7.6550119">
        <ele>2357</ele>
        <time>2014-01-30T10:35:02Z</time>
      </trkpt>
      <trkpt lat="45.9504454" lon="7.6550669">
        <ele>2358.2</ele>
        <time>2014-01-30T10:35:03Z</time>
      </trkpt>
      <trkpt lat="45.95046" lon="7.6550996">
        <ele>2359.4</ele>
        <time>2014-01-30T10:35:04Z</time>
      </trkpt>
      <trkpt lat="45.9504863" lon="7.6551516">
        <ele>2361</ele>
        <time>2014-01-30T10:35:05Z</time>
      </trkpt>
      <trkpt lat="45.9504985" lon="7.6551789">
        <ele>2362.6</ele>
        <time>2014-01-30T10:35:06Z</time>
      </trkpt>
      <trkpt lat="45.9505241" lon="7.6552328">
        <ele>2363.8</ele>
        <time>2014-01-30T10:35:07Z</time>
      </trkpt>
      <trkpt lat="45.9505419" lon="7.6552724">
        <ele>2364.8</ele>
        <time>2014-01-30T10:35:08Z</time>
      </trkpt>
      <trkpt lat="45.9505675" lon="7.6553291">
        <ele>2364.8</ele>
        <time>2014-01-30T10:35:09Z</time>
      </trkpt>
      <trkpt lat="45.9505792" lon="7.6553557">
        <ele>2366.2</ele>
        <time>2014-01-30T10:35:10Z</time>
      </trkpt>
      <trkpt lat="45.9506053" lon="7.6554129">
        <ele>2367.2</ele>
        <time>2014-01-30T10:35:11Z</time>
      </trkpt>
      <trkpt lat="45.9506496" lon="7.6555091">
        <ele>2368.6</ele>
        <time>2014-01-30T10:35:13Z</time>
      </trkpt>
      <trkpt lat="45.9507328" lon="7.65569">
        <ele>2371</ele>
        <time>2014-01-30T10:35:17Z</time>
      </trkpt>
      <trkpt lat="45.9507511" lon="7.6557306">
        <ele>2372</ele>
        <time>2014-01-30T10:35:18Z</time>
      </trkpt>
      <trkpt lat="45.9507753" lon="7.6557816">
        <ele>2373.2</ele>
        <time>2014-01-30T10:35:19Z</time>
      </trkpt>
      <trkpt lat="45.9508145" lon="7.6558667">
        <ele>2374.4</ele>
        <time>2014-01-30T10:35:21Z</time>
      </trkpt>
      <trkpt lat="45.9508287" lon="7.6558975">
        <ele>2375.4</ele>
        <time>2014-01-30T10:35:22Z</time>
      </trkpt>
      <trkpt lat="45.9508578" lon="7.6559587">
        <ele>2376.6</ele>
        <time>2014-01-30T10:35:23Z</time>
      </trkpt>
      <trkpt lat="45.9508747" lon="7.655996">
        <ele>2377.8</ele>
        <time>2014-01-30T10:35:24Z</time>
      </trkpt>
      <trkpt lat="45.9508988" lon="7.6560479">
        <ele>2379.2</ele>
        <time>2014-01-30T10:35:25Z</time>
      </trkpt>
      <trkpt lat="45.9509392" lon="7.6561358">
        <ele>2380.4</ele>
        <time>2014-01-30T10:35:27Z</time>
      </trkpt>
      <trkpt lat="45.9509547" lon="7.6561718">
        <ele>2381.8</ele>
        <time>2014-01-30T10:35:28Z</time>
      </trkpt>
      <trkpt lat="45.9509801" lon="7.6562262">
        <ele>2382.8</ele>
        <time>2014-01-30T10:35:29Z</time>
      </trkpt>
      <trkpt lat="45.950993" lon="7.6562568">
        <ele>2384.2</ele>
        <time>2014-01-30T10:35:30Z</time>
      </trkpt>
      <trkpt lat="45.9510186" lon="7.6563105">
        <ele>2385.6</ele>
        <time>2014-01-30T10:35:31Z</time>
      </trkpt>
      <trkpt lat="45.9510738" lon="7.6564346">
        <ele>2388.2</ele>
        <time>2014-01-30T10:35:34Z</time>
      </trkpt>
      <trkpt lat="45.9510992" lon="7.6564886">
        <ele>2389.6</ele>
        <time>2014-01-30T10:35:35Z</time>
      </trkpt>
      <trkpt lat="45.9511117" lon="7.6565168">
        <ele>2390.6</ele>
        <time>2014-01-30T10:35:36Z</time>
      </trkpt>
      <trkpt lat="45.9511368" lon="7.6565728">
        <ele>2392</ele>
        <time>2014-01-30T10:35:37Z</time>
      </trkpt>
      <trkpt lat="45.9511799" lon="7.6566677">
        <ele>2393</ele>
        <time>2014-01-30T10:35:39Z</time>
      </trkpt>
      <trkpt lat="45.9511914" lon="7.656694">
        <ele>2393</ele>
        <time>2014-01-30T10:35:40Z</time>
      </trkpt>
      <trkpt lat="45.9512191" lon="7.6567551">
        <ele>2394.2</ele>
        <time>2014-01-30T10:35:41Z</time>
      </trkpt>
      <trkpt lat="45.9512606" lon="7.6568442">
        <ele>2395.6</ele>
        <time>2014-01-30T10:35:43Z</time>
      </trkpt>
      <trkpt lat="45.9513012" lon="7.6569312">
        <ele>2397.2</ele>
        <time>2014-01-30T10:35:45Z</time>
      </trkpt>
      <trkpt lat="45.9513414" lon="7.6570202">
        <ele>2398.6</ele>
        <time>2014-01-30T10:35:47Z</time>
      </trkpt>
      <trkpt lat="45.9513838" lon="7.6571088">
        <ele>2400</ele>
        <time>2014-01-30T10:35:49Z</time>
      </trkpt>
      <trkpt lat="45.9514217" lon="7.6571896">
        <ele>2401.4</ele>
        <time>2014-01-30T10:35:51Z</time>
      </trkpt>
      <trkpt lat="45.9514625" lon="7.657276">
        <ele>2403</ele>
        <time>2014-01-30T10:35:53Z</time>
      </trkpt>
      <trkpt lat="45.9515011" lon="7.6573635">
        <ele>2405.2</ele>
        <time>2014-01-30T10:35:55Z</time>
      </trkpt>
      <trkpt lat="45.9515392" lon="7.6574484">
        <ele>2407.2</ele>
        <time>2014-01-30T10:35:57Z</time>
      </trkpt>
      <trkpt lat="45.951553" lon="7.6574809">
        <ele>2408.4</ele>
        <time>2014-01-30T10:35:58Z</time>
      </trkpt>
      <trkpt lat="45.9515729" lon="7.6575266">
        <ele>2409.6</ele>
        <time>2014-01-30T10:35:59Z</time>
      </trkpt>
      <trkpt lat="45.9515866" lon="7.6575616">
        <ele>2411.2</ele>
        <time>2014-01-30T10:36:00Z</time>
      </trkpt>
      <trkpt lat="45.9516095" lon="7.657612">
        <ele>2412.4</ele>
        <time>2014-01-30T10:36:01Z</time>
      </trkpt>
      <trkpt lat="45.9516212" lon="7.6576403">
        <ele>2413.8</ele>
        <time>2014-01-30T10:36:02Z</time>
      </trkpt>
      <trkpt lat="45.9516464" lon="7.6576994">
        <ele>2414.8</ele>
        <time>2014-01-30T10:36:03Z</time>
      </trkpt>
      <trkpt lat="45.9516872" lon="7.6577956">
        <ele>2416.4</ele>
        <time>2014-01-30T10:36:05Z</time>
      </trkpt>
      <trkpt lat="45.9517263" lon="7.6578851">
        <ele>2418</ele>
        <time>2014-01-30T10:36:07Z</time>
      </trkpt>
      <trkpt lat="45.9517648" lon="7.6579716">
        <ele>2419.6</ele>
        <time>2014-01-30T10:36:09Z</time>
      </trkpt>
      <trkpt lat="45.951804" lon="7.6580606">
        <ele>2420.6</ele>
        <time>2014-01-30T10:36:11Z</time>
      </trkpt>
      <trkpt lat="45.9518184" lon="7.6580963">
        <ele>2422</ele>
        <time>2014-01-30T10:36:12Z</time>
      </trkpt>
      <trkpt lat="45.9518592" lon="7.6581841">
        <ele>2423.4</ele>
        <time>2014-01-30T10:36:14Z</time>
      </trkpt>
      <trkpt lat="45.9519" lon="7.6582703">
        <ele>2425</ele>
        <time>2014-01-30T10:36:16Z</time>
      </trkpt>
      <trkpt lat="45.9519432" lon="7.6583646">
        <ele>2426.4</ele>
        <time>2014-01-30T10:36:18Z</time>
      </trkpt>
      <trkpt lat="45.9519679" lon="7.6584182">
        <ele>2427.6</ele>
        <time>2014-01-30T10:36:19Z</time>
      </trkpt>
      <trkpt lat="45.9520046" lon="7.658498">
        <ele>2429</ele>
        <time>2014-01-30T10:36:21Z</time>
      </trkpt>
      <trkpt lat="45.9520212" lon="7.6585344">
        <ele>2429</ele>
        <time>2014-01-30T10:36:22Z</time>
      </trkpt>
      <trkpt lat="45.952047" lon="7.6585932">
        <ele>2430.8</ele>
        <time>2014-01-30T10:36:23Z</time>
      </trkpt>
      <trkpt lat="45.9520629" lon="7.6586286">
        <ele>2432</ele>
        <time>2014-01-30T10:36:24Z</time>
      </trkpt>
      <trkpt lat="45.952086" lon="7.6586806">
        <ele>2433.2</ele>
        <time>2014-01-30T10:36:25Z</time>
      </trkpt>
      <trkpt lat="45.9521212" lon="7.6587584">
        <ele>2434.4</ele>
        <time>2014-01-30T10:36:27Z</time>
      </trkpt>
      <trkpt lat="45.9521404" lon="7.6588038">
        <ele>2436.2</ele>
        <time>2014-01-30T10:36:28Z</time>
      </trkpt>
      <trkpt lat="45.9521658" lon="7.658857">
        <ele>2437.4</ele>
        <time>2014-01-30T10:36:29Z</time>
      </trkpt>
      <trkpt lat="45.9522036" lon="7.6589366">
        <ele>2439.2</ele>
        <time>2014-01-30T10:36:31Z</time>
      </trkpt>
      <trkpt lat="45.9522184" lon="7.6589709">
        <ele>2440.4</ele>
        <time>2014-01-30T10:36:32Z</time>
      </trkpt>
      <trkpt lat="45.9522427" lon="7.6590224">
        <ele>2441.6</ele>
        <time>2014-01-30T10:36:33Z</time>
      </trkpt>
      <trkpt lat="45.9522597" lon="7.6590622">
        <ele>2443</ele>
        <time>2014-01-30T10:36:34Z</time>
      </trkpt>
      <trkpt lat="45.9522834" lon="7.6591125">
        <ele>2444.2</ele>
        <time>2014-01-30T10:36:35Z</time>
      </trkpt>
      <trkpt lat="45.9523244" lon="7.6592043">
        <ele>2445.4</ele>
        <time>2014-01-30T10:36:37Z</time>
      </trkpt>
      <trkpt lat="45.9523428" lon="7.6592468">
        <ele>2446.4</ele>
        <time>2014-01-30T10:36:38Z</time>
      </trkpt>
      <trkpt lat="45.9524047" lon="7.6593811">
        <ele>2447.4</ele>
        <time>2014-01-30T10:36:41Z</time>
      </trkpt>
      <trkpt lat="45.9524207" lon="7.6594177">
        <ele>2447.4</ele>
        <time>2014-01-30T10:36:42Z</time>
      </trkpt>
      <trkpt lat="45.9524461" lon="7.6594741">
        <ele>2448.4</ele>
        <time>2014-01-30T10:36:43Z</time>
      </trkpt>
      <trkpt lat="45.9525018" lon="7.6595987">
        <ele>2450</ele>
        <time>2014-01-30T10:36:46Z</time>
      </trkpt>
      <trkpt lat="45.952544" lon="7.6596939">
        <ele>2451</ele>
        <time>2014-01-30T10:36:48Z</time>
      </trkpt>
      <trkpt lat="45.9525828" lon="7.6597818">
        <ele>2452.2</ele>
        <time>2014-01-30T10:36:50Z</time>
      </trkpt>
      <trkpt lat="45.952622" lon="7.6598702">
        <ele>2453.6</ele>
        <time>2014-01-30T10:36:52Z</time>
      </trkpt>
      <trkpt lat="45.9526647" lon="7.6599634">
        <ele>2454.8</ele>
        <time>2014-01-30T10:36:54Z</time>
      </trkpt>
      <trkpt lat="45.9526889" lon="7.6600142">
        <ele>2454.8</ele>
        <time>2014-01-30T10:36:55Z</time>
      </trkpt>
      <trkpt lat="45.952746" lon="7.6601413">
        <ele>2457</ele>
        <time>2014-01-30T10:36:58Z</time>
      </trkpt>
      <trkpt lat="45.9527655" lon="7.6601823">
        <ele>2458.2</ele>
        <time>2014-01-30T10:36:59Z</time>
      </trkpt>
      <trkpt lat="45.9527855" lon="7.6602263">
        <ele>2459.6</ele>
        <time>2014-01-30T10:37:00Z</time>
      </trkpt>
      <trkpt lat="45.9528102" lon="7.66028">
        <ele>2460.6</ele>
        <time>2014-01-30T10:37:01Z</time>
      </trkpt>
      <trkpt lat="45.9528505" lon="7.6603708">
        <ele>2461.8</ele>
        <time>2014-01-30T10:37:03Z</time>
      </trkpt>
      <trkpt lat="45.9529265" lon="7.6605534">
        <ele>2461.8</ele>
        <time>2014-01-30T10:37:07Z</time>
      </trkpt>
      <trkpt lat="45.9529799" lon="7.6606744">
        <ele>2458.6</ele>
        <time>2014-01-30T10:37:10Z</time>
      </trkpt>
      <trkpt lat="45.9530663" lon="7.6608686">
        <ele>2457.6</ele>
        <time>2014-01-30T10:37:14Z</time>
      </trkpt>
      <trkpt lat="45.9531489" lon="7.6610514">
        <ele>2456.6</ele>
        <time>2014-01-30T10:37:18Z</time>
      </trkpt>
      <trkpt lat="45.9531734" lon="7.6611056">
        <ele>2456.6</ele>
        <time>2014-01-30T10:37:19Z</time>
      </trkpt>
      <trkpt lat="45.9533897" lon="7.6615543">
        <ele>2459.8</ele>
        <time>2014-01-30T10:37:29Z</time>
      </trkpt>
      <trkpt lat="45.9534049" lon="7.6615857">
        <ele>2461</ele>
        <time>2014-01-30T10:37:30Z</time>
      </trkpt>
      <trkpt lat="45.9534476" lon="7.6616777">
        <ele>2462.4</ele>
        <time>2014-01-30T10:37:32Z</time>
      </trkpt>
      <trkpt lat="45.9534748" lon="7.6617311">
        <ele>2463.6</ele>
        <time>2014-01-30T10:37:33Z</time>
      </trkpt>
      <trkpt lat="45.9534915" lon="7.66177">
        <ele>2465</ele>
        <time>2014-01-30T10:37:34Z</time>
      </trkpt>
      <trkpt lat="45.9535178" lon="7.6618223">
        <ele>2466</ele>
        <time>2014-01-30T10:37:35Z</time>
      </trkpt>
      <trkpt lat="45.9535594" lon="7.6619112">
        <ele>2467.4</ele>
        <time>2014-01-30T10:37:37Z</time>
      </trkpt>
      <trkpt lat="45.9535787" lon="7.6619534">
        <ele>2468.6</ele>
        <time>2014-01-30T10:37:38Z</time>
      </trkpt>
      <trkpt lat="45.9536042" lon="7.6620045">
        <ele>2470</ele>
        <time>2014-01-30T10:37:39Z</time>
      </trkpt>
      <trkpt lat="45.9536187" lon="7.6620361">
        <ele>2471.2</ele>
        <time>2014-01-30T10:37:40Z</time>
      </trkpt>
      <trkpt lat="45.9536443" lon="7.6620891">
        <ele>2472.4</ele>
        <time>2014-01-30T10:37:41Z</time>
      </trkpt>
      <trkpt lat="45.9536632" lon="7.6621269">
        <ele>2473.4</ele>
        <time>2014-01-30T10:37:42Z</time>
      </trkpt>
      <trkpt lat="45.9536894" lon="7.6621797">
        <ele>2474.6</ele>
        <time>2014-01-30T10:37:43Z</time>
      </trkpt>
      <trkpt lat="45.9537065" lon="7.6622192">
        <ele>2475.8</ele>
        <time>2014-01-30T10:37:44Z</time>
      </trkpt>
      <trkpt lat="45.9537317" lon="7.6622702">
        <ele>2477</ele>
        <time>2014-01-30T10:37:45Z</time>
      </trkpt>
      <trkpt lat="45.9537472" lon="7.6623043">
        <ele>2478.4</ele>
        <time>2014-01-30T10:37:46Z</time>
      </trkpt>
      <trkpt lat="45.9537743" lon="7.6623584">
        <ele>2479.8</ele>
        <time>2014-01-30T10:37:47Z</time>
      </trkpt>
      <trkpt lat="45.9537931" lon="7.6623967">
        <ele>2481.2</ele>
        <time>2014-01-30T10:37:48Z</time>
      </trkpt>
      <trkpt lat="45.9538183" lon="7.6624485">
        <ele>2482.4</ele>
        <time>2014-01-30T10:37:49Z</time>
      </trkpt>
      <trkpt lat="45.9538334" lon="7.6624781">
        <ele>2484</ele>
        <time>2014-01-30T10:37:50Z</time>
      </trkpt>
      <trkpt lat="45.9538589" lon="7.6625265">
        <ele>2486.2</ele>
        <time>2014-01-30T10:37:51Z</time>
      </trkpt>
      <trkpt lat="45.9539024" lon="7.662619">
        <ele>2488.8</ele>
        <time>2014-01-30T10:37:53Z</time>
      </trkpt>
      <trkpt lat="45.9539203" lon="7.662657">
        <ele>2490.2</ele>
        <time>2014-01-30T10:37:54Z</time>
      </trkpt>
      <trkpt lat="45.9539433" lon="7.6627089">
        <ele>2491.4</ele>
        <time>2014-01-30T10:37:55Z</time>
      </trkpt>
      <trkpt lat="45.953956" lon="7.6627396">
        <ele>2492.6</ele>
        <time>2014-01-30T10:37:56Z</time>
      </trkpt>
      <trkpt lat="45.9539841" lon="7.662796">
        <ele>2495</ele>
        <time>2014-01-30T10:37:57Z</time>
      </trkpt>
      <trkpt lat="45.9540012" lon="7.6628303">
        <ele>2496.4</ele>
        <time>2014-01-30T10:37:58Z</time>
      </trkpt>
      <trkpt lat="45.954028" lon="7.6628828">
        <ele>2497.6</ele>
        <time>2014-01-30T10:37:59Z</time>
      </trkpt>
      <trkpt lat="45.9540412" lon="7.6629116">
        <ele>2498.8</ele>
        <time>2014-01-30T10:38:00Z</time>
      </trkpt>
      <trkpt lat="45.9540669" lon="7.6629634">
        <ele>2500.2</ele>
        <time>2014-01-30T10:38:01Z</time>
      </trkpt>
      <trkpt lat="45.9540829" lon="7.6630005">
        <ele>2503</ele>
        <time>2014-01-30T10:38:02Z</time>
      </trkpt>
      <trkpt lat="45.9541092" lon="7.6630514">
        <ele>2504.2</ele>
        <time>2014-01-30T10:38:03Z</time>
      </trkpt>
      <trkpt lat="45.9541241" lon="7.663085">
        <ele>2505.4</ele>
        <time>2014-01-30T10:38:04Z</time>
      </trkpt>
      <trkpt lat="45.9541497" lon="7.663138">
        <ele>2508.4</ele>
        <time>2014-01-30T10:38:05Z</time>
      </trkpt>
      <trkpt lat="45.9541648" lon="7.6631681">
        <ele>2509.6</ele>
        <time>2014-01-30T10:38:06Z</time>
      </trkpt>
      <trkpt lat="45.9541923" lon="7.6632219">
        <ele>2510.6</ele>
        <time>2014-01-30T10:38:07Z</time>
      </trkpt>
      <trkpt lat="45.9542109" lon="7.6632623">
        <ele>2511.8</ele>
        <time>2014-01-30T10:38:08Z</time>
      </trkpt>
      <trkpt lat="45.9542354" lon="7.6633123">
        <ele>2513.2</ele>
        <time>2014-01-30T10:38:09Z</time>
      </trkpt>
      <trkpt lat="45.9542483" lon="7.6633395">
        <ele>2514.6</ele>
        <time>2014-01-30T10:38:10Z</time>
      </trkpt>
      <trkpt lat="45.9542742" lon="7.6633925">
        <ele>2517.6</ele>
        <time>2014-01-30T10:38:11Z</time>
      </trkpt>
      <trkpt lat="45.9543105" lon="7.663468">
        <ele>2519.6</ele>
        <time>2014-01-30T10:38:13Z</time>
      </trkpt>
      <trkpt lat="45.9543335" lon="7.6635167">
        <ele>2521.6</ele>
        <time>2014-01-30T10:38:14Z</time>
      </trkpt>
      <trkpt lat="45.9543567" lon="7.6635631">
        <ele>2524</ele>
        <time>2014-01-30T10:38:15Z</time>
      </trkpt>
      <trkpt lat="45.9543698" lon="7.6635932">
        <ele>2525.2</ele>
        <time>2014-01-30T10:38:16Z</time>
      </trkpt>
      <trkpt lat="45.9543971" lon="7.6636473">
        <ele>2526.4</ele>
        <time>2014-01-30T10:38:17Z</time>
      </trkpt>
      <trkpt lat="45.9544135" lon="7.6636798">
        <ele>2527.8</ele>
        <time>2014-01-30T10:38:18Z</time>
      </trkpt>
      <trkpt lat="45.9544397" lon="7.6637311">
        <ele>2530.4</ele>
        <time>2014-01-30T10:38:19Z</time>
      </trkpt>
      <trkpt lat="45.9544526" lon="7.6637581">
        <ele>2531.8</ele>
        <time>2014-01-30T10:38:20Z</time>
      </trkpt>
      <trkpt lat="45.9544774" lon="7.6638091">
        <ele>2533.4</ele>
        <time>2014-01-30T10:38:21Z</time>
      </trkpt>
      <trkpt lat="45.9544905" lon="7.6638363">
        <ele>2535</ele>
        <time>2014-01-30T10:38:22Z</time>
      </trkpt>
      <trkpt lat="45.9545182" lon="7.6638916">
        <ele>2536.6</ele>
        <time>2014-01-30T10:38:23Z</time>
      </trkpt>
      <trkpt lat="45.9545337" lon="7.6639251">
        <ele>2538.6</ele>
        <time>2014-01-30T10:38:24Z</time>
      </trkpt>
      <trkpt lat="45.9545547" lon="7.6639718">
        <ele>2540.2</ele>
        <time>2014-01-30T10:38:25Z</time>
      </trkpt>
      <trkpt lat="45.9545667" lon="7.6639971">
        <ele>2541.4</ele>
        <time>2014-01-30T10:38:26Z</time>
      </trkpt>
      <trkpt lat="45.9545906" lon="7.6640526">
        <ele>2543.8</ele>
        <time>2014-01-30T10:38:27Z</time>
      </trkpt>
      <trkpt lat="45.9546056" lon="7.6640919">
        <ele>2544.8</ele>
        <time>2014-01-30T10:38:28Z</time>
      </trkpt>
      <trkpt lat="45.9546419" lon="7.6641782">
        <ele>2546</ele>
        <time>2014-01-30T10:38:30Z</time>
      </trkpt>
      <trkpt lat="45.9546826" lon="7.6642715">
        <ele>2546</ele>
        <time>2014-01-30T10:38:32Z</time>
      </trkpt>
      <trkpt lat="45.954706" lon="7.6643247">
        <ele>2547.2</ele>
        <time>2014-01-30T10:38:33Z</time>
      </trkpt>
      <trkpt lat="45.9547205" lon="7.6643589">
        <ele>2548.4</ele>
        <time>2014-01-30T10:38:34Z</time>
      </trkpt>
      <trkpt lat="45.9547576" lon="7.6644459">
        <ele>2549.6</ele>
        <time>2014-01-30T10:38:36Z</time>
      </trkpt>
      <trkpt lat="45.9547832" lon="7.6645029">
        <ele>2550.6</ele>
        <time>2014-01-30T10:38:37Z</time>
      </trkpt>
      <trkpt lat="45.9548253" lon="7.6645957">
        <ele>2551.8</ele>
        <time>2014-01-30T10:38:39Z</time>
      </trkpt>
      <trkpt lat="45.9548365" lon="7.6646211">
        <ele>2553.2</ele>
        <time>2014-01-30T10:38:40Z</time>
      </trkpt>
      <trkpt lat="45.9548777" lon="7.6647135">
        <ele>2554.4</ele>
        <time>2014-01-30T10:38:42Z</time>
      </trkpt>
      <trkpt lat="45.9549191" lon="7.6648042">
        <ele>2555.6</ele>
        <time>2014-01-30T10:38:44Z</time>
      </trkpt>
      <trkpt lat="45.9549449" lon="7.6648594">
        <ele>2556.8</ele>
        <time>2014-01-30T10:38:45Z</time>
      </trkpt>
      <trkpt lat="45.9549861" lon="7.6649482">
        <ele>2558.2</ele>
        <time>2014-01-30T10:38:47Z</time>
      </trkpt>
      <trkpt lat="45.9550025" lon="7.6649859">
        <ele>2559.4</ele>
        <time>2014-01-30T10:38:48Z</time>
      </trkpt>
      <trkpt lat="45.9550265" lon="7.6650393">
        <ele>2560.4</ele>
        <time>2014-01-30T10:38:49Z</time>
      </trkpt>
      <trkpt lat="45.9550408" lon="7.6650676">
        <ele>2561.8</ele>
        <time>2014-01-30T10:38:50Z</time>
      </trkpt>
      <trkpt lat="45.9550673" lon="7.6651205">
        <ele>2563</ele>
        <time>2014-01-30T10:38:51Z</time>
      </trkpt>
      <trkpt lat="45.9551096" lon="7.6652128">
        <ele>2564.4</ele>
        <time>2014-01-30T10:38:53Z</time>
      </trkpt>
      <trkpt lat="45.9551255" lon="7.6652519">
        <ele>2565.6</ele>
        <time>2014-01-30T10:38:54Z</time>
      </trkpt>
      <trkpt lat="45.9551497" lon="7.6653037">
        <ele>2567.2</ele>
        <time>2014-01-30T10:38:55Z</time>
      </trkpt>
      <trkpt lat="45.9551633" lon="7.6653355">
        <ele>2568.6</ele>
        <time>2014-01-30T10:38:56Z</time>
      </trkpt>
      <trkpt lat="45.9551913" lon="7.6653898">
        <ele>2570.2</ele>
        <time>2014-01-30T10:38:57Z</time>
      </trkpt>
      <trkpt lat="45.9552079" lon="7.6654226">
        <ele>2571.6</ele>
        <time>2014-01-30T10:38:58Z</time>
      </trkpt>
      <trkpt lat="45.955232" lon="7.6654762">
        <ele>2573</ele>
        <time>2014-01-30T10:38:59Z</time>
      </trkpt>
      <trkpt lat="45.9552349" lon="7.6655079">
        <ele>2574.6</ele>
        <time>2014-01-30T10:39:00Z</time>
      </trkpt>
      <trkpt lat="45.9552571" lon="7.6655608">
        <ele>2577.2</ele>
        <time>2014-01-30T10:39:01Z</time>
      </trkpt>
      <trkpt lat="45.9552733" lon="7.6655954">
        <ele>2579</ele>
        <time>2014-01-30T10:39:02Z</time>
      </trkpt>
      <trkpt lat="45.9552982" lon="7.6656442">
        <ele>2580.4</ele>
        <time>2014-01-30T10:39:03Z</time>
      </trkpt>
      <trkpt lat="45.9553122" lon="7.6656778">
        <ele>2582.4</ele>
        <time>2014-01-30T10:39:04Z</time>
      </trkpt>
      <trkpt lat="45.9553493" lon="7.6657527">
        <ele>2585</ele>
        <time>2014-01-30T10:39:06Z</time>
      </trkpt>
      <trkpt lat="45.9553744" lon="7.6658047">
        <ele>2586.4</ele>
        <time>2014-01-30T10:39:07Z</time>
      </trkpt>
      <trkpt lat="45.9553926" lon="7.6658408">
        <ele>2587.8</ele>
        <time>2014-01-30T10:39:08Z</time>
      </trkpt>
      <trkpt lat="45.9554161" lon="7.6658865">
        <ele>2589.4</ele>
        <time>2014-01-30T10:39:09Z</time>
      </trkpt>
      <trkpt lat="45.9554267" lon="7.6659114">
        <ele>2591</ele>
        <time>2014-01-30T10:39:10Z</time>
      </trkpt>
      <trkpt lat="45.9554505" lon="7.6659633">
        <ele>2592.8</ele>
        <time>2014-01-30T10:39:11Z</time>
      </trkpt>
      <trkpt lat="45.9554661" lon="7.6659958">
        <ele>2594.6</ele>
        <time>2014-01-30T10:39:12Z</time>
      </trkpt>
      <trkpt lat="45.9554896" lon="7.6660446">
        <ele>2596.6</ele>
        <time>2014-01-30T10:39:13Z</time>
      </trkpt>
      <trkpt lat="45.9555039" lon="7.6660788">
        <ele>2598.6</ele>
        <time>2014-01-30T10:39:14Z</time>
      </trkpt>
      <trkpt lat="45.9555242" lon="7.6661253">
        <ele>2600.6</ele>
        <time>2014-01-30T10:39:15Z</time>
      </trkpt>
      <trkpt lat="45.9555353" lon="7.6661519">
        <ele>2602.6</ele>
        <time>2014-01-30T10:39:16Z</time>
      </trkpt>
      <trkpt lat="45.9555593" lon="7.6662038">
        <ele>2604.8</ele>
        <time>2014-01-30T10:39:17Z</time>
      </trkpt>
      <trkpt lat="45.9555735" lon="7.6662343">
        <ele>2607</ele>
        <time>2014-01-30T10:39:18Z</time>
      </trkpt>
      <trkpt lat="45.9555956" lon="7.6662827">
        <ele>2609.4</ele>
        <time>2014-01-30T10:39:19Z</time>
      </trkpt>
      <trkpt lat="45.9556053" lon="7.6663067">
        <ele>2612.8</ele>
        <time>2014-01-30T10:39:20Z</time>
      </trkpt>
      <trkpt lat="45.9556263" lon="7.6663537">
        <ele>2615.6</ele>
        <time>2014-01-30T10:39:21Z</time>
      </trkpt>
      <trkpt lat="45.9556386" lon="7.6663839">
        <ele>2618.4</ele>
        <time>2014-01-30T10:39:22Z</time>
      </trkpt>
      <trkpt lat="45.95566" lon="7.6664347">
        <ele>2621.2</ele>
        <time>2014-01-30T10:39:23Z</time>
      </trkpt>
      <trkpt lat="45.9556722" lon="7.666468">
        <ele>2624</ele>
        <time>2014-01-30T10:39:24Z</time>
      </trkpt>
      <trkpt lat="45.9556923" lon="7.6665145">
        <ele>2626.8</ele>
        <time>2014-01-30T10:39:25Z</time>
      </trkpt>
      <trkpt lat="45.9557018" lon="7.6665403">
        <ele>2630</ele>
        <time>2014-01-30T10:39:26Z</time>
      </trkpt>
      <trkpt lat="45.9557235" lon="7.6665895">
        <ele>2633.4</ele>
        <time>2014-01-30T10:39:27Z</time>
      </trkpt>
      <trkpt lat="45.9557374" lon="7.66662">
        <ele>2636</ele>
        <time>2014-01-30T10:39:28Z</time>
      </trkpt>
      <trkpt lat="45.9557591" lon="7.6666671">
        <ele>2638.6</ele>
        <time>2014-01-30T10:39:29Z</time>
      </trkpt>
      <trkpt lat="45.9557696" lon="7.6666931">
        <ele>2641.2</ele>
        <time>2014-01-30T10:39:30Z</time>
      </trkpt>
      <trkpt lat="45.9557911" lon="7.6667397">
        <ele>2643.6</ele>
        <time>2014-01-30T10:39:31Z</time>
      </trkpt>
      <trkpt lat="45.9558033" lon="7.6667695">
        <ele>2646.4</ele>
        <time>2014-01-30T10:39:32Z</time>
      </trkpt>
      <trkpt lat="45.9558251" lon="7.6668186">
        <ele>2650</ele>
        <time>2014-01-30T10:39:33Z</time>
      </trkpt>
      <trkpt lat="45.9558375" lon="7.6668482">
        <ele>2651.6</ele>
        <time>2014-01-30T10:39:34Z</time>
      </trkpt>
      <trkpt lat="45.9558596" lon="7.6668945">
        <ele>2655</ele>
        <time>2014-01-30T10:39:35Z</time>
      </trkpt>
      <trkpt lat="45.95587" lon="7.6669194">
        <ele>2657</ele>
        <time>2014-01-30T10:39:36Z</time>
      </trkpt>
      <trkpt lat="45.9558913" lon="7.6669698">
        <ele>2661.2</ele>
        <time>2014-01-30T10:39:37Z</time>
      </trkpt>
      <trkpt lat="45.9559041" lon="7.6669996">
        <ele>2663.2</ele>
        <time>2014-01-30T10:39:38Z</time>
      </trkpt>
      <trkpt lat="45.9559233" lon="7.6670481">
        <ele>2667.2</ele>
        <time>2014-01-30T10:39:39Z</time>
      </trkpt>
      <trkpt lat="45.9559307" lon="7.6670712">
        <ele>2669.4</ele>
        <time>2014-01-30T10:39:40Z</time>
      </trkpt>
      <trkpt lat="45.9559514" lon="7.667121">
        <ele>2672.4</ele>
        <time>2014-01-30T10:39:41Z</time>
      </trkpt>
      <trkpt lat="45.9559637" lon="7.6671492">
        <ele>2675.4</ele>
        <time>2014-01-30T10:39:42Z</time>
      </trkpt>
      <trkpt lat="45.9559857" lon="7.6671959">
        <ele>2678.2</ele>
        <time>2014-01-30T10:39:43Z</time>
      </trkpt>
      <trkpt lat="45.9559978" lon="7.6672229">
        <ele>2681</ele>
        <time>2014-01-30T10:39:44Z</time>
      </trkpt>
      <trkpt lat="45.9560187" lon="7.6672697">
        <ele>2683.4</ele>
        <time>2014-01-30T10:39:45Z</time>
      </trkpt>
      <trkpt lat="45.9560299" lon="7.6672939">
        <ele>2686</ele>
        <time>2014-01-30T10:39:46Z</time>
      </trkpt>
      <trkpt lat="45.9560528" lon="7.6673408">
        <ele>2688.8</ele>
        <time>2014-01-30T10:39:47Z</time>
      </trkpt>
      <trkpt lat="45.9560666" lon="7.6673698">
        <ele>2691.6</ele>
        <time>2014-01-30T10:39:48Z</time>
      </trkpt>
      <trkpt lat="45.9560857" lon="7.6674127">
        <ele>2694.6</ele>
        <time>2014-01-30T10:39:49Z</time>
      </trkpt>
      <trkpt lat="45.956096" lon="7.667437">
        <ele>2697.4</ele>
        <time>2014-01-30T10:39:50Z</time>
      </trkpt>
      <trkpt lat="45.9561153" lon="7.6674837">
        <ele>2700.4</ele>
        <time>2014-01-30T10:39:51Z</time>
      </trkpt>
      <trkpt lat="45.9561266" lon="7.667511">
        <ele>2703.4</ele>
        <time>2014-01-30T10:39:52Z</time>
      </trkpt>
      <trkpt lat="45.9561474" lon="7.6675583">
        <ele>2707.6</ele>
        <time>2014-01-30T10:39:53Z</time>
      </trkpt>
      <trkpt lat="45.9561603" lon="7.6675887">
        <ele>2709</ele>
        <time>2014-01-30T10:39:54Z</time>
      </trkpt>
      <trkpt lat="45.9561793" lon="7.6676312">
        <ele>2713</ele>
        <time>2014-01-30T10:39:55Z</time>
      </trkpt>
      <trkpt lat="45.9561893" lon="7.6676558">
        <ele>2714.6</ele>
        <time>2014-01-30T10:39:56Z</time>
      </trkpt>
      <trkpt lat="45.9562106" lon="7.6677018">
        <ele>2718.4</ele>
        <time>2014-01-30T10:39:57Z</time>
      </trkpt>
      <trkpt lat="45.9562225" lon="7.6677336">
        <ele>2719.8</ele>
        <time>2014-01-30T10:39:58Z</time>
      </trkpt>
      <trkpt lat="45.9562451" lon="7.6677864">
        <ele>2723.4</ele>
        <time>2014-01-30T10:39:59Z</time>
      </trkpt>
      <trkpt lat="45.9562738" lon="7.667856">
        <ele>2727.4</ele>
        <time>2014-01-30T10:40:01Z</time>
      </trkpt>
      <trkpt lat="45.9562892" lon="7.6678892">
        <ele>2729.4</ele>
        <time>2014-01-30T10:40:02Z</time>
      </trkpt>
      <trkpt lat="45.9563117" lon="7.6679382">
        <ele>2732</ele>
        <time>2014-01-30T10:40:03Z</time>
      </trkpt>
      <trkpt lat="45.9563239" lon="7.6679678">
        <ele>2734.6</ele>
        <time>2014-01-30T10:40:04Z</time>
      </trkpt>
      <trkpt lat="45.9563446" lon="7.6680139">
        <ele>2737.2</ele>
        <time>2014-01-30T10:40:05Z</time>
      </trkpt>
      <trkpt lat="45.9563559" lon="7.6680399">
        <ele>2739.8</ele>
        <time>2014-01-30T10:40:06Z</time>
      </trkpt>
      <trkpt lat="45.9563798" lon="7.6680891">
        <ele>2741.8</ele>
        <time>2014-01-30T10:40:07Z</time>
      </trkpt>
      <trkpt lat="45.9563954" lon="7.6681214">
        <ele>2744</ele>
        <time>2014-01-30T10:40:08Z</time>
      </trkpt>
      <trkpt lat="45.9564163" lon="7.668166">
        <ele>2746.6</ele>
        <time>2014-01-30T10:40:09Z</time>
      </trkpt>
      <trkpt lat="45.9564261" lon="7.6681871">
        <ele>2749</ele>
        <time>2014-01-30T10:40:10Z</time>
      </trkpt>
      <trkpt lat="45.9564485" lon="7.668234">
        <ele>2751.4</ele>
        <time>2014-01-30T10:40:11Z</time>
      </trkpt>
      <trkpt lat="45.9564617" lon="7.6682612">
        <ele>2753.8</ele>
        <time>2014-01-30T10:40:12Z</time>
      </trkpt>
      <trkpt lat="45.9564822" lon="7.6683078">
        <ele>2758</ele>
        <time>2014-01-30T10:40:13Z</time>
      </trkpt>
      <trkpt lat="45.9564954" lon="7.6683363">
        <ele>2759.4</ele>
        <time>2014-01-30T10:40:14Z</time>
      </trkpt>
      <trkpt lat="45.956516" lon="7.6683851">
        <ele>2763</ele>
        <time>2014-01-30T10:40:15Z</time>
      </trkpt>
      <trkpt lat="45.9565269" lon="7.6684112">
        <ele>2764.6</ele>
        <time>2014-01-30T10:40:16Z</time>
      </trkpt>
      <trkpt lat="45.9565492" lon="7.6684611">
        <ele>2768.4</ele>
        <time>2014-01-30T10:40:17Z</time>
      </trkpt>
      <trkpt lat="45.9565631" lon="7.6684923">
        <ele>2770</ele>
        <time>2014-01-30T10:40:18Z</time>
      </trkpt>
      <trkpt lat="45.9565824" lon="7.6685326">
        <ele>2773.8</ele>
        <time>2014-01-30T10:40:19Z</time>
      </trkpt>
      <trkpt lat="45.9565932" lon="7.6685568">
        <ele>2775.2</ele>
        <time>2014-01-30T10:40:20Z</time>
      </trkpt>
      <trkpt lat="45.956614" lon="7.668601">
        <ele>2778</ele>
        <time>2014-01-30T10:40:21Z</time>
      </trkpt>
      <trkpt lat="45.9566269" lon="7.6686263">
        <ele>2780.6</ele>
        <time>2014-01-30T10:40:22Z</time>
      </trkpt>
      <trkpt lat="45.9566482" lon="7.6686731">
        <ele>2783.4</ele>
        <time>2014-01-30T10:40:23Z</time>
      </trkpt>
      <trkpt lat="45.9566606" lon="7.6687066">
        <ele>2785.8</ele>
        <time>2014-01-30T10:40:24Z</time>
      </trkpt>
      <trkpt lat="45.9566815" lon="7.6687605">
        <ele>2788.2</ele>
        <time>2014-01-30T10:40:25Z</time>
      </trkpt>
      <trkpt lat="45.956694" lon="7.668791">
        <ele>2790</ele>
        <time>2014-01-30T10:40:26Z</time>
      </trkpt>
      <trkpt lat="45.956717" lon="7.668848">
        <ele>2791.6</ele>
        <time>2014-01-30T10:40:27Z</time>
      </trkpt>
      <trkpt lat="45.9567317" lon="7.6688851">
        <ele>2792.8</ele>
        <time>2014-01-30T10:40:28Z</time>
      </trkpt>
      <trkpt lat="45.9567569" lon="7.6689424">
        <ele>2794</ele>
        <time>2014-01-30T10:40:29Z</time>
      </trkpt>
      <trkpt lat="45.9567715" lon="7.6689651">
        <ele>2794</ele>
        <time>2014-01-30T10:40:30Z</time>
      </trkpt>
      <trkpt lat="45.9568108" lon="7.6690345">
        <ele>2795</ele>
        <time>2014-01-30T10:40:33Z</time>
      </trkpt>
      <trkpt lat="45.9568142" lon="7.6690435">
        <ele>2795</ele>
        <time>2014-01-30T10:40:34Z</time>
      </trkpt>
      <trkpt lat="45.9568281" lon="7.669085">
        <ele>2795</ele>
        <time>2014-01-30T10:40:36Z</time>
      </trkpt>
      <trkpt lat="45.9568304" lon="7.6691832">
        <ele>2795</ele>
        <time>2014-01-30T10:40:38Z</time>
      </trkpt>
      <trkpt lat="45.9567932" lon="7.6693593">
        <ele>2795</ele>
        <time>2014-01-30T10:40:42Z</time>
      </trkpt>
      <trkpt lat="45.956768" lon="7.6694002">
        <ele>2795</ele>
        <time>2014-01-30T10:40:43Z</time>
      </trkpt>
      <trkpt lat="45.9567475" lon="7.6693934">
        <ele>2795</ele>
        <time>2014-01-30T10:40:46Z</time>
      </trkpt>
      <trkpt lat="45.9567507" lon="7.669379">
        <ele>2795</ele>
        <time>2014-01-30T10:40:56Z</time>
      </trkpt>
      <trkpt lat="45.9567497" lon="7.6693702">
        <ele>2795</ele>
        <time>2014-01-30T10:41:08Z</time>
      </trkpt>
      <trkpt lat="45.9567606" lon="7.6693535">
        <ele>2795</ele>
        <time>2014-01-30T10:41:18Z</time>
      </trkpt>
      <trkpt lat="45.9567664" lon="7.6693456">
        <ele>2795</ele>
        <time>2014-01-30T10:41:19Z</time>
      </trkpt>
      <trkpt lat="45.9567818" lon="7.6693232">
        <ele>2795</ele>
        <time>2014-01-30T10:41:26Z</time>
      </trkpt>
      <trkpt lat="45.9567834" lon="7.6693229">
        <ele>2795</ele>
        <time>2014-01-30T10:41:34Z</time>
      </trkpt>
      <trkpt lat="45.9567911" lon="7.6693164">
        <ele>2795</ele>
        <time>2014-01-30T10:41:46Z</time>
      </trkpt>
      <trkpt lat="45.9567854" lon="7.6693148">
        <ele>2795</ele>
        <time>2014-01-30T10:41:59Z</time>
      </trkpt>
      <trkpt lat="45.9567284" lon="7.6693111">
        <ele>2795</ele>
        <time>2014-01-30T10:42:05Z</time>
      </trkpt>
      <trkpt lat="45.9567195" lon="7.6693038">
        <ele>2795</ele>
        <time>2014-01-30T10:42:06Z</time>
      </trkpt>
      <trkpt lat="45.9567103" lon="7.6692886">
        <ele>2795</ele>
        <time>2014-01-30T10:42:09Z</time>
      </trkpt>
      <trkpt lat="45.9567055" lon="7.6692789">
        <ele>2793</ele>
        <time>2014-01-30T10:42:16Z</time>
      </trkpt>
      <trkpt lat="45.9566849" lon="7.6692709">
        <ele>2793</ele>
        <time>2014-01-30T10:42:19Z</time>
      </trkpt>
      <trkpt lat="45.9566291" lon="7.6692449">
        <ele>2793</ele>
        <time>2014-01-30T10:42:22Z</time>
      </trkpt>
      <trkpt lat="45.9566178" lon="7.6692169">
        <ele>2793</ele>
        <time>2014-01-30T10:42:23Z</time>
      </trkpt>
      <trkpt lat="45.9566129" lon="7.669194">
        <ele>2793</ele>
        <time>2014-01-30T10:42:28Z</time>
      </trkpt>
      <trkpt lat="45.9566008" lon="7.6691492">
        <ele>2791</ele>
        <time>2014-01-30T10:42:34Z</time>
      </trkpt>
      <trkpt lat="45.9565875" lon="7.669103">
        <ele>2791</ele>
        <time>2014-01-30T10:42:37Z</time>
      </trkpt>
      <trkpt lat="45.956556" lon="7.6689843">
        <ele>2791</ele>
        <time>2014-01-30T10:42:46Z</time>
      </trkpt>
      <trkpt lat="45.9565419" lon="7.6689338">
        <ele>2791</ele>
        <time>2014-01-30T10:42:53Z</time>
      </trkpt>
      <trkpt lat="45.9565192" lon="7.6688915">
        <ele>2791</ele>
        <time>2014-01-30T10:43:00Z</time>
      </trkpt>
      <trkpt lat="45.9565041" lon="7.6688735">
        <ele>2791</ele>
        <time>2014-01-30T10:43:06Z</time>
      </trkpt>
      <trkpt lat="45.956499" lon="7.6688807">
        <ele>2791</ele>
        <time>2014-01-30T10:43:10Z</time>
      </trkpt>
      <trkpt lat="45.9564957" lon="7.6688827">
        <ele>2791</ele>
        <time>2014-01-30T10:43:13Z</time>
      </trkpt>
      <trkpt lat="45.9564845" lon="7.6689066">
        <ele>2791</ele>
        <time>2014-01-30T10:43:21Z</time>
      </trkpt>
      <trkpt lat="45.9564734" lon="7.6689285">
        <ele>2790</ele>
        <time>2014-01-30T10:43:28Z</time>
      </trkpt>
      <trkpt lat="45.9564292" lon="7.6690055">
        <ele>2789</ele>
        <time>2014-01-30T10:43:31Z</time>
      </trkpt>
      <trkpt lat="45.9564026" lon="7.6690221">
        <ele>2787.4</ele>
        <time>2014-01-30T10:43:32Z</time>
      </trkpt>
      <trkpt lat="45.9563469" lon="7.6690003">
        <ele>2786.4</ele>
        <time>2014-01-30T10:43:34Z</time>
      </trkpt>
      <trkpt lat="45.9563077" lon="7.6690212">
        <ele>2785.2</ele>
        <time>2014-01-30T10:43:35Z</time>
      </trkpt>
      <trkpt lat="45.9562909" lon="7.6690371">
        <ele>2784.2</ele>
        <time>2014-01-30T10:43:36Z</time>
      </trkpt>
      <trkpt lat="45.9562454" lon="7.6690552">
        <ele>2784.2</ele>
        <time>2014-01-30T10:43:37Z</time>
      </trkpt>
      <trkpt lat="45.9562028" lon="7.6690509">
        <ele>2783</ele>
        <time>2014-01-30T10:43:39Z</time>
      </trkpt>
      <trkpt lat="45.9562125" lon="7.6690576">
        <ele>2783</ele>
        <time>2014-01-30T10:43:40Z</time>
      </trkpt>
      <trkpt lat="45.9562073" lon="7.6690423">
        <ele>2783</ele>
        <time>2014-01-30T10:43:46Z</time>
      </trkpt>
      <trkpt lat="45.9562315" lon="7.6690172">
        <ele>2783</ele>
        <time>2014-01-30T10:43:53Z</time>
      </trkpt>
      <trkpt lat="45.9562472" lon="7.6690081">
        <ele>2783</ele>
        <time>2014-01-30T10:43:58Z</time>
      </trkpt>
      <trkpt lat="45.9562509" lon="7.6690055">
        <ele>2783</ele>
        <time>2014-01-30T10:44:04Z</time>
      </trkpt>
      <trkpt lat="45.9562617" lon="7.6689981">
        <ele>2783</ele>
        <time>2014-01-30T10:44:13Z</time>
      </trkpt>
      <trkpt lat="45.9562618" lon="7.6689932">
        <ele>2783</ele>
        <time>2014-01-30T10:44:32Z</time>
      </trkpt>
      <trkpt lat="45.9562625" lon="7.6689926">
        <ele>2783</ele>
        <time>2014-01-30T10:44:48Z</time>
      </trkpt>
      <trkpt lat="45.9562617" lon="7.6689915">
        <ele>2783</ele>
        <time>2014-01-30T10:45:00Z</time>
      </trkpt>
      <trkpt lat="45.9562594" lon="7.6689913">
        <ele>2783</ele>
        <time>2014-01-30T10:45:14Z</time>
      </trkpt>
      <trkpt lat="45.9562684" lon="7.6689764">
        <ele>2783</ele>
        <time>2014-01-30T10:45:22Z</time>
      </trkpt>
      <trkpt lat="45.95627" lon="7.6689713">
        <ele>2786.8</ele>
        <time>2014-01-30T10:45:23Z</time>
      </trkpt>
      <trkpt lat="45.9562675" lon="7.6689568">
        <ele>2786.8</ele>
        <time>2014-01-30T10:45:29Z</time>
      </trkpt>
      <trkpt lat="45.956273" lon="7.6689191">
        <ele>2786.8</ele>
        <time>2014-01-30T10:45:35Z</time>
      </trkpt>
      <trkpt lat="45.9562745" lon="7.6688851">
        <ele>2783.4</ele>
        <time>2014-01-30T10:45:40Z</time>
      </trkpt>
      <trkpt lat="45.9562503" lon="7.6688229">
        <ele>2782.4</ele>
        <time>2014-01-30T10:45:46Z</time>
      </trkpt>
      <trkpt lat="45.9562393" lon="7.6688098">
        <ele>2781.2</ele>
        <time>2014-01-30T10:45:47Z</time>
      </trkpt>
      <trkpt lat="45.956245" lon="7.668817">
        <ele>2780</ele>
        <time>2014-01-30T10:45:48Z</time>
      </trkpt>
      <trkpt lat="45.9562325" lon="7.6688077">
        <ele>2780</ele>
        <time>2014-01-30T10:45:49Z</time>
      </trkpt>
      <trkpt lat="45.9562223" lon="7.6688061">
        <ele>2779</ele>
        <time>2014-01-30T10:45:53Z</time>
      </trkpt>
      <trkpt lat="45.9562225" lon="7.6688066">
        <ele>2779</ele>
        <time>2014-01-30T10:45:54Z</time>
      </trkpt>
      <trkpt lat="45.956219" lon="7.6687866">
        <ele>2779</ele>
        <time>2014-01-30T10:45:56Z</time>
      </trkpt>
      <trkpt lat="45.9562182" lon="7.6687841">
        <ele>2779</ele>
        <time>2014-01-30T10:45:58Z</time>
      </trkpt>
      <trkpt lat="45.9561996" lon="7.6687653">
        <ele>2779</ele>
        <time>2014-01-30T10:46:00Z</time>
      </trkpt>
      <trkpt lat="45.9561956" lon="7.6687639">
        <ele>2777.8</ele>
        <time>2014-01-30T10:46:01Z</time>
      </trkpt>
      <trkpt lat="45.9561865" lon="7.6687618">
        <ele>2777.8</ele>
        <time>2014-01-30T10:46:02Z</time>
      </trkpt>
      <trkpt lat="45.956177" lon="7.6687495">
        <ele>2776.8</ele>
        <time>2014-01-30T10:46:04Z</time>
      </trkpt>
      <trkpt lat="45.9561813" lon="7.668734">
        <ele>2776.8</ele>
        <time>2014-01-30T10:46:06Z</time>
      </trkpt>
      <trkpt lat="45.9561859" lon="7.6687139">
        <ele>2775.6</ele>
        <time>2014-01-30T10:46:07Z</time>
      </trkpt>
      <trkpt lat="45.956179" lon="7.6686846">
        <ele>2774.6</ele>
        <time>2014-01-30T10:46:09Z</time>
      </trkpt>
      <trkpt lat="45.9561727" lon="7.6686813">
        <ele>2774.6</ele>
        <time>2014-01-30T10:46:10Z</time>
      </trkpt>
      <trkpt lat="45.9561709" lon="7.6686782">
        <ele>2773.6</ele>
        <time>2014-01-30T10:46:12Z</time>
      </trkpt>
      <trkpt lat="45.9561675" lon="7.6686755">
        <ele>2773.6</ele>
        <time>2014-01-30T10:46:15Z</time>
      </trkpt>
      <trkpt lat="45.9561493" lon="7.6686661">
        <ele>2772.6</ele>
        <time>2014-01-30T10:46:18Z</time>
      </trkpt>
      <trkpt lat="45.9561467" lon="7.6686637">
        <ele>2771.4</ele>
        <time>2014-01-30T10:46:20Z</time>
      </trkpt>
      <trkpt lat="45.9561362" lon="7.6686509">
        <ele>2771.4</ele>
        <time>2014-01-30T10:46:21Z</time>
      </trkpt>
      <trkpt lat="45.95614" lon="7.6685967">
        <ele>2770.2</ele>
        <time>2014-01-30T10:46:25Z</time>
      </trkpt>
      <trkpt lat="45.9561257" lon="7.6685788">
        <ele>2768.6</ele>
        <time>2014-01-30T10:46:26Z</time>
      </trkpt>
      <trkpt lat="45.9561086" lon="7.6685494">
        <ele>2767.4</ele>
        <time>2014-01-30T10:46:28Z</time>
      </trkpt>
      <trkpt lat="45.9561142" lon="7.6685318">
        <ele>2766.2</ele>
        <time>2014-01-30T10:46:29Z</time>
      </trkpt>
      <trkpt lat="45.956113" lon="7.668508">
        <ele>2765</ele>
        <time>2014-01-30T10:46:32Z</time>
      </trkpt>
      <trkpt lat="45.9561186" lon="7.6684906">
        <ele>2765</ele>
        <time>2014-01-30T10:46:33Z</time>
      </trkpt>
      <trkpt lat="45.9561337" lon="7.6684637">
        <ele>2763.6</ele>
        <time>2014-01-30T10:46:38Z</time>
      </trkpt>
      <trkpt lat="45.9561346" lon="7.6684498">
        <ele>2763.6</ele>
        <time>2014-01-30T10:46:41Z</time>
      </trkpt>
      <trkpt lat="45.9561483" lon="7.668417">
        <ele>2762.4</ele>
        <time>2014-01-30T10:46:43Z</time>
      </trkpt>
      <trkpt lat="45.9561545" lon="7.6683983">
        <ele>2762.4</ele>
        <time>2014-01-30T10:46:44Z</time>
      </trkpt>
      <trkpt lat="45.9561702" lon="7.6683669">
        <ele>2761.4</ele>
        <time>2014-01-30T10:46:46Z</time>
      </trkpt>
      <trkpt lat="45.9561711" lon="7.6683635">
        <ele>2761.4</ele>
        <time>2014-01-30T10:46:48Z</time>
      </trkpt>
      <trkpt lat="45.9561703" lon="7.6683633">
        <ele>2760.4</ele>
        <time>2014-01-30T10:46:54Z</time>
      </trkpt>
      <trkpt lat="45.956171" lon="7.6683636">
        <ele>2760.4</ele>
        <time>2014-01-30T10:46:58Z</time>
      </trkpt>
      <trkpt lat="45.9561711" lon="7.6683715">
        <ele>2760.4</ele>
        <time>2014-01-30T10:47:10Z</time>
      </trkpt>
      <trkpt lat="45.9561752" lon="7.6683642">
        <ele>2760.4</ele>
        <time>2014-01-30T10:47:11Z</time>
      </trkpt>
      <trkpt lat="45.9561776" lon="7.6683596">
        <ele>2760.4</ele>
        <time>2014-01-30T10:47:13Z</time>
      </trkpt>
      <trkpt lat="45.956184" lon="7.6683555">
        <ele>2760.4</ele>
        <time>2014-01-30T10:47:24Z</time>
      </trkpt>
      <trkpt lat="45.9561865" lon="7.6683609">
        <ele>2760.4</ele>
        <time>2014-01-30T10:47:37Z</time>
      </trkpt>
      <trkpt lat="45.9561908" lon="7.6683578">
        <ele>2760.4</ele>
        <time>2014-01-30T10:47:46Z</time>
      </trkpt>
      <trkpt lat="45.9561954" lon="7.6683564">
        <ele>2760.4</ele>
        <time>2014-01-30T10:47:59Z</time>
      </trkpt>
      <trkpt lat="45.9561984" lon="7.6683596">
        <ele>2760.4</ele>
        <time>2014-01-30T10:48:13Z</time>
      </trkpt>
      <trkpt lat="45.9562002" lon="7.6683573">
        <ele>2760.4</ele>
        <time>2014-01-30T10:48:24Z</time>
      </trkpt>
      <trkpt lat="45.9562021" lon="7.6683469">
        <ele>2759.2</ele>
        <time>2014-01-30T10:48:27Z</time>
      </trkpt>
      <trkpt lat="45.9562032" lon="7.6683472">
        <ele>2759.2</ele>
        <time>2014-01-30T10:48:32Z</time>
      </trkpt>
      <trkpt lat="45.9562054" lon="7.6683279">
        <ele>2759.2</ele>
        <time>2014-01-30T10:48:41Z</time>
      </trkpt>
      <trkpt lat="45.9562099" lon="7.6683021">
        <ele>2758.2</ele>
        <time>2014-01-30T10:48:42Z</time>
      </trkpt>
      <trkpt lat="45.9562141" lon="7.6682896">
        <ele>2758.2</ele>
        <time>2014-01-30T10:48:43Z</time>
      </trkpt>
      <trkpt lat="45.9562169" lon="7.6682734">
        <ele>2756.8</ele>
        <time>2014-01-30T10:48:44Z</time>
      </trkpt>
      <trkpt lat="45.9562084" lon="7.668224">
        <ele>2755.4</ele>
        <time>2014-01-30T10:48:46Z</time>
      </trkpt>
      <trkpt lat="45.9561967" lon="7.6682287">
        <ele>2755.4</ele>
        <time>2014-01-30T10:48:47Z</time>
      </trkpt>
      <trkpt lat="45.956183" lon="7.6681855">
        <ele>2752.4</ele>
        <time>2014-01-30T10:48:48Z</time>
      </trkpt>
      <trkpt lat="45.956197" lon="7.668141">
        <ele>2750.6</ele>
        <time>2014-01-30T10:48:49Z</time>
      </trkpt>
      <trkpt lat="45.9561887" lon="7.6680615">
        <ele>2748.4</ele>
        <time>2014-01-30T10:48:52Z</time>
      </trkpt>
      <trkpt lat="45.9561542" lon="7.6680552">
        <ele>2747.4</ele>
        <time>2014-01-30T10:48:54Z</time>
      </trkpt>
      <trkpt lat="45.9561394" lon="7.6680213">
        <ele>2747.4</ele>
        <time>2014-01-30T10:48:55Z</time>
      </trkpt>
      <trkpt lat="45.9561898" lon="7.6678863">
        <ele>2746.4</ele>
        <time>2014-01-30T10:48:58Z</time>
      </trkpt>
      <trkpt lat="45.956131" lon="7.6678734">
        <ele>2745</ele>
        <time>2014-01-30T10:48:59Z</time>
      </trkpt>
      <trkpt lat="45.9561078" lon="7.6678508">
        <ele>2745</ele>
        <time>2014-01-30T10:49:00Z</time>
      </trkpt>
      <trkpt lat="45.9561335" lon="7.6677818">
        <ele>2743.2</ele>
        <time>2014-01-30T10:49:01Z</time>
      </trkpt>
      <trkpt lat="45.9561408" lon="7.667741">
        <ele>2743.2</ele>
        <time>2014-01-30T10:49:02Z</time>
      </trkpt>
      <trkpt lat="45.9560887" lon="7.6677123">
        <ele>2741</ele>
        <time>2014-01-30T10:49:03Z</time>
      </trkpt>
      <trkpt lat="45.9560744" lon="7.667627">
        <ele>2739.8</ele>
        <time>2014-01-30T10:49:04Z</time>
      </trkpt>
      <trkpt lat="45.9560486" lon="7.6675763">
        <ele>2738.8</ele>
        <time>2014-01-30T10:49:05Z</time>
      </trkpt>
      <trkpt lat="45.9560143" lon="7.6675431">
        <ele>2737.2</ele>
        <time>2014-01-30T10:49:06Z</time>
      </trkpt>
      <trkpt lat="45.9559981" lon="7.6674756">
        <ele>2736.2</ele>
        <time>2014-01-30T10:49:07Z</time>
      </trkpt>
      <trkpt lat="45.956022" lon="7.6674354">
        <ele>2734.8</ele>
        <time>2014-01-30T10:49:09Z</time>
      </trkpt>
      <trkpt lat="45.956015" lon="7.6674386">
        <ele>2733.8</ele>
        <time>2014-01-30T10:49:11Z</time>
      </trkpt>
      <trkpt lat="45.9560129" lon="7.6674414">
        <ele>2732.8</ele>
        <time>2014-01-30T10:49:13Z</time>
      </trkpt>
      <trkpt lat="45.95601" lon="7.6674479">
        <ele>2731.4</ele>
        <time>2014-01-30T10:49:16Z</time>
      </trkpt>
      <trkpt lat="45.95601" lon="7.6674502">
        <ele>2730</ele>
        <time>2014-01-30T10:49:19Z</time>
      </trkpt>
      <trkpt lat="45.9560314" lon="7.667423">
        <ele>2729</ele>
        <time>2014-01-30T10:49:22Z</time>
      </trkpt>
      <trkpt lat="45.9560578" lon="7.6673908">
        <ele>2728</ele>
        <time>2014-01-30T10:49:24Z</time>
      </trkpt>
      <trkpt lat="45.9560918" lon="7.6673442">
        <ele>2726.8</ele>
        <time>2014-01-30T10:49:27Z</time>
      </trkpt>
      <trkpt lat="45.9561162" lon="7.6673168">
        <ele>2725.8</ele>
        <time>2014-01-30T10:49:29Z</time>
      </trkpt>
      <trkpt lat="45.9561282" lon="7.6673061">
        <ele>2725.8</ele>
        <time>2014-01-30T10:49:30Z</time>
      </trkpt>
      <trkpt lat="45.9561297" lon="7.6673045">
        <ele>2724.8</ele>
        <time>2014-01-30T10:49:32Z</time>
      </trkpt>
      <trkpt lat="45.9561415" lon="7.6672987">
        <ele>2723.8</ele>
        <time>2014-01-30T10:49:35Z</time>
      </trkpt>
      <trkpt lat="45.9561424" lon="7.6672998">
        <ele>2723.8</ele>
        <time>2014-01-30T10:49:36Z</time>
      </trkpt>
      <trkpt lat="45.9561426" lon="7.6673023">
        <ele>2722.6</ele>
        <time>2014-01-30T10:49:40Z</time>
      </trkpt>
      <trkpt lat="45.9561446" lon="7.6673115">
        <ele>2722.6</ele>
        <time>2014-01-30T10:49:46Z</time>
      </trkpt>
      <trkpt lat="45.9561458" lon="7.6673185">
        <ele>2722.6</ele>
        <time>2014-01-30T10:49:58Z</time>
      </trkpt>
      <trkpt lat="45.9561491" lon="7.6673256">
        <ele>2722.6</ele>
        <time>2014-01-30T10:50:07Z</time>
      </trkpt>
      <trkpt lat="45.9561552" lon="7.6673219">
        <ele>2722.6</ele>
        <time>2014-01-30T10:50:17Z</time>
      </trkpt>
      <trkpt lat="45.9561573" lon="7.6672884">
        <ele>2722.6</ele>
        <time>2014-01-30T10:50:18Z</time>
      </trkpt>
      <trkpt lat="45.9561607" lon="7.6672668">
        <ele>2720.4</ele>
        <time>2014-01-30T10:50:19Z</time>
      </trkpt>
      <trkpt lat="45.9561719" lon="7.6672179">
        <ele>2719</ele>
        <time>2014-01-30T10:50:20Z</time>
      </trkpt>
      <trkpt lat="45.956157" lon="7.6671892">
        <ele>2717.2</ele>
        <time>2014-01-30T10:50:21Z</time>
      </trkpt>
      <trkpt lat="45.9561296" lon="7.6671723">
        <ele>2715.8</ele>
        <time>2014-01-30T10:50:22Z</time>
      </trkpt>
      <trkpt lat="45.9560984" lon="7.6671629">
        <ele>2714.6</ele>
        <time>2014-01-30T10:50:23Z</time>
      </trkpt>
      <trkpt lat="45.9560618" lon="7.667162">
        <ele>2713.6</ele>
        <time>2014-01-30T10:50:24Z</time>
      </trkpt>
      <trkpt lat="45.9560354" lon="7.6671655">
        <ele>2712.4</ele>
        <time>2014-01-30T10:50:25Z</time>
      </trkpt>
      <trkpt lat="45.9560099" lon="7.6671684">
        <ele>2711.4</ele>
        <time>2014-01-30T10:50:26Z</time>
      </trkpt>
      <trkpt lat="45.9559592" lon="7.6671678">
        <ele>2710.4</ele>
        <time>2014-01-30T10:50:28Z</time>
      </trkpt>
      <trkpt lat="45.9559408" lon="7.6671674">
        <ele>2709.4</ele>
        <time>2014-01-30T10:50:29Z</time>
      </trkpt>
      <trkpt lat="45.9558884" lon="7.6671693">
        <ele>2708.2</ele>
        <time>2014-01-30T10:50:31Z</time>
      </trkpt>
      <trkpt lat="45.9558654" lon="7.6671711">
        <ele>2707</ele>
        <time>2014-01-30T10:50:32Z</time>
      </trkpt>
      <trkpt lat="45.9558432" lon="7.6671731">
        <ele>2706</ele>
        <time>2014-01-30T10:50:33Z</time>
      </trkpt>
      <trkpt lat="45.9558225" lon="7.6671785">
        <ele>2706</ele>
        <time>2014-01-30T10:50:34Z</time>
      </trkpt>
      <trkpt lat="45.9558118" lon="7.6671784">
        <ele>2705</ele>
        <time>2014-01-30T10:50:35Z</time>
      </trkpt>
      <trkpt lat="45.9557977" lon="7.6671432">
        <ele>2702.8</ele>
        <time>2014-01-30T10:50:36Z</time>
      </trkpt>
      <trkpt lat="45.9558139" lon="7.6671059">
        <ele>2700.8</ele>
        <time>2014-01-30T10:50:37Z</time>
      </trkpt>
      <trkpt lat="45.9558048" lon="7.6670596">
        <ele>2699</ele>
        <time>2014-01-30T10:50:38Z</time>
      </trkpt>
      <trkpt lat="45.9557862" lon="7.667042">
        <ele>2695.6</ele>
        <time>2014-01-30T10:50:39Z</time>
      </trkpt>
      <trkpt lat="45.955777" lon="7.6669824">
        <ele>2693.8</ele>
        <time>2014-01-30T10:50:40Z</time>
      </trkpt>
      <trkpt lat="45.9557504" lon="7.6669388">
        <ele>2692.6</ele>
        <time>2014-01-30T10:50:41Z</time>
      </trkpt>
      <trkpt lat="45.9557089" lon="7.6668876">
        <ele>2688.2</ele>
        <time>2014-01-30T10:50:42Z</time>
      </trkpt>
      <trkpt lat="45.9557036" lon="7.6668335">
        <ele>2684.4</ele>
        <time>2014-01-30T10:50:43Z</time>
      </trkpt>
      <trkpt lat="45.9556688" lon="7.6667636">
        <ele>2681.8</ele>
        <time>2014-01-30T10:50:44Z</time>
      </trkpt>
      <trkpt lat="45.9556303" lon="7.6667243">
        <ele>2679</ele>
        <time>2014-01-30T10:50:45Z</time>
      </trkpt>
      <trkpt lat="45.9556063" lon="7.666656">
        <ele>2676</ele>
        <time>2014-01-30T10:50:46Z</time>
      </trkpt>
      <trkpt lat="45.9555607" lon="7.6666341">
        <ele>2673.4</ele>
        <time>2014-01-30T10:50:47Z</time>
      </trkpt>
      <trkpt lat="45.9555401" lon="7.6665671">
        <ele>2669.2</ele>
        <time>2014-01-30T10:50:48Z</time>
      </trkpt>
      <trkpt lat="45.955522" lon="7.6664852">
        <ele>2667.2</ele>
        <time>2014-01-30T10:50:49Z</time>
      </trkpt>
      <trkpt lat="45.9554696" lon="7.6664348">
        <ele>2663</ele>
        <time>2014-01-30T10:50:50Z</time>
      </trkpt>
      <trkpt lat="45.9554513" lon="7.6663769">
        <ele>2658.8</ele>
        <time>2014-01-30T10:50:51Z</time>
      </trkpt>
      <trkpt lat="45.9554706" lon="7.6663056">
        <ele>2656.2</ele>
        <time>2014-01-30T10:50:52Z</time>
      </trkpt>
      <trkpt lat="45.9555049" lon="7.6662567">
        <ele>2655.2</ele>
        <time>2014-01-30T10:50:53Z</time>
      </trkpt>
      <trkpt lat="45.9555413" lon="7.6662145">
        <ele>2654.2</ele>
        <time>2014-01-30T10:50:54Z</time>
      </trkpt>
      <trkpt lat="45.9555669" lon="7.666192">
        <ele>2654.2</ele>
        <time>2014-01-30T10:50:55Z</time>
      </trkpt>
      <trkpt lat="45.9555893" lon="7.6661751">
        <ele>2653.2</ele>
        <time>2014-01-30T10:50:56Z</time>
      </trkpt>
      <trkpt lat="45.9555929" lon="7.666174">
        <ele>2653.2</ele>
        <time>2014-01-30T10:50:58Z</time>
      </trkpt>
      <trkpt lat="45.9556018" lon="7.6661823">
        <ele>2653.2</ele>
        <time>2014-01-30T10:51:08Z</time>
      </trkpt>
      <trkpt lat="45.9556068" lon="7.6661853">
        <ele>2653.2</ele>
        <time>2014-01-30T10:51:16Z</time>
      </trkpt>
      <trkpt lat="45.9556207" lon="7.6661756">
        <ele>2653.2</ele>
        <time>2014-01-30T10:51:23Z</time>
      </trkpt>
      <trkpt lat="45.9556286" lon="7.6661697">
        <ele>2652.2</ele>
        <time>2014-01-30T10:51:26Z</time>
      </trkpt>
      <trkpt lat="45.9556659" lon="7.6661287">
        <ele>2652.2</ele>
        <time>2014-01-30T10:51:31Z</time>
      </trkpt>
      <trkpt lat="45.95569" lon="7.6661067">
        <ele>2651.2</ele>
        <time>2014-01-30T10:51:33Z</time>
      </trkpt>
      <trkpt lat="45.955738" lon="7.6660627">
        <ele>2650</ele>
        <time>2014-01-30T10:51:36Z</time>
      </trkpt>
      <trkpt lat="45.9557593" lon="7.6660467">
        <ele>2650</ele>
        <time>2014-01-30T10:51:37Z</time>
      </trkpt>
      <trkpt lat="45.9557872" lon="7.6660274">
        <ele>2648.8</ele>
        <time>2014-01-30T10:51:38Z</time>
      </trkpt>
      <trkpt lat="45.955811" lon="7.666007">
        <ele>2647.4</ele>
        <time>2014-01-30T10:51:39Z</time>
      </trkpt>
      <trkpt lat="45.955872" lon="7.6659485">
        <ele>2646.2</ele>
        <time>2014-01-30T10:51:41Z</time>
      </trkpt>
      <trkpt lat="45.9558913" lon="7.6659353">
        <ele>2646.2</ele>
        <time>2014-01-30T10:51:42Z</time>
      </trkpt>
      <trkpt lat="45.9558949" lon="7.6659332">
        <ele>2646.2</ele>
        <time>2014-01-30T10:51:46Z</time>
      </trkpt>
      <trkpt lat="45.9559018" lon="7.6659472">
        <ele>2646.2</ele>
        <time>2014-01-30T10:52:06Z</time>
      </trkpt>
      <trkpt lat="45.9559084" lon="7.6659457">
        <ele>2646.2</ele>
        <time>2014-01-30T10:52:14Z</time>
      </trkpt>
      <trkpt lat="45.9559176" lon="7.6659131">
        <ele>2645.2</ele>
        <time>2014-01-30T10:52:16Z</time>
      </trkpt>
      <trkpt lat="45.9559301" lon="7.6658513">
        <ele>2643.8</ele>
        <time>2014-01-30T10:52:18Z</time>
      </trkpt>
      <trkpt lat="45.9559452" lon="7.6658001">
        <ele>2642.6</ele>
        <time>2014-01-30T10:52:19Z</time>
      </trkpt>
      <trkpt lat="45.9559352" lon="7.6657616">
        <ele>2641</ele>
        <time>2014-01-30T10:52:20Z</time>
      </trkpt>
      <trkpt lat="45.955908" lon="7.6657426">
        <ele>2639.8</ele>
        <time>2014-01-30T10:52:21Z</time>
      </trkpt>
      <trkpt lat="45.9559016" lon="7.6657063">
        <ele>2638.6</ele>
        <time>2014-01-30T10:52:22Z</time>
      </trkpt>
      <trkpt lat="45.9559147" lon="7.6656369">
        <ele>2636.6</ele>
        <time>2014-01-30T10:52:23Z</time>
      </trkpt>
      <trkpt lat="45.955922" lon="7.6656033">
        <ele>2634.2</ele>
        <time>2014-01-30T10:52:24Z</time>
      </trkpt>
      <trkpt lat="45.9559006" lon="7.6655925">
        <ele>2634.2</ele>
        <time>2014-01-30T10:52:25Z</time>
      </trkpt>
      <trkpt lat="45.9558957" lon="7.6655516">
        <ele>2633</ele>
        <time>2014-01-30T10:52:26Z</time>
      </trkpt>
      <trkpt lat="45.9559172" lon="7.6655179">
        <ele>2631.6</ele>
        <time>2014-01-30T10:52:27Z</time>
      </trkpt>
      <trkpt lat="45.9559037" lon="7.6655401">
        <ele>2631.6</ele>
        <time>2014-01-30T10:52:28Z</time>
      </trkpt>
      <trkpt lat="45.9559038" lon="7.6655302">
        <ele>2631.6</ele>
        <time>2014-01-30T10:52:33Z</time>
      </trkpt>
      <trkpt lat="45.9558934" lon="7.6655338">
        <ele>2631.6</ele>
        <time>2014-01-30T10:52:39Z</time>
      </trkpt>
      <trkpt lat="45.9558898" lon="7.6655348">
        <ele>2631.6</ele>
        <time>2014-01-30T10:52:46Z</time>
      </trkpt>
      <trkpt lat="45.9558888" lon="7.6655362">
        <ele>2630.6</ele>
        <time>2014-01-30T10:52:47Z</time>
      </trkpt>
      <trkpt lat="45.955879" lon="7.6655128">
        <ele>2630.6</ele>
        <time>2014-01-30T10:52:54Z</time>
      </trkpt>
      <trkpt lat="45.9558835" lon="7.6654691">
        <ele>2629.4</ele>
        <time>2014-01-30T10:52:55Z</time>
      </trkpt>
      <trkpt lat="45.9558992" lon="7.6654425">
        <ele>2629.4</ele>
        <time>2014-01-30T10:52:56Z</time>
      </trkpt>
      <trkpt lat="45.9559183" lon="7.6653972">
        <ele>2628.2</ele>
        <time>2014-01-30T10:52:57Z</time>
      </trkpt>
      <trkpt lat="45.955928" lon="7.6653553">
        <ele>2627.2</ele>
        <time>2014-01-30T10:52:58Z</time>
      </trkpt>
      <trkpt lat="45.9559203" lon="7.665315">
        <ele>2624.4</ele>
        <time>2014-01-30T10:52:59Z</time>
      </trkpt>
      <trkpt lat="45.9558978" lon="7.6653104">
        <ele>2624.4</ele>
        <time>2014-01-30T10:53:00Z</time>
      </trkpt>
      <trkpt lat="45.9558995" lon="7.6652479">
        <ele>2621.6</ele>
        <time>2014-01-30T10:53:01Z</time>
      </trkpt>
      <trkpt lat="45.9558927" lon="7.6652217">
        <ele>2621.6</ele>
        <time>2014-01-30T10:53:02Z</time>
      </trkpt>
      <trkpt lat="45.9558289" lon="7.665163">
        <ele>2619.4</ele>
        <time>2014-01-30T10:53:04Z</time>
      </trkpt>
      <trkpt lat="45.9557612" lon="7.6650504">
        <ele>2618.4</ele>
        <time>2014-01-30T10:53:07Z</time>
      </trkpt>
      <trkpt lat="45.9557713" lon="7.6650062">
        <ele>2617.2</ele>
        <time>2014-01-30T10:53:08Z</time>
      </trkpt>
      <trkpt lat="45.9557755" lon="7.6649355">
        <ele>2615.4</ele>
        <time>2014-01-30T10:53:09Z</time>
      </trkpt>
      <trkpt lat="45.9557587" lon="7.6649259">
        <ele>2613.6</ele>
        <time>2014-01-30T10:53:10Z</time>
      </trkpt>
      <trkpt lat="45.9557484" lon="7.6648823">
        <ele>2612</ele>
        <time>2014-01-30T10:53:11Z</time>
      </trkpt>
      <trkpt lat="45.9557648" lon="7.6648614">
        <ele>2610.6</ele>
        <time>2014-01-30T10:53:12Z</time>
      </trkpt>
      <trkpt lat="45.9557718" lon="7.6648112">
        <ele>2609.4</ele>
        <time>2014-01-30T10:53:13Z</time>
      </trkpt>
      <trkpt lat="45.9557487" lon="7.6647995">
        <ele>2608</ele>
        <time>2014-01-30T10:53:14Z</time>
      </trkpt>
      <trkpt lat="45.9557243" lon="7.6647956">
        <ele>2607</ele>
        <time>2014-01-30T10:53:15Z</time>
      </trkpt>
      <trkpt lat="45.9557072" lon="7.6647746">
        <ele>2605.6</ele>
        <time>2014-01-30T10:53:16Z</time>
      </trkpt>
      <trkpt lat="45.9557214" lon="7.6647353">
        <ele>2604.6</ele>
        <time>2014-01-30T10:53:17Z</time>
      </trkpt>
      <trkpt lat="45.9557535" lon="7.6647024">
        <ele>2603.2</ele>
        <time>2014-01-30T10:53:19Z</time>
      </trkpt>
      <trkpt lat="45.955752" lon="7.6647056">
        <ele>2603.2</ele>
        <time>2014-01-30T10:53:21Z</time>
      </trkpt>
      <trkpt lat="45.9557546" lon="7.6647041">
        <ele>2602</ele>
        <time>2014-01-30T10:53:22Z</time>
      </trkpt>
      <trkpt lat="45.9557521" lon="7.6647091">
        <ele>2600.8</ele>
        <time>2014-01-30T10:53:26Z</time>
      </trkpt>
      <trkpt lat="45.955753" lon="7.664709">
        <ele>2600.8</ele>
        <time>2014-01-30T10:53:28Z</time>
      </trkpt>
      <trkpt lat="45.955753" lon="7.6647112">
        <ele>2599.6</ele>
        <time>2014-01-30T10:53:31Z</time>
      </trkpt>
      <trkpt lat="45.955752" lon="7.6647126">
        <ele>2599.6</ele>
        <time>2014-01-30T10:53:35Z</time>
      </trkpt>
      <trkpt lat="45.9557535" lon="7.6647113">
        <ele>2598.4</ele>
        <time>2014-01-30T10:53:36Z</time>
      </trkpt>
      <trkpt lat="45.9557561" lon="7.6646105">
        <ele>2596.6</ele>
        <time>2014-01-30T10:53:39Z</time>
      </trkpt>
      <trkpt lat="45.9557404" lon="7.6645783">
        <ele>2595.6</ele>
        <time>2014-01-30T10:53:40Z</time>
      </trkpt>
      <trkpt lat="45.9557243" lon="7.6645159">
        <ele>2594</ele>
        <time>2014-01-30T10:53:41Z</time>
      </trkpt>
      <trkpt lat="45.9557183" lon="7.6644688">
        <ele>2592</ele>
        <time>2014-01-30T10:53:42Z</time>
      </trkpt>
      <trkpt lat="45.9557042" lon="7.6643627">
        <ele>2589.6</ele>
        <time>2014-01-30T10:53:43Z</time>
      </trkpt>
      <trkpt lat="45.9557169" lon="7.6643077">
        <ele>2587</ele>
        <time>2014-01-30T10:53:44Z</time>
      </trkpt>
      <trkpt lat="45.9557" lon="7.6642308">
        <ele>2584.2</ele>
        <time>2014-01-30T10:53:45Z</time>
      </trkpt>
      <trkpt lat="45.9556703" lon="7.6642312">
        <ele>2580.8</ele>
        <time>2014-01-30T10:53:46Z</time>
      </trkpt>
      <trkpt lat="45.9556601" lon="7.6642277">
        <ele>2580.8</ele>
        <time>2014-01-30T10:53:47Z</time>
      </trkpt>
      <trkpt lat="45.9556509" lon="7.6642225">
        <ele>2580.8</ele>
        <time>2014-01-30T10:53:51Z</time>
      </trkpt>
      <trkpt lat="45.9556141" lon="7.6641828">
        <ele>2580.8</ele>
        <time>2014-01-30T10:53:57Z</time>
      </trkpt>
      <trkpt lat="45.9556303" lon="7.6641796">
        <ele>2580.8</ele>
        <time>2014-01-30T10:53:58Z</time>
      </trkpt>
      <trkpt lat="45.9556494" lon="7.6641857">
        <ele>2580.8</ele>
        <time>2014-01-30T10:54:03Z</time>
      </trkpt>
      <trkpt lat="45.9556557" lon="7.6641928">
        <ele>2580.8</ele>
        <time>2014-01-30T10:54:14Z</time>
      </trkpt>
      <trkpt lat="45.9556593" lon="7.6641953">
        <ele>2580.8</ele>
        <time>2014-01-30T10:54:20Z</time>
      </trkpt>
      <trkpt lat="45.9556615" lon="7.6642014">
        <ele>2580.8</ele>
        <time>2014-01-30T10:54:29Z</time>
      </trkpt>
      <trkpt lat="45.9556646" lon="7.664201">
        <ele>2580.8</ele>
        <time>2014-01-30T10:54:36Z</time>
      </trkpt>
      <trkpt lat="45.9556666" lon="7.6642021">
        <ele>2580.8</ele>
        <time>2014-01-30T10:54:41Z</time>
      </trkpt>
      <trkpt lat="45.9556883" lon="7.6641861">
        <ele>2580.8</ele>
        <time>2014-01-30T10:54:53Z</time>
      </trkpt>
      <trkpt lat="45.9557007" lon="7.6641715">
        <ele>2578.8</ele>
        <time>2014-01-30T10:54:54Z</time>
      </trkpt>
      <trkpt lat="45.9557488" lon="7.6641081">
        <ele>2577.8</ele>
        <time>2014-01-30T10:54:56Z</time>
      </trkpt>
      <trkpt lat="45.9557795" lon="7.6640606">
        <ele>2577.8</ele>
        <time>2014-01-30T10:54:57Z</time>
      </trkpt>
      <trkpt lat="45.9558348" lon="7.6639794">
        <ele>2576.8</ele>
        <time>2014-01-30T10:54:59Z</time>
      </trkpt>
      <trkpt lat="45.9559154" lon="7.6638822">
        <ele>2576.8</ele>
        <time>2014-01-30T10:55:03Z</time>
      </trkpt>
      <trkpt lat="45.9559759" lon="7.663804">
        <ele>2576.8</ele>
        <time>2014-01-30T10:55:10Z</time>
      </trkpt>
      <trkpt lat="45.9559846" lon="7.6637943">
        <ele>2576.8</ele>
        <time>2014-01-30T10:55:11Z</time>
      </trkpt>
      <trkpt lat="45.9559919" lon="7.6637897">
        <ele>2576.8</ele>
        <time>2014-01-30T10:55:16Z</time>
      </trkpt>
      <trkpt lat="45.9559986" lon="7.6637849">
        <ele>2576.8</ele>
        <time>2014-01-30T10:55:24Z</time>
      </trkpt>
      <trkpt lat="45.9560177" lon="7.6637561">
        <ele>2575.8</ele>
        <time>2014-01-30T10:55:26Z</time>
      </trkpt>
      <trkpt lat="45.9560498" lon="7.6637018">
        <ele>2575.8</ele>
        <time>2014-01-30T10:55:28Z</time>
      </trkpt>
      <trkpt lat="45.9560751" lon="7.6636653">
        <ele>2574.6</ele>
        <time>2014-01-30T10:55:29Z</time>
      </trkpt>
      <trkpt lat="45.9561287" lon="7.6635389">
        <ele>2570.8</ele>
        <time>2014-01-30T10:55:31Z</time>
      </trkpt>
      <trkpt lat="45.9561277" lon="7.663465">
        <ele>2568.8</ele>
        <time>2014-01-30T10:55:32Z</time>
      </trkpt>
      <trkpt lat="45.9561247" lon="7.6632804">
        <ele>2564.4</ele>
        <time>2014-01-30T10:55:33Z</time>
      </trkpt>
      <trkpt lat="45.9560889" lon="7.6631937">
        <ele>2562</ele>
        <time>2014-01-30T10:55:34Z</time>
      </trkpt>
      <trkpt lat="45.9560606" lon="7.6630318">
        <ele>2560.2</ele>
        <time>2014-01-30T10:55:35Z</time>
      </trkpt>
      <trkpt lat="45.956014" lon="7.6629291">
        <ele>2559</ele>
        <time>2014-01-30T10:55:36Z</time>
      </trkpt>
      <trkpt lat="45.9559705" lon="7.6627771">
        <ele>2555.8</ele>
        <time>2014-01-30T10:55:37Z</time>
      </trkpt>
      <trkpt lat="45.9559347" lon="7.6626695">
        <ele>2554.2</ele>
        <time>2014-01-30T10:55:38Z</time>
      </trkpt>
      <trkpt lat="45.9558742" lon="7.6625474">
        <ele>2553</ele>
        <time>2014-01-30T10:55:39Z</time>
      </trkpt>
      <trkpt lat="45.9558764" lon="7.662459">
        <ele>2549.6</ele>
        <time>2014-01-30T10:55:40Z</time>
      </trkpt>
      <trkpt lat="45.9558304" lon="7.6623782">
        <ele>2548.2</ele>
        <time>2014-01-30T10:55:41Z</time>
      </trkpt>
      <trkpt lat="45.955809" lon="7.6623378">
        <ele>2548.2</ele>
        <time>2014-01-30T10:55:42Z</time>
      </trkpt>
      <trkpt lat="45.9558055" lon="7.6622279">
        <ele>2545.2</ele>
        <time>2014-01-30T10:55:43Z</time>
      </trkpt>
      <trkpt lat="45.9557732" lon="7.6621881">
        <ele>2543.8</ele>
        <time>2014-01-30T10:55:44Z</time>
      </trkpt>
      <trkpt lat="45.9557427" lon="7.6621088">
        <ele>2542.4</ele>
        <time>2014-01-30T10:55:45Z</time>
      </trkpt>
      <trkpt lat="45.9557577" lon="7.6620382">
        <ele>2539.2</ele>
        <time>2014-01-30T10:55:46Z</time>
      </trkpt>
      <trkpt lat="45.9557646" lon="7.6619175">
        <ele>2537.4</ele>
        <time>2014-01-30T10:55:47Z</time>
      </trkpt>
      <trkpt lat="45.9557656" lon="7.6618013">
        <ele>2534.8</ele>
        <time>2014-01-30T10:55:48Z</time>
      </trkpt>
      <trkpt lat="45.9557695" lon="7.6616213">
        <ele>2529.6</ele>
        <time>2014-01-30T10:55:49Z</time>
      </trkpt>
      <trkpt lat="45.9557823" lon="7.6614768">
        <ele>2525.8</ele>
        <time>2014-01-30T10:55:50Z</time>
      </trkpt>
      <trkpt lat="45.9558126" lon="7.6612467">
        <ele>2521.4</ele>
        <time>2014-01-30T10:55:51Z</time>
      </trkpt>
      <trkpt lat="45.9558384" lon="7.6611184">
        <ele>2519</ele>
        <time>2014-01-30T10:55:52Z</time>
      </trkpt>
      <trkpt lat="45.9558866" lon="7.6608658">
        <ele>2517.4</ele>
        <time>2014-01-30T10:55:53Z</time>
      </trkpt>
      <trkpt lat="45.955951" lon="7.6605139">
        <ele>2516.2</ele>
        <time>2014-01-30T10:55:55Z</time>
      </trkpt>
      <trkpt lat="45.9559652" lon="7.6603892">
        <ele>2514.6</ele>
        <time>2014-01-30T10:55:56Z</time>
      </trkpt>
      <trkpt lat="45.955948" lon="7.6602052">
        <ele>2511.4</ele>
        <time>2014-01-30T10:55:57Z</time>
      </trkpt>
      <trkpt lat="45.9558871" lon="7.6601074">
        <ele>2508</ele>
        <time>2014-01-30T10:55:58Z</time>
      </trkpt>
      <trkpt lat="45.9558059" lon="7.6599741">
        <ele>2505.2</ele>
        <time>2014-01-30T10:55:59Z</time>
      </trkpt>
      <trkpt lat="45.9557589" lon="7.6598945">
        <ele>2502.8</ele>
        <time>2014-01-30T10:56:00Z</time>
      </trkpt>
      <trkpt lat="45.9556228" lon="7.6597917">
        <ele>2500.8</ele>
        <time>2014-01-30T10:56:01Z</time>
      </trkpt>
      <trkpt lat="45.9555576" lon="7.6597301">
        <ele>2496.8</ele>
        <time>2014-01-30T10:56:02Z</time>
      </trkpt>
      <trkpt lat="45.9554054" lon="7.6595818">
        <ele>2491</ele>
        <time>2014-01-30T10:56:03Z</time>
      </trkpt>
      <trkpt lat="45.9551775" lon="7.6594094">
        <ele>2487.6</ele>
        <time>2014-01-30T10:56:05Z</time>
      </trkpt>
      <trkpt lat="45.9550739" lon="7.6593717">
        <ele>2485.8</ele>
        <time>2014-01-30T10:56:06Z</time>
      </trkpt>
      <trkpt lat="45.9549492" lon="7.6593064">
        <ele>2484.4</ele>
        <time>2014-01-30T10:56:07Z</time>
      </trkpt>
      <trkpt lat="45.9548688" lon="7.6592239">
        <ele>2481.4</ele>
        <time>2014-01-30T10:56:08Z</time>
      </trkpt>
      <trkpt lat="45.9547366" lon="7.6591598">
        <ele>2480.4</ele>
        <time>2014-01-30T10:56:09Z</time>
      </trkpt>
      <trkpt lat="45.9546554" lon="7.6591026">
        <ele>2478.8</ele>
        <time>2014-01-30T10:56:10Z</time>
      </trkpt>
      <trkpt lat="45.9545456" lon="7.6590085">
        <ele>2476.2</ele>
        <time>2014-01-30T10:56:11Z</time>
      </trkpt>
      <trkpt lat="45.9543438" lon="7.6588763">
        <ele>2474</ele>
        <time>2014-01-30T10:56:13Z</time>
      </trkpt>
      <trkpt lat="45.9542811" lon="7.6588552">
        <ele>2474</ele>
        <time>2014-01-30T10:56:14Z</time>
      </trkpt>
      <trkpt lat="45.954199" lon="7.6588334">
        <ele>2474</ele>
        <time>2014-01-30T10:56:15Z</time>
      </trkpt>
      <trkpt lat="45.9540626" lon="7.6587775">
        <ele>2472.8</ele>
        <time>2014-01-30T10:56:17Z</time>
      </trkpt>
      <trkpt lat="45.9538787" lon="7.658693">
        <ele>2471.6</ele>
        <time>2014-01-30T10:56:19Z</time>
      </trkpt>
      <trkpt lat="45.9538128" lon="7.6586269">
        <ele>2470.4</ele>
        <time>2014-01-30T10:56:20Z</time>
      </trkpt>
      <trkpt lat="45.953695" lon="7.6585137">
        <ele>2469.4</ele>
        <time>2014-01-30T10:56:21Z</time>
      </trkpt>
      <trkpt lat="45.9536219" lon="7.6584484">
        <ele>2468.2</ele>
        <time>2014-01-30T10:56:22Z</time>
      </trkpt>
      <trkpt lat="45.9534232" lon="7.6582423">
        <ele>2467</ele>
        <time>2014-01-30T10:56:24Z</time>
      </trkpt>
      <trkpt lat="45.9532508" lon="7.658076">
        <ele>2465.8</ele>
        <time>2014-01-30T10:56:26Z</time>
      </trkpt>
      <trkpt lat="45.9530516" lon="7.657936">
        <ele>2465.8</ele>
        <time>2014-01-30T10:56:29Z</time>
      </trkpt>
      <trkpt lat="45.9527595" lon="7.6577352">
        <ele>2464.8</ele>
        <time>2014-01-30T10:56:35Z</time>
      </trkpt>
      <trkpt lat="45.9526219" lon="7.6576544">
        <ele>2463.6</ele>
        <time>2014-01-30T10:56:38Z</time>
      </trkpt>
      <trkpt lat="45.9525535" lon="7.6576193">
        <ele>2462.6</ele>
        <time>2014-01-30T10:56:39Z</time>
      </trkpt>
      <trkpt lat="45.9524935" lon="7.6575944">
        <ele>2461.4</ele>
        <time>2014-01-30T10:56:40Z</time>
      </trkpt>
      <trkpt lat="45.9524067" lon="7.6575616">
        <ele>2460.2</ele>
        <time>2014-01-30T10:56:41Z</time>
      </trkpt>
      <trkpt lat="45.9523505" lon="7.6575295">
        <ele>2458.8</ele>
        <time>2014-01-30T10:56:42Z</time>
      </trkpt>
      <trkpt lat="45.9522353" lon="7.65746">
        <ele>2457.4</ele>
        <time>2014-01-30T10:56:43Z</time>
      </trkpt>
      <trkpt lat="45.9521706" lon="7.6574199">
        <ele>2455.8</ele>
        <time>2014-01-30T10:56:44Z</time>
      </trkpt>
      <trkpt lat="45.9520721" lon="7.65735">
        <ele>2454.4</ele>
        <time>2014-01-30T10:56:45Z</time>
      </trkpt>
      <trkpt lat="45.9519994" lon="7.6572866">
        <ele>2453</ele>
        <time>2014-01-30T10:56:46Z</time>
      </trkpt>
      <trkpt lat="45.9519079" lon="7.6571958">
        <ele>2451.6</ele>
        <time>2014-01-30T10:56:47Z</time>
      </trkpt>
      <trkpt lat="45.951841" lon="7.657122">
        <ele>2450.2</ele>
        <time>2014-01-30T10:56:48Z</time>
      </trkpt>
      <trkpt lat="45.9517612" lon="7.6569975">
        <ele>2448.8</ele>
        <time>2014-01-30T10:56:49Z</time>
      </trkpt>
      <trkpt lat="45.9516994" lon="7.6569118">
        <ele>2447.4</ele>
        <time>2014-01-30T10:56:50Z</time>
      </trkpt>
      <trkpt lat="45.9516276" lon="7.6567805">
        <ele>2446</ele>
        <time>2014-01-30T10:56:51Z</time>
      </trkpt>
      <trkpt lat="45.9515809" lon="7.6567152">
        <ele>2444.8</ele>
        <time>2014-01-30T10:56:52Z</time>
      </trkpt>
      <trkpt lat="45.951503" lon="7.656566">
        <ele>2443.6</ele>
        <time>2014-01-30T10:56:53Z</time>
      </trkpt>
      <trkpt lat="45.9514567" lon="7.6564912">
        <ele>2442.2</ele>
        <time>2014-01-30T10:56:54Z</time>
      </trkpt>
      <trkpt lat="45.9514218" lon="7.656354">
        <ele>2441.2</ele>
        <time>2014-01-30T10:56:55Z</time>
      </trkpt>
      <trkpt lat="45.9513819" lon="7.6562977">
        <ele>2439.6</ele>
        <time>2014-01-30T10:56:56Z</time>
      </trkpt>
      <trkpt lat="45.9513488" lon="7.6562232">
        <ele>2437.8</ele>
        <time>2014-01-30T10:56:57Z</time>
      </trkpt>
      <trkpt lat="45.9513406" lon="7.6561525">
        <ele>2436.4</ele>
        <time>2014-01-30T10:56:58Z</time>
      </trkpt>
      <trkpt lat="45.9513034" lon="7.6560811">
        <ele>2435.2</ele>
        <time>2014-01-30T10:56:59Z</time>
      </trkpt>
      <trkpt lat="45.9512689" lon="7.6559305">
        <ele>2431.4</ele>
        <time>2014-01-30T10:57:01Z</time>
      </trkpt>
      <trkpt lat="45.9512701" lon="7.6558726">
        <ele>2429.6</ele>
        <time>2014-01-30T10:57:02Z</time>
      </trkpt>
      <trkpt lat="45.9512447" lon="7.6557597">
        <ele>2427.6</ele>
        <time>2014-01-30T10:57:03Z</time>
      </trkpt>
      <trkpt lat="45.9512304" lon="7.6556872">
        <ele>2424.6</ele>
        <time>2014-01-30T10:57:04Z</time>
      </trkpt>
      <trkpt lat="45.9511992" lon="7.6555747">
        <ele>2423.2</ele>
        <time>2014-01-30T10:57:05Z</time>
      </trkpt>
      <trkpt lat="45.9511762" lon="7.6554988">
        <ele>2419.4</ele>
        <time>2014-01-30T10:57:06Z</time>
      </trkpt>
      <trkpt lat="45.9511207" lon="7.6554018">
        <ele>2417.8</ele>
        <time>2014-01-30T10:57:07Z</time>
      </trkpt>
      <trkpt lat="45.9510769" lon="7.6553978">
        <ele>2416.4</ele>
        <time>2014-01-30T10:57:08Z</time>
      </trkpt>
      <trkpt lat="45.9510006" lon="7.6552728">
        <ele>2413.4</ele>
        <time>2014-01-30T10:57:10Z</time>
      </trkpt>
      <trkpt lat="45.9509645" lon="7.6551776">
        <ele>2410</ele>
        <time>2014-01-30T10:57:11Z</time>
      </trkpt>
      <trkpt lat="45.9509298" lon="7.6551016">
        <ele>2408.2</ele>
        <time>2014-01-30T10:57:12Z</time>
      </trkpt>
      <trkpt lat="45.9508678" lon="7.6549944">
        <ele>2405.6</ele>
        <time>2014-01-30T10:57:13Z</time>
      </trkpt>
      <trkpt lat="45.9508198" lon="7.6548792">
        <ele>2402.6</ele>
        <time>2014-01-30T10:57:14Z</time>
      </trkpt>
      <trkpt lat="45.9507361" lon="7.6547783">
        <ele>2398</ele>
        <time>2014-01-30T10:57:15Z</time>
      </trkpt>
      <trkpt lat="45.950676" lon="7.6546624">
        <ele>2391.2</ele>
        <time>2014-01-30T10:57:16Z</time>
      </trkpt>
      <trkpt lat="45.9505639" lon="7.6545398">
        <ele>2388.2</ele>
        <time>2014-01-30T10:57:17Z</time>
      </trkpt>
      <trkpt lat="45.950469" lon="7.6544411">
        <ele>2385.4</ele>
        <time>2014-01-30T10:57:18Z</time>
      </trkpt>
      <trkpt lat="45.9503454" lon="7.6542522">
        <ele>2379.6</ele>
        <time>2014-01-30T10:57:19Z</time>
      </trkpt>
      <trkpt lat="45.9502549" lon="7.6541337">
        <ele>2375.4</ele>
        <time>2014-01-30T10:57:20Z</time>
      </trkpt>
      <trkpt lat="45.950154" lon="7.6539215">
        <ele>2370.4</ele>
        <time>2014-01-30T10:57:21Z</time>
      </trkpt>
      <trkpt lat="45.9499612" lon="7.6536247">
        <ele>2367.2</ele>
        <time>2014-01-30T10:57:23Z</time>
      </trkpt>
      <trkpt lat="45.9498972" lon="7.6535428">
        <ele>2365</ele>
        <time>2014-01-30T10:57:24Z</time>
      </trkpt>
      <trkpt lat="45.9497882" lon="7.6533406">
        <ele>2362.4</ele>
        <time>2014-01-30T10:57:25Z</time>
      </trkpt>
      <trkpt lat="45.949736" lon="7.6532347">
        <ele>2360.2</ele>
        <time>2014-01-30T10:57:26Z</time>
      </trkpt>
      <trkpt lat="45.9496172" lon="7.6530748">
        <ele>2359</ele>
        <time>2014-01-30T10:57:27Z</time>
      </trkpt>
      <trkpt lat="45.9495379" lon="7.6530047">
        <ele>2357.6</ele>
        <time>2014-01-30T10:57:28Z</time>
      </trkpt>
      <trkpt lat="45.9493969" lon="7.6528772">
        <ele>2354.4</ele>
        <time>2014-01-30T10:57:29Z</time>
      </trkpt>
      <trkpt lat="45.9493385" lon="7.6528047">
        <ele>2352.6</ele>
        <time>2014-01-30T10:57:30Z</time>
      </trkpt>
      <trkpt lat="45.9492142" lon="7.6526071">
        <ele>2351.2</ele>
        <time>2014-01-30T10:57:31Z</time>
      </trkpt>
      <trkpt lat="45.949183" lon="7.6525137">
        <ele>2350</ele>
        <time>2014-01-30T10:57:32Z</time>
      </trkpt>
      <trkpt lat="45.9491142" lon="7.6522966">
        <ele>2349</ele>
        <time>2014-01-30T10:57:33Z</time>
      </trkpt>
      <trkpt lat="45.949097" lon="7.6521954">
        <ele>2347.6</ele>
        <time>2014-01-30T10:57:34Z</time>
      </trkpt>
      <trkpt lat="45.9490569" lon="7.6519998">
        <ele>2346.2</ele>
        <time>2014-01-30T10:57:35Z</time>
      </trkpt>
      <trkpt lat="45.949021" lon="7.6516965">
        <ele>2343</ele>
        <time>2014-01-30T10:57:37Z</time>
      </trkpt>
      <trkpt lat="45.9489917" lon="7.6515833">
        <ele>2341</ele>
        <time>2014-01-30T10:57:38Z</time>
      </trkpt>
      <trkpt lat="45.9489429" lon="7.6513761">
        <ele>2337.4</ele>
        <time>2014-01-30T10:57:39Z</time>
      </trkpt>
      <trkpt lat="45.948907" lon="7.6512336">
        <ele>2335</ele>
        <time>2014-01-30T10:57:40Z</time>
      </trkpt>
      <trkpt lat="45.9488744" lon="7.6510409">
        <ele>2332.4</ele>
        <time>2014-01-30T10:57:41Z</time>
      </trkpt>
      <trkpt lat="45.9488393" lon="7.6509332">
        <ele>2330.2</ele>
        <time>2014-01-30T10:57:42Z</time>
      </trkpt>
      <trkpt lat="45.9487928" lon="7.6506941">
        <ele>2328.2</ele>
        <time>2014-01-30T10:57:43Z</time>
      </trkpt>
      <trkpt lat="45.9487543" lon="7.6505953">
        <ele>2324.6</ele>
        <time>2014-01-30T10:57:44Z</time>
      </trkpt>
      <trkpt lat="45.948709" lon="7.6503948">
        <ele>2323.4</ele>
        <time>2014-01-30T10:57:45Z</time>
      </trkpt>
      <trkpt lat="45.9486529" lon="7.6502941">
        <ele>2322.4</ele>
        <time>2014-01-30T10:57:46Z</time>
      </trkpt>
      <trkpt lat="45.9485814" lon="7.6501072">
        <ele>2318.6</ele>
        <time>2014-01-30T10:57:47Z</time>
      </trkpt>
      <trkpt lat="45.9485134" lon="7.6499979">
        <ele>2316</ele>
        <time>2014-01-30T10:57:48Z</time>
      </trkpt>
      <trkpt lat="45.9484231" lon="7.6498208">
        <ele>2312.8</ele>
        <time>2014-01-30T10:57:49Z</time>
      </trkpt>
      <trkpt lat="45.9483402" lon="7.6497249">
        <ele>2309.6</ele>
        <time>2014-01-30T10:57:50Z</time>
      </trkpt>
      <trkpt lat="45.9482222" lon="7.6495762">
        <ele>2307.6</ele>
        <time>2014-01-30T10:57:51Z</time>
      </trkpt>
      <trkpt lat="45.9481625" lon="7.6495019">
        <ele>2305.8</ele>
        <time>2014-01-30T10:57:52Z</time>
      </trkpt>
      <trkpt lat="45.9480156" lon="7.6493692">
        <ele>2305.8</ele>
        <time>2014-01-30T10:57:53Z</time>
      </trkpt>
      <trkpt lat="45.9479605" lon="7.6492869">
        <ele>2304.2</ele>
        <time>2014-01-30T10:57:54Z</time>
      </trkpt>
      <trkpt lat="45.9478562" lon="7.6491879">
        <ele>2303</ele>
        <time>2014-01-30T10:57:55Z</time>
      </trkpt>
      <trkpt lat="45.947812" lon="7.6491556">
        <ele>2303</ele>
        <time>2014-01-30T10:57:56Z</time>
      </trkpt>
      <trkpt lat="45.9477518" lon="7.6491">
        <ele>2303</ele>
        <time>2014-01-30T10:57:57Z</time>
      </trkpt>
      <trkpt lat="45.9477197" lon="7.6491125">
        <ele>2303</ele>
        <time>2014-01-30T10:57:58Z</time>
      </trkpt>
      <trkpt lat="45.9476963" lon="7.6491525">
        <ele>2303</ele>
        <time>2014-01-30T10:57:59Z</time>
      </trkpt>
      <trkpt lat="45.947713" lon="7.6492081">
        <ele>2303</ele>
        <time>2014-01-30T10:58:02Z</time>
      </trkpt>
      <trkpt lat="45.9477252" lon="7.6492275">
        <ele>2303</ele>
        <time>2014-01-30T10:58:08Z</time>
      </trkpt>
      <trkpt lat="45.947773" lon="7.6493339">
        <ele>2303</ele>
        <time>2014-01-30T10:58:15Z</time>
      </trkpt>
      <trkpt lat="45.9477836" lon="7.6493528">
        <ele>2303</ele>
        <time>2014-01-30T10:58:20Z</time>
      </trkpt>
      <trkpt lat="45.9478125" lon="7.6493892">
        <ele>2303</ele>
        <time>2014-01-30T10:58:29Z</time>
      </trkpt>
      <trkpt lat="45.9478371" lon="7.6494202">
        <ele>2303</ele>
        <time>2014-01-30T10:58:37Z</time>
      </trkpt>
      <trkpt lat="45.9478525" lon="7.6494724">
        <ele>2303</ele>
        <time>2014-01-30T10:58:42Z</time>
      </trkpt>
      <trkpt lat="45.9478979" lon="7.6495341">
        <ele>2303</ele>
        <time>2014-01-30T10:58:47Z</time>
      </trkpt>
      <trkpt lat="45.9479179" lon="7.6495875">
        <ele>2303</ele>
        <time>2014-01-30T10:58:48Z</time>
      </trkpt>
      <trkpt lat="45.9480204" lon="7.6498274">
        <ele>2307.8</ele>
        <time>2014-01-30T10:58:53Z</time>
      </trkpt>
      <trkpt lat="45.9480363" lon="7.6498672">
        <ele>2309</ele>
        <time>2014-01-30T10:58:54Z</time>
      </trkpt>
      <trkpt lat="45.9480611" lon="7.6499231">
        <ele>2310.4</ele>
        <time>2014-01-30T10:58:55Z</time>
      </trkpt>
      <trkpt lat="45.948077" lon="7.6499609">
        <ele>2312</ele>
        <time>2014-01-30T10:58:56Z</time>
      </trkpt>
      <trkpt lat="45.9480986" lon="7.6500125">
        <ele>2314.6</ele>
        <time>2014-01-30T10:58:57Z</time>
      </trkpt>
      <trkpt lat="45.9481145" lon="7.650049">
        <ele>2316</ele>
        <time>2014-01-30T10:58:58Z</time>
      </trkpt>
      <trkpt lat="45.9481752" lon="7.6501887">
        <ele>2319</ele>
        <time>2014-01-30T10:59:01Z</time>
      </trkpt>
      <trkpt lat="45.9481872" lon="7.6502194">
        <ele>2320.4</ele>
        <time>2014-01-30T10:59:02Z</time>
      </trkpt>
      <trkpt lat="45.9482207" lon="7.6502903">
        <ele>2320.4</ele>
        <time>2014-01-30T10:59:03Z</time>
      </trkpt>
      <trkpt lat="45.9482323" lon="7.6503185">
        <ele>2321.6</ele>
        <time>2014-01-30T10:59:04Z</time>
      </trkpt>
      <trkpt lat="45.9482733" lon="7.650411">
        <ele>2322.8</ele>
        <time>2014-01-30T10:59:06Z</time>
      </trkpt>
      <trkpt lat="45.948317" lon="7.6505074">
        <ele>2324.2</ele>
        <time>2014-01-30T10:59:08Z</time>
      </trkpt>
      <trkpt lat="45.9483412" lon="7.6505626">
        <ele>2325.2</ele>
        <time>2014-01-30T10:59:09Z</time>
      </trkpt>
      <trkpt lat="45.9483815" lon="7.6506487">
        <ele>2326.4</ele>
        <time>2014-01-30T10:59:11Z</time>
      </trkpt>
      <trkpt lat="45.9484236" lon="7.6507436">
        <ele>2328</ele>
        <time>2014-01-30T10:59:13Z</time>
      </trkpt>
      <trkpt lat="45.9484643" lon="7.6508282">
        <ele>2329.4</ele>
        <time>2014-01-30T10:59:15Z</time>
      </trkpt>
      <trkpt lat="45.9485045" lon="7.6509107">
        <ele>2330.8</ele>
        <time>2014-01-30T10:59:17Z</time>
      </trkpt>
      <trkpt lat="45.9485479" lon="7.6509987">
        <ele>2332.4</ele>
        <time>2014-01-30T10:59:19Z</time>
      </trkpt>
      <trkpt lat="45.9485614" lon="7.6510271">
        <ele>2332.4</ele>
        <time>2014-01-30T10:59:20Z</time>
      </trkpt>
      <trkpt lat="45.948589" lon="7.6510808">
        <ele>2334</ele>
        <time>2014-01-30T10:59:21Z</time>
      </trkpt>
      <trkpt lat="45.9486439" lon="7.6512015">
        <ele>2335.2</ele>
        <time>2014-01-30T10:59:24Z</time>
      </trkpt>
      <trkpt lat="45.9486722" lon="7.6512642">
        <ele>2336.2</ele>
        <time>2014-01-30T10:59:25Z</time>
      </trkpt>
      <trkpt lat="45.9487122" lon="7.6513542">
        <ele>2337.6</ele>
        <time>2014-01-30T10:59:27Z</time>
      </trkpt>
      <trkpt lat="45.9487525" lon="7.6514434">
        <ele>2338.8</ele>
        <time>2014-01-30T10:59:29Z</time>
      </trkpt>
      <trkpt lat="45.9487955" lon="7.651536">
        <ele>2340</ele>
        <time>2014-01-30T10:59:31Z</time>
      </trkpt>
      <trkpt lat="45.9488356" lon="7.651624">
        <ele>2341.4</ele>
        <time>2014-01-30T10:59:33Z</time>
      </trkpt>
      <trkpt lat="45.9488765" lon="7.6517053">
        <ele>2342.8</ele>
        <time>2014-01-30T10:59:35Z</time>
      </trkpt>
      <trkpt lat="45.948891" lon="7.6517326">
        <ele>2342.8</ele>
        <time>2014-01-30T10:59:36Z</time>
      </trkpt>
      <trkpt lat="45.9489089" lon="7.6517691">
        <ele>2342.8</ele>
        <time>2014-01-30T10:59:37Z</time>
      </trkpt>
      <trkpt lat="45.9489383" lon="7.6518319">
        <ele>2343.8</ele>
        <time>2014-01-30T10:59:38Z</time>
      </trkpt>
      <trkpt lat="45.9490438" lon="7.6520632">
        <ele>2344.8</ele>
        <time>2014-01-30T10:59:43Z</time>
      </trkpt>
      <trkpt lat="45.9490835" lon="7.6521512">
        <ele>2344.8</ele>
        <time>2014-01-30T10:59:45Z</time>
      </trkpt>
      <trkpt lat="45.9491241" lon="7.6522404">
        <ele>2345.8</ele>
        <time>2014-01-30T10:59:47Z</time>
      </trkpt>
      <trkpt lat="45.9491896" lon="7.6523847">
        <ele>2347</ele>
        <time>2014-01-30T10:59:50Z</time>
      </trkpt>
      <trkpt lat="45.9492301" lon="7.6524719">
        <ele>2348</ele>
        <time>2014-01-30T10:59:52Z</time>
      </trkpt>
      <trkpt lat="45.9492867" lon="7.6525953">
        <ele>2349</ele>
        <time>2014-01-30T10:59:55Z</time>
      </trkpt>
      <trkpt lat="45.9493268" lon="7.652682">
        <ele>2350</ele>
        <time>2014-01-30T10:59:57Z</time>
      </trkpt>
      <trkpt lat="45.9493551" lon="7.6527447">
        <ele>2350</ele>
        <time>2014-01-30T10:59:58Z</time>
      </trkpt>
      <trkpt lat="45.9493967" lon="7.6528293">
        <ele>2351.6</ele>
        <time>2014-01-30T11:00:00Z</time>
      </trkpt>
      <trkpt lat="45.9494377" lon="7.652914">
        <ele>2352.8</ele>
        <time>2014-01-30T11:00:02Z</time>
      </trkpt>
      <trkpt lat="45.9494808" lon="7.653001">
        <ele>2353.8</ele>
        <time>2014-01-30T11:00:04Z</time>
      </trkpt>
      <trkpt lat="45.949521" lon="7.6530891">
        <ele>2355.2</ele>
        <time>2014-01-30T11:00:06Z</time>
      </trkpt>
      <trkpt lat="45.9495333" lon="7.6531181">
        <ele>2356.4</ele>
        <time>2014-01-30T11:00:07Z</time>
      </trkpt>
      <trkpt lat="45.9495641" lon="7.6531855">
        <ele>2357.6</ele>
        <time>2014-01-30T11:00:08Z</time>
      </trkpt>
      <trkpt lat="45.9496033" lon="7.6532767">
        <ele>2359.6</ele>
        <time>2014-01-30T11:00:10Z</time>
      </trkpt>
      <trkpt lat="45.9496147" lon="7.6533046">
        <ele>2360.8</ele>
        <time>2014-01-30T11:00:11Z</time>
      </trkpt>
      <trkpt lat="45.9496579" lon="7.653401">
        <ele>2362</ele>
        <time>2014-01-30T11:00:13Z</time>
      </trkpt>
      <trkpt lat="45.9496975" lon="7.6534908">
        <ele>2363.2</ele>
        <time>2014-01-30T11:00:15Z</time>
      </trkpt>
      <trkpt lat="45.9497245" lon="7.653551">
        <ele>2364.2</ele>
        <time>2014-01-30T11:00:16Z</time>
      </trkpt>
      <trkpt lat="45.9497369" lon="7.653579">
        <ele>2364.2</ele>
        <time>2014-01-30T11:00:17Z</time>
      </trkpt>
      <trkpt lat="45.9497661" lon="7.6536438">
        <ele>2365.4</ele>
        <time>2014-01-30T11:00:18Z</time>
      </trkpt>
      <trkpt lat="45.9497807" lon="7.6536782">
        <ele>2366.6</ele>
        <time>2014-01-30T11:00:19Z</time>
      </trkpt>
      <trkpt lat="45.9498184" lon="7.6537615">
        <ele>2368</ele>
        <time>2014-01-30T11:00:21Z</time>
      </trkpt>
      <trkpt lat="45.9498443" lon="7.6538188">
        <ele>2369.4</ele>
        <time>2014-01-30T11:00:22Z</time>
      </trkpt>
      <trkpt lat="45.949858" lon="7.6538509">
        <ele>2370.6</ele>
        <time>2014-01-30T11:00:23Z</time>
      </trkpt>
      <trkpt lat="45.949899" lon="7.6539414">
        <ele>2371.8</ele>
        <time>2014-01-30T11:00:25Z</time>
      </trkpt>
      <trkpt lat="45.9499265" lon="7.6540015">
        <ele>2373.2</ele>
        <time>2014-01-30T11:00:26Z</time>
      </trkpt>
      <trkpt lat="45.9499385" lon="7.6540305">
        <ele>2373.2</ele>
        <time>2014-01-30T11:00:27Z</time>
      </trkpt>
      <trkpt lat="45.9499649" lon="7.6540901">
        <ele>2374.6</ele>
        <time>2014-01-30T11:00:28Z</time>
      </trkpt>
      <trkpt lat="45.9499772" lon="7.6541159">
        <ele>2376.8</ele>
        <time>2014-01-30T11:00:29Z</time>
      </trkpt>
      <trkpt lat="45.9500038" lon="7.6541736">
        <ele>2378.2</ele>
        <time>2014-01-30T11:00:30Z</time>
      </trkpt>
      <trkpt lat="45.9500426" lon="7.654263">
        <ele>2379.6</ele>
        <time>2014-01-30T11:00:32Z</time>
      </trkpt>
      <trkpt lat="45.9500575" lon="7.6542947">
        <ele>2381</ele>
        <time>2014-01-30T11:00:33Z</time>
      </trkpt>
      <trkpt lat="45.9500852" lon="7.6543551">
        <ele>2382.4</ele>
        <time>2014-01-30T11:00:34Z</time>
      </trkpt>
      <trkpt lat="45.9501053" lon="7.6543983">
        <ele>2383.4</ele>
        <time>2014-01-30T11:00:35Z</time>
      </trkpt>
      <trkpt lat="45.9501116" lon="7.6544158">
        <ele>2385.2</ele>
        <time>2014-01-30T11:00:37Z</time>
      </trkpt>
      <trkpt lat="45.9501516" lon="7.6545034">
        <ele>2387</ele>
        <time>2014-01-30T11:00:38Z</time>
      </trkpt>
      <trkpt lat="45.9501768" lon="7.6545572">
        <ele>2388.6</ele>
        <time>2014-01-30T11:00:39Z</time>
      </trkpt>
      <trkpt lat="45.9502" lon="7.654611">
        <ele>2390.8</ele>
        <time>2014-01-30T11:00:40Z</time>
      </trkpt>
      <trkpt lat="45.9502115" lon="7.6546359">
        <ele>2392</ele>
        <time>2014-01-30T11:00:41Z</time>
      </trkpt>
      <trkpt lat="45.9502383" lon="7.654695">
        <ele>2393.2</ele>
        <time>2014-01-30T11:00:42Z</time>
      </trkpt>
      <trkpt lat="45.9502525" lon="7.6547278">
        <ele>2394.4</ele>
        <time>2014-01-30T11:00:43Z</time>
      </trkpt>
      <trkpt lat="45.9502788" lon="7.6547862">
        <ele>2395.6</ele>
        <time>2014-01-30T11:00:44Z</time>
      </trkpt>
      <trkpt lat="45.9503152" lon="7.6548688">
        <ele>2398.2</ele>
        <time>2014-01-30T11:00:46Z</time>
      </trkpt>
      <trkpt lat="45.9503266" lon="7.6548941">
        <ele>2399.2</ele>
        <time>2014-01-30T11:00:47Z</time>
      </trkpt>
      <trkpt lat="45.9503545" lon="7.6549556">
        <ele>2400.4</ele>
        <time>2014-01-30T11:00:48Z</time>
      </trkpt>
      <trkpt lat="45.9503673" lon="7.6549835">
        <ele>2401.6</ele>
        <time>2014-01-30T11:00:49Z</time>
      </trkpt>
      <trkpt lat="45.9503932" lon="7.6550408">
        <ele>2404.2</ele>
        <time>2014-01-30T11:00:50Z</time>
      </trkpt>
      <trkpt lat="45.950406" lon="7.655069">
        <ele>2405.6</ele>
        <time>2014-01-30T11:00:51Z</time>
      </trkpt>
      <trkpt lat="45.9504314" lon="7.6551236">
        <ele>2406.8</ele>
        <time>2014-01-30T11:00:52Z</time>
      </trkpt>
      <trkpt lat="45.9504447" lon="7.6551534">
        <ele>2408</ele>
        <time>2014-01-30T11:00:53Z</time>
      </trkpt>
      <trkpt lat="45.9504714" lon="7.6552119">
        <ele>2409.2</ele>
        <time>2014-01-30T11:00:54Z</time>
      </trkpt>
      <trkpt lat="45.9504829" lon="7.6552409">
        <ele>2410.6</ele>
        <time>2014-01-30T11:00:55Z</time>
      </trkpt>
      <trkpt lat="45.9505108" lon="7.6553056">
        <ele>2412</ele>
        <time>2014-01-30T11:00:56Z</time>
      </trkpt>
      <trkpt lat="45.9505519" lon="7.6553928">
        <ele>2413.2</ele>
        <time>2014-01-30T11:00:58Z</time>
      </trkpt>
      <trkpt lat="45.9505649" lon="7.6554207">
        <ele>2413.2</ele>
        <time>2014-01-30T11:00:59Z</time>
      </trkpt>
      <trkpt lat="45.9505932" lon="7.655481">
        <ele>2414.2</ele>
        <time>2014-01-30T11:01:00Z</time>
      </trkpt>
      <trkpt lat="45.9506076" lon="7.6555129">
        <ele>2415.2</ele>
        <time>2014-01-30T11:01:01Z</time>
      </trkpt>
      <trkpt lat="45.9506495" lon="7.6556046">
        <ele>2416.6</ele>
        <time>2014-01-30T11:01:03Z</time>
      </trkpt>
      <trkpt lat="45.9506767" lon="7.6556631">
        <ele>2417.6</ele>
        <time>2014-01-30T11:01:04Z</time>
      </trkpt>
      <trkpt lat="45.9507056" lon="7.6557259">
        <ele>2418.6</ele>
        <time>2014-01-30T11:01:06Z</time>
      </trkpt>
      <trkpt lat="45.9507267" lon="7.6557714">
        <ele>2420.2</ele>
        <time>2014-01-30T11:01:07Z</time>
      </trkpt>
      <trkpt lat="45.9507555" lon="7.6558343">
        <ele>2421.2</ele>
        <time>2014-01-30T11:01:08Z</time>
      </trkpt>
      <trkpt lat="45.9507733" lon="7.6558721">
        <ele>2422.6</ele>
        <time>2014-01-30T11:01:09Z</time>
      </trkpt>
      <trkpt lat="45.9508132" lon="7.6559586">
        <ele>2423.8</ele>
        <time>2014-01-30T11:01:11Z</time>
      </trkpt>
      <trkpt lat="45.950841" lon="7.6560194">
        <ele>2424.8</ele>
        <time>2014-01-30T11:01:12Z</time>
      </trkpt>
      <trkpt lat="45.9508559" lon="7.656051">
        <ele>2426</ele>
        <time>2014-01-30T11:01:13Z</time>
      </trkpt>
      <trkpt lat="45.9508844" lon="7.6561116">
        <ele>2427.4</ele>
        <time>2014-01-30T11:01:14Z</time>
      </trkpt>
      <trkpt lat="45.9508955" lon="7.6561373">
        <ele>2428.8</ele>
        <time>2014-01-30T11:01:15Z</time>
      </trkpt>
      <trkpt lat="45.9509231" lon="7.6561982">
        <ele>2429.8</ele>
        <time>2014-01-30T11:01:16Z</time>
      </trkpt>
      <trkpt lat="45.9509358" lon="7.6562244">
        <ele>2431</ele>
        <time>2014-01-30T11:01:17Z</time>
      </trkpt>
      <trkpt lat="45.9509655" lon="7.656287">
        <ele>2432</ele>
        <time>2014-01-30T11:01:18Z</time>
      </trkpt>
      <trkpt lat="45.9509771" lon="7.6563154">
        <ele>2433.2</ele>
        <time>2014-01-30T11:01:19Z</time>
      </trkpt>
      <trkpt lat="45.951004" lon="7.6563739">
        <ele>2434.6</ele>
        <time>2014-01-30T11:01:20Z</time>
      </trkpt>
      <trkpt lat="45.9510172" lon="7.656401">
        <ele>2436</ele>
        <time>2014-01-30T11:01:21Z</time>
      </trkpt>
      <trkpt lat="45.9510436" lon="7.6564581">
        <ele>2437.4</ele>
        <time>2014-01-30T11:01:22Z</time>
      </trkpt>
      <trkpt lat="45.9510571" lon="7.6564854">
        <ele>2438.4</ele>
        <time>2014-01-30T11:01:23Z</time>
      </trkpt>
      <trkpt lat="45.9511028" lon="7.6565821">
        <ele>2439.6</ele>
        <time>2014-01-30T11:01:25Z</time>
      </trkpt>
      <trkpt lat="45.9511402" lon="7.6566662">
        <ele>2440.6</ele>
        <time>2014-01-30T11:01:27Z</time>
      </trkpt>
      <trkpt lat="45.9511826" lon="7.6567551">
        <ele>2441.8</ele>
        <time>2014-01-30T11:01:29Z</time>
      </trkpt>
      <trkpt lat="45.951209" lon="7.6568145">
        <ele>2443</ele>
        <time>2014-01-30T11:01:30Z</time>
      </trkpt>
      <trkpt lat="45.9512517" lon="7.656906">
        <ele>2444.4</ele>
        <time>2014-01-30T11:01:32Z</time>
      </trkpt>
      <trkpt lat="45.951295" lon="7.6570003">
        <ele>2445.8</ele>
        <time>2014-01-30T11:01:34Z</time>
      </trkpt>
      <trkpt lat="45.9513066" lon="7.6570263">
        <ele>2446.8</ele>
        <time>2014-01-30T11:01:35Z</time>
      </trkpt>
      <trkpt lat="45.9513354" lon="7.6570877">
        <ele>2448.2</ele>
        <time>2014-01-30T11:01:36Z</time>
      </trkpt>
      <trkpt lat="45.9513754" lon="7.6571743">
        <ele>2449.6</ele>
        <time>2014-01-30T11:01:38Z</time>
      </trkpt>
      <trkpt lat="45.9513883" lon="7.6572037">
        <ele>2450.6</ele>
        <time>2014-01-30T11:01:39Z</time>
      </trkpt>
      <trkpt lat="45.9514163" lon="7.6572633">
        <ele>2451.8</ele>
        <time>2014-01-30T11:01:40Z</time>
      </trkpt>
      <trkpt lat="45.9514278" lon="7.6572877">
        <ele>2452.8</ele>
        <time>2014-01-30T11:01:41Z</time>
      </trkpt>
      <trkpt lat="45.9514556" lon="7.6573485">
        <ele>2454</ele>
        <time>2014-01-30T11:01:42Z</time>
      </trkpt>
      <trkpt lat="45.9514979" lon="7.6574411">
        <ele>2455.2</ele>
        <time>2014-01-30T11:01:44Z</time>
      </trkpt>
      <trkpt lat="45.9515098" lon="7.6574663">
        <ele>2456.2</ele>
        <time>2014-01-30T11:01:45Z</time>
      </trkpt>
      <trkpt lat="45.9515379" lon="7.6575271">
        <ele>2457.2</ele>
        <time>2014-01-30T11:01:46Z</time>
      </trkpt>
      <trkpt lat="45.9515421" lon="7.6575368">
        <ele>2458.4</ele>
        <time>2014-01-30T11:01:47Z</time>
      </trkpt>
      <trkpt lat="45.9515779" lon="7.6576108">
        <ele>2459.6</ele>
        <time>2014-01-30T11:01:48Z</time>
      </trkpt>
      <trkpt lat="45.9516004" lon="7.6576563">
        <ele>2461</ele>
        <time>2014-01-30T11:01:49Z</time>
      </trkpt>
      <trkpt lat="45.9516763" lon="7.6578259">
        <ele>2463.2</ele>
        <time>2014-01-30T11:01:53Z</time>
      </trkpt>
      <trkpt lat="45.9517174" lon="7.6579173">
        <ele>2464.2</ele>
        <time>2014-01-30T11:01:55Z</time>
      </trkpt>
      <trkpt lat="45.9517581" lon="7.6580063">
        <ele>2465.2</ele>
        <time>2014-01-30T11:01:57Z</time>
      </trkpt>
      <trkpt lat="45.9517861" lon="7.6580678">
        <ele>2466.4</ele>
        <time>2014-01-30T11:01:58Z</time>
      </trkpt>
      <trkpt lat="45.9518248" lon="7.6581531">
        <ele>2467.6</ele>
        <time>2014-01-30T11:02:00Z</time>
      </trkpt>
      <trkpt lat="45.9518654" lon="7.6582428">
        <ele>2468.6</ele>
        <time>2014-01-30T11:02:02Z</time>
      </trkpt>
      <trkpt lat="45.9518794" lon="7.6582749">
        <ele>2470</ele>
        <time>2014-01-30T11:02:03Z</time>
      </trkpt>
      <trkpt lat="45.9519181" lon="7.6583609">
        <ele>2471</ele>
        <time>2014-01-30T11:02:05Z</time>
      </trkpt>
      <trkpt lat="45.9519458" lon="7.6584211">
        <ele>2472.4</ele>
        <time>2014-01-30T11:02:06Z</time>
      </trkpt>
      <trkpt lat="45.9519866" lon="7.6585103">
        <ele>2473.6</ele>
        <time>2014-01-30T11:02:08Z</time>
      </trkpt>
      <trkpt lat="45.9520003" lon="7.6585401">
        <ele>2474.6</ele>
        <time>2014-01-30T11:02:09Z</time>
      </trkpt>
      <trkpt lat="45.9520282" lon="7.6586008">
        <ele>2476</ele>
        <time>2014-01-30T11:02:10Z</time>
      </trkpt>
      <trkpt lat="45.9520684" lon="7.6586874">
        <ele>2477</ele>
        <time>2014-01-30T11:02:12Z</time>
      </trkpt>
      <trkpt lat="45.9520832" lon="7.6587198">
        <ele>2478.6</ele>
        <time>2014-01-30T11:02:13Z</time>
      </trkpt>
      <trkpt lat="45.9521094" lon="7.6587782">
        <ele>2479.6</ele>
        <time>2014-01-30T11:02:14Z</time>
      </trkpt>
      <trkpt lat="45.9521509" lon="7.6588665">
        <ele>2481</ele>
        <time>2014-01-30T11:02:16Z</time>
      </trkpt>
      <trkpt lat="45.9521619" lon="7.6588912">
        <ele>2482.6</ele>
        <time>2014-01-30T11:02:17Z</time>
      </trkpt>
      <trkpt lat="45.9521908" lon="7.6589546">
        <ele>2484</ele>
        <time>2014-01-30T11:02:18Z</time>
      </trkpt>
      <trkpt lat="45.952204" lon="7.6589834">
        <ele>2485.2</ele>
        <time>2014-01-30T11:02:19Z</time>
      </trkpt>
      <trkpt lat="45.9522309" lon="7.6590406">
        <ele>2486.6</ele>
        <time>2014-01-30T11:02:20Z</time>
      </trkpt>
      <trkpt lat="45.9522437" lon="7.6590687">
        <ele>2487.6</ele>
        <time>2014-01-30T11:02:21Z</time>
      </trkpt>
      <trkpt lat="45.9522705" lon="7.6591265">
        <ele>2489</ele>
        <time>2014-01-30T11:02:22Z</time>
      </trkpt>
      <trkpt lat="45.9523124" lon="7.6592224">
        <ele>2490.2</ele>
        <time>2014-01-30T11:02:24Z</time>
      </trkpt>
      <trkpt lat="45.9523664" lon="7.659338">
        <ele>2491.2</ele>
        <time>2014-01-30T11:02:27Z</time>
      </trkpt>
      <trkpt lat="45.9524378" lon="7.6594849">
        <ele>2492.2</ele>
        <time>2014-01-30T11:02:30Z</time>
      </trkpt>
      <trkpt lat="45.9524805" lon="7.6595763">
        <ele>2493.2</ele>
        <time>2014-01-30T11:02:32Z</time>
      </trkpt>
      <trkpt lat="45.9525233" lon="7.659671">
        <ele>2494.2</ele>
        <time>2014-01-30T11:02:34Z</time>
      </trkpt>
      <trkpt lat="45.9525655" lon="7.659761">
        <ele>2495.4</ele>
        <time>2014-01-30T11:02:36Z</time>
      </trkpt>
      <trkpt lat="45.952607" lon="7.659851">
        <ele>2496.4</ele>
        <time>2014-01-30T11:02:38Z</time>
      </trkpt>
      <trkpt lat="45.9526226" lon="7.6598847">
        <ele>2497.4</ele>
        <time>2014-01-30T11:02:39Z</time>
      </trkpt>
      <trkpt lat="45.9526607" lon="7.6599675">
        <ele>2498.6</ele>
        <time>2014-01-30T11:02:41Z</time>
      </trkpt>
      <trkpt lat="45.9526882" lon="7.6600274">
        <ele>2499.6</ele>
        <time>2014-01-30T11:02:42Z</time>
      </trkpt>
      <trkpt lat="45.952731" lon="7.6601203">
        <ele>2500.8</ele>
        <time>2014-01-30T11:02:44Z</time>
      </trkpt>
      <trkpt lat="45.9527449" lon="7.6601501">
        <ele>2502</ele>
        <time>2014-01-30T11:02:45Z</time>
      </trkpt>
      <trkpt lat="45.9527821" lon="7.6602331">
        <ele>2503.2</ele>
        <time>2014-01-30T11:02:47Z</time>
      </trkpt>
      <trkpt lat="45.952811" lon="7.6602952">
        <ele>2504.2</ele>
        <time>2014-01-30T11:02:48Z</time>
      </trkpt>
      <trkpt lat="45.9528268" lon="7.6603301">
        <ele>2505.4</ele>
        <time>2014-01-30T11:02:49Z</time>
      </trkpt>
      <trkpt lat="45.952866" lon="7.660421">
        <ele>2505.4</ele>
        <time>2014-01-30T11:02:51Z</time>
      </trkpt>
      <trkpt lat="45.9530244" lon="7.6607738">
        <ele>2502.2</ele>
        <time>2014-01-30T11:02:59Z</time>
      </trkpt>
      <trkpt lat="45.9530918" lon="7.6609228">
        <ele>2501.2</ele>
        <time>2014-01-30T11:03:02Z</time>
      </trkpt>
      <trkpt lat="45.9532178" lon="7.6611986">
        <ele>2500.2</ele>
        <time>2014-01-30T11:03:08Z</time>
      </trkpt>
      <trkpt lat="45.9533792" lon="7.6615492">
        <ele>2503.6</ele>
        <time>2014-01-30T11:03:16Z</time>
      </trkpt>
      <trkpt lat="45.9533912" lon="7.6615757">
        <ele>2504.6</ele>
        <time>2014-01-30T11:03:17Z</time>
      </trkpt>
      <trkpt lat="45.9534204" lon="7.6616374">
        <ele>2505.8</ele>
        <time>2014-01-30T11:03:18Z</time>
      </trkpt>
      <trkpt lat="45.9534362" lon="7.6616717">
        <ele>2506.8</ele>
        <time>2014-01-30T11:03:19Z</time>
      </trkpt>
      <trkpt lat="45.9534588" lon="7.6617231">
        <ele>2507.8</ele>
        <time>2014-01-30T11:03:20Z</time>
      </trkpt>
      <trkpt lat="45.953475" lon="7.6617591">
        <ele>2509</ele>
        <time>2014-01-30T11:03:21Z</time>
      </trkpt>
      <trkpt lat="45.9535143" lon="7.6618373">
        <ele>2510.4</ele>
        <time>2014-01-30T11:03:23Z</time>
      </trkpt>
      <trkpt lat="45.9535437" lon="7.6618969">
        <ele>2511.6</ele>
        <time>2014-01-30T11:03:24Z</time>
      </trkpt>
      <trkpt lat="45.9535582" lon="7.6619308">
        <ele>2513</ele>
        <time>2014-01-30T11:03:25Z</time>
      </trkpt>
      <trkpt lat="45.9535835" lon="7.6619853">
        <ele>2514</ele>
        <time>2014-01-30T11:03:26Z</time>
      </trkpt>
      <trkpt lat="45.9535956" lon="7.6620123">
        <ele>2515.2</ele>
        <time>2014-01-30T11:03:27Z</time>
      </trkpt>
      <trkpt lat="45.953623" lon="7.6620717">
        <ele>2516.6</ele>
        <time>2014-01-30T11:03:28Z</time>
      </trkpt>
      <trkpt lat="45.9536354" lon="7.6620986">
        <ele>2518</ele>
        <time>2014-01-30T11:03:29Z</time>
      </trkpt>
      <trkpt lat="45.9536616" lon="7.6621563">
        <ele>2519.2</ele>
        <time>2014-01-30T11:03:30Z</time>
      </trkpt>
      <trkpt lat="45.9536794" lon="7.6621953">
        <ele>2520.4</ele>
        <time>2014-01-30T11:03:31Z</time>
      </trkpt>
      <trkpt lat="45.9537018" lon="7.6622434">
        <ele>2521.8</ele>
        <time>2014-01-30T11:03:32Z</time>
      </trkpt>
      <trkpt lat="45.953719" lon="7.6622802">
        <ele>2523</ele>
        <time>2014-01-30T11:03:33Z</time>
      </trkpt>
      <trkpt lat="45.9537438" lon="7.6623347">
        <ele>2524.4</ele>
        <time>2014-01-30T11:03:34Z</time>
      </trkpt>
      <trkpt lat="45.9537553" lon="7.6623596">
        <ele>2525.6</ele>
        <time>2014-01-30T11:03:35Z</time>
      </trkpt>
      <trkpt lat="45.9537838" lon="7.6624195">
        <ele>2527</ele>
        <time>2014-01-30T11:03:36Z</time>
      </trkpt>
      <trkpt lat="45.9537944" lon="7.6624429">
        <ele>2528.4</ele>
        <time>2014-01-30T11:03:37Z</time>
      </trkpt>
      <trkpt lat="45.9538223" lon="7.6625045">
        <ele>2529.6</ele>
        <time>2014-01-30T11:03:38Z</time>
      </trkpt>
      <trkpt lat="45.9538372" lon="7.6625376">
        <ele>2530.8</ele>
        <time>2014-01-30T11:03:39Z</time>
      </trkpt>
      <trkpt lat="45.9538614" lon="7.6625895">
        <ele>2532.2</ele>
        <time>2014-01-30T11:03:40Z</time>
      </trkpt>
      <trkpt lat="45.9538738" lon="7.6626164">
        <ele>2533.6</ele>
        <time>2014-01-30T11:03:41Z</time>
      </trkpt>
      <trkpt lat="45.9539015" lon="7.6626758">
        <ele>2534.8</ele>
        <time>2014-01-30T11:03:42Z</time>
      </trkpt>
      <trkpt lat="45.9539169" lon="7.6627119">
        <ele>2537.4</ele>
        <time>2014-01-30T11:03:43Z</time>
      </trkpt>
      <trkpt lat="45.9539418" lon="7.6627629">
        <ele>2538.8</ele>
        <time>2014-01-30T11:03:44Z</time>
      </trkpt>
      <trkpt lat="45.9539545" lon="7.6627912">
        <ele>2540</ele>
        <time>2014-01-30T11:03:45Z</time>
      </trkpt>
      <trkpt lat="45.9539793" lon="7.6628448">
        <ele>2541.4</ele>
        <time>2014-01-30T11:03:46Z</time>
      </trkpt>
      <trkpt lat="45.9539909" lon="7.6628706">
        <ele>2543.8</ele>
        <time>2014-01-30T11:03:47Z</time>
      </trkpt>
      <trkpt lat="45.9540178" lon="7.6629294">
        <ele>2545</ele>
        <time>2014-01-30T11:03:48Z</time>
      </trkpt>
      <trkpt lat="45.9540313" lon="7.6629607">
        <ele>2547.2</ele>
        <time>2014-01-30T11:03:49Z</time>
      </trkpt>
      <trkpt lat="45.9540555" lon="7.6630135">
        <ele>2548.4</ele>
        <time>2014-01-30T11:03:50Z</time>
      </trkpt>
      <trkpt lat="45.9540722" lon="7.663043">
        <ele>2550.4</ele>
        <time>2014-01-30T11:03:51Z</time>
      </trkpt>
      <trkpt lat="45.9540942" lon="7.66309">
        <ele>2551.8</ele>
        <time>2014-01-30T11:03:52Z</time>
      </trkpt>
      <trkpt lat="45.9541082" lon="7.6631205">
        <ele>2553.2</ele>
        <time>2014-01-30T11:03:53Z</time>
      </trkpt>
      <trkpt lat="45.9541356" lon="7.6631801">
        <ele>2554.2</ele>
        <time>2014-01-30T11:03:54Z</time>
      </trkpt>
      <trkpt lat="45.9541502" lon="7.6632121">
        <ele>2555.4</ele>
        <time>2014-01-30T11:03:55Z</time>
      </trkpt>
      <trkpt lat="45.9541728" lon="7.6632625">
        <ele>2557.6</ele>
        <time>2014-01-30T11:03:56Z</time>
      </trkpt>
      <trkpt lat="45.9541847" lon="7.6632892">
        <ele>2559.2</ele>
        <time>2014-01-30T11:03:57Z</time>
      </trkpt>
      <trkpt lat="45.9542122" lon="7.6633489">
        <ele>2560.2</ele>
        <time>2014-01-30T11:03:58Z</time>
      </trkpt>
      <trkpt lat="45.9542239" lon="7.6633742">
        <ele>2562.8</ele>
        <time>2014-01-30T11:03:59Z</time>
      </trkpt>
      <trkpt lat="45.9542489" lon="7.6634297">
        <ele>2563.8</ele>
        <time>2014-01-30T11:04:00Z</time>
      </trkpt>
      <trkpt lat="45.9542647" lon="7.6634658">
        <ele>2564.8</ele>
        <time>2014-01-30T11:04:01Z</time>
      </trkpt>
      <trkpt lat="45.954287" lon="7.6635139">
        <ele>2566</ele>
        <time>2014-01-30T11:04:02Z</time>
      </trkpt>
      <trkpt lat="45.9543028" lon="7.6635492">
        <ele>2568.8</ele>
        <time>2014-01-30T11:04:03Z</time>
      </trkpt>
      <trkpt lat="45.9543267" lon="7.6636012">
        <ele>2569.8</ele>
        <time>2014-01-30T11:04:04Z</time>
      </trkpt>
      <trkpt lat="45.9543371" lon="7.6636247">
        <ele>2572.2</ele>
        <time>2014-01-30T11:04:05Z</time>
      </trkpt>
      <trkpt lat="45.9543633" lon="7.6636813">
        <ele>2573.6</ele>
        <time>2014-01-30T11:04:06Z</time>
      </trkpt>
      <trkpt lat="45.9543683" lon="7.6636926">
        <ele>2574.8</ele>
        <time>2014-01-30T11:04:07Z</time>
      </trkpt>
      <trkpt lat="45.9543996" lon="7.6637616">
        <ele>2577.6</ele>
        <time>2014-01-30T11:04:08Z</time>
      </trkpt>
      <trkpt lat="45.9544081" lon="7.6637834">
        <ele>2579</ele>
        <time>2014-01-30T11:04:09Z</time>
      </trkpt>
      <trkpt lat="45.9544359" lon="7.6638445">
        <ele>2580.4</ele>
        <time>2014-01-30T11:04:10Z</time>
      </trkpt>
      <trkpt lat="45.9544477" lon="7.6638701">
        <ele>2581.8</ele>
        <time>2014-01-30T11:04:11Z</time>
      </trkpt>
      <trkpt lat="45.9544726" lon="7.6639253">
        <ele>2584.8</ele>
        <time>2014-01-30T11:04:12Z</time>
      </trkpt>
      <trkpt lat="45.9544845" lon="7.6639504">
        <ele>2586.4</ele>
        <time>2014-01-30T11:04:13Z</time>
      </trkpt>
      <trkpt lat="45.9545096" lon="7.6640079">
        <ele>2587.6</ele>
        <time>2014-01-30T11:04:14Z</time>
      </trkpt>
      <trkpt lat="45.9545253" lon="7.664047">
        <ele>2587.6</ele>
        <time>2014-01-30T11:04:15Z</time>
      </trkpt>
      <trkpt lat="45.9545517" lon="7.6641057">
        <ele>2588.8</ele>
        <time>2014-01-30T11:04:16Z</time>
      </trkpt>
      <trkpt lat="45.9545922" lon="7.6641902">
        <ele>2590</ele>
        <time>2014-01-30T11:04:18Z</time>
      </trkpt>
      <trkpt lat="45.9546331" lon="7.6642792">
        <ele>2591</ele>
        <time>2014-01-30T11:04:20Z</time>
      </trkpt>
      <trkpt lat="45.9546502" lon="7.6643161">
        <ele>2592.2</ele>
        <time>2014-01-30T11:04:21Z</time>
      </trkpt>
      <trkpt lat="45.9546723" lon="7.6643636">
        <ele>2592.2</ele>
        <time>2014-01-30T11:04:22Z</time>
      </trkpt>
      <trkpt lat="45.9546877" lon="7.6643968">
        <ele>2593.2</ele>
        <time>2014-01-30T11:04:23Z</time>
      </trkpt>
      <trkpt lat="45.9547166" lon="7.6644599">
        <ele>2594.4</ele>
        <time>2014-01-30T11:04:24Z</time>
      </trkpt>
      <trkpt lat="45.9547569" lon="7.6645461">
        <ele>2595.4</ele>
        <time>2014-01-30T11:04:26Z</time>
      </trkpt>
      <trkpt lat="45.9547696" lon="7.6645732">
        <ele>2596.6</ele>
        <time>2014-01-30T11:04:27Z</time>
      </trkpt>
      <trkpt lat="45.9547973" lon="7.6646351">
        <ele>2597.8</ele>
        <time>2014-01-30T11:04:28Z</time>
      </trkpt>
      <trkpt lat="45.9548371" lon="7.6647215">
        <ele>2599</ele>
        <time>2014-01-30T11:04:30Z</time>
      </trkpt>
      <trkpt lat="45.9548533" lon="7.6647568">
        <ele>2600</ele>
        <time>2014-01-30T11:04:31Z</time>
      </trkpt>
      <trkpt lat="45.9548766" lon="7.6648074">
        <ele>2601.2</ele>
        <time>2014-01-30T11:04:32Z</time>
      </trkpt>
      <trkpt lat="45.9548938" lon="7.664846">
        <ele>2602.4</ele>
        <time>2014-01-30T11:04:33Z</time>
      </trkpt>
      <trkpt lat="45.9549303" lon="7.6649246">
        <ele>2603.4</ele>
        <time>2014-01-30T11:04:35Z</time>
      </trkpt>
      <trkpt lat="45.9549567" lon="7.6649845">
        <ele>2604.4</ele>
        <time>2014-01-30T11:04:36Z</time>
      </trkpt>
      <trkpt lat="45.9549682" lon="7.6650099">
        <ele>2605.4</ele>
        <time>2014-01-30T11:04:37Z</time>
      </trkpt>
      <trkpt lat="45.9549965" lon="7.6650721">
        <ele>2606.6</ele>
        <time>2014-01-30T11:04:38Z</time>
      </trkpt>
      <trkpt lat="45.9550117" lon="7.6651055">
        <ele>2607.8</ele>
        <time>2014-01-30T11:04:39Z</time>
      </trkpt>
      <trkpt lat="45.9550368" lon="7.6651595">
        <ele>2609.2</ele>
        <time>2014-01-30T11:04:40Z</time>
      </trkpt>
      <trkpt lat="45.9550484" lon="7.665186">
        <ele>2610.2</ele>
        <time>2014-01-30T11:04:41Z</time>
      </trkpt>
      <trkpt lat="45.9550766" lon="7.6652462">
        <ele>2611.2</ele>
        <time>2014-01-30T11:04:42Z</time>
      </trkpt>
      <trkpt lat="45.9550941" lon="7.665281">
        <ele>2612.2</ele>
        <time>2014-01-30T11:04:43Z</time>
      </trkpt>
      <trkpt lat="45.95512" lon="7.6653287">
        <ele>2613.2</ele>
        <time>2014-01-30T11:04:44Z</time>
      </trkpt>
      <trkpt lat="45.9551356" lon="7.6653583">
        <ele>2615.6</ele>
        <time>2014-01-30T11:04:45Z</time>
      </trkpt>
      <trkpt lat="45.9551579" lon="7.665409">
        <ele>2617</ele>
        <time>2014-01-30T11:04:46Z</time>
      </trkpt>
      <trkpt lat="45.9551696" lon="7.6654349">
        <ele>2618.4</ele>
        <time>2014-01-30T11:04:47Z</time>
      </trkpt>
      <trkpt lat="45.9551967" lon="7.6654925">
        <ele>2621.2</ele>
        <time>2014-01-30T11:04:48Z</time>
      </trkpt>
      <trkpt lat="45.9552106" lon="7.6655245">
        <ele>2623.8</ele>
        <time>2014-01-30T11:04:49Z</time>
      </trkpt>
      <trkpt lat="45.955234" lon="7.6655755">
        <ele>2625.2</ele>
        <time>2014-01-30T11:04:50Z</time>
      </trkpt>
      <trkpt lat="45.955248" lon="7.6656077">
        <ele>2627.8</ele>
        <time>2014-01-30T11:04:51Z</time>
      </trkpt>
      <trkpt lat="45.9552675" lon="7.6656518">
        <ele>2629</ele>
        <time>2014-01-30T11:04:52Z</time>
      </trkpt>
      <trkpt lat="45.9552812" lon="7.6656823">
        <ele>2630.4</ele>
        <time>2014-01-30T11:04:53Z</time>
      </trkpt>
      <trkpt lat="45.9553075" lon="7.6657395">
        <ele>2633.6</ele>
        <time>2014-01-30T11:04:54Z</time>
      </trkpt>
      <trkpt lat="45.9553206" lon="7.6657691">
        <ele>2635.2</ele>
        <time>2014-01-30T11:04:55Z</time>
      </trkpt>
      <trkpt lat="45.9553418" lon="7.6658169">
        <ele>2636.8</ele>
        <time>2014-01-30T11:04:56Z</time>
      </trkpt>
      <trkpt lat="45.9553537" lon="7.6658426">
        <ele>2639.6</ele>
        <time>2014-01-30T11:04:57Z</time>
      </trkpt>
      <trkpt lat="45.9553795" lon="7.665899">
        <ele>2641</ele>
        <time>2014-01-30T11:04:58Z</time>
      </trkpt>
      <trkpt lat="45.9553899" lon="7.6659226">
        <ele>2643.6</ele>
        <time>2014-01-30T11:04:59Z</time>
      </trkpt>
      <trkpt lat="45.9554149" lon="7.6659777">
        <ele>2645</ele>
        <time>2014-01-30T11:05:00Z</time>
      </trkpt>
      <trkpt lat="45.9554294" lon="7.6660087">
        <ele>2647.8</ele>
        <time>2014-01-30T11:05:01Z</time>
      </trkpt>
      <trkpt lat="45.9554497" lon="7.6660554">
        <ele>2649</ele>
        <time>2014-01-30T11:05:02Z</time>
      </trkpt>
      <trkpt lat="45.9554645" lon="7.6660881">
        <ele>2651.8</ele>
        <time>2014-01-30T11:05:03Z</time>
      </trkpt>
      <trkpt lat="45.9554873" lon="7.6661375">
        <ele>2653.2</ele>
        <time>2014-01-30T11:05:04Z</time>
      </trkpt>
      <trkpt lat="45.9554975" lon="7.6661595">
        <ele>2656.4</ele>
        <time>2014-01-30T11:05:05Z</time>
      </trkpt>
      <trkpt lat="45.9555213" lon="7.6662129">
        <ele>2658.2</ele>
        <time>2014-01-30T11:05:06Z</time>
      </trkpt>
      <trkpt lat="45.9555318" lon="7.666236">
        <ele>2659.8</ele>
        <time>2014-01-30T11:05:07Z</time>
      </trkpt>
      <trkpt lat="45.9555577" lon="7.6662917">
        <ele>2663.4</ele>
        <time>2014-01-30T11:05:08Z</time>
      </trkpt>
      <trkpt lat="45.9555716" lon="7.6663224">
        <ele>2665</ele>
        <time>2014-01-30T11:05:09Z</time>
      </trkpt>
      <trkpt lat="45.9555928" lon="7.6663685">
        <ele>2667.8</ele>
        <time>2014-01-30T11:05:10Z</time>
      </trkpt>
      <trkpt lat="45.9556029" lon="7.6663906">
        <ele>2669.4</ele>
        <time>2014-01-30T11:05:11Z</time>
      </trkpt>
      <trkpt lat="45.9556287" lon="7.6664433">
        <ele>2671.2</ele>
        <time>2014-01-30T11:05:12Z</time>
      </trkpt>
      <trkpt lat="45.9556442" lon="7.6664771">
        <ele>2672.8</ele>
        <time>2014-01-30T11:05:13Z</time>
      </trkpt>
      <trkpt lat="45.9556642" lon="7.6665236">
        <ele>2676.4</ele>
        <time>2014-01-30T11:05:14Z</time>
      </trkpt>
      <trkpt lat="45.9556789" lon="7.6665548">
        <ele>2677.8</ele>
        <time>2014-01-30T11:05:15Z</time>
      </trkpt>
      <trkpt lat="45.9557001" lon="7.6666013">
        <ele>2680.8</ele>
        <time>2014-01-30T11:05:16Z</time>
      </trkpt>
      <trkpt lat="45.9557108" lon="7.6666251">
        <ele>2682.4</ele>
        <time>2014-01-30T11:05:17Z</time>
      </trkpt>
      <trkpt lat="45.9557355" lon="7.66668">
        <ele>2685.4</ele>
        <time>2014-01-30T11:05:18Z</time>
      </trkpt>
      <trkpt lat="45.9557484" lon="7.6667087">
        <ele>2686.8</ele>
        <time>2014-01-30T11:05:19Z</time>
      </trkpt>
      <trkpt lat="45.9557699" lon="7.6667549">
        <ele>2689.8</ele>
        <time>2014-01-30T11:05:20Z</time>
      </trkpt>
      <trkpt lat="45.9557841" lon="7.6667867">
        <ele>2691.2</ele>
        <time>2014-01-30T11:05:21Z</time>
      </trkpt>
      <trkpt lat="45.9558025" lon="7.6668271">
        <ele>2692.8</ele>
        <time>2014-01-30T11:05:22Z</time>
      </trkpt>
      <trkpt lat="45.9558157" lon="7.6668564">
        <ele>2696.6</ele>
        <time>2014-01-30T11:05:23Z</time>
      </trkpt>
      <trkpt lat="45.9558401" lon="7.6669103">
        <ele>2698</ele>
        <time>2014-01-30T11:05:24Z</time>
      </trkpt>
      <trkpt lat="45.9558534" lon="7.6669383">
        <ele>2701.6</ele>
        <time>2014-01-30T11:05:25Z</time>
      </trkpt>
      <trkpt lat="45.9558746" lon="7.6669839">
        <ele>2703.4</ele>
        <time>2014-01-30T11:05:26Z</time>
      </trkpt>
      <trkpt lat="45.955885" lon="7.6670077">
        <ele>2705.2</ele>
        <time>2014-01-30T11:05:27Z</time>
      </trkpt>
      <trkpt lat="45.9559088" lon="7.6670598">
        <ele>2707.4</ele>
        <time>2014-01-30T11:05:28Z</time>
      </trkpt>
      <trkpt lat="45.9559191" lon="7.6670829">
        <ele>2710.8</ele>
        <time>2014-01-30T11:05:29Z</time>
      </trkpt>
      <trkpt lat="45.9559433" lon="7.667134">
        <ele>2712.8</ele>
        <time>2014-01-30T11:05:30Z</time>
      </trkpt>
      <trkpt lat="45.9559566" lon="7.6671645">
        <ele>2716</ele>
        <time>2014-01-30T11:05:31Z</time>
      </trkpt>
      <trkpt lat="45.9559742" lon="7.6672049">
        <ele>2717.4</ele>
        <time>2014-01-30T11:05:32Z</time>
      </trkpt>
      <trkpt lat="45.9559872" lon="7.6672333">
        <ele>2720.2</ele>
        <time>2014-01-30T11:05:33Z</time>
      </trkpt>
      <trkpt lat="45.9560044" lon="7.6672692">
        <ele>2721.4</ele>
        <time>2014-01-30T11:05:34Z</time>
      </trkpt>
      <trkpt lat="45.956012" lon="7.6672857">
        <ele>2724</ele>
        <time>2014-01-30T11:05:35Z</time>
      </trkpt>
      <trkpt lat="45.9560274" lon="7.6673204">
        <ele>2725.2</ele>
        <time>2014-01-30T11:05:36Z</time>
      </trkpt>
      <trkpt lat="45.9560325" lon="7.6673325">
        <ele>2726.4</ele>
        <time>2014-01-30T11:05:37Z</time>
      </trkpt>
      <trkpt lat="45.9560473" lon="7.6673632">
        <ele>2727.8</ele>
        <time>2014-01-30T11:05:38Z</time>
      </trkpt>
      <trkpt lat="45.9560553" lon="7.6673809">
        <ele>2729.2</ele>
        <time>2014-01-30T11:05:39Z</time>
      </trkpt>
      <trkpt lat="45.9560669" lon="7.6674071">
        <ele>2731.8</ele>
        <time>2014-01-30T11:05:40Z</time>
      </trkpt>
      <trkpt lat="45.9560738" lon="7.6674219">
        <ele>2733</ele>
        <time>2014-01-30T11:05:41Z</time>
      </trkpt>
      <trkpt lat="45.9560908" lon="7.6674573">
        <ele>2735.2</ele>
        <time>2014-01-30T11:05:42Z</time>
      </trkpt>
      <trkpt lat="45.9561018" lon="7.667481">
        <ele>2736.4</ele>
        <time>2014-01-30T11:05:43Z</time>
      </trkpt>
      <trkpt lat="45.9561185" lon="7.667518">
        <ele>2739</ele>
        <time>2014-01-30T11:05:44Z</time>
      </trkpt>
      <trkpt lat="45.9561286" lon="7.6675406">
        <ele>2741.8</ele>
        <time>2014-01-30T11:05:45Z</time>
      </trkpt>
      <trkpt lat="45.9561457" lon="7.6675768">
        <ele>2743.2</ele>
        <time>2014-01-30T11:05:46Z</time>
      </trkpt>
      <trkpt lat="45.9561551" lon="7.6675969">
        <ele>2745.8</ele>
        <time>2014-01-30T11:05:47Z</time>
      </trkpt>
      <trkpt lat="45.9561764" lon="7.6676424">
        <ele>2747.8</ele>
        <time>2014-01-30T11:05:48Z</time>
      </trkpt>
      <trkpt lat="45.9561897" lon="7.6676694">
        <ele>2751</ele>
        <time>2014-01-30T11:05:49Z</time>
      </trkpt>
      <trkpt lat="45.9562132" lon="7.6677199">
        <ele>2752.4</ele>
        <time>2014-01-30T11:05:50Z</time>
      </trkpt>
      <trkpt lat="45.956228" lon="7.6677542">
        <ele>2755</ele>
        <time>2014-01-30T11:05:51Z</time>
      </trkpt>
      <trkpt lat="45.9562452" lon="7.6677936">
        <ele>2756.6</ele>
        <time>2014-01-30T11:05:52Z</time>
      </trkpt>
      <trkpt lat="45.9562591" lon="7.6678236">
        <ele>2758.2</ele>
        <time>2014-01-30T11:05:53Z</time>
      </trkpt>
      <trkpt lat="45.9562841" lon="7.6678773">
        <ele>2761.8</ele>
        <time>2014-01-30T11:05:54Z</time>
      </trkpt>
      <trkpt lat="45.9562959" lon="7.6679047">
        <ele>2763.6</ele>
        <time>2014-01-30T11:05:55Z</time>
      </trkpt>
      <trkpt lat="45.956318" lon="7.6679519">
        <ele>2765.4</ele>
        <time>2014-01-30T11:05:56Z</time>
      </trkpt>
      <trkpt lat="45.9563294" lon="7.6679768">
        <ele>2768.6</ele>
        <time>2014-01-30T11:05:57Z</time>
      </trkpt>
      <trkpt lat="45.9563534" lon="7.6680296">
        <ele>2770.2</ele>
        <time>2014-01-30T11:05:58Z</time>
      </trkpt>
      <trkpt lat="45.9563642" lon="7.6680525">
        <ele>2773.2</ele>
        <time>2014-01-30T11:05:59Z</time>
      </trkpt>
      <trkpt lat="45.9563877" lon="7.6681043">
        <ele>2774.6</ele>
        <time>2014-01-30T11:06:00Z</time>
      </trkpt>
      <trkpt lat="45.9564026" lon="7.6681342">
        <ele>2778</ele>
        <time>2014-01-30T11:06:01Z</time>
      </trkpt>
      <trkpt lat="45.9564228" lon="7.6681766">
        <ele>2779.6</ele>
        <time>2014-01-30T11:06:02Z</time>
      </trkpt>
      <trkpt lat="45.9564373" lon="7.6682084">
        <ele>2782.6</ele>
        <time>2014-01-30T11:06:03Z</time>
      </trkpt>
      <trkpt lat="45.9564596" lon="7.6682542">
        <ele>2784.2</ele>
        <time>2014-01-30T11:06:04Z</time>
      </trkpt>
      <trkpt lat="45.956469" lon="7.6682782">
        <ele>2787.4</ele>
        <time>2014-01-30T11:06:05Z</time>
      </trkpt>
      <trkpt lat="45.9564916" lon="7.6683288">
        <ele>2789.2</ele>
        <time>2014-01-30T11:06:06Z</time>
      </trkpt>
      <trkpt lat="45.956502" lon="7.6683475">
        <ele>2792.6</ele>
        <time>2014-01-30T11:06:07Z</time>
      </trkpt>
      <trkpt lat="45.9565259" lon="7.6684037">
        <ele>2794.6</ele>
        <time>2014-01-30T11:06:08Z</time>
      </trkpt>
      <trkpt lat="45.9565388" lon="7.6684325">
        <ele>2797.2</ele>
        <time>2014-01-30T11:06:09Z</time>
      </trkpt>
      <trkpt lat="45.9565598" lon="7.6684789">
        <ele>2798.8</ele>
        <time>2014-01-30T11:06:10Z</time>
      </trkpt>
      <trkpt lat="45.9565691" lon="7.668502">
        <ele>2802.4</ele>
        <time>2014-01-30T11:06:11Z</time>
      </trkpt>
      <trkpt lat="45.9565916" lon="7.6685529">
        <ele>2805.6</ele>
        <time>2014-01-30T11:06:12Z</time>
      </trkpt>
      <trkpt lat="45.956606" lon="7.6685848">
        <ele>2807.2</ele>
        <time>2014-01-30T11:06:13Z</time>
      </trkpt>
      <trkpt lat="45.9566273" lon="7.6686285">
        <ele>2808.8</ele>
        <time>2014-01-30T11:06:14Z</time>
      </trkpt>
      <trkpt lat="45.9566392" lon="7.6686569">
        <ele>2811.6</ele>
        <time>2014-01-30T11:06:15Z</time>
      </trkpt>
      <trkpt lat="45.9566617" lon="7.6687064">
        <ele>2814</ele>
        <time>2014-01-30T11:06:16Z</time>
      </trkpt>
      <trkpt lat="45.9566755" lon="7.668733">
        <ele>2815.2</ele>
        <time>2014-01-30T11:06:17Z</time>
      </trkpt>
      <trkpt lat="45.9567163" lon="7.668833">
        <ele>2816.2</ele>
        <time>2014-01-30T11:06:19Z</time>
      </trkpt>
      <trkpt lat="45.9567922" lon="7.6690047">
        <ele>2816.2</ele>
        <time>2014-01-30T11:06:24Z</time>
      </trkpt>
      <trkpt lat="45.9568125" lon="7.669087">
        <ele>2816.2</ele>
        <time>2014-01-30T11:06:29Z</time>
      </trkpt>
      <trkpt lat="45.9568111" lon="7.6693133">
        <ele>2816.2</ele>
        <time>2014-01-30T11:06:34Z</time>
      </trkpt>
      <trkpt lat="45.9567503" lon="7.6693174">
        <ele>2816.2</ele>
        <time>2014-01-30T11:06:37Z</time>
      </trkpt>
      <trkpt lat="45.9567204" lon="7.6693817">
        <ele>2813.2</ele>
        <time>2014-01-30T11:06:39Z</time>
      </trkpt>
      <trkpt lat="45.9567142" lon="7.6694076">
        <ele>2813.2</ele>
        <time>2014-01-30T11:06:40Z</time>
      </trkpt>
      <trkpt lat="45.9567042" lon="7.6694083">
        <ele>2813.2</ele>
        <time>2014-01-30T11:06:44Z</time>
      </trkpt>
      <trkpt lat="45.9567037" lon="7.6693976">
        <ele>2813.2</ele>
        <time>2014-01-30T11:06:52Z</time>
      </trkpt>
      <trkpt lat="45.9566936" lon="7.6693902">
        <ele>2812.2</ele>
        <time>2014-01-30T11:07:01Z</time>
      </trkpt>
      <trkpt lat="45.9566178" lon="7.6693999">
        <ele>2811</ele>
        <time>2014-01-30T11:07:05Z</time>
      </trkpt>
      <trkpt lat="45.9565671" lon="7.6694096">
        <ele>2810</ele>
        <time>2014-01-30T11:07:06Z</time>
      </trkpt>
      <trkpt lat="45.9564558" lon="7.6694248">
        <ele>2807.8</ele>
        <time>2014-01-30T11:07:08Z</time>
      </trkpt>
      <trkpt lat="45.9564175" lon="7.6694458">
        <ele>2806.4</ele>
        <time>2014-01-30T11:07:09Z</time>
      </trkpt>
      <trkpt lat="45.9563195" lon="7.6695204">
        <ele>2805.4</ele>
        <time>2014-01-30T11:07:10Z</time>
      </trkpt>
      <trkpt lat="45.956267" lon="7.6695253">
        <ele>2803.8</ele>
        <time>2014-01-30T11:07:11Z</time>
      </trkpt>
      <trkpt lat="45.9561478" lon="7.6695538">
        <ele>2801.6</ele>
        <time>2014-01-30T11:07:12Z</time>
      </trkpt>
      <trkpt lat="45.9560796" lon="7.6695992">
        <ele>2800.2</ele>
        <time>2014-01-30T11:07:13Z</time>
      </trkpt>
      <trkpt lat="45.9559732" lon="7.6696273">
        <ele>2799</ele>
        <time>2014-01-30T11:07:14Z</time>
      </trkpt>
      <trkpt lat="45.9559058" lon="7.6696749">
        <ele>2797.8</ele>
        <time>2014-01-30T11:07:15Z</time>
      </trkpt>
      <trkpt lat="45.9557959" lon="7.6697253">
        <ele>2796.2</ele>
        <time>2014-01-30T11:07:16Z</time>
      </trkpt>
      <trkpt lat="45.9557421" lon="7.6697622">
        <ele>2794.8</ele>
        <time>2014-01-30T11:07:17Z</time>
      </trkpt>
      <trkpt lat="45.955631" lon="7.6698565">
        <ele>2793.6</ele>
        <time>2014-01-30T11:07:18Z</time>
      </trkpt>
      <trkpt lat="45.9555557" lon="7.6698952">
        <ele>2792</ele>
        <time>2014-01-30T11:07:19Z</time>
      </trkpt>
      <trkpt lat="45.9553965" lon="7.6700523">
        <ele>2789.6</ele>
        <time>2014-01-30T11:07:21Z</time>
      </trkpt>
      <trkpt lat="45.9553214" lon="7.6701435">
        <ele>2788.4</ele>
        <time>2014-01-30T11:07:22Z</time>
      </trkpt>
      <trkpt lat="45.9552601" lon="7.6702094">
        <ele>2787</ele>
        <time>2014-01-30T11:07:23Z</time>
      </trkpt>
      <trkpt lat="45.9551594" lon="7.6703377">
        <ele>2785.8</ele>
        <time>2014-01-30T11:07:24Z</time>
      </trkpt>
      <trkpt lat="45.9550896" lon="7.6703951">
        <ele>2784</ele>
        <time>2014-01-30T11:07:25Z</time>
      </trkpt>
      <trkpt lat="45.9549959" lon="7.6705012">
        <ele>2782</ele>
        <time>2014-01-30T11:07:26Z</time>
      </trkpt>
      <trkpt lat="45.9549403" lon="7.6705599">
        <ele>2780.4</ele>
        <time>2014-01-30T11:07:27Z</time>
      </trkpt>
      <trkpt lat="45.9548224" lon="7.6706742">
        <ele>2778.8</ele>
        <time>2014-01-30T11:07:28Z</time>
      </trkpt>
      <trkpt lat="45.9547772" lon="7.6707497">
        <ele>2777.6</ele>
        <time>2014-01-30T11:07:29Z</time>
      </trkpt>
      <trkpt lat="45.9547025" lon="7.6709076">
        <ele>2776</ele>
        <time>2014-01-30T11:07:30Z</time>
      </trkpt>
      <trkpt lat="45.9546559" lon="7.6710053">
        <ele>2773.4</ele>
        <time>2014-01-30T11:07:31Z</time>
      </trkpt>
      <trkpt lat="45.9546193" lon="7.6711321">
        <ele>2773.4</ele>
        <time>2014-01-30T11:07:32Z</time>
      </trkpt>
      <trkpt lat="45.9546011" lon="7.6711707">
        <ele>2773.4</ele>
        <time>2014-01-30T11:07:33Z</time>
      </trkpt>
      <trkpt lat="45.9545298" lon="7.6713117">
        <ele>2772.2</ele>
        <time>2014-01-30T11:07:34Z</time>
      </trkpt>
      <trkpt lat="45.9544859" lon="7.6713922">
        <ele>2770.2</ele>
        <time>2014-01-30T11:07:35Z</time>
      </trkpt>
      <trkpt lat="45.9544564" lon="7.6713868">
        <ele>2769.2</ele>
        <time>2014-01-30T11:07:36Z</time>
      </trkpt>
      <trkpt lat="45.9544161" lon="7.6713616">
        <ele>2767.4</ele>
        <time>2014-01-30T11:07:37Z</time>
      </trkpt>
      <trkpt lat="45.9543475" lon="7.6713485">
        <ele>2766</ele>
        <time>2014-01-30T11:07:38Z</time>
      </trkpt>
      <trkpt lat="45.9543181" lon="7.671323">
        <ele>2764.6</ele>
        <time>2014-01-30T11:07:39Z</time>
      </trkpt>
      <trkpt lat="45.9543042" lon="7.6712353">
        <ele>2761.8</ele>
        <time>2014-01-30T11:07:40Z</time>
      </trkpt>
      <trkpt lat="45.9542728" lon="7.6712217">
        <ele>2760.4</ele>
        <time>2014-01-30T11:07:41Z</time>
      </trkpt>
      <trkpt lat="45.9542116" lon="7.6712423">
        <ele>2760.4</ele>
        <time>2014-01-30T11:07:43Z</time>
      </trkpt>
      <trkpt lat="45.9541719" lon="7.6712216">
        <ele>2759.4</ele>
        <time>2014-01-30T11:07:44Z</time>
      </trkpt>
      <trkpt lat="45.9541552" lon="7.6711663">
        <ele>2756.6</ele>
        <time>2014-01-30T11:07:45Z</time>
      </trkpt>
      <trkpt lat="45.9540925" lon="7.671105">
        <ele>2755</ele>
        <time>2014-01-30T11:07:46Z</time>
      </trkpt>
      <trkpt lat="45.9540554" lon="7.6710934">
        <ele>2754</ele>
        <time>2014-01-30T11:07:47Z</time>
      </trkpt>
      <trkpt lat="45.9539924" lon="7.6709931">
        <ele>2750.4</ele>
        <time>2014-01-30T11:07:48Z</time>
      </trkpt>
      <trkpt lat="45.9539353" lon="7.6709609">
        <ele>2748.2</ele>
        <time>2014-01-30T11:07:49Z</time>
      </trkpt>
      <trkpt lat="45.9538574" lon="7.6708967">
        <ele>2747</ele>
        <time>2014-01-30T11:07:50Z</time>
      </trkpt>
      <trkpt lat="45.9538085" lon="7.6708237">
        <ele>2741.4</ele>
        <time>2014-01-30T11:07:51Z</time>
      </trkpt>
      <trkpt lat="45.9537334" lon="7.6707815">
        <ele>2739.2</ele>
        <time>2014-01-30T11:07:52Z</time>
      </trkpt>
      <trkpt lat="45.9537017" lon="7.6706992">
        <ele>2737.8</ele>
        <time>2014-01-30T11:07:53Z</time>
      </trkpt>
      <trkpt lat="45.9536027" lon="7.6706271">
        <ele>2733.6</ele>
        <time>2014-01-30T11:07:54Z</time>
      </trkpt>
      <trkpt lat="45.9535605" lon="7.670595">
        <ele>2730.8</ele>
        <time>2014-01-30T11:07:55Z</time>
      </trkpt>
      <trkpt lat="45.9534867" lon="7.670487">
        <ele>2729.4</ele>
        <time>2014-01-30T11:07:56Z</time>
      </trkpt>
      <trkpt lat="45.9534422" lon="7.6704898">
        <ele>2728.2</ele>
        <time>2014-01-30T11:07:57Z</time>
      </trkpt>
      <trkpt lat="45.9533539" lon="7.6705045">
        <ele>2727</ele>
        <time>2014-01-30T11:07:58Z</time>
      </trkpt>
      <trkpt lat="45.9533044" lon="7.6705164">
        <ele>2725.8</ele>
        <time>2014-01-30T11:07:59Z</time>
      </trkpt>
      <trkpt lat="45.9532033" lon="7.670539">
        <ele>2724.6</ele>
        <time>2014-01-30T11:08:00Z</time>
      </trkpt>
      <trkpt lat="45.9531543" lon="7.6705059">
        <ele>2721</ele>
        <time>2014-01-30T11:08:01Z</time>
      </trkpt>
      <trkpt lat="45.953041" lon="7.6704919">
        <ele>2718.6</ele>
        <time>2014-01-30T11:08:02Z</time>
      </trkpt>
      <trkpt lat="45.9529944" lon="7.6705174">
        <ele>2717.4</ele>
        <time>2014-01-30T11:08:03Z</time>
      </trkpt>
      <trkpt lat="45.9528887" lon="7.6705396">
        <ele>2716</ele>
        <time>2014-01-30T11:08:04Z</time>
      </trkpt>
      <trkpt lat="45.9528426" lon="7.6705871">
        <ele>2713.2</ele>
        <time>2014-01-30T11:08:05Z</time>
      </trkpt>
      <trkpt lat="45.952744" lon="7.6706885">
        <ele>2711.8</ele>
        <time>2014-01-30T11:08:06Z</time>
      </trkpt>
      <trkpt lat="45.9526989" lon="7.6707396">
        <ele>2709.2</ele>
        <time>2014-01-30T11:08:07Z</time>
      </trkpt>
      <trkpt lat="45.952586" lon="7.6708738">
        <ele>2708</ele>
        <time>2014-01-30T11:08:08Z</time>
      </trkpt>
      <trkpt lat="45.9525222" lon="7.6709584">
        <ele>2705.4</ele>
        <time>2014-01-30T11:08:09Z</time>
      </trkpt>
      <trkpt lat="45.952425" lon="7.6710907">
        <ele>2704.2</ele>
        <time>2014-01-30T11:08:10Z</time>
      </trkpt>
      <trkpt lat="45.9521731" lon="7.671478">
        <ele>2703</ele>
        <time>2014-01-30T11:08:14Z</time>
      </trkpt>
      <trkpt lat="45.9520322" lon="7.6716113">
        <ele>2701.8</ele>
        <time>2014-01-30T11:08:16Z</time>
      </trkpt>
      <trkpt lat="45.951989" lon="7.6716601">
        <ele>2699.6</ele>
        <time>2014-01-30T11:08:17Z</time>
      </trkpt>
      <trkpt lat="45.9519118" lon="7.671787">
        <ele>2699.6</ele>
        <time>2014-01-30T11:08:18Z</time>
      </trkpt>
      <trkpt lat="45.9518879" lon="7.6718644">
        <ele>2698.4</ele>
        <time>2014-01-30T11:08:19Z</time>
      </trkpt>
      <trkpt lat="45.951812" lon="7.6719809">
        <ele>2696.2</ele>
        <time>2014-01-30T11:08:20Z</time>
      </trkpt>
      <trkpt lat="45.951745" lon="7.6720136">
        <ele>2693.6</ele>
        <time>2014-01-30T11:08:21Z</time>
      </trkpt>
      <trkpt lat="45.9516511" lon="7.6721339">
        <ele>2691.6</ele>
        <time>2014-01-30T11:08:22Z</time>
      </trkpt>
      <trkpt lat="45.9515908" lon="7.6721924">
        <ele>2690</ele>
        <time>2014-01-30T11:08:23Z</time>
      </trkpt>
      <trkpt lat="45.9514606" lon="7.6721845">
        <ele>2685</ele>
        <time>2014-01-30T11:08:24Z</time>
      </trkpt>
      <trkpt lat="45.9513805" lon="7.6721891">
        <ele>2682.2</ele>
        <time>2014-01-30T11:08:25Z</time>
      </trkpt>
      <trkpt lat="45.9512535" lon="7.672218">
        <ele>2680.8</ele>
        <time>2014-01-30T11:08:26Z</time>
      </trkpt>
      <trkpt lat="45.9511905" lon="7.6721934">
        <ele>2676</ele>
        <time>2014-01-30T11:08:27Z</time>
      </trkpt>
      <trkpt lat="45.9510551" lon="7.6721607">
        <ele>2672.4</ele>
        <time>2014-01-30T11:08:28Z</time>
      </trkpt>
      <trkpt lat="45.9509869" lon="7.672178">
        <ele>2672.4</ele>
        <time>2014-01-30T11:08:29Z</time>
      </trkpt>
      <trkpt lat="45.9508392" lon="7.6721176">
        <ele>2667.8</ele>
        <time>2014-01-30T11:08:30Z</time>
      </trkpt>
      <trkpt lat="45.9507402" lon="7.6721083">
        <ele>2665.4</ele>
        <time>2014-01-30T11:08:31Z</time>
      </trkpt>
      <trkpt lat="45.950603" lon="7.672074">
        <ele>2662.6</ele>
        <time>2014-01-30T11:08:32Z</time>
      </trkpt>
      <trkpt lat="45.9505132" lon="7.6720408">
        <ele>2659.8</ele>
        <time>2014-01-30T11:08:33Z</time>
      </trkpt>
      <trkpt lat="45.9503375" lon="7.6720155">
        <ele>2656.6</ele>
        <time>2014-01-30T11:08:34Z</time>
      </trkpt>
      <trkpt lat="45.9502646" lon="7.6719661">
        <ele>2655.4</ele>
        <time>2014-01-30T11:08:35Z</time>
      </trkpt>
      <trkpt lat="45.9500966" lon="7.6719177">
        <ele>2653.8</ele>
        <time>2014-01-30T11:08:36Z</time>
      </trkpt>
      <trkpt lat="45.9500219" lon="7.6718731">
        <ele>2652</ele>
        <time>2014-01-30T11:08:37Z</time>
      </trkpt>
      <trkpt lat="45.9498445" lon="7.6718344">
        <ele>2650</ele>
        <time>2014-01-30T11:08:38Z</time>
      </trkpt>
      <trkpt lat="45.9497664" lon="7.6717788">
        <ele>2648.2</ele>
        <time>2014-01-30T11:08:39Z</time>
      </trkpt>
      <trkpt lat="45.9496011" lon="7.6717416">
        <ele>2646.2</ele>
        <time>2014-01-30T11:08:40Z</time>
      </trkpt>
      <trkpt lat="45.9495301" lon="7.6717152">
        <ele>2644.4</ele>
        <time>2014-01-30T11:08:41Z</time>
      </trkpt>
      <trkpt lat="45.9493682" lon="7.6716972">
        <ele>2640.4</ele>
        <time>2014-01-30T11:08:42Z</time>
      </trkpt>
      <trkpt lat="45.94929" lon="7.6717074">
        <ele>2639</ele>
        <time>2014-01-30T11:08:43Z</time>
      </trkpt>
      <trkpt lat="45.9491334" lon="7.6716914">
        <ele>2634.6</ele>
        <time>2014-01-30T11:08:44Z</time>
      </trkpt>
      <trkpt lat="45.949065" lon="7.6717031">
        <ele>2633.2</ele>
        <time>2014-01-30T11:08:45Z</time>
      </trkpt>
      <trkpt lat="45.948921" lon="7.6716171">
        <ele>2628.4</ele>
        <time>2014-01-30T11:08:46Z</time>
      </trkpt>
      <trkpt lat="45.9488455" lon="7.6715713">
        <ele>2626</ele>
        <time>2014-01-30T11:08:47Z</time>
      </trkpt>
      <trkpt lat="45.948661" lon="7.6715438">
        <ele>2619.8</ele>
        <time>2014-01-30T11:08:48Z</time>
      </trkpt>
      <trkpt lat="45.9485727" lon="7.6715842">
        <ele>2618.2</ele>
        <time>2014-01-30T11:08:49Z</time>
      </trkpt>
      <trkpt lat="45.9484097" lon="7.6716378">
        <ele>2614.2</ele>
        <time>2014-01-30T11:08:50Z</time>
      </trkpt>
      <trkpt lat="45.9483367" lon="7.6716171">
        <ele>2613.2</ele>
        <time>2014-01-30T11:08:51Z</time>
      </trkpt>
      <trkpt lat="45.9481981" lon="7.6716564">
        <ele>2609.6</ele>
        <time>2014-01-30T11:08:52Z</time>
      </trkpt>
      <trkpt lat="45.948115" lon="7.6716285">
        <ele>2608</ele>
        <time>2014-01-30T11:08:53Z</time>
      </trkpt>
      <trkpt lat="45.9479629" lon="7.6716032">
        <ele>2603.2</ele>
        <time>2014-01-30T11:08:54Z</time>
      </trkpt>
      <trkpt lat="45.9479099" lon="7.6715404">
        <ele>2601.8</ele>
        <time>2014-01-30T11:08:55Z</time>
      </trkpt>
      <trkpt lat="45.9477834" lon="7.6714343">
        <ele>2597.2</ele>
        <time>2014-01-30T11:08:56Z</time>
      </trkpt>
      <trkpt lat="45.9477165" lon="7.6713893">
        <ele>2594</ele>
        <time>2014-01-30T11:08:57Z</time>
      </trkpt>
      <trkpt lat="45.9475968" lon="7.6712611">
        <ele>2590.8</ele>
        <time>2014-01-30T11:08:58Z</time>
      </trkpt>
      <trkpt lat="45.9475521" lon="7.671162">
        <ele>2589</ele>
        <time>2014-01-30T11:08:59Z</time>
      </trkpt>
      <trkpt lat="45.9474411" lon="7.6709808">
        <ele>2586.6</ele>
        <time>2014-01-30T11:09:00Z</time>
      </trkpt>
      <trkpt lat="45.9473821" lon="7.6709019">
        <ele>2584.4</ele>
        <time>2014-01-30T11:09:01Z</time>
      </trkpt>
      <trkpt lat="45.9472896" lon="7.6707354">
        <ele>2583.4</ele>
        <time>2014-01-30T11:09:02Z</time>
      </trkpt>
      <trkpt lat="45.9472416" lon="7.6706421">
        <ele>2582</ele>
        <time>2014-01-30T11:09:03Z</time>
      </trkpt>
      <trkpt lat="45.9471463" lon="7.6704823">
        <ele>2579.4</ele>
        <time>2014-01-30T11:09:04Z</time>
      </trkpt>
      <trkpt lat="45.9471231" lon="7.670394">
        <ele>2579.4</ele>
        <time>2014-01-30T11:09:05Z</time>
      </trkpt>
      <trkpt lat="45.9470292" lon="7.6702356">
        <ele>2577</ele>
        <time>2014-01-30T11:09:06Z</time>
      </trkpt>
      <trkpt lat="45.9470155" lon="7.6701425">
        <ele>2575.2</ele>
        <time>2014-01-30T11:09:07Z</time>
      </trkpt>
      <trkpt lat="45.946942" lon="7.6699416">
        <ele>2573.4</ele>
        <time>2014-01-30T11:09:08Z</time>
      </trkpt>
      <trkpt lat="45.9469098" lon="7.6698494">
        <ele>2571</ele>
        <time>2014-01-30T11:09:09Z</time>
      </trkpt>
      <trkpt lat="45.9468458" lon="7.6696539">
        <ele>2569.6</ele>
        <time>2014-01-30T11:09:10Z</time>
      </trkpt>
      <trkpt lat="45.9468168" lon="7.6695743">
        <ele>2568.2</ele>
        <time>2014-01-30T11:09:11Z</time>
      </trkpt>
      <trkpt lat="45.9467774" lon="7.6693675">
        <ele>2566.2</ele>
        <time>2014-01-30T11:09:12Z</time>
      </trkpt>
      <trkpt lat="45.9467453" lon="7.6692681">
        <ele>2564.4</ele>
        <time>2014-01-30T11:09:13Z</time>
      </trkpt>
      <trkpt lat="45.9466919" lon="7.6690687">
        <ele>2562.6</ele>
        <time>2014-01-30T11:09:14Z</time>
      </trkpt>
      <trkpt lat="45.9466569" lon="7.668979">
        <ele>2561.2</ele>
        <time>2014-01-30T11:09:15Z</time>
      </trkpt>
      <trkpt lat="45.9466387" lon="7.6687678">
        <ele>2558.8</ele>
        <time>2014-01-30T11:09:16Z</time>
      </trkpt>
      <trkpt lat="45.9466552" lon="7.6686709">
        <ele>2557.4</ele>
        <time>2014-01-30T11:09:17Z</time>
      </trkpt>
      <trkpt lat="45.9466605" lon="7.6684276">
        <ele>2554</ele>
        <time>2014-01-30T11:09:18Z</time>
      </trkpt>
      <trkpt lat="45.9466324" lon="7.668316">
        <ele>2550.8</ele>
        <time>2014-01-30T11:09:19Z</time>
      </trkpt>
      <trkpt lat="45.9465327" lon="7.6681384">
        <ele>2549.6</ele>
        <time>2014-01-30T11:09:20Z</time>
      </trkpt>
      <trkpt lat="45.9464901" lon="7.6680576">
        <ele>2548.2</ele>
        <time>2014-01-30T11:09:21Z</time>
      </trkpt>
      <trkpt lat="45.9464636" lon="7.6678566">
        <ele>2545.6</ele>
        <time>2014-01-30T11:09:22Z</time>
      </trkpt>
      <trkpt lat="45.946424" lon="7.6677375">
        <ele>2543.2</ele>
        <time>2014-01-30T11:09:23Z</time>
      </trkpt>
      <trkpt lat="45.9463274" lon="7.6675641">
        <ele>2539.2</ele>
        <time>2014-01-30T11:09:24Z</time>
      </trkpt>
      <trkpt lat="45.9463135" lon="7.6674592">
        <ele>2538</ele>
        <time>2014-01-30T11:09:25Z</time>
      </trkpt>
      <trkpt lat="45.9462669" lon="7.667239">
        <ele>2534.2</ele>
        <time>2014-01-30T11:09:26Z</time>
      </trkpt>
      <trkpt lat="45.9461992" lon="7.6671816">
        <ele>2533</ele>
        <time>2014-01-30T11:09:27Z</time>
      </trkpt>
      <trkpt lat="45.9461263" lon="7.6669838">
        <ele>2529.2</ele>
        <time>2014-01-30T11:09:28Z</time>
      </trkpt>
      <trkpt lat="45.946115" lon="7.6668762">
        <ele>2527.4</ele>
        <time>2014-01-30T11:09:29Z</time>
      </trkpt>
      <trkpt lat="45.9460058" lon="7.6666875">
        <ele>2525</ele>
        <time>2014-01-30T11:09:30Z</time>
      </trkpt>
      <trkpt lat="45.9459585" lon="7.6666124">
        <ele>2522.8</ele>
        <time>2014-01-30T11:09:31Z</time>
      </trkpt>
      <trkpt lat="45.945901" lon="7.6664058">
        <ele>2520.6</ele>
        <time>2014-01-30T11:09:32Z</time>
      </trkpt>
      <trkpt lat="45.9458738" lon="7.6662877">
        <ele>2518.2</ele>
        <time>2014-01-30T11:09:33Z</time>
      </trkpt>
      <trkpt lat="45.945823" lon="7.6660627">
        <ele>2515.8</ele>
        <time>2014-01-30T11:09:34Z</time>
      </trkpt>
      <trkpt lat="45.9457606" lon="7.6660045">
        <ele>2514</ele>
        <time>2014-01-30T11:09:35Z</time>
      </trkpt>
      <trkpt lat="45.9456231" lon="7.6658943">
        <ele>2511.6</ele>
        <time>2014-01-30T11:09:36Z</time>
      </trkpt>
      <trkpt lat="45.9455752" lon="7.665821">
        <ele>2510</ele>
        <time>2014-01-30T11:09:37Z</time>
      </trkpt>
      <trkpt lat="45.9454708" lon="7.6656216">
        <ele>2506.8</ele>
        <time>2014-01-30T11:09:38Z</time>
      </trkpt>
      <trkpt lat="45.945402" lon="7.6655573">
        <ele>2505.2</ele>
        <time>2014-01-30T11:09:39Z</time>
      </trkpt>
      <trkpt lat="45.9452751" lon="7.6654255">
        <ele>2502</ele>
        <time>2014-01-30T11:09:40Z</time>
      </trkpt>
      <trkpt lat="45.9452313" lon="7.6653325">
        <ele>2500.2</ele>
        <time>2014-01-30T11:09:41Z</time>
      </trkpt>
      <trkpt lat="45.9450984" lon="7.6651897">
        <ele>2497.8</ele>
        <time>2014-01-30T11:09:42Z</time>
      </trkpt>
      <trkpt lat="45.9450286" lon="7.6651194">
        <ele>2495.6</ele>
        <time>2014-01-30T11:09:43Z</time>
      </trkpt>
      <trkpt lat="45.9448981" lon="7.6649638">
        <ele>2492.8</ele>
        <time>2014-01-30T11:09:44Z</time>
      </trkpt>
      <trkpt lat="45.9448286" lon="7.6649191">
        <ele>2489.2</ele>
        <time>2014-01-30T11:09:45Z</time>
      </trkpt>
      <trkpt lat="45.9447004" lon="7.6647564">
        <ele>2485</ele>
        <time>2014-01-30T11:09:46Z</time>
      </trkpt>
      <trkpt lat="45.9446406" lon="7.6646709">
        <ele>2483.4</ele>
        <time>2014-01-30T11:09:47Z</time>
      </trkpt>
      <trkpt lat="45.9444804" lon="7.6645362">
        <ele>2479.2</ele>
        <time>2014-01-30T11:09:48Z</time>
      </trkpt>
      <trkpt lat="45.9444148" lon="7.6644488">
        <ele>2478.2</ele>
        <time>2014-01-30T11:09:49Z</time>
      </trkpt>
      <trkpt lat="45.9442846" lon="7.6642978">
        <ele>2476.2</ele>
        <time>2014-01-30T11:09:50Z</time>
      </trkpt>
      <trkpt lat="45.9442142" lon="7.6642527">
        <ele>2474.6</ele>
        <time>2014-01-30T11:09:51Z</time>
      </trkpt>
      <trkpt lat="45.9440952" lon="7.6641307">
        <ele>2472.8</ele>
        <time>2014-01-30T11:09:52Z</time>
      </trkpt>
      <trkpt lat="45.9440219" lon="7.6640483">
        <ele>2471.8</ele>
        <time>2014-01-30T11:09:53Z</time>
      </trkpt>
      <trkpt lat="45.9438813" lon="7.6639486">
        <ele>2469.8</ele>
        <time>2014-01-30T11:09:54Z</time>
      </trkpt>
      <trkpt lat="45.9438264" lon="7.6638885">
        <ele>2468.8</ele>
        <time>2014-01-30T11:09:55Z</time>
      </trkpt>
      <trkpt lat="45.9436984" lon="7.6637727">
        <ele>2467</ele>
        <time>2014-01-30T11:09:56Z</time>
      </trkpt>
      <trkpt lat="45.9436337" lon="7.6637352">
        <ele>2465.4</ele>
        <time>2014-01-30T11:09:57Z</time>
      </trkpt>
      <trkpt lat="45.9435089" lon="7.6636333">
        <ele>2464.4</ele>
        <time>2014-01-30T11:09:58Z</time>
      </trkpt>
      <trkpt lat="45.943457" lon="7.6635897">
        <ele>2463.2</ele>
        <time>2014-01-30T11:09:59Z</time>
      </trkpt>
      <trkpt lat="45.9433465" lon="7.6634913">
        <ele>2462.2</ele>
        <time>2014-01-30T11:10:00Z</time>
      </trkpt>
      <trkpt lat="45.9431994" lon="7.6633448">
        <ele>2460.6</ele>
        <time>2014-01-30T11:10:02Z</time>
      </trkpt>
      <trkpt lat="45.9430647" lon="7.6631938">
        <ele>2460.6</ele>
        <time>2014-01-30T11:10:04Z</time>
      </trkpt>
      <trkpt lat="45.9430345" lon="7.6631473">
        <ele>2459.6</ele>
        <time>2014-01-30T11:10:05Z</time>
      </trkpt>
      <trkpt lat="45.9429338" lon="7.6629835">
        <ele>2458.4</ele>
        <time>2014-01-30T11:10:07Z</time>
      </trkpt>
      <trkpt lat="45.942872" lon="7.6628615">
        <ele>2458.4</ele>
        <time>2014-01-30T11:10:08Z</time>
      </trkpt>
      <trkpt lat="45.9427924" lon="7.6626714">
        <ele>2458.4</ele>
        <time>2014-01-30T11:10:11Z</time>
      </trkpt>
      <trkpt lat="45.9427673" lon="7.6625766">
        <ele>2458.4</ele>
        <time>2014-01-30T11:10:12Z</time>
      </trkpt>
      <trkpt lat="45.9427245" lon="7.6623805">
        <ele>2456.4</ele>
        <time>2014-01-30T11:10:15Z</time>
      </trkpt>
      <trkpt lat="45.9426958" lon="7.6622109">
        <ele>2455.2</ele>
        <time>2014-01-30T11:10:17Z</time>
      </trkpt>
      <trkpt lat="45.9426778" lon="7.6620834">
        <ele>2455.2</ele>
        <time>2014-01-30T11:10:18Z</time>
      </trkpt>
      <trkpt lat="45.9426671" lon="7.6620194">
        <ele>2454</ele>
        <time>2014-01-30T11:10:19Z</time>
      </trkpt>
      <trkpt lat="45.942641" lon="7.6618912">
        <ele>2451.6</ele>
        <time>2014-01-30T11:10:20Z</time>
      </trkpt>
      <trkpt lat="45.9426341" lon="7.6617958">
        <ele>2450.2</ele>
        <time>2014-01-30T11:10:21Z</time>
      </trkpt>
      <trkpt lat="45.9425985" lon="7.6616645">
        <ele>2450.2</ele>
        <time>2014-01-30T11:10:22Z</time>
      </trkpt>
      <trkpt lat="45.9425475" lon="7.6614013">
        <ele>2449</ele>
        <time>2014-01-30T11:10:24Z</time>
      </trkpt>
      <trkpt lat="45.9425325" lon="7.6613273">
        <ele>2447.6</ele>
        <time>2014-01-30T11:10:25Z</time>
      </trkpt>
      <trkpt lat="45.9424869" lon="7.6610983">
        <ele>2447.6</ele>
        <time>2014-01-30T11:10:27Z</time>
      </trkpt>
      <trkpt lat="45.9424494" lon="7.660956">
        <ele>2446.4</ele>
        <time>2014-01-30T11:10:28Z</time>
      </trkpt>
      <trkpt lat="45.9423708" lon="7.6606222">
        <ele>2445.4</ele>
        <time>2014-01-30T11:10:32Z</time>
      </trkpt>
      <trkpt lat="45.9423278" lon="7.660344">
        <ele>2444.4</ele>
        <time>2014-01-30T11:10:36Z</time>
      </trkpt>
      <trkpt lat="45.94231" lon="7.6602093">
        <ele>2444.4</ele>
        <time>2014-01-30T11:10:38Z</time>
      </trkpt>
      <trkpt lat="45.9423048" lon="7.6601659">
        <ele>2443.4</ele>
        <time>2014-01-30T11:10:39Z</time>
      </trkpt>
      <trkpt lat="45.9422706" lon="7.6598865">
        <ele>2442.4</ele>
        <time>2014-01-30T11:10:43Z</time>
      </trkpt>
      <trkpt lat="45.9422445" lon="7.6597352">
        <ele>2441.2</ele>
        <time>2014-01-30T11:10:45Z</time>
      </trkpt>
      <trkpt lat="45.9422141" lon="7.6595742">
        <ele>2440.2</ele>
        <time>2014-01-30T11:10:47Z</time>
      </trkpt>
      <trkpt lat="45.9421715" lon="7.6593943">
        <ele>2439.2</ele>
        <time>2014-01-30T11:10:49Z</time>
      </trkpt>
      <trkpt lat="45.9421492" lon="7.6592716">
        <ele>2438</ele>
        <time>2014-01-30T11:10:50Z</time>
      </trkpt>
      <trkpt lat="45.9421382" lon="7.6591865">
        <ele>2438</ele>
        <time>2014-01-30T11:10:51Z</time>
      </trkpt>
      <trkpt lat="45.9421232" lon="7.6590756">
        <ele>2437</ele>
        <time>2014-01-30T11:10:52Z</time>
      </trkpt>
      <trkpt lat="45.9421125" lon="7.6589902">
        <ele>2435.8</ele>
        <time>2014-01-30T11:10:53Z</time>
      </trkpt>
      <trkpt lat="45.9420887" lon="7.658828">
        <ele>2434.4</ele>
        <time>2014-01-30T11:10:54Z</time>
      </trkpt>
      <trkpt lat="45.942073" lon="7.658748">
        <ele>2433.2</ele>
        <time>2014-01-30T11:10:55Z</time>
      </trkpt>
      <trkpt lat="45.9420332" lon="7.6585826">
        <ele>2432.2</ele>
        <time>2014-01-30T11:10:56Z</time>
      </trkpt>
      <trkpt lat="45.9420104" lon="7.6584946">
        <ele>2431</ele>
        <time>2014-01-30T11:10:57Z</time>
      </trkpt>
      <trkpt lat="45.9419615" lon="7.6583058">
        <ele>2430</ele>
        <time>2014-01-30T11:10:58Z</time>
      </trkpt>
      <trkpt lat="45.9419408" lon="7.6582169">
        <ele>2427.6</ele>
        <time>2014-01-30T11:10:59Z</time>
      </trkpt>
      <trkpt lat="45.9418971" lon="7.6580098">
        <ele>2426.4</ele>
        <time>2014-01-30T11:11:00Z</time>
      </trkpt>
      <trkpt lat="45.9418763" lon="7.6579017">
        <ele>2424</ele>
        <time>2014-01-30T11:11:01Z</time>
      </trkpt>
      <trkpt lat="45.9418357" lon="7.6576931">
        <ele>2422.8</ele>
        <time>2014-01-30T11:11:02Z</time>
      </trkpt>
      <trkpt lat="45.9418146" lon="7.6575679">
        <ele>2421.8</ele>
        <time>2014-01-30T11:11:03Z</time>
      </trkpt>
      <trkpt lat="45.9417751" lon="7.6573378">
        <ele>2419</ele>
        <time>2014-01-30T11:11:04Z</time>
      </trkpt>
      <trkpt lat="45.9417207" lon="7.6570189">
        <ele>2417.4</ele>
        <time>2014-01-30T11:11:06Z</time>
      </trkpt>
      <trkpt lat="45.9417068" lon="7.6569244">
        <ele>2416</ele>
        <time>2014-01-30T11:11:07Z</time>
      </trkpt>
      <trkpt lat="45.9416745" lon="7.656689">
        <ele>2414.8</ele>
        <time>2014-01-30T11:11:08Z</time>
      </trkpt>
      <trkpt lat="45.9416379" lon="7.6564158">
        <ele>2414.8</ele>
        <time>2014-01-30T11:11:10Z</time>
      </trkpt>
      <trkpt lat="45.9416251" lon="7.6563449">
        <ele>2413.8</ele>
        <time>2014-01-30T11:11:11Z</time>
      </trkpt>
      <trkpt lat="45.9415441" lon="7.6559423">
        <ele>2413.8</ele>
        <time>2014-01-30T11:11:15Z</time>
      </trkpt>
      <trkpt lat="45.9414907" lon="7.6557162">
        <ele>2412.6</ele>
        <time>2014-01-30T11:11:18Z</time>
      </trkpt>
      <trkpt lat="45.9414636" lon="7.6555972">
        <ele>2412.6</ele>
        <time>2014-01-30T11:11:20Z</time>
      </trkpt>
      <trkpt lat="45.9414081" lon="7.6554243">
        <ele>2412.6</ele>
        <time>2014-01-30T11:11:25Z</time>
      </trkpt>
      <trkpt lat="45.9413233" lon="7.655222">
        <ele>2412.6</ele>
        <time>2014-01-30T11:11:32Z</time>
      </trkpt>
      <trkpt lat="45.9412915" lon="7.6551363">
        <ele>2412.6</ele>
        <time>2014-01-30T11:11:37Z</time>
      </trkpt>
      <trkpt lat="45.9412818" lon="7.655124">
        <ele>2412.6</ele>
        <time>2014-01-30T11:11:43Z</time>
      </trkpt>
      <trkpt lat="45.9412784" lon="7.6551405">
        <ele>2412.6</ele>
        <time>2014-01-30T11:11:51Z</time>
      </trkpt>
      <trkpt lat="45.9412818" lon="7.6551428">
        <ele>2412.6</ele>
        <time>2014-01-30T11:12:07Z</time>
      </trkpt>
      <trkpt lat="45.9412814" lon="7.6551509">
        <ele>2412.6</ele>
        <time>2014-01-30T11:12:14Z</time>
      </trkpt>
      <trkpt lat="45.9412798" lon="7.6551568">
        <ele>2412.6</ele>
        <time>2014-01-30T11:12:25Z</time>
      </trkpt>
      <trkpt lat="45.9412819" lon="7.6551585">
        <ele>2412.6</ele>
        <time>2014-01-30T11:12:36Z</time>
      </trkpt>
      <trkpt lat="45.9412767" lon="7.6551348">
        <ele>2412.6</ele>
        <time>2014-01-30T11:12:42Z</time>
      </trkpt>
      <trkpt lat="45.9412456" lon="7.6551529">
        <ele>2412.6</ele>
        <time>2014-01-30T11:12:49Z</time>
      </trkpt>
      <trkpt lat="45.9412196" lon="7.6552001">
        <ele>2412.6</ele>
        <time>2014-01-30T11:12:54Z</time>
      </trkpt>
      <trkpt lat="45.9412161" lon="7.6551985">
        <ele>2412.6</ele>
        <time>2014-01-30T11:13:00Z</time>
      </trkpt>
      <trkpt lat="45.9411965" lon="7.6552011">
        <ele>2412.6</ele>
        <time>2014-01-30T11:13:01Z</time>
      </trkpt>
      <trkpt lat="45.941158" lon="7.6552059">
        <ele>2412.6</ele>
        <time>2014-01-30T11:13:04Z</time>
      </trkpt>
      <trkpt lat="45.9411481" lon="7.6551971">
        <ele>2411.6</ele>
        <time>2014-01-30T11:13:05Z</time>
      </trkpt>
      <trkpt lat="45.9410151" lon="7.6552191">
        <ele>2411.6</ele>
        <time>2014-01-30T11:13:09Z</time>
      </trkpt>
      <trkpt lat="45.9409638" lon="7.6552457">
        <ele>2410.6</ele>
        <time>2014-01-30T11:13:10Z</time>
      </trkpt>
      <trkpt lat="45.9409374" lon="7.6552809">
        <ele>2410.6</ele>
        <time>2014-01-30T11:13:11Z</time>
      </trkpt>
      <trkpt lat="45.9408375" lon="7.6553518">
        <ele>2410.6</ele>
        <time>2014-01-30T11:13:13Z</time>
      </trkpt>
      <trkpt lat="45.9407805" lon="7.6553966">
        <ele>2410.6</ele>
        <time>2014-01-30T11:13:16Z</time>
      </trkpt>
      <trkpt lat="45.9408198" lon="7.6554133">
        <ele>2410.6</ele>
        <time>2014-01-30T11:13:20Z</time>
      </trkpt>
      <trkpt lat="45.9409664" lon="7.6553855">
        <ele>2410.6</ele>
        <time>2014-01-30T11:13:25Z</time>
      </trkpt>
      <trkpt lat="45.9410146" lon="7.6553513">
        <ele>2410.6</ele>
        <time>2014-01-30T11:13:29Z</time>
      </trkpt>
      <trkpt lat="45.9410627" lon="7.6553377">
        <ele>2410.6</ele>
        <time>2014-01-30T11:13:33Z</time>
      </trkpt>
      <trkpt lat="45.9411408" lon="7.6553801">
        <ele>2410.6</ele>
        <time>2014-01-30T11:13:39Z</time>
      </trkpt>
      <trkpt lat="45.9411056" lon="7.6554823">
        <ele>2410.6</ele>
        <time>2014-01-30T11:13:45Z</time>
      </trkpt>
      <trkpt lat="45.9411079" lon="7.6554962">
        <ele>2410.6</ele>
        <time>2014-01-30T11:13:47Z</time>
      </trkpt>
      <trkpt lat="45.9411286" lon="7.6555409">
        <ele>2410.6</ele>
        <time>2014-01-30T11:13:51Z</time>
      </trkpt>
      <trkpt lat="45.9411067" lon="7.6555598">
        <ele>2410.6</ele>
        <time>2014-01-30T11:13:55Z</time>
      </trkpt>
      <trkpt lat="45.9411101" lon="7.6554922">
        <ele>2410.6</ele>
        <time>2014-01-30T11:14:02Z</time>
      </trkpt>
      <trkpt lat="45.9411092" lon="7.6554674">
        <ele>2410.6</ele>
        <time>2014-01-30T11:14:07Z</time>
      </trkpt>
      <trkpt lat="45.9410602" lon="7.6554627">
        <ele>2410.6</ele>
        <time>2014-01-30T11:14:17Z</time>
      </trkpt>
      <trkpt lat="45.9410431" lon="7.6554733">
        <ele>2410.6</ele>
        <time>2014-01-30T11:14:19Z</time>
      </trkpt>
      <trkpt lat="45.9410373" lon="7.6555023">
        <ele>2410.6</ele>
        <time>2014-01-30T11:14:24Z</time>
      </trkpt>
      <trkpt lat="45.9410487" lon="7.6555273">
        <ele>2410.6</ele>
        <time>2014-01-30T11:14:29Z</time>
      </trkpt>
      <trkpt lat="45.9410607" lon="7.6556026">
        <ele>2410.6</ele>
        <time>2014-01-30T11:14:33Z</time>
      </trkpt>
      <trkpt lat="45.9410094" lon="7.655734">
        <ele>2410.6</ele>
        <time>2014-01-30T11:14:35Z</time>
      </trkpt>
      <trkpt lat="45.9409832" lon="7.6558135">
        <ele>2410.6</ele>
        <time>2014-01-30T11:14:37Z</time>
      </trkpt>
      <trkpt lat="45.94096" lon="7.6559049">
        <ele>2409.2</ele>
        <time>2014-01-30T11:14:38Z</time>
      </trkpt>
      <trkpt lat="45.9409209" lon="7.65599">
        <ele>2408</ele>
        <time>2014-01-30T11:14:39Z</time>
      </trkpt>
      <trkpt lat="45.9408862" lon="7.6560786">
        <ele>2408</ele>
        <time>2014-01-30T11:14:41Z</time>
      </trkpt>
      <trkpt lat="45.9408563" lon="7.6561544">
        <ele>2406.8</ele>
        <time>2014-01-30T11:14:42Z</time>
      </trkpt>
      <trkpt lat="45.940829" lon="7.6562243">
        <ele>2405.6</ele>
        <time>2014-01-30T11:14:43Z</time>
      </trkpt>
      <trkpt lat="45.9408084" lon="7.6562731">
        <ele>2404.6</ele>
        <time>2014-01-30T11:14:44Z</time>
      </trkpt>
      <trkpt lat="45.9407613" lon="7.6563832">
        <ele>2403.4</ele>
        <time>2014-01-30T11:14:46Z</time>
      </trkpt>
      <trkpt lat="45.9407137" lon="7.6564912">
        <ele>2402.2</ele>
        <time>2014-01-30T11:14:48Z</time>
      </trkpt>
      <trkpt lat="45.9406553" lon="7.6566283">
        <ele>2401.2</ele>
        <time>2014-01-30T11:14:51Z</time>
      </trkpt>
      <trkpt lat="45.9406411" lon="7.6566896">
        <ele>2401.2</ele>
        <time>2014-01-30T11:14:52Z</time>
      </trkpt>
      <trkpt lat="45.940523" lon="7.6569719">
        <ele>2401.2</ele>
        <time>2014-01-30T11:14:57Z</time>
      </trkpt>
      <trkpt lat="45.9404057" lon="7.657223">
        <ele>2404.4</ele>
        <time>2014-01-30T11:15:02Z</time>
      </trkpt>
      <trkpt lat="45.9403749" lon="7.657283">
        <ele>2405.4</ele>
        <time>2014-01-30T11:15:03Z</time>
      </trkpt>
      <trkpt lat="45.9403286" lon="7.657382">
        <ele>2406.6</ele>
        <time>2014-01-30T11:15:05Z</time>
      </trkpt>
      <trkpt lat="45.9402795" lon="7.6574814">
        <ele>2407.6</ele>
        <time>2014-01-30T11:15:07Z</time>
      </trkpt>
      <trkpt lat="45.940258" lon="7.6575293">
        <ele>2408.8</ele>
        <time>2014-01-30T11:15:08Z</time>
      </trkpt>
      <trkpt lat="45.9402324" lon="7.6575821">
        <ele>2409.8</ele>
        <time>2014-01-30T11:15:09Z</time>
      </trkpt>
      <trkpt lat="45.9401868" lon="7.6576792">
        <ele>2411</ele>
        <time>2014-01-30T11:15:11Z</time>
      </trkpt>
      <trkpt lat="45.9401169" lon="7.6578372">
        <ele>2412.2</ele>
        <time>2014-01-30T11:15:14Z</time>
      </trkpt>
      <trkpt lat="45.9400715" lon="7.6579343">
        <ele>2413.2</ele>
        <time>2014-01-30T11:15:16Z</time>
      </trkpt>
      <trkpt lat="45.9400035" lon="7.6580842">
        <ele>2414.2</ele>
        <time>2014-01-30T11:15:19Z</time>
      </trkpt>
      <trkpt lat="45.9399429" lon="7.6582256">
        <ele>2415.6</ele>
        <time>2014-01-30T11:15:22Z</time>
      </trkpt>
      <trkpt lat="45.9399151" lon="7.6582837">
        <ele>2416.8</ele>
        <time>2014-01-30T11:15:23Z</time>
      </trkpt>
      <trkpt lat="45.9398725" lon="7.6583779">
        <ele>2417.8</ele>
        <time>2014-01-30T11:15:25Z</time>
      </trkpt>
      <trkpt lat="45.939827" lon="7.65848">
        <ele>2419</ele>
        <time>2014-01-30T11:15:27Z</time>
      </trkpt>
      <trkpt lat="45.9398063" lon="7.6585281">
        <ele>2420</ele>
        <time>2014-01-30T11:15:28Z</time>
      </trkpt>
      <trkpt lat="45.9397639" lon="7.6586243">
        <ele>2421.2</ele>
        <time>2014-01-30T11:15:30Z</time>
      </trkpt>
      <trkpt lat="45.9397195" lon="7.6587227">
        <ele>2422.6</ele>
        <time>2014-01-30T11:15:32Z</time>
      </trkpt>
      <trkpt lat="45.9396922" lon="7.6587789">
        <ele>2423.8</ele>
        <time>2014-01-30T11:15:33Z</time>
      </trkpt>
      <trkpt lat="45.9396451" lon="7.658879">
        <ele>2425</ele>
        <time>2014-01-30T11:15:35Z</time>
      </trkpt>
      <trkpt lat="45.939623" lon="7.6589295">
        <ele>2426.2</ele>
        <time>2014-01-30T11:15:36Z</time>
      </trkpt>
      <trkpt lat="45.9395756" lon="7.6590305">
        <ele>2427.4</ele>
        <time>2014-01-30T11:15:38Z</time>
      </trkpt>
      <trkpt lat="45.9395487" lon="7.6590845">
        <ele>2428.6</ele>
        <time>2014-01-30T11:15:39Z</time>
      </trkpt>
      <trkpt lat="45.9395274" lon="7.6591335">
        <ele>2430</ele>
        <time>2014-01-30T11:15:40Z</time>
      </trkpt>
      <trkpt lat="45.9394813" lon="7.6592337">
        <ele>2431.4</ele>
        <time>2014-01-30T11:15:42Z</time>
      </trkpt>
      <trkpt lat="45.9394517" lon="7.659293">
        <ele>2432.8</ele>
        <time>2014-01-30T11:15:43Z</time>
      </trkpt>
      <trkpt lat="45.9393536" lon="7.6595023">
        <ele>2432.8</ele>
        <time>2014-01-30T11:15:47Z</time>
      </trkpt>
      <trkpt lat="45.9393097" lon="7.6596009">
        <ele>2434</ele>
        <time>2014-01-30T11:15:49Z</time>
      </trkpt>
      <trkpt lat="45.9392722" lon="7.6596829">
        <ele>2435</ele>
        <time>2014-01-30T11:15:51Z</time>
      </trkpt>
      <trkpt lat="45.9392131" lon="7.6598157">
        <ele>2436.2</ele>
        <time>2014-01-30T11:15:53Z</time>
      </trkpt>
      <trkpt lat="45.9391682" lon="7.6599165">
        <ele>2437.2</ele>
        <time>2014-01-30T11:15:55Z</time>
      </trkpt>
      <trkpt lat="45.9391218" lon="7.6600223">
        <ele>2438.4</ele>
        <time>2014-01-30T11:15:57Z</time>
      </trkpt>
      <trkpt lat="45.9390778" lon="7.6601221">
        <ele>2439.4</ele>
        <time>2014-01-30T11:15:59Z</time>
      </trkpt>
      <trkpt lat="45.9390558" lon="7.6601703">
        <ele>2440.6</ele>
        <time>2014-01-30T11:16:00Z</time>
      </trkpt>
      <trkpt lat="45.9390115" lon="7.6602713">
        <ele>2442</ele>
        <time>2014-01-30T11:16:02Z</time>
      </trkpt>
      <trkpt lat="45.9389859" lon="7.6603309">
        <ele>2442</ele>
        <time>2014-01-30T11:16:03Z</time>
      </trkpt>
      <trkpt lat="45.9389642" lon="7.6603794">
        <ele>2443</ele>
        <time>2014-01-30T11:16:04Z</time>
      </trkpt>
      <trkpt lat="45.9389221" lon="7.6604762">
        <ele>2444.2</ele>
        <time>2014-01-30T11:16:06Z</time>
      </trkpt>
      <trkpt lat="45.9389001" lon="7.6605303">
        <ele>2445.6</ele>
        <time>2014-01-30T11:16:07Z</time>
      </trkpt>
      <trkpt lat="45.9388565" lon="7.6606305">
        <ele>2446.8</ele>
        <time>2014-01-30T11:16:09Z</time>
      </trkpt>
      <trkpt lat="45.9388225" lon="7.6607071">
        <ele>2448</ele>
        <time>2014-01-30T11:16:11Z</time>
      </trkpt>
      <trkpt lat="45.9387933" lon="7.6607749">
        <ele>2449.2</ele>
        <time>2014-01-30T11:16:12Z</time>
      </trkpt>
      <trkpt lat="45.9387672" lon="7.6608344">
        <ele>2450.6</ele>
        <time>2014-01-30T11:16:13Z</time>
      </trkpt>
      <trkpt lat="45.9387457" lon="7.6608827">
        <ele>2451.6</ele>
        <time>2014-01-30T11:16:14Z</time>
      </trkpt>
      <trkpt lat="45.9387237" lon="7.6609357">
        <ele>2453</ele>
        <time>2014-01-30T11:16:15Z</time>
      </trkpt>
      <trkpt lat="45.9387024" lon="7.6609864">
        <ele>2454.4</ele>
        <time>2014-01-30T11:16:16Z</time>
      </trkpt>
      <trkpt lat="45.9386565" lon="7.6610838">
        <ele>2455.4</ele>
        <time>2014-01-30T11:16:18Z</time>
      </trkpt>
      <trkpt lat="45.9385646" lon="7.6612818">
        <ele>2456.4</ele>
        <time>2014-01-30T11:16:22Z</time>
      </trkpt>
      <trkpt lat="45.9384887" lon="7.661441">
        <ele>2457.6</ele>
        <time>2014-01-30T11:16:25Z</time>
      </trkpt>
      <trkpt lat="45.9384659" lon="7.6614916">
        <ele>2457.6</ele>
        <time>2014-01-30T11:16:26Z</time>
      </trkpt>
      <trkpt lat="45.9384403" lon="7.6615454">
        <ele>2458.8</ele>
        <time>2014-01-30T11:16:27Z</time>
      </trkpt>
      <trkpt lat="45.9383854" lon="7.6616669">
        <ele>2459.8</ele>
        <time>2014-01-30T11:16:30Z</time>
      </trkpt>
      <trkpt lat="45.9383637" lon="7.6617136">
        <ele>2460.8</ele>
        <time>2014-01-30T11:16:31Z</time>
      </trkpt>
      <trkpt lat="45.9383108" lon="7.6618294">
        <ele>2462.2</ele>
        <time>2014-01-30T11:16:33Z</time>
      </trkpt>
      <trkpt lat="45.9382894" lon="7.6618789">
        <ele>2463.2</ele>
        <time>2014-01-30T11:16:34Z</time>
      </trkpt>
      <trkpt lat="45.9382464" lon="7.6619717">
        <ele>2464.4</ele>
        <time>2014-01-30T11:16:36Z</time>
      </trkpt>
      <trkpt lat="45.9382049" lon="7.6620691">
        <ele>2465.4</ele>
        <time>2014-01-30T11:16:38Z</time>
      </trkpt>
      <trkpt lat="45.9381833" lon="7.6621158">
        <ele>2465.4</ele>
        <time>2014-01-30T11:16:39Z</time>
      </trkpt>
      <trkpt lat="45.9381613" lon="7.662165">
        <ele>2466.8</ele>
        <time>2014-01-30T11:16:40Z</time>
      </trkpt>
      <trkpt lat="45.9381194" lon="7.6622595">
        <ele>2468</ele>
        <time>2014-01-30T11:16:42Z</time>
      </trkpt>
      <trkpt lat="45.9380961" lon="7.662313">
        <ele>2469.4</ele>
        <time>2014-01-30T11:16:43Z</time>
      </trkpt>
      <trkpt lat="45.9380539" lon="7.6624087">
        <ele>2470.4</ele>
        <time>2014-01-30T11:16:45Z</time>
      </trkpt>
      <trkpt lat="45.9380322" lon="7.6624586">
        <ele>2471.6</ele>
        <time>2014-01-30T11:16:46Z</time>
      </trkpt>
      <trkpt lat="45.9380096" lon="7.6625074">
        <ele>2472.8</ele>
        <time>2014-01-30T11:16:47Z</time>
      </trkpt>
      <trkpt lat="45.9379676" lon="7.6626003">
        <ele>2473.8</ele>
        <time>2014-01-30T11:16:49Z</time>
      </trkpt>
      <trkpt lat="45.9379329" lon="7.6626805">
        <ele>2475</ele>
        <time>2014-01-30T11:16:51Z</time>
      </trkpt>
      <trkpt lat="45.9379044" lon="7.6627436">
        <ele>2476.4</ele>
        <time>2014-01-30T11:16:52Z</time>
      </trkpt>
      <trkpt lat="45.9378789" lon="7.6627976">
        <ele>2477.6</ele>
        <time>2014-01-30T11:16:53Z</time>
      </trkpt>
      <trkpt lat="45.9378386" lon="7.6628913">
        <ele>2478.6</ele>
        <time>2014-01-30T11:16:55Z</time>
      </trkpt>
      <trkpt lat="45.9377507" lon="7.6630875">
        <ele>2479.6</ele>
        <time>2014-01-30T11:16:59Z</time>
      </trkpt>
      <trkpt lat="45.9376612" lon="7.6632893">
        <ele>2480.8</ele>
        <time>2014-01-30T11:17:03Z</time>
      </trkpt>
      <trkpt lat="45.9376185" lon="7.6633839">
        <ele>2480.8</ele>
        <time>2014-01-30T11:17:05Z</time>
      </trkpt>
      <trkpt lat="45.9375738" lon="7.6634825">
        <ele>2481.8</ele>
        <time>2014-01-30T11:17:07Z</time>
      </trkpt>
      <trkpt lat="45.9375106" lon="7.6636325">
        <ele>2483</ele>
        <time>2014-01-30T11:17:10Z</time>
      </trkpt>
      <trkpt lat="45.9374673" lon="7.6637314">
        <ele>2484</ele>
        <time>2014-01-30T11:17:12Z</time>
      </trkpt>
      <trkpt lat="45.9374206" lon="7.6638355">
        <ele>2485</ele>
        <time>2014-01-30T11:17:14Z</time>
      </trkpt>
      <trkpt lat="45.9373752" lon="7.6639306">
        <ele>2486</ele>
        <time>2014-01-30T11:17:16Z</time>
      </trkpt>
      <trkpt lat="45.9373114" lon="7.6640766">
        <ele>2487</ele>
        <time>2014-01-30T11:17:19Z</time>
      </trkpt>
      <trkpt lat="45.9372758" lon="7.6641571">
        <ele>2487</ele>
        <time>2014-01-30T11:17:21Z</time>
      </trkpt>
      <trkpt lat="45.9371819" lon="7.6643645">
        <ele>2484</ele>
        <time>2014-01-30T11:17:25Z</time>
      </trkpt>
      <trkpt lat="45.9370974" lon="7.6645563">
        <ele>2482.8</ele>
        <time>2014-01-30T11:17:29Z</time>
      </trkpt>
      <trkpt lat="45.9369858" lon="7.664805">
        <ele>2482.8</ele>
        <time>2014-01-30T11:17:34Z</time>
      </trkpt>
      <trkpt lat="45.9369423" lon="7.6648971">
        <ele>2481.8</ele>
        <time>2014-01-30T11:17:36Z</time>
      </trkpt>
      <trkpt lat="45.9368159" lon="7.665184">
        <ele>2480.8</ele>
        <time>2014-01-30T11:17:42Z</time>
      </trkpt>
      <trkpt lat="45.9367927" lon="7.6652403">
        <ele>2479.4</ele>
        <time>2014-01-30T11:17:43Z</time>
      </trkpt>
      <trkpt lat="45.9367709" lon="7.6652887">
        <ele>2478.2</ele>
        <time>2014-01-30T11:17:44Z</time>
      </trkpt>
      <trkpt lat="45.9367509" lon="7.6653346">
        <ele>2477</ele>
        <time>2014-01-30T11:17:45Z</time>
      </trkpt>
      <trkpt lat="45.9367299" lon="7.6653834">
        <ele>2475.6</ele>
        <time>2014-01-30T11:17:46Z</time>
      </trkpt>
      <trkpt lat="45.9366897" lon="7.6654787">
        <ele>2474.4</ele>
        <time>2014-01-30T11:17:48Z</time>
      </trkpt>
      <trkpt lat="45.9366712" lon="7.6655257">
        <ele>2473.2</ele>
        <time>2014-01-30T11:17:49Z</time>
      </trkpt>
      <trkpt lat="45.9366506" lon="7.6655749">
        <ele>2472.2</ele>
        <time>2014-01-30T11:17:50Z</time>
      </trkpt>
      <trkpt lat="45.936613" lon="7.665668">
        <ele>2470.6</ele>
        <time>2014-01-30T11:17:52Z</time>
      </trkpt>
      <trkpt lat="45.9365893" lon="7.6657203">
        <ele>2469.2</ele>
        <time>2014-01-30T11:17:53Z</time>
      </trkpt>
      <trkpt lat="45.9365465" lon="7.665812">
        <ele>2468</ele>
        <time>2014-01-30T11:17:55Z</time>
      </trkpt>
      <trkpt lat="45.936525" lon="7.6658602">
        <ele>2466.8</ele>
        <time>2014-01-30T11:17:56Z</time>
      </trkpt>
      <trkpt lat="45.9365022" lon="7.6659116">
        <ele>2466.8</ele>
        <time>2014-01-30T11:17:57Z</time>
      </trkpt>
      <trkpt lat="45.9364805" lon="7.6659601">
        <ele>2465.6</ele>
        <time>2014-01-30T11:17:58Z</time>
      </trkpt>
      <trkpt lat="45.9364389" lon="7.666055">
        <ele>2464.4</ele>
        <time>2014-01-30T11:18:00Z</time>
      </trkpt>
      <trkpt lat="45.9363969" lon="7.6661482">
        <ele>2463.2</ele>
        <time>2014-01-30T11:18:02Z</time>
      </trkpt>
      <trkpt lat="45.9363737" lon="7.6662026">
        <ele>2462</ele>
        <time>2014-01-30T11:18:03Z</time>
      </trkpt>
      <trkpt lat="45.9363318" lon="7.6662989">
        <ele>2461</ele>
        <time>2014-01-30T11:18:05Z</time>
      </trkpt>
      <trkpt lat="45.9363106" lon="7.6663469">
        <ele>2459.8</ele>
        <time>2014-01-30T11:18:06Z</time>
      </trkpt>
      <trkpt lat="45.9362681" lon="7.6664448">
        <ele>2458.6</ele>
        <time>2014-01-30T11:18:08Z</time>
      </trkpt>
      <trkpt lat="45.9362251" lon="7.6665423">
        <ele>2457.4</ele>
        <time>2014-01-30T11:18:10Z</time>
      </trkpt>
      <trkpt lat="45.9361821" lon="7.6666395">
        <ele>2456.2</ele>
        <time>2014-01-30T11:18:12Z</time>
      </trkpt>
      <trkpt lat="45.9361586" lon="7.6666931">
        <ele>2455.2</ele>
        <time>2014-01-30T11:18:13Z</time>
      </trkpt>
      <trkpt lat="45.9361154" lon="7.6667896">
        <ele>2454</ele>
        <time>2014-01-30T11:18:15Z</time>
      </trkpt>
      <trkpt lat="45.9360486" lon="7.6669412">
        <ele>2453</ele>
        <time>2014-01-30T11:18:18Z</time>
      </trkpt>
      <trkpt lat="45.9359908" lon="7.6670671">
        <ele>2451.8</ele>
        <time>2014-01-30T11:18:21Z</time>
      </trkpt>
      <trkpt lat="45.9359368" lon="7.6671888">
        <ele>2450.8</ele>
        <time>2014-01-30T11:18:23Z</time>
      </trkpt>
      <trkpt lat="45.9357383" lon="7.6676283">
        <ele>2454</ele>
        <time>2014-01-30T11:18:32Z</time>
      </trkpt>
      <trkpt lat="45.9356904" lon="7.6677322">
        <ele>2455.2</ele>
        <time>2014-01-30T11:18:34Z</time>
      </trkpt>
      <trkpt lat="45.9356473" lon="7.6678281">
        <ele>2456.2</ele>
        <time>2014-01-30T11:18:36Z</time>
      </trkpt>
      <trkpt lat="45.9356009" lon="7.6679263">
        <ele>2457.2</ele>
        <time>2014-01-30T11:18:38Z</time>
      </trkpt>
      <trkpt lat="45.9355577" lon="7.6680234">
        <ele>2458.4</ele>
        <time>2014-01-30T11:18:40Z</time>
      </trkpt>
      <trkpt lat="45.9355152" lon="7.6681188">
        <ele>2459.6</ele>
        <time>2014-01-30T11:18:42Z</time>
      </trkpt>
      <trkpt lat="45.9354906" lon="7.668172">
        <ele>2460.8</ele>
        <time>2014-01-30T11:18:43Z</time>
      </trkpt>
      <trkpt lat="45.9354478" lon="7.6682667">
        <ele>2462</ele>
        <time>2014-01-30T11:18:45Z</time>
      </trkpt>
      <trkpt lat="45.935403" lon="7.6683681">
        <ele>2463.2</ele>
        <time>2014-01-30T11:18:47Z</time>
      </trkpt>
      <trkpt lat="45.9353595" lon="7.6684668">
        <ele>2464.4</ele>
        <time>2014-01-30T11:18:49Z</time>
      </trkpt>
      <trkpt lat="45.9353367" lon="7.6685165">
        <ele>2465.4</ele>
        <time>2014-01-30T11:18:50Z</time>
      </trkpt>
      <trkpt lat="45.9352968" lon="7.6686095">
        <ele>2466.6</ele>
        <time>2014-01-30T11:18:52Z</time>
      </trkpt>
      <trkpt lat="45.9352715" lon="7.6686638">
        <ele>2467.6</ele>
        <time>2014-01-30T11:18:53Z</time>
      </trkpt>
      <trkpt lat="45.9352497" lon="7.668711">
        <ele>2468.8</ele>
        <time>2014-01-30T11:18:54Z</time>
      </trkpt>
      <trkpt lat="45.9352295" lon="7.6687589">
        <ele>2470</ele>
        <time>2014-01-30T11:18:55Z</time>
      </trkpt>
      <trkpt lat="45.9351399" lon="7.6689584">
        <ele>2471.2</ele>
        <time>2014-01-30T11:18:59Z</time>
      </trkpt>
      <trkpt lat="45.9351038" lon="7.6690378">
        <ele>2472.2</ele>
        <time>2014-01-30T11:19:01Z</time>
      </trkpt>
      <trkpt lat="45.9350283" lon="7.6692072">
        <ele>2473.2</ele>
        <time>2014-01-30T11:19:04Z</time>
      </trkpt>
      <trkpt lat="45.9349848" lon="7.6693023">
        <ele>2474.4</ele>
        <time>2014-01-30T11:19:06Z</time>
      </trkpt>
      <trkpt lat="45.93494" lon="7.6694019">
        <ele>2475.4</ele>
        <time>2014-01-30T11:19:08Z</time>
      </trkpt>
      <trkpt lat="45.9348948" lon="7.6695008">
        <ele>2476.6</ele>
        <time>2014-01-30T11:19:10Z</time>
      </trkpt>
      <trkpt lat="45.9348522" lon="7.6695927">
        <ele>2477.6</ele>
        <time>2014-01-30T11:19:12Z</time>
      </trkpt>
      <trkpt lat="45.9348266" lon="7.6696465">
        <ele>2478.8</ele>
        <time>2014-01-30T11:19:13Z</time>
      </trkpt>
      <trkpt lat="45.9347828" lon="7.6697432">
        <ele>2479.8</ele>
        <time>2014-01-30T11:19:15Z</time>
      </trkpt>
      <trkpt lat="45.9347375" lon="7.6698442">
        <ele>2481</ele>
        <time>2014-01-30T11:19:17Z</time>
      </trkpt>
      <trkpt lat="45.9347156" lon="7.6698936">
        <ele>2482.2</ele>
        <time>2014-01-30T11:19:18Z</time>
      </trkpt>
      <trkpt lat="45.9346729" lon="7.6699892">
        <ele>2483.2</ele>
        <time>2014-01-30T11:19:20Z</time>
      </trkpt>
      <trkpt lat="45.9346309" lon="7.6700829">
        <ele>2484.4</ele>
        <time>2014-01-30T11:19:22Z</time>
      </trkpt>
      <trkpt lat="45.934607" lon="7.6701382">
        <ele>2485.6</ele>
        <time>2014-01-30T11:19:23Z</time>
      </trkpt>
      <trkpt lat="45.9345856" lon="7.6701865">
        <ele>2486.6</ele>
        <time>2014-01-30T11:19:24Z</time>
      </trkpt>
      <trkpt lat="45.9345438" lon="7.6702819">
        <ele>2488</ele>
        <time>2014-01-30T11:19:26Z</time>
      </trkpt>
      <trkpt lat="45.9345209" lon="7.6703327">
        <ele>2489.4</ele>
        <time>2014-01-30T11:19:27Z</time>
      </trkpt>
      <trkpt lat="45.9344991" lon="7.6703816">
        <ele>2490.6</ele>
        <time>2014-01-30T11:19:28Z</time>
      </trkpt>
      <trkpt lat="45.9344599" lon="7.67047">
        <ele>2492</ele>
        <time>2014-01-30T11:19:30Z</time>
      </trkpt>
      <trkpt lat="45.9344452" lon="7.6705053">
        <ele>2493.2</ele>
        <time>2014-01-30T11:19:31Z</time>
      </trkpt>
      <trkpt lat="45.9344162" lon="7.6705689">
        <ele>2493.2</ele>
        <time>2014-01-30T11:19:32Z</time>
      </trkpt>
      <trkpt lat="45.9343494" lon="7.6707244">
        <ele>2494.4</ele>
        <time>2014-01-30T11:19:35Z</time>
      </trkpt>
      <trkpt lat="45.9343066" lon="7.6708242">
        <ele>2495.4</ele>
        <time>2014-01-30T11:19:37Z</time>
      </trkpt>
      <trkpt lat="45.9342442" lon="7.6709735">
        <ele>2496.4</ele>
        <time>2014-01-30T11:19:40Z</time>
      </trkpt>
      <trkpt lat="45.9342322" lon="7.6710012">
        <ele>2496.4</ele>
        <time>2014-01-30T11:19:41Z</time>
      </trkpt>
      <trkpt lat="45.9342035" lon="7.671068">
        <ele>2497.6</ele>
        <time>2014-01-30T11:19:42Z</time>
      </trkpt>
      <trkpt lat="45.9341393" lon="7.6712144">
        <ele>2498.8</ele>
        <time>2014-01-30T11:19:45Z</time>
      </trkpt>
      <trkpt lat="45.9341166" lon="7.6712647">
        <ele>2499.8</ele>
        <time>2014-01-30T11:19:46Z</time>
      </trkpt>
      <trkpt lat="45.9340724" lon="7.6713654">
        <ele>2501</ele>
        <time>2014-01-30T11:19:48Z</time>
      </trkpt>
      <trkpt lat="45.9340291" lon="7.6714565">
        <ele>2502.2</ele>
        <time>2014-01-30T11:19:50Z</time>
      </trkpt>
      <trkpt lat="45.9339896" lon="7.671551">
        <ele>2503.2</ele>
        <time>2014-01-30T11:19:52Z</time>
      </trkpt>
      <trkpt lat="45.9339658" lon="7.6716073">
        <ele>2504.2</ele>
        <time>2014-01-30T11:19:53Z</time>
      </trkpt>
      <trkpt lat="45.9339438" lon="7.6716597">
        <ele>2504.2</ele>
        <time>2014-01-30T11:19:54Z</time>
      </trkpt>
      <trkpt lat="45.9339236" lon="7.6717068">
        <ele>2505.4</ele>
        <time>2014-01-30T11:19:55Z</time>
      </trkpt>
      <trkpt lat="45.9339027" lon="7.671756">
        <ele>2506.4</ele>
        <time>2014-01-30T11:19:56Z</time>
      </trkpt>
      <trkpt lat="45.9338578" lon="7.6718584">
        <ele>2507.8</ele>
        <time>2014-01-30T11:19:58Z</time>
      </trkpt>
      <trkpt lat="45.9338369" lon="7.6719052">
        <ele>2509</ele>
        <time>2014-01-30T11:19:59Z</time>
      </trkpt>
      <trkpt lat="45.933802" lon="7.6719843">
        <ele>2510</ele>
        <time>2014-01-30T11:20:01Z</time>
      </trkpt>
      <trkpt lat="45.9337739" lon="7.6720493">
        <ele>2511</ele>
        <time>2014-01-30T11:20:02Z</time>
      </trkpt>
      <trkpt lat="45.9337293" lon="7.6721524">
        <ele>2512.4</ele>
        <time>2014-01-30T11:20:04Z</time>
      </trkpt>
      <trkpt lat="45.9337086" lon="7.6722013">
        <ele>2513.4</ele>
        <time>2014-01-30T11:20:05Z</time>
      </trkpt>
      <trkpt lat="45.933687" lon="7.6722502">
        <ele>2513.4</ele>
        <time>2014-01-30T11:20:06Z</time>
      </trkpt>
      <trkpt lat="45.9336652" lon="7.6723007">
        <ele>2514.8</ele>
        <time>2014-01-30T11:20:07Z</time>
      </trkpt>
      <trkpt lat="45.9336433" lon="7.6723504">
        <ele>2515.8</ele>
        <time>2014-01-30T11:20:08Z</time>
      </trkpt>
      <trkpt lat="45.9336209" lon="7.6723997">
        <ele>2517</ele>
        <time>2014-01-30T11:20:09Z</time>
      </trkpt>
      <trkpt lat="45.9335993" lon="7.6724484">
        <ele>2518.2</ele>
        <time>2014-01-30T11:20:10Z</time>
      </trkpt>
      <trkpt lat="45.9335561" lon="7.672544">
        <ele>2520.4</ele>
        <time>2014-01-30T11:20:12Z</time>
      </trkpt>
      <trkpt lat="45.9335319" lon="7.6725992">
        <ele>2521.4</ele>
        <time>2014-01-30T11:20:13Z</time>
      </trkpt>
      <trkpt lat="45.9335101" lon="7.6726486">
        <ele>2522.6</ele>
        <time>2014-01-30T11:20:14Z</time>
      </trkpt>
      <trkpt lat="45.9334895" lon="7.6726946">
        <ele>2523.6</ele>
        <time>2014-01-30T11:20:15Z</time>
      </trkpt>
      <trkpt lat="45.9334679" lon="7.6727431">
        <ele>2524.6</ele>
        <time>2014-01-30T11:20:16Z</time>
      </trkpt>
      <trkpt lat="45.933446" lon="7.6727946">
        <ele>2525.8</ele>
        <time>2014-01-30T11:20:17Z</time>
      </trkpt>
      <trkpt lat="45.9334035" lon="7.6728887">
        <ele>2528.2</ele>
        <time>2014-01-30T11:20:19Z</time>
      </trkpt>
      <trkpt lat="45.9333818" lon="7.6729377">
        <ele>2529.6</ele>
        <time>2014-01-30T11:20:20Z</time>
      </trkpt>
      <trkpt lat="45.9333701" lon="7.6729611">
        <ele>2530.8</ele>
        <time>2014-01-30T11:20:21Z</time>
      </trkpt>
      <trkpt lat="45.9333437" lon="7.6730186">
        <ele>2532.2</ele>
        <time>2014-01-30T11:20:22Z</time>
      </trkpt>
      <trkpt lat="45.9333192" lon="7.6730698">
        <ele>2534.8</ele>
        <time>2014-01-30T11:20:23Z</time>
      </trkpt>
      <trkpt lat="45.9332985" lon="7.6731162">
        <ele>2536.2</ele>
        <time>2014-01-30T11:20:24Z</time>
      </trkpt>
      <trkpt lat="45.9332784" lon="7.673159">
        <ele>2537.6</ele>
        <time>2014-01-30T11:20:25Z</time>
      </trkpt>
      <trkpt lat="45.9332579" lon="7.6732068">
        <ele>2539</ele>
        <time>2014-01-30T11:20:26Z</time>
      </trkpt>
      <trkpt lat="45.933236" lon="7.6732527">
        <ele>2541.8</ele>
        <time>2014-01-30T11:20:27Z</time>
      </trkpt>
      <trkpt lat="45.9332155" lon="7.6732988">
        <ele>2543.2</ele>
        <time>2014-01-30T11:20:28Z</time>
      </trkpt>
      <trkpt lat="45.9331962" lon="7.6733396">
        <ele>2545.6</ele>
        <time>2014-01-30T11:20:29Z</time>
      </trkpt>
      <trkpt lat="45.9331758" lon="7.6733852">
        <ele>2546.8</ele>
        <time>2014-01-30T11:20:30Z</time>
      </trkpt>
      <trkpt lat="45.9331629" lon="7.6734131">
        <ele>2548.4</ele>
        <time>2014-01-30T11:20:31Z</time>
      </trkpt>
      <trkpt lat="45.9331132" lon="7.6735201">
        <ele>2552.2</ele>
        <time>2014-01-30T11:20:33Z</time>
      </trkpt>
      <trkpt lat="45.9330934" lon="7.673565">
        <ele>2553.8</ele>
        <time>2014-01-30T11:20:34Z</time>
      </trkpt>
      <trkpt lat="45.9330722" lon="7.6736081">
        <ele>2556.2</ele>
        <time>2014-01-30T11:20:35Z</time>
      </trkpt>
      <trkpt lat="45.9330524" lon="7.6736525">
        <ele>2557.8</ele>
        <time>2014-01-30T11:20:36Z</time>
      </trkpt>
      <trkpt lat="45.9330319" lon="7.6736955">
        <ele>2560.4</ele>
        <time>2014-01-30T11:20:37Z</time>
      </trkpt>
      <trkpt lat="45.9330121" lon="7.673741">
        <ele>2562</ele>
        <time>2014-01-30T11:20:38Z</time>
      </trkpt>
      <trkpt lat="45.9329912" lon="7.6737836">
        <ele>2564.2</ele>
        <time>2014-01-30T11:20:39Z</time>
      </trkpt>
      <trkpt lat="45.9329703" lon="7.6738295">
        <ele>2565.6</ele>
        <time>2014-01-30T11:20:40Z</time>
      </trkpt>
      <trkpt lat="45.9329324" lon="7.6739137">
        <ele>2569.4</ele>
        <time>2014-01-30T11:20:42Z</time>
      </trkpt>
      <trkpt lat="45.9329094" lon="7.6739623">
        <ele>2572</ele>
        <time>2014-01-30T11:20:43Z</time>
      </trkpt>
      <trkpt lat="45.932889" lon="7.6740074">
        <ele>2573.6</ele>
        <time>2014-01-30T11:20:44Z</time>
      </trkpt>
      <trkpt lat="45.9328701" lon="7.6740503">
        <ele>2576.2</ele>
        <time>2014-01-30T11:20:45Z</time>
      </trkpt>
      <trkpt lat="45.9328509" lon="7.6740959">
        <ele>2577.4</ele>
        <time>2014-01-30T11:20:46Z</time>
      </trkpt>
      <trkpt lat="45.9328295" lon="7.6741405">
        <ele>2580.6</ele>
        <time>2014-01-30T11:20:47Z</time>
      </trkpt>
      <trkpt lat="45.9328101" lon="7.674185">
        <ele>2581.8</ele>
        <time>2014-01-30T11:20:48Z</time>
      </trkpt>
      <trkpt lat="45.9327898" lon="7.6742268">
        <ele>2584.8</ele>
        <time>2014-01-30T11:20:49Z</time>
      </trkpt>
      <trkpt lat="45.9327575" lon="7.674298">
        <ele>2587</ele>
        <time>2014-01-30T11:20:51Z</time>
      </trkpt>
      <trkpt lat="45.932733" lon="7.6743551">
        <ele>2590.6</ele>
        <time>2014-01-30T11:20:52Z</time>
      </trkpt>
      <trkpt lat="45.9327105" lon="7.6744047">
        <ele>2593.6</ele>
        <time>2014-01-30T11:20:53Z</time>
      </trkpt>
      <trkpt lat="45.9326914" lon="7.674449">
        <ele>2595.4</ele>
        <time>2014-01-30T11:20:54Z</time>
      </trkpt>
      <trkpt lat="45.9326718" lon="7.6744889">
        <ele>2598.2</ele>
        <time>2014-01-30T11:20:55Z</time>
      </trkpt>
      <trkpt lat="45.9326522" lon="7.6745328">
        <ele>2599.8</ele>
        <time>2014-01-30T11:20:56Z</time>
      </trkpt>
      <trkpt lat="45.9326331" lon="7.6745752">
        <ele>2602.6</ele>
        <time>2014-01-30T11:20:57Z</time>
      </trkpt>
      <trkpt lat="45.9326143" lon="7.6746177">
        <ele>2604.2</ele>
        <time>2014-01-30T11:20:58Z</time>
      </trkpt>
      <trkpt lat="45.9325938" lon="7.6746701">
        <ele>2606.4</ele>
        <time>2014-01-30T11:20:59Z</time>
      </trkpt>
      <trkpt lat="45.9325724" lon="7.6747212">
        <ele>2607.8</ele>
        <time>2014-01-30T11:21:00Z</time>
      </trkpt>
      <trkpt lat="45.9325623" lon="7.674742">
        <ele>2607.8</ele>
        <time>2014-01-30T11:21:01Z</time>
      </trkpt>
      <trkpt lat="45.9325358" lon="7.6747988">
        <ele>2610.6</ele>
        <time>2014-01-30T11:21:02Z</time>
      </trkpt>
      <trkpt lat="45.9325115" lon="7.6748535">
        <ele>2612.6</ele>
        <time>2014-01-30T11:21:03Z</time>
      </trkpt>
      <trkpt lat="45.932491" lon="7.6749017">
        <ele>2613.8</ele>
        <time>2014-01-30T11:21:04Z</time>
      </trkpt>
      <trkpt lat="45.9324708" lon="7.6749419">
        <ele>2615.6</ele>
        <time>2014-01-30T11:21:05Z</time>
      </trkpt>
      <trkpt lat="45.9324496" lon="7.6749897">
        <ele>2617</ele>
        <time>2014-01-30T11:21:06Z</time>
      </trkpt>
      <trkpt lat="45.932429" lon="7.6750363">
        <ele>2618.8</ele>
        <time>2014-01-30T11:21:07Z</time>
      </trkpt>
      <trkpt lat="45.9323882" lon="7.6751274">
        <ele>2621.4</ele>
        <time>2014-01-30T11:21:09Z</time>
      </trkpt>
      <trkpt lat="45.9323516" lon="7.6752074">
        <ele>2621.4</ele>
        <time>2014-01-30T11:21:11Z</time>
      </trkpt>
      <trkpt lat="45.9323215" lon="7.6752762">
        <ele>2622.4</ele>
        <time>2014-01-30T11:21:12Z</time>
      </trkpt>
      <trkpt lat="45.9322987" lon="7.6753261">
        <ele>2623.6</ele>
        <time>2014-01-30T11:21:13Z</time>
      </trkpt>
      <trkpt lat="45.9322561" lon="7.6754216">
        <ele>2625</ele>
        <time>2014-01-30T11:21:15Z</time>
      </trkpt>
      <trkpt lat="45.9322131" lon="7.675519">
        <ele>2626.4</ele>
        <time>2014-01-30T11:21:17Z</time>
      </trkpt>
      <trkpt lat="45.9321702" lon="7.6756143">
        <ele>2627.8</ele>
        <time>2014-01-30T11:21:19Z</time>
      </trkpt>
      <trkpt lat="45.9321358" lon="7.6756918">
        <ele>2627.8</ele>
        <time>2014-01-30T11:21:21Z</time>
      </trkpt>
      <trkpt lat="45.9321078" lon="7.6757552">
        <ele>2629.2</ele>
        <time>2014-01-30T11:21:22Z</time>
      </trkpt>
      <trkpt lat="45.9320825" lon="7.6758109">
        <ele>2630.8</ele>
        <time>2014-01-30T11:21:23Z</time>
      </trkpt>
      <trkpt lat="45.9320392" lon="7.6759079">
        <ele>2631.8</ele>
        <time>2014-01-30T11:21:25Z</time>
      </trkpt>
      <trkpt lat="45.9320183" lon="7.6759575">
        <ele>2632.8</ele>
        <time>2014-01-30T11:21:26Z</time>
      </trkpt>
      <trkpt lat="45.9319531" lon="7.6761021">
        <ele>2635.2</ele>
        <time>2014-01-30T11:21:29Z</time>
      </trkpt>
      <trkpt lat="45.9319182" lon="7.6761804">
        <ele>2636.4</ele>
        <time>2014-01-30T11:21:31Z</time>
      </trkpt>
      <trkpt lat="45.9318898" lon="7.6762452">
        <ele>2637.6</ele>
        <time>2014-01-30T11:21:32Z</time>
      </trkpt>
      <trkpt lat="45.9318655" lon="7.6762975">
        <ele>2638.8</ele>
        <time>2014-01-30T11:21:33Z</time>
      </trkpt>
      <trkpt lat="45.9318439" lon="7.6763468">
        <ele>2640.2</ele>
        <time>2014-01-30T11:21:34Z</time>
      </trkpt>
      <trkpt lat="45.9318236" lon="7.6763913">
        <ele>2641.4</ele>
        <time>2014-01-30T11:21:35Z</time>
      </trkpt>
      <trkpt lat="45.9317797" lon="7.6764887">
        <ele>2642.6</ele>
        <time>2014-01-30T11:21:37Z</time>
      </trkpt>
      <trkpt lat="45.9317576" lon="7.6765374">
        <ele>2643.8</ele>
        <time>2014-01-30T11:21:38Z</time>
      </trkpt>
      <trkpt lat="45.9317372" lon="7.6765814">
        <ele>2644.8</ele>
        <time>2014-01-30T11:21:39Z</time>
      </trkpt>
      <trkpt lat="45.9317166" lon="7.6766288">
        <ele>2646</ele>
        <time>2014-01-30T11:21:40Z</time>
      </trkpt>
      <trkpt lat="45.9316758" lon="7.6767209">
        <ele>2647.2</ele>
        <time>2014-01-30T11:21:42Z</time>
      </trkpt>
      <trkpt lat="45.931651" lon="7.6767741">
        <ele>2648.8</ele>
        <time>2014-01-30T11:21:43Z</time>
      </trkpt>
      <trkpt lat="45.9316079" lon="7.6768679">
        <ele>2652</ele>
        <time>2014-01-30T11:21:45Z</time>
      </trkpt>
      <trkpt lat="45.9315861" lon="7.6769162">
        <ele>2652</ele>
        <time>2014-01-30T11:21:46Z</time>
      </trkpt>
      <trkpt lat="45.9315637" lon="7.6769648">
        <ele>2654.2</ele>
        <time>2014-01-30T11:21:47Z</time>
      </trkpt>
      <trkpt lat="45.9315223" lon="7.677059">
        <ele>2656.4</ele>
        <time>2014-01-30T11:21:49Z</time>
      </trkpt>
      <trkpt lat="45.9314875" lon="7.6771362">
        <ele>2657.6</ele>
        <time>2014-01-30T11:21:51Z</time>
      </trkpt>
      <trkpt lat="45.9314595" lon="7.6771989">
        <ele>2658.8</ele>
        <time>2014-01-30T11:21:52Z</time>
      </trkpt>
      <trkpt lat="45.9314356" lon="7.6772519">
        <ele>2661</ele>
        <time>2014-01-30T11:21:53Z</time>
      </trkpt>
      <trkpt lat="45.9313928" lon="7.6773357">
        <ele>2663.4</ele>
        <time>2014-01-30T11:21:55Z</time>
      </trkpt>
      <trkpt lat="45.9313701" lon="7.6773704">
        <ele>2664.4</ele>
        <time>2014-01-30T11:21:56Z</time>
      </trkpt>
      <trkpt lat="45.9313457" lon="7.6774296">
        <ele>2664.4</ele>
        <time>2014-01-30T11:21:57Z</time>
      </trkpt>
      <trkpt lat="45.9313233" lon="7.6774816">
        <ele>2665.4</ele>
        <time>2014-01-30T11:21:58Z</time>
      </trkpt>
      <trkpt lat="45.9312843" lon="7.6775699">
        <ele>2666.4</ele>
        <time>2014-01-30T11:22:00Z</time>
      </trkpt>
      <trkpt lat="45.9312408" lon="7.677666">
        <ele>2667.6</ele>
        <time>2014-01-30T11:22:02Z</time>
      </trkpt>
      <trkpt lat="45.9312164" lon="7.6777196">
        <ele>2669.2</ele>
        <time>2014-01-30T11:22:03Z</time>
      </trkpt>
      <trkpt lat="45.9311735" lon="7.6778153">
        <ele>2670.2</ele>
        <time>2014-01-30T11:22:05Z</time>
      </trkpt>
      <trkpt lat="45.9311516" lon="7.6778637">
        <ele>2671.4</ele>
        <time>2014-01-30T11:22:06Z</time>
      </trkpt>
      <trkpt lat="45.9311061" lon="7.6779611">
        <ele>2672.6</ele>
        <time>2014-01-30T11:22:08Z</time>
      </trkpt>
      <trkpt lat="45.9310856" lon="7.6780082">
        <ele>2674.2</ele>
        <time>2014-01-30T11:22:09Z</time>
      </trkpt>
      <trkpt lat="45.9310512" lon="7.6780861">
        <ele>2675.2</ele>
        <time>2014-01-30T11:22:11Z</time>
      </trkpt>
      <trkpt lat="45.9310219" lon="7.6781498">
        <ele>2676.4</ele>
        <time>2014-01-30T11:22:12Z</time>
      </trkpt>
      <trkpt lat="45.9309984" lon="7.6782023">
        <ele>2678</ele>
        <time>2014-01-30T11:22:13Z</time>
      </trkpt>
      <trkpt lat="45.9309557" lon="7.678297">
        <ele>2679</ele>
        <time>2014-01-30T11:22:15Z</time>
      </trkpt>
      <trkpt lat="45.9309336" lon="7.6783458">
        <ele>2680</ele>
        <time>2014-01-30T11:22:16Z</time>
      </trkpt>
      <trkpt lat="45.9309119" lon="7.6783952">
        <ele>2682</ele>
        <time>2014-01-30T11:22:17Z</time>
      </trkpt>
      <trkpt lat="45.93087" lon="7.6784861">
        <ele>2684</ele>
        <time>2014-01-30T11:22:19Z</time>
      </trkpt>
      <trkpt lat="45.9308107" lon="7.678621">
        <ele>2685.8</ele>
        <time>2014-01-30T11:22:22Z</time>
      </trkpt>
      <trkpt lat="45.9307834" lon="7.6786809">
        <ele>2687</ele>
        <time>2014-01-30T11:22:23Z</time>
      </trkpt>
      <trkpt lat="45.9306956" lon="7.6788745">
        <ele>2688</ele>
        <time>2014-01-30T11:22:27Z</time>
      </trkpt>
      <trkpt lat="45.9306739" lon="7.6789247">
        <ele>2688</ele>
        <time>2014-01-30T11:22:28Z</time>
      </trkpt>
      <trkpt lat="45.9305415" lon="7.6792221">
        <ele>2690.2</ele>
        <time>2014-01-30T11:22:34Z</time>
      </trkpt>
      <trkpt lat="45.9304985" lon="7.6793154">
        <ele>2691.4</ele>
        <time>2014-01-30T11:22:36Z</time>
      </trkpt>
      <trkpt lat="45.9304328" lon="7.6794591">
        <ele>2692.6</ele>
        <time>2014-01-30T11:22:39Z</time>
      </trkpt>
      <trkpt lat="45.9304108" lon="7.6795073">
        <ele>2692.6</ele>
        <time>2014-01-30T11:22:40Z</time>
      </trkpt>
      <trkpt lat="45.930398" lon="7.679536">
        <ele>2693.6</ele>
        <time>2014-01-30T11:22:41Z</time>
      </trkpt>
      <trkpt lat="45.9301902" lon="7.6799991">
        <ele>2693.6</ele>
        <time>2014-01-30T11:22:50Z</time>
      </trkpt>
      <trkpt lat="45.9300951" lon="7.6801448">
        <ele>2693.6</ele>
        <time>2014-01-30T11:22:55Z</time>
      </trkpt>
      <trkpt lat="45.9300762" lon="7.6801143">
        <ele>2693.6</ele>
        <time>2014-01-30T11:22:57Z</time>
      </trkpt>
      <trkpt lat="45.9300691" lon="7.6800798">
        <ele>2693.6</ele>
        <time>2014-01-30T11:22:59Z</time>
      </trkpt>
      <trkpt lat="45.9300593" lon="7.6800577">
        <ele>2693.6</ele>
        <time>2014-01-30T11:23:01Z</time>
      </trkpt>
      <trkpt lat="45.9300462" lon="7.680075">
        <ele>2693.6</ele>
        <time>2014-01-30T11:23:07Z</time>
      </trkpt>
      <trkpt lat="45.9300317" lon="7.680079">
        <ele>2693.6</ele>
        <time>2014-01-30T11:23:14Z</time>
      </trkpt>
      <trkpt lat="45.930024" lon="7.6800952">
        <ele>2693.6</ele>
        <time>2014-01-30T11:23:15Z</time>
      </trkpt>
      <trkpt lat="45.9300091" lon="7.6801601">
        <ele>2693.6</ele>
        <time>2014-01-30T11:23:21Z</time>
      </trkpt>
      <trkpt lat="45.9299965" lon="7.6802012">
        <ele>2693.6</ele>
        <time>2014-01-30T11:23:29Z</time>
      </trkpt>
      <trkpt lat="45.9299764" lon="7.6802427">
        <ele>2693.6</ele>
        <time>2014-01-30T11:23:38Z</time>
      </trkpt>
      <trkpt lat="45.9299486" lon="7.6802566">
        <ele>2693.6</ele>
        <time>2014-01-30T11:23:45Z</time>
      </trkpt>
      <trkpt lat="45.9299118" lon="7.6802629">
        <ele>2693.6</ele>
        <time>2014-01-30T11:23:55Z</time>
      </trkpt>
      <trkpt lat="45.9298712" lon="7.6802355">
        <ele>2693.6</ele>
        <time>2014-01-30T11:24:03Z</time>
      </trkpt>
      <trkpt lat="45.9298633" lon="7.6802301">
        <ele>2690.6</ele>
        <time>2014-01-30T11:24:05Z</time>
      </trkpt>
      <trkpt lat="45.9298466" lon="7.6801956">
        <ele>2689.6</ele>
        <time>2014-01-30T11:24:10Z</time>
      </trkpt>
      <trkpt lat="45.9298447" lon="7.680192">
        <ele>2689.6</ele>
        <time>2014-01-30T11:24:11Z</time>
      </trkpt>
      <trkpt lat="45.9298236" lon="7.6801619">
        <ele>2689.6</ele>
        <time>2014-01-30T11:24:19Z</time>
      </trkpt>
      <trkpt lat="45.9298152" lon="7.6801633">
        <ele>2689.6</ele>
        <time>2014-01-30T11:24:32Z</time>
      </trkpt>
      <trkpt lat="45.9298132" lon="7.680166">
        <ele>2688.4</ele>
        <time>2014-01-30T11:24:34Z</time>
      </trkpt>
      <trkpt lat="45.9298075" lon="7.6801618">
        <ele>2688.4</ele>
        <time>2014-01-30T11:24:42Z</time>
      </trkpt>
      <trkpt lat="45.9298019" lon="7.6801581">
        <ele>2688.4</ele>
        <time>2014-01-30T11:24:51Z</time>
      </trkpt>
      <trkpt lat="45.9297982" lon="7.6801603">
        <ele>2688.4</ele>
        <time>2014-01-30T11:25:00Z</time>
      </trkpt>
      <trkpt lat="45.9297914" lon="7.6801609">
        <ele>2688.4</ele>
        <time>2014-01-30T11:25:11Z</time>
      </trkpt>
      <trkpt lat="45.9297893" lon="7.6801633">
        <ele>2688.4</ele>
        <time>2014-01-30T11:25:26Z</time>
      </trkpt>
      <trkpt lat="45.929786" lon="7.6801677">
        <ele>2688.4</ele>
        <time>2014-01-30T11:25:37Z</time>
      </trkpt>
      <trkpt lat="45.9297888" lon="7.6801742">
        <ele>2688.4</ele>
        <time>2014-01-30T11:25:49Z</time>
      </trkpt>
      <trkpt lat="45.9297869" lon="7.6801769">
        <ele>2688.4</ele>
        <time>2014-01-30T11:26:02Z</time>
      </trkpt>
      <trkpt lat="45.9297803" lon="7.680179">
        <ele>2688.4</ele>
        <time>2014-01-30T11:26:13Z</time>
      </trkpt>
      <trkpt lat="45.9297804" lon="7.6801805">
        <ele>2688.4</ele>
        <time>2014-01-30T11:26:29Z</time>
      </trkpt>
      <trkpt lat="45.9297665" lon="7.6801868">
        <ele>2688.4</ele>
        <time>2014-01-30T11:26:39Z</time>
      </trkpt>
      <trkpt lat="45.9297523" lon="7.6801909">
        <ele>2688.4</ele>
        <time>2014-01-30T11:26:41Z</time>
      </trkpt>
      <trkpt lat="45.9296596" lon="7.6802115">
        <ele>2688.4</ele>
        <time>2014-01-30T11:26:45Z</time>
      </trkpt>
      <trkpt lat="45.9296189" lon="7.6802139">
        <ele>2688.4</ele>
        <time>2014-01-30T11:26:46Z</time>
      </trkpt>
      <trkpt lat="45.9295462" lon="7.6802111">
        <ele>2687</ele>
        <time>2014-01-30T11:26:47Z</time>
      </trkpt>
      <trkpt lat="45.9294803" lon="7.6802017">
        <ele>2685.6</ele>
        <time>2014-01-30T11:26:48Z</time>
      </trkpt>
      <trkpt lat="45.9294112" lon="7.6801291">
        <ele>2684.6</ele>
        <time>2014-01-30T11:26:49Z</time>
      </trkpt>
      <trkpt lat="45.9293433" lon="7.6800643">
        <ele>2683.6</ele>
        <time>2014-01-30T11:26:50Z</time>
      </trkpt>
      <trkpt lat="45.9292215" lon="7.6798863">
        <ele>2679.6</ele>
        <time>2014-01-30T11:26:52Z</time>
      </trkpt>
      <trkpt lat="45.9291677" lon="7.6797587">
        <ele>2677.8</ele>
        <time>2014-01-30T11:26:53Z</time>
      </trkpt>
      <trkpt lat="45.9291112" lon="7.6796651">
        <ele>2677.8</ele>
        <time>2014-01-30T11:26:54Z</time>
      </trkpt>
      <trkpt lat="45.9290774" lon="7.6795738">
        <ele>2675.4</ele>
        <time>2014-01-30T11:26:55Z</time>
      </trkpt>
      <trkpt lat="45.9289791" lon="7.6794071">
        <ele>2674.4</ele>
        <time>2014-01-30T11:26:57Z</time>
      </trkpt>
      <trkpt lat="45.9288769" lon="7.6792777">
        <ele>2674.4</ele>
        <time>2014-01-30T11:26:59Z</time>
      </trkpt>
      <trkpt lat="45.9288331" lon="7.6791974">
        <ele>2671</ele>
        <time>2014-01-30T11:27:00Z</time>
      </trkpt>
      <trkpt lat="45.9287931" lon="7.6791627">
        <ele>2671</ele>
        <time>2014-01-30T11:27:01Z</time>
      </trkpt>
      <trkpt lat="45.9287133" lon="7.6791024">
        <ele>2669.8</ele>
        <time>2014-01-30T11:27:02Z</time>
      </trkpt>
      <trkpt lat="45.9286461" lon="7.6790148">
        <ele>2668.8</ele>
        <time>2014-01-30T11:27:03Z</time>
      </trkpt>
      <trkpt lat="45.9285085" lon="7.6789092">
        <ele>2668.8</ele>
        <time>2014-01-30T11:27:05Z</time>
      </trkpt>
      <trkpt lat="45.9284368" lon="7.6788569">
        <ele>2666.6</ele>
        <time>2014-01-30T11:27:06Z</time>
      </trkpt>
      <trkpt lat="45.9283584" lon="7.6788104">
        <ele>2665</ele>
        <time>2014-01-30T11:27:07Z</time>
      </trkpt>
      <trkpt lat="45.9282811" lon="7.6787652">
        <ele>2665</ele>
        <time>2014-01-30T11:27:08Z</time>
      </trkpt>
      <trkpt lat="45.9281974" lon="7.6787303">
        <ele>2662.4</ele>
        <time>2014-01-30T11:27:09Z</time>
      </trkpt>
      <trkpt lat="45.9280656" lon="7.6786796">
        <ele>2661.2</ele>
        <time>2014-01-30T11:27:11Z</time>
      </trkpt>
      <trkpt lat="45.9279508" lon="7.6786432">
        <ele>2660.2</ele>
        <time>2014-01-30T11:27:12Z</time>
      </trkpt>
      <trkpt lat="45.9278633" lon="7.6786197">
        <ele>2658.8</ele>
        <time>2014-01-30T11:27:13Z</time>
      </trkpt>
      <trkpt lat="45.9277134" lon="7.6785912">
        <ele>2657.6</ele>
        <time>2014-01-30T11:27:15Z</time>
      </trkpt>
      <trkpt lat="45.927565" lon="7.6785718">
        <ele>2656</ele>
        <time>2014-01-30T11:27:17Z</time>
      </trkpt>
      <trkpt lat="45.9274215" lon="7.6785524">
        <ele>2654.4</ele>
        <time>2014-01-30T11:27:19Z</time>
      </trkpt>
      <trkpt lat="45.9273482" lon="7.6785441">
        <ele>2654.4</ele>
        <time>2014-01-30T11:27:20Z</time>
      </trkpt>
      <trkpt lat="45.9272074" lon="7.6785291">
        <ele>2652.8</ele>
        <time>2014-01-30T11:27:22Z</time>
      </trkpt>
      <trkpt lat="45.9271195" lon="7.6785157">
        <ele>2651</ele>
        <time>2014-01-30T11:27:23Z</time>
      </trkpt>
      <trkpt lat="45.9269683" lon="7.6784788">
        <ele>2649.6</ele>
        <time>2014-01-30T11:27:25Z</time>
      </trkpt>
      <trkpt lat="45.9268887" lon="7.6784571">
        <ele>2648.6</ele>
        <time>2014-01-30T11:27:26Z</time>
      </trkpt>
      <trkpt lat="45.9268073" lon="7.678426">
        <ele>2647.6</ele>
        <time>2014-01-30T11:27:27Z</time>
      </trkpt>
      <trkpt lat="45.9267282" lon="7.6783938">
        <ele>2646.4</ele>
        <time>2014-01-30T11:27:28Z</time>
      </trkpt>
      <trkpt lat="45.9266538" lon="7.6783478">
        <ele>2645</ele>
        <time>2014-01-30T11:27:29Z</time>
      </trkpt>
      <trkpt lat="45.9265311" lon="7.678275">
        <ele>2644</ele>
        <time>2014-01-30T11:27:31Z</time>
      </trkpt>
      <trkpt lat="45.926356" lon="7.6781659">
        <ele>2642.8</ele>
        <time>2014-01-30T11:27:33Z</time>
      </trkpt>
      <trkpt lat="45.9262848" lon="7.6781225">
        <ele>2641.6</ele>
        <time>2014-01-30T11:27:34Z</time>
      </trkpt>
      <trkpt lat="45.9261405" lon="7.6780475">
        <ele>2640.2</ele>
        <time>2014-01-30T11:27:36Z</time>
      </trkpt>
      <trkpt lat="45.9260628" lon="7.6780142">
        <ele>2638.4</ele>
        <time>2014-01-30T11:27:37Z</time>
      </trkpt>
      <trkpt lat="45.9259061" lon="7.6779546">
        <ele>2636</ele>
        <time>2014-01-30T11:27:39Z</time>
      </trkpt>
      <trkpt lat="45.9258252" lon="7.6779268">
        <ele>2636</ele>
        <time>2014-01-30T11:27:40Z</time>
      </trkpt>
      <trkpt lat="45.9257758" lon="7.6779046">
        <ele>2634.6</ele>
        <time>2014-01-30T11:27:41Z</time>
      </trkpt>
      <trkpt lat="45.9256566" lon="7.677854">
        <ele>2632</ele>
        <time>2014-01-30T11:27:42Z</time>
      </trkpt>
      <trkpt lat="45.9255558" lon="7.6778">
        <ele>2630.2</ele>
        <time>2014-01-30T11:27:43Z</time>
      </trkpt>
      <trkpt lat="45.9254674" lon="7.6777499">
        <ele>2629</ele>
        <time>2014-01-30T11:27:44Z</time>
      </trkpt>
      <trkpt lat="45.925388" lon="7.6776797">
        <ele>2627.8</ele>
        <time>2014-01-30T11:27:45Z</time>
      </trkpt>
      <trkpt lat="45.9252411" lon="7.6775186">
        <ele>2626.8</ele>
        <time>2014-01-30T11:27:47Z</time>
      </trkpt>
      <trkpt lat="45.9251779" lon="7.6774312">
        <ele>2625.6</ele>
        <time>2014-01-30T11:27:48Z</time>
      </trkpt>
      <trkpt lat="45.9251419" lon="7.6773279">
        <ele>2625.6</ele>
        <time>2014-01-30T11:27:49Z</time>
      </trkpt>
      <trkpt lat="45.9249843" lon="7.6768628">
        <ele>2625.6</ele>
        <time>2014-01-30T11:27:54Z</time>
      </trkpt>
      <trkpt lat="45.9249649" lon="7.6767852">
        <ele>2623.4</ele>
        <time>2014-01-30T11:27:55Z</time>
      </trkpt>
      <trkpt lat="45.9249239" lon="7.6766221">
        <ele>2622.4</ele>
        <time>2014-01-30T11:27:57Z</time>
      </trkpt>
      <trkpt lat="45.9248641" lon="7.6764022">
        <ele>2621.4</ele>
        <time>2014-01-30T11:28:00Z</time>
      </trkpt>
      <trkpt lat="45.9248187" lon="7.6762697">
        <ele>2621.4</ele>
        <time>2014-01-30T11:28:02Z</time>
      </trkpt>
      <trkpt lat="45.9248106" lon="7.6761983">
        <ele>2620.2</ele>
        <time>2014-01-30T11:28:03Z</time>
      </trkpt>
      <trkpt lat="45.9248063" lon="7.6761332">
        <ele>2620.2</ele>
        <time>2014-01-30T11:28:04Z</time>
      </trkpt>
      <trkpt lat="45.9247658" lon="7.6761148">
        <ele>2620.2</ele>
        <time>2014-01-30T11:28:07Z</time>
      </trkpt>
      <trkpt lat="45.9247536" lon="7.6760976">
        <ele>2620.2</ele>
        <time>2014-01-30T11:28:08Z</time>
      </trkpt>
      <trkpt lat="45.9247481" lon="7.6760918">
        <ele>2619</ele>
        <time>2014-01-30T11:28:09Z</time>
      </trkpt>
      <trkpt lat="45.9247556" lon="7.6760979">
        <ele>2619</ele>
        <time>2014-01-30T11:28:14Z</time>
      </trkpt>
      <trkpt lat="45.9247481" lon="7.6760774">
        <ele>2619</ele>
        <time>2014-01-30T11:28:29Z</time>
      </trkpt>
      <trkpt lat="45.9247227" lon="7.6759544">
        <ele>2616.2</ele>
        <time>2014-01-30T11:28:33Z</time>
      </trkpt>
      <trkpt lat="45.924692" lon="7.6758834">
        <ele>2616.2</ele>
        <time>2014-01-30T11:28:34Z</time>
      </trkpt>
      <trkpt lat="45.9246673" lon="7.675831">
        <ele>2615</ele>
        <time>2014-01-30T11:28:35Z</time>
      </trkpt>
      <trkpt lat="45.9246467" lon="7.6757041">
        <ele>2613</ele>
        <time>2014-01-30T11:28:36Z</time>
      </trkpt>
      <trkpt lat="45.924591" lon="7.675605">
        <ele>2610.2</ele>
        <time>2014-01-30T11:28:37Z</time>
      </trkpt>
      <trkpt lat="45.9245357" lon="7.6754674">
        <ele>2607</ele>
        <time>2014-01-30T11:28:38Z</time>
      </trkpt>
      <trkpt lat="45.9244815" lon="7.6753451">
        <ele>2605.6</ele>
        <time>2014-01-30T11:28:39Z</time>
      </trkpt>
      <trkpt lat="45.9244247" lon="7.6752364">
        <ele>2602.6</ele>
        <time>2014-01-30T11:28:40Z</time>
      </trkpt>
      <trkpt lat="45.9243592" lon="7.6750936">
        <ele>2601.2</ele>
        <time>2014-01-30T11:28:41Z</time>
      </trkpt>
      <trkpt lat="45.924255" lon="7.6748556">
        <ele>2598.8</ele>
        <time>2014-01-30T11:28:43Z</time>
      </trkpt>
      <trkpt lat="45.9241784" lon="7.6747296">
        <ele>2597.2</ele>
        <time>2014-01-30T11:28:44Z</time>
      </trkpt>
      <trkpt lat="45.9241108" lon="7.6745392">
        <ele>2593.2</ele>
        <time>2014-01-30T11:28:45Z</time>
      </trkpt>
      <trkpt lat="45.9240355" lon="7.6744382">
        <ele>2590.4</ele>
        <time>2014-01-30T11:28:46Z</time>
      </trkpt>
      <trkpt lat="45.9239903" lon="7.6742921">
        <ele>2588.2</ele>
        <time>2014-01-30T11:28:47Z</time>
      </trkpt>
      <trkpt lat="45.9238827" lon="7.6740872">
        <ele>2582</ele>
        <time>2014-01-30T11:28:48Z</time>
      </trkpt>
      <trkpt lat="45.923813" lon="7.6739266">
        <ele>2581</ele>
        <time>2014-01-30T11:28:49Z</time>
      </trkpt>
      <trkpt lat="45.9237498" lon="7.6738056">
        <ele>2577.8</ele>
        <time>2014-01-30T11:28:50Z</time>
      </trkpt>
      <trkpt lat="45.9237086" lon="7.6736692">
        <ele>2576.4</ele>
        <time>2014-01-30T11:28:51Z</time>
      </trkpt>
      <trkpt lat="45.9237364" lon="7.6735642">
        <ele>2576.4</ele>
        <time>2014-01-30T11:28:52Z</time>
      </trkpt>
      <trkpt lat="45.9237385" lon="7.6734526">
        <ele>2575</ele>
        <time>2014-01-30T11:28:53Z</time>
      </trkpt>
      <trkpt lat="45.9237251" lon="7.6732775">
        <ele>2573.2</ele>
        <time>2014-01-30T11:28:54Z</time>
      </trkpt>
      <trkpt lat="45.9237535" lon="7.6731185">
        <ele>2571.4</ele>
        <time>2014-01-30T11:28:55Z</time>
      </trkpt>
      <trkpt lat="45.9237918" lon="7.6729971">
        <ele>2569.8</ele>
        <time>2014-01-30T11:28:56Z</time>
      </trkpt>
      <trkpt lat="45.9237921" lon="7.6728346">
        <ele>2568.2</ele>
        <time>2014-01-30T11:28:57Z</time>
      </trkpt>
      <trkpt lat="45.9238159" lon="7.6726929">
        <ele>2566.4</ele>
        <time>2014-01-30T11:28:58Z</time>
      </trkpt>
      <trkpt lat="45.9238337" lon="7.672575">
        <ele>2564.8</ele>
        <time>2014-01-30T11:28:59Z</time>
      </trkpt>
      <trkpt lat="45.9238764" lon="7.6723656">
        <ele>2561.8</ele>
        <time>2014-01-30T11:29:00Z</time>
      </trkpt>
      <trkpt lat="45.9238826" lon="7.6721166">
        <ele>2560.4</ele>
        <time>2014-01-30T11:29:02Z</time>
      </trkpt>
      <trkpt lat="45.9238892" lon="7.6720017">
        <ele>2559</ele>
        <time>2014-01-30T11:29:03Z</time>
      </trkpt>
      <trkpt lat="45.9238878" lon="7.6718534">
        <ele>2557.6</ele>
        <time>2014-01-30T11:29:04Z</time>
      </trkpt>
      <trkpt lat="45.9238711" lon="7.6717778">
        <ele>2556</ele>
        <time>2014-01-30T11:29:05Z</time>
      </trkpt>
      <trkpt lat="45.9238888" lon="7.6716363">
        <ele>2554</ele>
        <time>2014-01-30T11:29:06Z</time>
      </trkpt>
      <trkpt lat="45.923869" lon="7.6715008">
        <ele>2552</ele>
        <time>2014-01-30T11:29:07Z</time>
      </trkpt>
      <trkpt lat="45.9238532" lon="7.6713382">
        <ele>2547.2</ele>
        <time>2014-01-30T11:29:08Z</time>
      </trkpt>
      <trkpt lat="45.923861" lon="7.6711885">
        <ele>2545.8</ele>
        <time>2014-01-30T11:29:09Z</time>
      </trkpt>
      <trkpt lat="45.9238788" lon="7.6710329">
        <ele>2543.2</ele>
        <time>2014-01-30T11:29:10Z</time>
      </trkpt>
      <trkpt lat="45.9238393" lon="7.6708953">
        <ele>2538.8</ele>
        <time>2014-01-30T11:29:11Z</time>
      </trkpt>
      <trkpt lat="45.9238447" lon="7.6707548">
        <ele>2537.4</ele>
        <time>2014-01-30T11:29:12Z</time>
      </trkpt>
      <trkpt lat="45.9238164" lon="7.6706132">
        <ele>2534.2</ele>
        <time>2014-01-30T11:29:13Z</time>
      </trkpt>
      <trkpt lat="45.9237901" lon="7.670429">
        <ele>2533</ele>
        <time>2014-01-30T11:29:14Z</time>
      </trkpt>
      <trkpt lat="45.9237687" lon="7.6702282">
        <ele>2531.6</ele>
        <time>2014-01-30T11:29:15Z</time>
      </trkpt>
      <trkpt lat="45.9237556" lon="7.6700876">
        <ele>2530.2</ele>
        <time>2014-01-30T11:29:16Z</time>
      </trkpt>
      <trkpt lat="45.9237396" lon="7.6699652">
        <ele>2529.2</ele>
        <time>2014-01-30T11:29:17Z</time>
      </trkpt>
      <trkpt lat="45.9237012" lon="7.6697939">
        <ele>2528.2</ele>
        <time>2014-01-30T11:29:18Z</time>
      </trkpt>
      <trkpt lat="45.923637" lon="7.6696691">
        <ele>2527</ele>
        <time>2014-01-30T11:29:19Z</time>
      </trkpt>
      <trkpt lat="45.9235056" lon="7.6695496">
        <ele>2527</ele>
        <time>2014-01-30T11:29:21Z</time>
      </trkpt>
      <trkpt lat="45.9234647" lon="7.6694853">
        <ele>2525.8</ele>
        <time>2014-01-30T11:29:22Z</time>
      </trkpt>
      <trkpt lat="45.923424" lon="7.6694047">
        <ele>2524.6</ele>
        <time>2014-01-30T11:29:23Z</time>
      </trkpt>
      <trkpt lat="45.9233545" lon="7.6692898">
        <ele>2522.8</ele>
        <time>2014-01-30T11:29:24Z</time>
      </trkpt>
      <trkpt lat="45.9232705" lon="7.6692058">
        <ele>2519.6</ele>
        <time>2014-01-30T11:29:25Z</time>
      </trkpt>
      <trkpt lat="45.923195" lon="7.6691303">
        <ele>2518.6</ele>
        <time>2014-01-30T11:29:26Z</time>
      </trkpt>
      <trkpt lat="45.9231308" lon="7.6689941">
        <ele>2516.6</ele>
        <time>2014-01-30T11:29:27Z</time>
      </trkpt>
      <trkpt lat="45.923084" lon="7.6688745">
        <ele>2515.4</ele>
        <time>2014-01-30T11:29:28Z</time>
      </trkpt>
      <trkpt lat="45.9229737" lon="7.6686673">
        <ele>2515.4</ele>
        <time>2014-01-30T11:29:30Z</time>
      </trkpt>
      <trkpt lat="45.922892" lon="7.6684947">
        <ele>2513.4</ele>
        <time>2014-01-30T11:29:32Z</time>
      </trkpt>
      <trkpt lat="45.9228835" lon="7.6682145">
        <ele>2513.4</ele>
        <time>2014-01-30T11:29:34Z</time>
      </trkpt>
      <trkpt lat="45.9228465" lon="7.6680842">
        <ele>2511.2</ele>
        <time>2014-01-30T11:29:35Z</time>
      </trkpt>
      <trkpt lat="45.9227637" lon="7.6678797">
        <ele>2511.2</ele>
        <time>2014-01-30T11:29:37Z</time>
      </trkpt>
      <trkpt lat="45.9227781" lon="7.6677525">
        <ele>2509.6</ele>
        <time>2014-01-30T11:29:38Z</time>
      </trkpt>
      <trkpt lat="45.9227742" lon="7.6676334">
        <ele>2509.6</ele>
        <time>2014-01-30T11:29:39Z</time>
      </trkpt>
      <trkpt lat="45.9227181" lon="7.6675414">
        <ele>2507.2</ele>
        <time>2014-01-30T11:29:40Z</time>
      </trkpt>
      <trkpt lat="45.9226718" lon="7.6674384">
        <ele>2507.2</ele>
        <time>2014-01-30T11:29:41Z</time>
      </trkpt>
      <trkpt lat="45.9226744" lon="7.6673282">
        <ele>2505.6</ele>
        <time>2014-01-30T11:29:42Z</time>
      </trkpt>
      <trkpt lat="45.9226792" lon="7.6671668">
        <ele>2504</ele>
        <time>2014-01-30T11:29:43Z</time>
      </trkpt>
      <trkpt lat="45.9226129" lon="7.6670377">
        <ele>2502.8</ele>
        <time>2014-01-30T11:29:44Z</time>
      </trkpt>
      <trkpt lat="45.9225646" lon="7.666931">
        <ele>2502.8</ele>
        <time>2014-01-30T11:29:45Z</time>
      </trkpt>
      <trkpt lat="45.9225598" lon="7.6668182">
        <ele>2501.6</ele>
        <time>2014-01-30T11:29:46Z</time>
      </trkpt>
      <trkpt lat="45.9225766" lon="7.6666947">
        <ele>2501.6</ele>
        <time>2014-01-30T11:29:47Z</time>
      </trkpt>
      <trkpt lat="45.9225469" lon="7.6665702">
        <ele>2500.4</ele>
        <time>2014-01-30T11:29:48Z</time>
      </trkpt>
      <trkpt lat="45.9225201" lon="7.6664614">
        <ele>2499.4</ele>
        <time>2014-01-30T11:29:49Z</time>
      </trkpt>
      <trkpt lat="45.922503" lon="7.666341">
        <ele>2497.2</ele>
        <time>2014-01-30T11:29:50Z</time>
      </trkpt>
      <trkpt lat="45.9225104" lon="7.666118">
        <ele>2496.2</ele>
        <time>2014-01-30T11:29:52Z</time>
      </trkpt>
      <trkpt lat="45.9225165" lon="7.6659988">
        <ele>2495</ele>
        <time>2014-01-30T11:29:53Z</time>
      </trkpt>
      <trkpt lat="45.9224939" lon="7.6658156">
        <ele>2491.8</ele>
        <time>2014-01-30T11:29:54Z</time>
      </trkpt>
      <trkpt lat="45.9224753" lon="7.6656817">
        <ele>2491.8</ele>
        <time>2014-01-30T11:29:55Z</time>
      </trkpt>
      <trkpt lat="45.9224946" lon="7.6655312">
        <ele>2487.8</ele>
        <time>2014-01-30T11:29:56Z</time>
      </trkpt>
      <trkpt lat="45.922487" lon="7.6653764">
        <ele>2486.4</ele>
        <time>2014-01-30T11:29:57Z</time>
      </trkpt>
      <trkpt lat="45.9225088" lon="7.6652312">
        <ele>2484.8</ele>
        <time>2014-01-30T11:29:58Z</time>
      </trkpt>
      <trkpt lat="45.9225204" lon="7.6650888">
        <ele>2482.4</ele>
        <time>2014-01-30T11:29:59Z</time>
      </trkpt>
      <trkpt lat="45.9225502" lon="7.6648402">
        <ele>2476</ele>
        <time>2014-01-30T11:30:00Z</time>
      </trkpt>
      <trkpt lat="45.9225885" lon="7.6646553">
        <ele>2473.4</ele>
        <time>2014-01-30T11:30:01Z</time>
      </trkpt>
      <trkpt lat="45.9226187" lon="7.6645119">
        <ele>2472</ele>
        <time>2014-01-30T11:30:02Z</time>
      </trkpt>
      <trkpt lat="45.9226882" lon="7.6642927">
        <ele>2467</ele>
        <time>2014-01-30T11:30:03Z</time>
      </trkpt>
      <trkpt lat="45.92271" lon="7.6641124">
        <ele>2464.2</ele>
        <time>2014-01-30T11:30:04Z</time>
      </trkpt>
      <trkpt lat="45.9227926" lon="7.6639084">
        <ele>2460.6</ele>
        <time>2014-01-30T11:30:05Z</time>
      </trkpt>
      <trkpt lat="45.9228454" lon="7.6637121">
        <ele>2456.6</ele>
        <time>2014-01-30T11:30:06Z</time>
      </trkpt>
      <trkpt lat="45.9229075" lon="7.6635294">
        <ele>2454.8</ele>
        <time>2014-01-30T11:30:07Z</time>
      </trkpt>
      <trkpt lat="45.9229416" lon="7.6633204">
        <ele>2451</ele>
        <time>2014-01-30T11:30:08Z</time>
      </trkpt>
      <trkpt lat="45.9229735" lon="7.663126">
        <ele>2449.6</ele>
        <time>2014-01-30T11:30:09Z</time>
      </trkpt>
      <trkpt lat="45.9230197" lon="7.6629448">
        <ele>2445</ele>
        <time>2014-01-30T11:30:10Z</time>
      </trkpt>
      <trkpt lat="45.9230547" lon="7.6627524">
        <ele>2443.8</ele>
        <time>2014-01-30T11:30:11Z</time>
      </trkpt>
      <trkpt lat="45.9231211" lon="7.6625701">
        <ele>2439.4</ele>
        <time>2014-01-30T11:30:12Z</time>
      </trkpt>
      <trkpt lat="45.9231666" lon="7.66238">
        <ele>2438.2</ele>
        <time>2014-01-30T11:30:13Z</time>
      </trkpt>
      <trkpt lat="45.9232249" lon="7.662179">
        <ele>2433.6</ele>
        <time>2014-01-30T11:30:14Z</time>
      </trkpt>
      <trkpt lat="45.9232668" lon="7.6619833">
        <ele>2432.4</ele>
        <time>2014-01-30T11:30:15Z</time>
      </trkpt>
      <trkpt lat="45.923302" lon="7.6618022">
        <ele>2430.8</ele>
        <time>2014-01-30T11:30:16Z</time>
      </trkpt>
      <trkpt lat="45.9233594" lon="7.6616205">
        <ele>2426.4</ele>
        <time>2014-01-30T11:30:17Z</time>
      </trkpt>
      <trkpt lat="45.9234108" lon="7.6614093">
        <ele>2422.8</ele>
        <time>2014-01-30T11:30:18Z</time>
      </trkpt>
      <trkpt lat="45.9234598" lon="7.6612447">
        <ele>2421.8</ele>
        <time>2014-01-30T11:30:19Z</time>
      </trkpt>
      <trkpt lat="45.9235221" lon="7.6610573">
        <ele>2418.4</ele>
        <time>2014-01-30T11:30:20Z</time>
      </trkpt>
      <trkpt lat="45.9235834" lon="7.6608896">
        <ele>2416.6</ele>
        <time>2014-01-30T11:30:21Z</time>
      </trkpt>
      <trkpt lat="45.9236168" lon="7.6607495">
        <ele>2415.6</ele>
        <time>2014-01-30T11:30:22Z</time>
      </trkpt>
      <trkpt lat="45.9236706" lon="7.6606153">
        <ele>2414.2</ele>
        <time>2014-01-30T11:30:23Z</time>
      </trkpt>
      <trkpt lat="45.9237302" lon="7.6604143">
        <ele>2412.8</ele>
        <time>2014-01-30T11:30:24Z</time>
      </trkpt>
      <trkpt lat="45.923812" lon="7.6601368">
        <ele>2410.4</ele>
        <time>2014-01-30T11:30:26Z</time>
      </trkpt>
      <trkpt lat="45.9238484" lon="7.6599963">
        <ele>2410.4</ele>
        <time>2014-01-30T11:30:27Z</time>
      </trkpt>
      <trkpt lat="45.9238843" lon="7.6598751">
        <ele>2409.4</ele>
        <time>2014-01-30T11:30:28Z</time>
      </trkpt>
      <trkpt lat="45.9238991" lon="7.6597734">
        <ele>2408</ele>
        <time>2014-01-30T11:30:29Z</time>
      </trkpt>
      <trkpt lat="45.9239468" lon="7.6595996">
        <ele>2405.4</ele>
        <time>2014-01-30T11:30:30Z</time>
      </trkpt>
      <trkpt lat="45.9239742" lon="7.6594708">
        <ele>2405.4</ele>
        <time>2014-01-30T11:30:31Z</time>
      </trkpt>
      <trkpt lat="45.9240249" lon="7.6593583">
        <ele>2402.2</ele>
        <time>2014-01-30T11:30:32Z</time>
      </trkpt>
      <trkpt lat="45.9241282" lon="7.6591274">
        <ele>2400</ele>
        <time>2014-01-30T11:30:34Z</time>
      </trkpt>
      <trkpt lat="45.924186" lon="7.6589833">
        <ele>2396.8</ele>
        <time>2014-01-30T11:30:35Z</time>
      </trkpt>
      <trkpt lat="45.9242573" lon="7.658835">
        <ele>2391.4</ele>
        <time>2014-01-30T11:30:36Z</time>
      </trkpt>
      <trkpt lat="45.9243098" lon="7.6586862">
        <ele>2390.2</ele>
        <time>2014-01-30T11:30:37Z</time>
      </trkpt>
      <trkpt lat="45.924401" lon="7.6585443">
        <ele>2385.6</ele>
        <time>2014-01-30T11:30:38Z</time>
      </trkpt>
      <trkpt lat="45.9244663" lon="7.6583934">
        <ele>2384.4</ele>
        <time>2014-01-30T11:30:39Z</time>
      </trkpt>
      <trkpt lat="45.9245506" lon="7.6582869">
        <ele>2382.8</ele>
        <time>2014-01-30T11:30:40Z</time>
      </trkpt>
      <trkpt lat="45.9246243" lon="7.6581258">
        <ele>2377.8</ele>
        <time>2014-01-30T11:30:41Z</time>
      </trkpt>
      <trkpt lat="45.9247181" lon="7.6580122">
        <ele>2376.6</ele>
        <time>2014-01-30T11:30:42Z</time>
      </trkpt>
      <trkpt lat="45.9247964" lon="7.6578478">
        <ele>2372.6</ele>
        <time>2014-01-30T11:30:43Z</time>
      </trkpt>
      <trkpt lat="45.9249054" lon="7.6577227">
        <ele>2369.4</ele>
        <time>2014-01-30T11:30:44Z</time>
      </trkpt>
      <trkpt lat="45.9249978" lon="7.6575992">
        <ele>2368</ele>
        <time>2014-01-30T11:30:45Z</time>
      </trkpt>
      <trkpt lat="45.9250396" lon="7.6574663">
        <ele>2365.6</ele>
        <time>2014-01-30T11:30:46Z</time>
      </trkpt>
      <trkpt lat="45.9251006" lon="7.6573731">
        <ele>2364.2</ele>
        <time>2014-01-30T11:30:47Z</time>
      </trkpt>
      <trkpt lat="45.9251687" lon="7.6572176">
        <ele>2359</ele>
        <time>2014-01-30T11:30:48Z</time>
      </trkpt>
      <trkpt lat="45.9252417" lon="7.6571182">
        <ele>2357.8</ele>
        <time>2014-01-30T11:30:49Z</time>
      </trkpt>
      <trkpt lat="45.9252912" lon="7.6570028">
        <ele>2354.8</ele>
        <time>2014-01-30T11:30:50Z</time>
      </trkpt>
      <trkpt lat="45.9253542" lon="7.656897">
        <ele>2353.6</ele>
        <time>2014-01-30T11:30:51Z</time>
      </trkpt>
      <trkpt lat="45.9253918" lon="7.6567955">
        <ele>2352.2</ele>
        <time>2014-01-30T11:30:52Z</time>
      </trkpt>
      <trkpt lat="45.9253988" lon="7.6567054">
        <ele>2351.2</ele>
        <time>2014-01-30T11:30:53Z</time>
      </trkpt>
      <trkpt lat="45.925437" lon="7.656571">
        <ele>2348.8</ele>
        <time>2014-01-30T11:30:54Z</time>
      </trkpt>
      <trkpt lat="45.9254906" lon="7.6564077">
        <ele>2345.8</ele>
        <time>2014-01-30T11:30:56Z</time>
      </trkpt>
      <trkpt lat="45.925538" lon="7.6562411">
        <ele>2344.4</ele>
        <time>2014-01-30T11:30:58Z</time>
      </trkpt>
      <trkpt lat="45.9255648" lon="7.6561697">
        <ele>2342.8</ele>
        <time>2014-01-30T11:30:59Z</time>
      </trkpt>
      <trkpt lat="45.9255996" lon="7.6560205">
        <ele>2341.8</ele>
        <time>2014-01-30T11:31:00Z</time>
      </trkpt>
      <trkpt lat="45.9256229" lon="7.6559158">
        <ele>2340.6</ele>
        <time>2014-01-30T11:31:01Z</time>
      </trkpt>
      <trkpt lat="45.9256706" lon="7.6557283">
        <ele>2339.4</ele>
        <time>2014-01-30T11:31:03Z</time>
      </trkpt>
      <trkpt lat="45.9257136" lon="7.6555443">
        <ele>2338.2</ele>
        <time>2014-01-30T11:31:05Z</time>
      </trkpt>
      <trkpt lat="45.9257235" lon="7.6554399">
        <ele>2336.6</ele>
        <time>2014-01-30T11:31:06Z</time>
      </trkpt>
      <trkpt lat="45.925737" lon="7.6553456">
        <ele>2336.6</ele>
        <time>2014-01-30T11:31:07Z</time>
      </trkpt>
      <trkpt lat="45.9257592" lon="7.6552398">
        <ele>2335.4</ele>
        <time>2014-01-30T11:31:08Z</time>
      </trkpt>
      <trkpt lat="45.9257735" lon="7.6551402">
        <ele>2334.2</ele>
        <time>2014-01-30T11:31:09Z</time>
      </trkpt>
      <trkpt lat="45.9258002" lon="7.6550453">
        <ele>2333</ele>
        <time>2014-01-30T11:31:10Z</time>
      </trkpt>
      <trkpt lat="45.9258464" lon="7.6548645">
        <ele>2332</ele>
        <time>2014-01-30T11:31:12Z</time>
      </trkpt>
      <trkpt lat="45.9258802" lon="7.654773">
        <ele>2332</ele>
        <time>2014-01-30T11:31:13Z</time>
      </trkpt>
      <trkpt lat="45.9259059" lon="7.6546763">
        <ele>2329.4</ele>
        <time>2014-01-30T11:31:14Z</time>
      </trkpt>
      <trkpt lat="45.925955" lon="7.6544997">
        <ele>2328.2</ele>
        <time>2014-01-30T11:31:16Z</time>
      </trkpt>
      <trkpt lat="45.9259902" lon="7.6544053">
        <ele>2327</ele>
        <time>2014-01-30T11:31:17Z</time>
      </trkpt>
      <trkpt lat="45.9260174" lon="7.6542878">
        <ele>2324.8</ele>
        <time>2014-01-30T11:31:18Z</time>
      </trkpt>
      <trkpt lat="45.9260434" lon="7.6541799">
        <ele>2324.8</ele>
        <time>2014-01-30T11:31:19Z</time>
      </trkpt>
      <trkpt lat="45.9260687" lon="7.654079">
        <ele>2322</ele>
        <time>2014-01-30T11:31:20Z</time>
      </trkpt>
      <trkpt lat="45.9260992" lon="7.6539729">
        <ele>2320.8</ele>
        <time>2014-01-30T11:31:21Z</time>
      </trkpt>
      <trkpt lat="45.9261009" lon="7.6538641">
        <ele>2320.8</ele>
        <time>2014-01-30T11:31:22Z</time>
      </trkpt>
      <trkpt lat="45.92609" lon="7.6537593">
        <ele>2319.4</ele>
        <time>2014-01-30T11:31:23Z</time>
      </trkpt>
      <trkpt lat="45.9260568" lon="7.6536172">
        <ele>2318</ele>
        <time>2014-01-30T11:31:24Z</time>
      </trkpt>
      <trkpt lat="45.926026" lon="7.6535209">
        <ele>2318</ele>
        <time>2014-01-30T11:31:25Z</time>
      </trkpt>
      <trkpt lat="45.9259971" lon="7.6534471">
        <ele>2316.8</ele>
        <time>2014-01-30T11:31:26Z</time>
      </trkpt>
      <trkpt lat="45.9259063" lon="7.6532333">
        <ele>2315.8</ele>
        <time>2014-01-30T11:31:29Z</time>
      </trkpt>
      <trkpt lat="45.9258558" lon="7.6531254">
        <ele>2315.8</ele>
        <time>2014-01-30T11:31:30Z</time>
      </trkpt>
      <trkpt lat="45.9257631" lon="7.6529305">
        <ele>2314.6</ele>
        <time>2014-01-30T11:31:33Z</time>
      </trkpt>
      <trkpt lat="45.9257022" lon="7.652758">
        <ele>2314.6</ele>
        <time>2014-01-30T11:31:36Z</time>
      </trkpt>
      <trkpt lat="45.9256829" lon="7.6526591">
        <ele>2313.6</ele>
        <time>2014-01-30T11:31:38Z</time>
      </trkpt>
      <trkpt lat="45.9256623" lon="7.6525053">
        <ele>2313.6</ele>
        <time>2014-01-30T11:31:42Z</time>
      </trkpt>
      <trkpt lat="45.9256746" lon="7.6521629">
        <ele>2311.6</ele>
        <time>2014-01-30T11:31:50Z</time>
      </trkpt>
      <trkpt lat="45.9257003" lon="7.6519703">
        <ele>2310.6</ele>
        <time>2014-01-30T11:31:54Z</time>
      </trkpt>
      <trkpt lat="45.9257531" lon="7.651739">
        <ele>2309.4</ele>
        <time>2014-01-30T11:31:59Z</time>
      </trkpt>
      <trkpt lat="45.9257822" lon="7.6516068">
        <ele>2308.2</ele>
        <time>2014-01-30T11:32:01Z</time>
      </trkpt>
      <trkpt lat="45.925812" lon="7.6514636">
        <ele>2307.2</ele>
        <time>2014-01-30T11:32:04Z</time>
      </trkpt>
      <trkpt lat="45.925835" lon="7.6513314">
        <ele>2306.2</ele>
        <time>2014-01-30T11:32:07Z</time>
      </trkpt>
      <trkpt lat="45.9258523" lon="7.6512038">
        <ele>2305</ele>
        <time>2014-01-30T11:32:11Z</time>
      </trkpt>
      <trkpt lat="45.9258613" lon="7.6511754">
        <ele>2305</ele>
        <time>2014-01-30T11:32:13Z</time>
      </trkpt>
      <trkpt lat="45.9258745" lon="7.6511641">
        <ele>2305</ele>
        <time>2014-01-30T11:32:18Z</time>
      </trkpt>
      <trkpt lat="45.925875" lon="7.6511622">
        <ele>2304</ele>
        <time>2014-01-30T11:32:25Z</time>
      </trkpt>
      <trkpt lat="45.9258836" lon="7.6511628">
        <ele>2304</ele>
        <time>2014-01-30T11:32:30Z</time>
      </trkpt>
      <trkpt lat="45.9259022" lon="7.6511388">
        <ele>2304</ele>
        <time>2014-01-30T11:32:32Z</time>
      </trkpt>
      <trkpt lat="45.9259209" lon="7.6510483">
        <ele>2302.8</ele>
        <time>2014-01-30T11:32:34Z</time>
      </trkpt>
      <trkpt lat="45.9259489" lon="7.6509162">
        <ele>2301.8</ele>
        <time>2014-01-30T11:32:36Z</time>
      </trkpt>
      <trkpt lat="45.925963" lon="7.6508477">
        <ele>2300.8</ele>
        <time>2014-01-30T11:32:37Z</time>
      </trkpt>
      <trkpt lat="45.92598" lon="7.6507659">
        <ele>2300.8</ele>
        <time>2014-01-30T11:32:38Z</time>
      </trkpt>
      <trkpt lat="45.9259989" lon="7.6506895">
        <ele>2299.6</ele>
        <time>2014-01-30T11:32:39Z</time>
      </trkpt>
      <trkpt lat="45.926026" lon="7.6506011">
        <ele>2298.2</ele>
        <time>2014-01-30T11:32:40Z</time>
      </trkpt>
      <trkpt lat="45.9260507" lon="7.6505083">
        <ele>2297</ele>
        <time>2014-01-30T11:32:41Z</time>
      </trkpt>
      <trkpt lat="45.9261243" lon="7.6502966">
        <ele>2294.8</ele>
        <time>2014-01-30T11:32:43Z</time>
      </trkpt>
      <trkpt lat="45.9261757" lon="7.6501763">
        <ele>2292.6</ele>
        <time>2014-01-30T11:32:44Z</time>
      </trkpt>
      <trkpt lat="45.9262842" lon="7.6499905">
        <ele>2291</ele>
        <time>2014-01-30T11:32:46Z</time>
      </trkpt>
      <trkpt lat="45.9263485" lon="7.64989">
        <ele>2289.2</ele>
        <time>2014-01-30T11:32:47Z</time>
      </trkpt>
      <trkpt lat="45.9264127" lon="7.6497634">
        <ele>2286.4</ele>
        <time>2014-01-30T11:32:48Z</time>
      </trkpt>
      <trkpt lat="45.9265298" lon="7.6495377">
        <ele>2283.4</ele>
        <time>2014-01-30T11:32:50Z</time>
      </trkpt>
      <trkpt lat="45.9265914" lon="7.6494264">
        <ele>2282</ele>
        <time>2014-01-30T11:32:51Z</time>
      </trkpt>
      <trkpt lat="45.926632" lon="7.6493203">
        <ele>2282</ele>
        <time>2014-01-30T11:32:52Z</time>
      </trkpt>
      <trkpt lat="45.926671" lon="7.6492217">
        <ele>2281</ele>
        <time>2014-01-30T11:32:53Z</time>
      </trkpt>
      <trkpt lat="45.9267391" lon="7.6490725">
        <ele>2279.6</ele>
        <time>2014-01-30T11:32:54Z</time>
      </trkpt>
      <trkpt lat="45.9268291" lon="7.6488743">
        <ele>2278.6</ele>
        <time>2014-01-30T11:32:56Z</time>
      </trkpt>
      <trkpt lat="45.9269044" lon="7.648684">
        <ele>2277.6</ele>
        <time>2014-01-30T11:32:58Z</time>
      </trkpt>
      <trkpt lat="45.9269206" lon="7.6486052">
        <ele>2277.6</ele>
        <time>2014-01-30T11:32:59Z</time>
      </trkpt>
      <trkpt lat="45.9269488" lon="7.6484701">
        <ele>2276</ele>
        <time>2014-01-30T11:33:00Z</time>
      </trkpt>
      <trkpt lat="45.9269762" lon="7.648374">
        <ele>2274.8</ele>
        <time>2014-01-30T11:33:01Z</time>
      </trkpt>
      <trkpt lat="45.9269807" lon="7.6483036">
        <ele>2274.8</ele>
        <time>2014-01-30T11:33:02Z</time>
      </trkpt>
      <trkpt lat="45.9269701" lon="7.6482467">
        <ele>2273.6</ele>
        <time>2014-01-30T11:33:03Z</time>
      </trkpt>
      <trkpt lat="45.9269865" lon="7.6482325">
        <ele>2273.6</ele>
        <time>2014-01-30T11:33:04Z</time>
      </trkpt>
      <trkpt lat="45.9269924" lon="7.648246">
        <ele>2273.6</ele>
        <time>2014-01-30T11:33:07Z</time>
      </trkpt>
      <trkpt lat="45.9269909" lon="7.6482477">
        <ele>2272.6</ele>
        <time>2014-01-30T11:33:10Z</time>
      </trkpt>
      <trkpt lat="45.9269977" lon="7.6482318">
        <ele>2272.6</ele>
        <time>2014-01-30T11:33:12Z</time>
      </trkpt>
      <trkpt lat="45.9270008" lon="7.6482045">
        <ele>2272.6</ele>
        <time>2014-01-30T11:33:13Z</time>
      </trkpt>
      <trkpt lat="45.9269984" lon="7.6481574">
        <ele>2271.4</ele>
        <time>2014-01-30T11:33:14Z</time>
      </trkpt>
      <trkpt lat="45.9269926" lon="7.6480098">
        <ele>2271.4</ele>
        <time>2014-01-30T11:33:17Z</time>
      </trkpt>
      <trkpt lat="45.926982" lon="7.6479368">
        <ele>2270.2</ele>
        <time>2014-01-30T11:33:18Z</time>
      </trkpt>
      <trkpt lat="45.9269657" lon="7.647784">
        <ele>2269</ele>
        <time>2014-01-30T11:33:20Z</time>
      </trkpt>
      <trkpt lat="45.9269593" lon="7.6476998">
        <ele>2268</ele>
        <time>2014-01-30T11:33:21Z</time>
      </trkpt>
      <trkpt lat="45.926955" lon="7.6476153">
        <ele>2267</ele>
        <time>2014-01-30T11:33:22Z</time>
      </trkpt>
      <trkpt lat="45.9269582" lon="7.6475244">
        <ele>2265.8</ele>
        <time>2014-01-30T11:33:23Z</time>
      </trkpt>
      <trkpt lat="45.9269857" lon="7.6473807">
        <ele>2263.6</ele>
        <time>2014-01-30T11:33:24Z</time>
      </trkpt>
      <trkpt lat="45.9270097" lon="7.647275">
        <ele>2263.6</ele>
        <time>2014-01-30T11:33:25Z</time>
      </trkpt>
      <trkpt lat="45.9270355" lon="7.6471678">
        <ele>2261.4</ele>
        <time>2014-01-30T11:33:26Z</time>
      </trkpt>
      <trkpt lat="45.9270845" lon="7.6469477">
        <ele>2260.4</ele>
        <time>2014-01-30T11:33:28Z</time>
      </trkpt>
      <trkpt lat="45.9270994" lon="7.6468614">
        <ele>2259.4</ele>
        <time>2014-01-30T11:33:29Z</time>
      </trkpt>
      <trkpt lat="45.9271278" lon="7.6466945">
        <ele>2258.2</ele>
        <time>2014-01-30T11:33:30Z</time>
      </trkpt>
      <trkpt lat="45.9271459" lon="7.6465845">
        <ele>2256.6</ele>
        <time>2014-01-30T11:33:31Z</time>
      </trkpt>
      <trkpt lat="45.9271835" lon="7.646344">
        <ele>2255.4</ele>
        <time>2014-01-30T11:33:33Z</time>
      </trkpt>
      <trkpt lat="45.927201" lon="7.64623">
        <ele>2253</ele>
        <time>2014-01-30T11:33:34Z</time>
      </trkpt>
      <trkpt lat="45.9272252" lon="7.6460962">
        <ele>2251.6</ele>
        <time>2014-01-30T11:33:35Z</time>
      </trkpt>
      <trkpt lat="45.9272545" lon="7.6459749">
        <ele>2250.4</ele>
        <time>2014-01-30T11:33:36Z</time>
      </trkpt>
      <trkpt lat="45.927292" lon="7.6458515">
        <ele>2249</ele>
        <time>2014-01-30T11:33:37Z</time>
      </trkpt>
      <trkpt lat="45.9273349" lon="7.6457262">
        <ele>2247.6</ele>
        <time>2014-01-30T11:33:38Z</time>
      </trkpt>
      <trkpt lat="45.9273782" lon="7.6456027">
        <ele>2246.4</ele>
        <time>2014-01-30T11:33:39Z</time>
      </trkpt>
      <trkpt lat="45.9274693" lon="7.6453681">
        <ele>2245</ele>
        <time>2014-01-30T11:33:41Z</time>
      </trkpt>
      <trkpt lat="45.9274976" lon="7.6452294">
        <ele>2243.6</ele>
        <time>2014-01-30T11:33:42Z</time>
      </trkpt>
      <trkpt lat="45.9275256" lon="7.6451016">
        <ele>2242.2</ele>
        <time>2014-01-30T11:33:43Z</time>
      </trkpt>
      <trkpt lat="45.9275505" lon="7.6449978">
        <ele>2240.6</ele>
        <time>2014-01-30T11:33:44Z</time>
      </trkpt>
      <trkpt lat="45.9275904" lon="7.6448238">
        <ele>2238.6</ele>
        <time>2014-01-30T11:33:45Z</time>
      </trkpt>
      <trkpt lat="45.9276194" lon="7.644663">
        <ele>2237</ele>
        <time>2014-01-30T11:33:46Z</time>
      </trkpt>
      <trkpt lat="45.9276659" lon="7.6445129">
        <ele>2233.8</ele>
        <time>2014-01-30T11:33:47Z</time>
      </trkpt>
      <trkpt lat="45.9277074" lon="7.6443733">
        <ele>2233.8</ele>
        <time>2014-01-30T11:33:48Z</time>
      </trkpt>
      <trkpt lat="45.9277285" lon="7.6442508">
        <ele>2232.6</ele>
        <time>2014-01-30T11:33:49Z</time>
      </trkpt>
      <trkpt lat="45.9277548" lon="7.6441035">
        <ele>2231.6</ele>
        <time>2014-01-30T11:33:50Z</time>
      </trkpt>
      <trkpt lat="45.9277982" lon="7.6438861">
        <ele>2230.4</ele>
        <time>2014-01-30T11:33:52Z</time>
      </trkpt>
      <trkpt lat="45.9278504" lon="7.6436691">
        <ele>2229.2</ele>
        <time>2014-01-30T11:33:54Z</time>
      </trkpt>
      <trkpt lat="45.9279295" lon="7.6433843">
        <ele>2229.2</ele>
        <time>2014-01-30T11:33:57Z</time>
      </trkpt>
      <trkpt lat="45.927952" lon="7.6433067">
        <ele>2228.2</ele>
        <time>2014-01-30T11:33:58Z</time>
      </trkpt>
      <trkpt lat="45.9280425" lon="7.6430489">
        <ele>2227.2</ele>
        <time>2014-01-30T11:34:02Z</time>
      </trkpt>
      <trkpt lat="45.9280691" lon="7.6429338">
        <ele>2227.2</ele>
        <time>2014-01-30T11:34:04Z</time>
      </trkpt>
      <trkpt lat="45.9280809" lon="7.6427853">
        <ele>2226</ele>
        <time>2014-01-30T11:34:06Z</time>
      </trkpt>
      <trkpt lat="45.928072" lon="7.6427144">
        <ele>2225</ele>
        <time>2014-01-30T11:34:07Z</time>
      </trkpt>
      <trkpt lat="45.9280652" lon="7.6426472">
        <ele>2225</ele>
        <time>2014-01-30T11:34:08Z</time>
      </trkpt>
      <trkpt lat="45.9280754" lon="7.6425971">
        <ele>2225</ele>
        <time>2014-01-30T11:34:09Z</time>
      </trkpt>
      <trkpt lat="45.9280784" lon="7.6426078">
        <ele>2225</ele>
        <time>2014-01-30T11:34:11Z</time>
      </trkpt>
      <trkpt lat="45.9280851" lon="7.6425917">
        <ele>2224</ele>
        <time>2014-01-30T11:34:12Z</time>
      </trkpt>
      <trkpt lat="45.928082" lon="7.6425961">
        <ele>2224</ele>
        <time>2014-01-30T11:34:18Z</time>
      </trkpt>
      <trkpt lat="45.9280773" lon="7.6426029">
        <ele>2224</ele>
        <time>2014-01-30T11:34:28Z</time>
      </trkpt>
      <trkpt lat="45.9280784" lon="7.6426145">
        <ele>2224</ele>
        <time>2014-01-30T11:34:35Z</time>
      </trkpt>
      <trkpt lat="45.9280852" lon="7.6426241">
        <ele>2224</ele>
        <time>2014-01-30T11:34:41Z</time>
      </trkpt>
      <trkpt lat="45.928084" lon="7.6426243">
        <ele>2224</ele>
        <time>2014-01-30T11:34:49Z</time>
      </trkpt>
      <trkpt lat="45.928082" lon="7.6426284">
        <ele>2224</ele>
        <time>2014-01-30T11:35:00Z</time>
      </trkpt>
      <trkpt lat="45.9281361" lon="7.6425343">
        <ele>2224</ele>
        <time>2014-01-30T11:35:06Z</time>
      </trkpt>
      <trkpt lat="45.9281571" lon="7.6424921">
        <ele>2220.2</ele>
        <time>2014-01-30T11:35:07Z</time>
      </trkpt>
      <trkpt lat="45.9281905" lon="7.6424544">
        <ele>2218.2</ele>
        <time>2014-01-30T11:35:08Z</time>
      </trkpt>
      <trkpt lat="45.9282306" lon="7.6423871">
        <ele>2213.2</ele>
        <time>2014-01-30T11:35:09Z</time>
      </trkpt>
      <trkpt lat="45.9282784" lon="7.6423264">
        <ele>2210.2</ele>
        <time>2014-01-30T11:35:10Z</time>
      </trkpt>
      <trkpt lat="45.928305" lon="7.642265">
        <ele>2209</ele>
        <time>2014-01-30T11:35:11Z</time>
      </trkpt>
      <trkpt lat="45.9283829" lon="7.6421722">
        <ele>2205.2</ele>
        <time>2014-01-30T11:35:12Z</time>
      </trkpt>
      <trkpt lat="45.9284711" lon="7.6421493">
        <ele>2203.4</ele>
        <time>2014-01-30T11:35:13Z</time>
      </trkpt>
      <trkpt lat="45.9285164" lon="7.6420732">
        <ele>2199.8</ele>
        <time>2014-01-30T11:35:14Z</time>
      </trkpt>
      <trkpt lat="45.928616" lon="7.6419562">
        <ele>2196.4</ele>
        <time>2014-01-30T11:35:15Z</time>
      </trkpt>
      <trkpt lat="45.9286791" lon="7.6418735">
        <ele>2191.2</ele>
        <time>2014-01-30T11:35:16Z</time>
      </trkpt>
      <trkpt lat="45.9287395" lon="7.6418771">
        <ele>2189</ele>
        <time>2014-01-30T11:35:17Z</time>
      </trkpt>
      <trkpt lat="45.9287927" lon="7.6418457">
        <ele>2187.4</ele>
        <time>2014-01-30T11:35:18Z</time>
      </trkpt>
      <trkpt lat="45.9287856" lon="7.6417523">
        <ele>2186.4</ele>
        <time>2014-01-30T11:35:19Z</time>
      </trkpt>
      <trkpt lat="45.9287863" lon="7.6416854">
        <ele>2186.4</ele>
        <time>2014-01-30T11:35:20Z</time>
      </trkpt>
      <trkpt lat="45.928774" lon="7.6416692">
        <ele>2186.4</ele>
        <time>2014-01-30T11:35:23Z</time>
      </trkpt>
      <trkpt lat="45.9287752" lon="7.6416653">
        <ele>2186.4</ele>
        <time>2014-01-30T11:35:29Z</time>
      </trkpt>
      <trkpt lat="45.9287859" lon="7.6416389">
        <ele>2186.4</ele>
        <time>2014-01-30T11:35:37Z</time>
      </trkpt>
      <trkpt lat="45.9287934" lon="7.6416185">
        <ele>2185.4</ele>
        <time>2014-01-30T11:35:38Z</time>
      </trkpt>
      <trkpt lat="45.928815" lon="7.6415506">
        <ele>2185.4</ele>
        <time>2014-01-30T11:35:41Z</time>
      </trkpt>
      <trkpt lat="45.9288327" lon="7.6415473">
        <ele>2185.4</ele>
        <time>2014-01-30T11:35:42Z</time>
      </trkpt>
      <trkpt lat="45.9288493" lon="7.6415528">
        <ele>2184.4</ele>
        <time>2014-01-30T11:35:43Z</time>
      </trkpt>
      <trkpt lat="45.9289108" lon="7.6415307">
        <ele>2183.2</ele>
        <time>2014-01-30T11:35:45Z</time>
      </trkpt>
      <trkpt lat="45.928945" lon="7.6415162">
        <ele>2183.2</ele>
        <time>2014-01-30T11:35:46Z</time>
      </trkpt>
      <trkpt lat="45.9290032" lon="7.6414885">
        <ele>2183.2</ele>
        <time>2014-01-30T11:35:50Z</time>
      </trkpt>
      <trkpt lat="45.9289999" lon="7.6414882">
        <ele>2183.2</ele>
        <time>2014-01-30T11:35:59Z</time>
      </trkpt>
      <trkpt lat="45.9289976" lon="7.6414894">
        <ele>2183.2</ele>
        <time>2014-01-30T11:36:06Z</time>
      </trkpt>
      <trkpt lat="45.9289968" lon="7.64149">
        <ele>2183.2</ele>
        <time>2014-01-30T11:36:14Z</time>
      </trkpt>
      <trkpt lat="45.9289954" lon="7.6414789">
        <ele>2183.2</ele>
        <time>2014-01-30T11:36:27Z</time>
      </trkpt>
      <trkpt lat="45.9289863" lon="7.6413643">
        <ele>2183.2</ele>
        <time>2014-01-30T11:36:31Z</time>
      </trkpt>
      <trkpt lat="45.9289798" lon="7.6413293">
        <ele>2181</ele>
        <time>2014-01-30T11:36:32Z</time>
      </trkpt>
      <trkpt lat="45.9289929" lon="7.6412764">
        <ele>2179.4</ele>
        <time>2014-01-30T11:36:33Z</time>
      </trkpt>
      <trkpt lat="45.9290012" lon="7.6412246">
        <ele>2176.6</ele>
        <time>2014-01-30T11:36:34Z</time>
      </trkpt>
      <trkpt lat="45.9290361" lon="7.6411584">
        <ele>2173</ele>
        <time>2014-01-30T11:36:35Z</time>
      </trkpt>
      <trkpt lat="45.9290579" lon="7.641072">
        <ele>2172</ele>
        <time>2014-01-30T11:36:37Z</time>
      </trkpt>
      <trkpt lat="45.9290874" lon="7.6410314">
        <ele>2170.8</ele>
        <time>2014-01-30T11:36:38Z</time>
      </trkpt>
      <trkpt lat="45.9291092" lon="7.6409761">
        <ele>2167.2</ele>
        <time>2014-01-30T11:36:39Z</time>
      </trkpt>
      <trkpt lat="45.929146" lon="7.6409389">
        <ele>2165.8</ele>
        <time>2014-01-30T11:36:40Z</time>
      </trkpt>
      <trkpt lat="45.9291747" lon="7.6409284">
        <ele>2162.6</ele>
        <time>2014-01-30T11:36:41Z</time>
      </trkpt>
      <trkpt lat="45.9292027" lon="7.6408812">
        <ele>2160.8</ele>
        <time>2014-01-30T11:36:42Z</time>
      </trkpt>
      <trkpt lat="45.9292518" lon="7.6408874">
        <ele>2160.8</ele>
        <time>2014-01-30T11:36:43Z</time>
      </trkpt>
      <trkpt lat="45.929263" lon="7.6408405">
        <ele>2157</ele>
        <time>2014-01-30T11:36:44Z</time>
      </trkpt>
      <trkpt lat="45.9293182" lon="7.6407883">
        <ele>2153.6</ele>
        <time>2014-01-30T11:36:45Z</time>
      </trkpt>
      <trkpt lat="45.9293631" lon="7.64076">
        <ele>2152</ele>
        <time>2014-01-30T11:36:46Z</time>
      </trkpt>
      <trkpt lat="45.9293967" lon="7.6406973">
        <ele>2149.8</ele>
        <time>2014-01-30T11:36:47Z</time>
      </trkpt>
      <trkpt lat="45.9294173" lon="7.6406497">
        <ele>2148.6</ele>
        <time>2014-01-30T11:36:48Z</time>
      </trkpt>
      <trkpt lat="45.9294242" lon="7.6406508">
        <ele>2148.6</ele>
        <time>2014-01-30T11:36:49Z</time>
      </trkpt>
      <trkpt lat="45.9294364" lon="7.6406652">
        <ele>2148.6</ele>
        <time>2014-01-30T11:36:50Z</time>
      </trkpt>
      <trkpt lat="45.9294296" lon="7.6406579">
        <ele>2148.6</ele>
        <time>2014-01-30T11:36:53Z</time>
      </trkpt>
      <trkpt lat="45.9294321" lon="7.6406645">
        <ele>2148.6</ele>
        <time>2014-01-30T11:37:02Z</time>
      </trkpt>
      <trkpt lat="45.9294299" lon="7.6406613">
        <ele>2148.6</ele>
        <time>2014-01-30T11:37:09Z</time>
      </trkpt>
      <trkpt lat="45.9294309" lon="7.6406646">
        <ele>2147.6</ele>
        <time>2014-01-30T11:37:17Z</time>
      </trkpt>
      <trkpt lat="45.9294328" lon="7.6406619">
        <ele>2147.6</ele>
        <time>2014-01-30T11:37:22Z</time>
      </trkpt>
      <trkpt lat="45.9294294" lon="7.6406637">
        <ele>2147.6</ele>
        <time>2014-01-30T11:37:27Z</time>
      </trkpt>
      <trkpt lat="45.9294288" lon="7.6406647">
        <ele>2147.6</ele>
        <time>2014-01-30T11:37:36Z</time>
      </trkpt>
      <trkpt lat="45.9294407" lon="7.6406597">
        <ele>2147.6</ele>
        <time>2014-01-30T11:37:39Z</time>
      </trkpt>
      <trkpt lat="45.9294969" lon="7.6406481">
        <ele>2145.6</ele>
        <time>2014-01-30T11:37:41Z</time>
      </trkpt>
      <trkpt lat="45.9295397" lon="7.6406447">
        <ele>2143.8</ele>
        <time>2014-01-30T11:37:42Z</time>
      </trkpt>
      <trkpt lat="45.9295377" lon="7.6405959">
        <ele>2143.8</ele>
        <time>2014-01-30T11:37:43Z</time>
      </trkpt>
      <trkpt lat="45.9295797" lon="7.6405719">
        <ele>2141.6</ele>
        <time>2014-01-30T11:37:44Z</time>
      </trkpt>
      <trkpt lat="45.929599" lon="7.640496">
        <ele>2138</ele>
        <time>2014-01-30T11:37:45Z</time>
      </trkpt>
      <trkpt lat="45.9295937" lon="7.6404554">
        <ele>2136.6</ele>
        <time>2014-01-30T11:37:46Z</time>
      </trkpt>
      <trkpt lat="45.9295845" lon="7.6404252">
        <ele>2136.6</ele>
        <time>2014-01-30T11:37:50Z</time>
      </trkpt>
      <trkpt lat="45.9295847" lon="7.6404268">
        <ele>2136.6</ele>
        <time>2014-01-30T11:37:55Z</time>
      </trkpt>
      <trkpt lat="45.9295825" lon="7.6404295">
        <ele>2135.6</ele>
        <time>2014-01-30T11:37:59Z</time>
      </trkpt>
      <trkpt lat="45.929583" lon="7.6404299">
        <ele>2135.6</ele>
        <time>2014-01-30T11:38:04Z</time>
      </trkpt>
      <trkpt lat="45.9295868" lon="7.6404114">
        <ele>2135.6</ele>
        <time>2014-01-30T11:38:10Z</time>
      </trkpt>
      <trkpt lat="45.929584" lon="7.6404134">
        <ele>2134.6</ele>
        <time>2014-01-30T11:38:11Z</time>
      </trkpt>
      <trkpt lat="45.9295865" lon="7.6403898">
        <ele>2134.6</ele>
        <time>2014-01-30T11:38:17Z</time>
      </trkpt>
      <trkpt lat="45.929577" lon="7.6403227">
        <ele>2133.6</ele>
        <time>2014-01-30T11:38:20Z</time>
      </trkpt>
      <trkpt lat="45.9295737" lon="7.6402567">
        <ele>2132.4</ele>
        <time>2014-01-30T11:38:22Z</time>
      </trkpt>
      <trkpt lat="45.9295653" lon="7.6402102">
        <ele>2132.4</ele>
        <time>2014-01-30T11:38:23Z</time>
      </trkpt>
      <trkpt lat="45.9295479" lon="7.6401524">
        <ele>2131.2</ele>
        <time>2014-01-30T11:38:25Z</time>
      </trkpt>
      <trkpt lat="45.9295308" lon="7.6400881">
        <ele>2131.2</ele>
        <time>2014-01-30T11:38:27Z</time>
      </trkpt>
      <trkpt lat="45.9294939" lon="7.6399669">
        <ele>2131.2</ele>
        <time>2014-01-30T11:38:34Z</time>
      </trkpt>
      <trkpt lat="45.9294992" lon="7.6399661">
        <ele>2131.2</ele>
        <time>2014-01-30T11:38:42Z</time>
      </trkpt>
      <trkpt lat="45.9295068" lon="7.6399367">
        <ele>2131.2</ele>
        <time>2014-01-30T11:38:43Z</time>
      </trkpt>
      <trkpt lat="45.9295274" lon="7.6399209">
        <ele>2128.2</ele>
        <time>2014-01-30T11:38:44Z</time>
      </trkpt>
      <trkpt lat="45.9295616" lon="7.6398904">
        <ele>2124.4</ele>
        <time>2014-01-30T11:38:45Z</time>
      </trkpt>
      <trkpt lat="45.929574" lon="7.6398519">
        <ele>2122.6</ele>
        <time>2014-01-30T11:38:46Z</time>
      </trkpt>
      <trkpt lat="45.9296373" lon="7.6397668">
        <ele>2117.4</ele>
        <time>2014-01-30T11:38:47Z</time>
      </trkpt>
      <trkpt lat="45.929691" lon="7.6396773">
        <ele>2114.4</ele>
        <time>2014-01-30T11:38:48Z</time>
      </trkpt>
      <trkpt lat="45.9297626" lon="7.6395639">
        <ele>2111.8</ele>
        <time>2014-01-30T11:38:49Z</time>
      </trkpt>
      <trkpt lat="45.9298275" lon="7.6394794">
        <ele>2108.6</ele>
        <time>2014-01-30T11:38:50Z</time>
      </trkpt>
      <trkpt lat="45.9298662" lon="7.6394077">
        <ele>2107.4</ele>
        <time>2014-01-30T11:38:51Z</time>
      </trkpt>
      <trkpt lat="45.9299188" lon="7.639327">
        <ele>2107.4</ele>
        <time>2014-01-30T11:38:52Z</time>
      </trkpt>
      <trkpt lat="45.9299453" lon="7.6392282">
        <ele>2106.2</ele>
        <time>2014-01-30T11:38:53Z</time>
      </trkpt>
      <trkpt lat="45.9299965" lon="7.6391613">
        <ele>2103.6</ele>
        <time>2014-01-30T11:38:54Z</time>
      </trkpt>
      <trkpt lat="45.9300614" lon="7.6391103">
        <ele>2102</ele>
        <time>2014-01-30T11:38:55Z</time>
      </trkpt>
      <trkpt lat="45.9301568" lon="7.6390547">
        <ele>2099.4</ele>
        <time>2014-01-30T11:38:57Z</time>
      </trkpt>
      <trkpt lat="45.9302032" lon="7.6390557">
        <ele>2099.4</ele>
        <time>2014-01-30T11:38:58Z</time>
      </trkpt>
      <trkpt lat="45.9302007" lon="7.6390158">
        <ele>2098.2</ele>
        <time>2014-01-30T11:38:59Z</time>
      </trkpt>
      <trkpt lat="45.9302006" lon="7.6389848">
        <ele>2098.2</ele>
        <time>2014-01-30T11:39:00Z</time>
      </trkpt>
      <trkpt lat="45.9301872" lon="7.6389831">
        <ele>2098.2</ele>
        <time>2014-01-30T11:39:03Z</time>
      </trkpt>
      <trkpt lat="45.9301842" lon="7.6389854">
        <ele>2098.2</ele>
        <time>2014-01-30T11:39:16Z</time>
      </trkpt>
      <trkpt lat="45.9301831" lon="7.638992">
        <ele>2098.2</ele>
        <time>2014-01-30T11:39:25Z</time>
      </trkpt>
      <trkpt lat="45.9301805" lon="7.638992">
        <ele>2098.2</ele>
        <time>2014-01-30T11:39:39Z</time>
      </trkpt>
      <trkpt lat="45.9301795" lon="7.6389949">
        <ele>2098.2</ele>
        <time>2014-01-30T11:39:49Z</time>
      </trkpt>
      <trkpt lat="45.9301787" lon="7.638993">
        <ele>2098.2</ele>
        <time>2014-01-30T11:39:58Z</time>
      </trkpt>
      <trkpt lat="45.9301768" lon="7.6389899">
        <ele>2098.2</ele>
        <time>2014-01-30T11:40:06Z</time>
      </trkpt>
      <trkpt lat="45.9301773" lon="7.6389905">
        <ele>2098.2</ele>
        <time>2014-01-30T11:40:22Z</time>
      </trkpt>
      <trkpt lat="45.9301769" lon="7.6389701">
        <ele>2098.2</ele>
        <time>2014-01-30T11:40:25Z</time>
      </trkpt>
      <trkpt lat="45.9301773" lon="7.638948">
        <ele>2098.2</ele>
        <time>2014-01-30T11:40:27Z</time>
      </trkpt>
      <trkpt lat="45.9302158" lon="7.6389279">
        <ele>2097</ele>
        <time>2014-01-30T11:40:29Z</time>
      </trkpt>
      <trkpt lat="45.930243" lon="7.638939">
        <ele>2095.6</ele>
        <time>2014-01-30T11:40:30Z</time>
      </trkpt>
      <trkpt lat="45.9303131" lon="7.6389898">
        <ele>2094.4</ele>
        <time>2014-01-30T11:40:32Z</time>
      </trkpt>
      <trkpt lat="45.930358" lon="7.6390194">
        <ele>2093.2</ele>
        <time>2014-01-30T11:40:33Z</time>
      </trkpt>
      <trkpt lat="45.9304156" lon="7.6390152">
        <ele>2091.2</ele>
        <time>2014-01-30T11:40:34Z</time>
      </trkpt>
      <trkpt lat="45.9304554" lon="7.6390572">
        <ele>2090</ele>
        <time>2014-01-30T11:40:35Z</time>
      </trkpt>
      <trkpt lat="45.9305824" lon="7.6390461">
        <ele>2085</ele>
        <time>2014-01-30T11:40:37Z</time>
      </trkpt>
      <trkpt lat="45.9306449" lon="7.6390398">
        <ele>2083.6</ele>
        <time>2014-01-30T11:40:38Z</time>
      </trkpt>
      <trkpt lat="45.9306664" lon="7.6389749">
        <ele>2080.6</ele>
        <time>2014-01-30T11:40:39Z</time>
      </trkpt>
      <trkpt lat="45.9307135" lon="7.6389495">
        <ele>2079.6</ele>
        <time>2014-01-30T11:40:40Z</time>
      </trkpt>
      <trkpt lat="45.9307477" lon="7.6389002">
        <ele>2077.4</ele>
        <time>2014-01-30T11:40:41Z</time>
      </trkpt>
      <trkpt lat="45.930803" lon="7.638858">
        <ele>2074.6</ele>
        <time>2014-01-30T11:40:42Z</time>
      </trkpt>
      <trkpt lat="45.9308541" lon="7.6388108">
        <ele>2073.4</ele>
        <time>2014-01-30T11:40:43Z</time>
      </trkpt>
      <trkpt lat="45.9308857" lon="7.6388163">
        <ele>2073.4</ele>
        <time>2014-01-30T11:40:44Z</time>
      </trkpt>
      <trkpt lat="45.9309372" lon="7.6387804">
        <ele>2072</ele>
        <time>2014-01-30T11:40:45Z</time>
      </trkpt>
      <trkpt lat="45.9309782" lon="7.6387492">
        <ele>2071</ele>
        <time>2014-01-30T11:40:46Z</time>
      </trkpt>
      <trkpt lat="45.9310214" lon="7.6386718">
        <ele>2066.6</ele>
        <time>2014-01-30T11:40:47Z</time>
      </trkpt>
      <trkpt lat="45.9310647" lon="7.6386129">
        <ele>2065.2</ele>
        <time>2014-01-30T11:40:48Z</time>
      </trkpt>
      <trkpt lat="45.9311177" lon="7.638566">
        <ele>2061.4</ele>
        <time>2014-01-30T11:40:49Z</time>
      </trkpt>
      <trkpt lat="45.9311755" lon="7.6385433">
        <ele>2060.4</ele>
        <time>2014-01-30T11:40:50Z</time>
      </trkpt>
      <trkpt lat="45.9312202" lon="7.6384711">
        <ele>2056.4</ele>
        <time>2014-01-30T11:40:51Z</time>
      </trkpt>
      <trkpt lat="45.931276" lon="7.6384182">
        <ele>2055.4</ele>
        <time>2014-01-30T11:40:52Z</time>
      </trkpt>
      <trkpt lat="45.9313221" lon="7.6383656">
        <ele>2055.4</ele>
        <time>2014-01-30T11:40:53Z</time>
      </trkpt>
      <trkpt lat="45.9313719" lon="7.6382989">
        <ele>2054.4</ele>
        <time>2014-01-30T11:40:55Z</time>
      </trkpt>
      <trkpt lat="45.9313882" lon="7.6382756">
        <ele>2054.4</ele>
        <time>2014-01-30T11:40:56Z</time>
      </trkpt>
      <trkpt lat="45.9313962" lon="7.638259">
        <ele>2054.4</ele>
        <time>2014-01-30T11:41:00Z</time>
      </trkpt>
      <trkpt lat="45.9314027" lon="7.6382488">
        <ele>2053.4</ele>
        <time>2014-01-30T11:41:03Z</time>
      </trkpt>
      <trkpt lat="45.9314095" lon="7.6382389">
        <ele>2053.4</ele>
        <time>2014-01-30T11:41:06Z</time>
      </trkpt>
      <trkpt lat="45.9314141" lon="7.638235">
        <ele>2053.4</ele>
        <time>2014-01-30T11:41:16Z</time>
      </trkpt>
      <trkpt lat="45.9314368" lon="7.638185">
        <ele>2053.4</ele>
        <time>2014-01-30T11:41:25Z</time>
      </trkpt>
      <trkpt lat="45.9314685" lon="7.638113">
        <ele>2051.2</ele>
        <time>2014-01-30T11:41:27Z</time>
      </trkpt>
      <trkpt lat="45.9314863" lon="7.6380714">
        <ele>2049.6</ele>
        <time>2014-01-30T11:41:28Z</time>
      </trkpt>
      <trkpt lat="45.9315186" lon="7.6380258">
        <ele>2046.6</ele>
        <time>2014-01-30T11:41:29Z</time>
      </trkpt>
      <trkpt lat="45.9315396" lon="7.6379738">
        <ele>2045.6</ele>
        <time>2014-01-30T11:41:30Z</time>
      </trkpt>
      <trkpt lat="45.9315791" lon="7.6379731">
        <ele>2043.4</ele>
        <time>2014-01-30T11:41:31Z</time>
      </trkpt>
      <trkpt lat="45.9316027" lon="7.6379607">
        <ele>2042.4</ele>
        <time>2014-01-30T11:41:32Z</time>
      </trkpt>
      <trkpt lat="45.9316428" lon="7.6379944">
        <ele>2041.4</ele>
        <time>2014-01-30T11:41:33Z</time>
      </trkpt>
      <trkpt lat="45.9316753" lon="7.6379813">
        <ele>2041.4</ele>
        <time>2014-01-30T11:41:36Z</time>
      </trkpt>
      <trkpt lat="45.9316769" lon="7.6379857">
        <ele>2040.2</ele>
        <time>2014-01-30T11:41:39Z</time>
      </trkpt>
      <trkpt lat="45.9317028" lon="7.6379787">
        <ele>2040.2</ele>
        <time>2014-01-30T11:41:41Z</time>
      </trkpt>
      <trkpt lat="45.9317298" lon="7.6379528">
        <ele>2037</ele>
        <time>2014-01-30T11:41:42Z</time>
      </trkpt>
      <trkpt lat="45.931778" lon="7.6379383">
        <ele>2034.6</ele>
        <time>2014-01-30T11:41:43Z</time>
      </trkpt>
      <trkpt lat="45.9318167" lon="7.6379469">
        <ele>2032</ele>
        <time>2014-01-30T11:41:44Z</time>
      </trkpt>
      <trkpt lat="45.9318909" lon="7.6379861">
        <ele>2029</ele>
        <time>2014-01-30T11:41:45Z</time>
      </trkpt>
      <trkpt lat="45.9319342" lon="7.638021">
        <ele>2027.4</ele>
        <time>2014-01-30T11:41:46Z</time>
      </trkpt>
      <trkpt lat="45.9319754" lon="7.6381098">
        <ele>2026</ele>
        <time>2014-01-30T11:41:47Z</time>
      </trkpt>
      <trkpt lat="45.9320318" lon="7.6381602">
        <ele>2026</ele>
        <time>2014-01-30T11:41:50Z</time>
      </trkpt>
      <trkpt lat="45.9320183" lon="7.6381548">
        <ele>2026</ele>
        <time>2014-01-30T11:41:55Z</time>
      </trkpt>
      <trkpt lat="45.9320126" lon="7.6381526">
        <ele>2026</ele>
        <time>2014-01-30T11:42:04Z</time>
      </trkpt>
      <trkpt lat="45.9320052" lon="7.6381552">
        <ele>2026</ele>
        <time>2014-01-30T11:42:13Z</time>
      </trkpt>
      <trkpt lat="45.9319984" lon="7.6381559">
        <ele>2026</ele>
        <time>2014-01-30T11:42:29Z</time>
      </trkpt>
      <trkpt lat="45.931995" lon="7.6381605">
        <ele>2026</ele>
        <time>2014-01-30T11:42:44Z</time>
      </trkpt>
      <trkpt lat="45.9320112" lon="7.6381865">
        <ele>2026</ele>
        <time>2014-01-30T11:42:51Z</time>
      </trkpt>
      <trkpt lat="45.9320135" lon="7.6381959">
        <ele>2029</ele>
        <time>2014-01-30T11:42:55Z</time>
      </trkpt>
      <trkpt lat="45.932014" lon="7.6381978">
        <ele>2029</ele>
        <time>2014-01-30T11:42:56Z</time>
      </trkpt>
      <trkpt lat="45.9320142" lon="7.638206">
        <ele>2029</ele>
        <time>2014-01-30T11:43:15Z</time>
      </trkpt>
      <trkpt lat="45.9320129" lon="7.6382061">
        <ele>2029</ele>
        <time>2014-01-30T11:43:36Z</time>
      </trkpt>
      <trkpt lat="45.9320127" lon="7.6382057">
        <ele>2029</ele>
        <time>2014-01-30T11:43:44Z</time>
      </trkpt>
      <trkpt lat="45.9320211" lon="7.6382028">
        <ele>2029</ele>
        <time>2014-01-30T11:43:45Z</time>
      </trkpt>
      <trkpt lat="45.9320757" lon="7.6381525">
        <ele>2025.8</ele>
        <time>2014-01-30T11:43:47Z</time>
      </trkpt>
      <trkpt lat="45.9321177" lon="7.6381181">
        <ele>2023.6</ele>
        <time>2014-01-30T11:43:48Z</time>
      </trkpt>
      <trkpt lat="45.9321673" lon="7.6380373">
        <ele>2019.2</ele>
        <time>2014-01-30T11:43:49Z</time>
      </trkpt>
      <trkpt lat="45.9322165" lon="7.6379652">
        <ele>2017.8</ele>
        <time>2014-01-30T11:43:50Z</time>
      </trkpt>
      <trkpt lat="45.932274" lon="7.6378918">
        <ele>2014.2</ele>
        <time>2014-01-30T11:43:51Z</time>
      </trkpt>
      <trkpt lat="45.9323374" lon="7.637799">
        <ele>2010.2</ele>
        <time>2014-01-30T11:43:52Z</time>
      </trkpt>
      <trkpt lat="45.9323991" lon="7.6377227">
        <ele>2007.6</ele>
        <time>2014-01-30T11:43:53Z</time>
      </trkpt>
      <trkpt lat="45.9324643" lon="7.6376363">
        <ele>2006.4</ele>
        <time>2014-01-30T11:43:54Z</time>
      </trkpt>
      <trkpt lat="45.9325398" lon="7.6376237">
        <ele>2001</ele>
        <time>2014-01-30T11:43:55Z</time>
      </trkpt>
      <trkpt lat="45.9326077" lon="7.6376281">
        <ele>1999.2</ele>
        <time>2014-01-30T11:43:56Z</time>
      </trkpt>
      <trkpt lat="45.9326539" lon="7.6375767">
        <ele>1997.6</ele>
        <time>2014-01-30T11:43:57Z</time>
      </trkpt>
      <trkpt lat="45.932705" lon="7.637539">
        <ele>1997.6</ele>
        <time>2014-01-30T11:43:58Z</time>
      </trkpt>
      <trkpt lat="45.9327555" lon="7.6375287">
        <ele>1995.2</ele>
        <time>2014-01-30T11:43:59Z</time>
      </trkpt>
      <trkpt lat="45.9328591" lon="7.6374376">
        <ele>1992.8</ele>
        <time>2014-01-30T11:44:01Z</time>
      </trkpt>
      <trkpt lat="45.9329319" lon="7.6374024">
        <ele>1986.4</ele>
        <time>2014-01-30T11:44:02Z</time>
      </trkpt>
      <trkpt lat="45.9330074" lon="7.6374275">
        <ele>1986.4</ele>
        <time>2014-01-30T11:44:03Z</time>
      </trkpt>
      <trkpt lat="45.9330413" lon="7.6374007">
        <ele>1986.4</ele>
        <time>2014-01-30T11:44:04Z</time>
      </trkpt>
      <trkpt lat="45.933029" lon="7.6373789">
        <ele>1986.4</ele>
        <time>2014-01-30T11:44:06Z</time>
      </trkpt>
      <trkpt lat="45.9330254" lon="7.6373779">
        <ele>1986.4</ele>
        <time>2014-01-30T11:44:17Z</time>
      </trkpt>
      <trkpt lat="45.9330248" lon="7.6373788">
        <ele>1985.4</ele>
        <time>2014-01-30T11:44:19Z</time>
      </trkpt>
      <trkpt lat="45.9330236" lon="7.637382">
        <ele>1985.4</ele>
        <time>2014-01-30T11:44:27Z</time>
      </trkpt>
      <trkpt lat="45.9330513" lon="7.6373544">
        <ele>1984.2</ele>
        <time>2014-01-30T11:44:34Z</time>
      </trkpt>
      <trkpt lat="45.9330519" lon="7.6373556">
        <ele>1984.2</ele>
        <time>2014-01-30T11:44:36Z</time>
      </trkpt>
      <trkpt lat="45.9330536" lon="7.6373585">
        <ele>1984.2</ele>
        <time>2014-01-30T11:44:46Z</time>
      </trkpt>
      <trkpt lat="45.9330495" lon="7.6373644">
        <ele>1984.2</ele>
        <time>2014-01-30T11:45:10Z</time>
      </trkpt>
      <trkpt lat="45.9330533" lon="7.6373663">
        <ele>1984.2</ele>
        <time>2014-01-30T11:45:15Z</time>
      </trkpt>
      <trkpt lat="45.9330544" lon="7.6373673">
        <ele>1984.2</ele>
        <time>2014-01-30T11:45:28Z</time>
      </trkpt>
      <trkpt lat="45.9330522" lon="7.6373686">
        <ele>1984.2</ele>
        <time>2014-01-30T11:45:40Z</time>
      </trkpt>
      <trkpt lat="45.9330575" lon="7.6373687">
        <ele>1984.2</ele>
        <time>2014-01-30T11:45:50Z</time>
      </trkpt>
      <trkpt lat="45.9330743" lon="7.6373639">
        <ele>1984.2</ele>
        <time>2014-01-30T11:46:05Z</time>
      </trkpt>
      <trkpt lat="45.9330619" lon="7.6373586">
        <ele>1984.2</ele>
        <time>2014-01-30T11:46:28Z</time>
      </trkpt>
      <trkpt lat="45.9331055" lon="7.637371">
        <ele>1984.2</ele>
        <time>2014-01-30T11:46:41Z</time>
      </trkpt>
      <trkpt lat="45.9331565" lon="7.6374017">
        <ele>1984.2</ele>
        <time>2014-01-30T11:46:43Z</time>
      </trkpt>
      <trkpt lat="45.9331709" lon="7.6374349">
        <ele>1982.2</ele>
        <time>2014-01-30T11:46:44Z</time>
      </trkpt>
      <trkpt lat="45.9331822" lon="7.637452">
        <ele>1982.2</ele>
        <time>2014-01-30T11:46:45Z</time>
      </trkpt>
      <trkpt lat="45.9332193" lon="7.6375043">
        <ele>1982.2</ele>
        <time>2014-01-30T11:46:49Z</time>
      </trkpt>
      <trkpt lat="45.9332355" lon="7.6375149">
        <ele>1981.2</ele>
        <time>2014-01-30T11:46:50Z</time>
      </trkpt>
      <trkpt lat="45.9332691" lon="7.6375399">
        <ele>1979.8</ele>
        <time>2014-01-30T11:46:51Z</time>
      </trkpt>
      <trkpt lat="45.9332947" lon="7.6374896">
        <ele>1978.6</ele>
        <time>2014-01-30T11:46:52Z</time>
      </trkpt>
      <trkpt lat="45.933288" lon="7.637452">
        <ele>1976</ele>
        <time>2014-01-30T11:46:53Z</time>
      </trkpt>
      <trkpt lat="45.9333153" lon="7.6373771">
        <ele>1972.8</ele>
        <time>2014-01-30T11:46:55Z</time>
      </trkpt>
      <trkpt lat="45.9333377" lon="7.6373282">
        <ele>1971.4</ele>
        <time>2014-01-30T11:46:56Z</time>
      </trkpt>
      <trkpt lat="45.9333548" lon="7.6372824">
        <ele>1971.4</ele>
        <time>2014-01-30T11:46:57Z</time>
      </trkpt>
      <trkpt lat="45.9333865" lon="7.637175">
        <ele>1967.2</ele>
        <time>2014-01-30T11:46:59Z</time>
      </trkpt>
      <trkpt lat="45.9333951" lon="7.6371256">
        <ele>1967.2</ele>
        <time>2014-01-30T11:47:00Z</time>
      </trkpt>
      <trkpt lat="45.9334316" lon="7.6371682">
        <ele>1965.8</ele>
        <time>2014-01-30T11:47:01Z</time>
      </trkpt>
      <trkpt lat="45.9334619" lon="7.6372033">
        <ele>1964.6</ele>
        <time>2014-01-30T11:47:02Z</time>
      </trkpt>
      <trkpt lat="45.9335053" lon="7.6372915">
        <ele>1963.6</ele>
        <time>2014-01-30T11:47:05Z</time>
      </trkpt>
      <trkpt lat="45.9335175" lon="7.6373162">
        <ele>1963.6</ele>
        <time>2014-01-30T11:47:06Z</time>
      </trkpt>
      <trkpt lat="45.9335485" lon="7.6373895">
        <ele>1962.2</ele>
        <time>2014-01-30T11:47:09Z</time>
      </trkpt>
      <trkpt lat="45.9335792" lon="7.6374597">
        <ele>1961</ele>
        <time>2014-01-30T11:47:11Z</time>
      </trkpt>
      <trkpt lat="45.9336297" lon="7.6375463">
        <ele>1961</ele>
        <time>2014-01-30T11:47:13Z</time>
      </trkpt>
      <trkpt lat="45.9336325" lon="7.6375172">
        <ele>1960</ele>
        <time>2014-01-30T11:47:14Z</time>
      </trkpt>
      <trkpt lat="45.9336343" lon="7.6374934">
        <ele>1960</ele>
        <time>2014-01-30T11:47:15Z</time>
      </trkpt>
      <trkpt lat="45.9336289" lon="7.6374749">
        <ele>1959</ele>
        <time>2014-01-30T11:47:16Z</time>
      </trkpt>
      <trkpt lat="45.9336152" lon="7.6374333">
        <ele>1957.8</ele>
        <time>2014-01-30T11:47:19Z</time>
      </trkpt>
      <trkpt lat="45.9336051" lon="7.637402">
        <ele>1956.8</ele>
        <time>2014-01-30T11:47:21Z</time>
      </trkpt>
      <trkpt lat="45.9336056" lon="7.6373111">
        <ele>1955.6</ele>
        <time>2014-01-30T11:47:23Z</time>
      </trkpt>
      <trkpt lat="45.9335948" lon="7.6371844">
        <ele>1954.6</ele>
        <time>2014-01-30T11:47:25Z</time>
      </trkpt>
      <trkpt lat="45.9335771" lon="7.6371398">
        <ele>1954.6</ele>
        <time>2014-01-30T11:47:26Z</time>
      </trkpt>
      <trkpt lat="45.93355" lon="7.6370767">
        <ele>1953.4</ele>
        <time>2014-01-30T11:47:27Z</time>
      </trkpt>
      <trkpt lat="45.9335335" lon="7.6370294">
        <ele>1953.4</ele>
        <time>2014-01-30T11:47:28Z</time>
      </trkpt>
      <trkpt lat="45.9335136" lon="7.6369448">
        <ele>1952.2</ele>
        <time>2014-01-30T11:47:29Z</time>
      </trkpt>
      <trkpt lat="45.9334809" lon="7.6368246">
        <ele>1952.2</ele>
        <time>2014-01-30T11:47:31Z</time>
      </trkpt>
      <trkpt lat="45.9334849" lon="7.6368345">
        <ele>1951.2</ele>
        <time>2014-01-30T11:47:32Z</time>
      </trkpt>
      <trkpt lat="45.9334761" lon="7.6368132">
        <ele>1951.2</ele>
        <time>2014-01-30T11:47:33Z</time>
      </trkpt>
      <trkpt lat="45.9334734" lon="7.6367791">
        <ele>1950</ele>
        <time>2014-01-30T11:47:37Z</time>
      </trkpt>
      <trkpt lat="45.933479" lon="7.6367559">
        <ele>1950</ele>
        <time>2014-01-30T11:47:38Z</time>
      </trkpt>
      <trkpt lat="45.9334972" lon="7.6367048">
        <ele>1948.8</ele>
        <time>2014-01-30T11:47:39Z</time>
      </trkpt>
      <trkpt lat="45.9335218" lon="7.6366552">
        <ele>1947.6</ele>
        <time>2014-01-30T11:47:40Z</time>
      </trkpt>
      <trkpt lat="45.9335576" lon="7.6365848">
        <ele>1946.6</ele>
        <time>2014-01-30T11:47:41Z</time>
      </trkpt>
      <trkpt lat="45.933582" lon="7.6365269">
        <ele>1945.6</ele>
        <time>2014-01-30T11:47:42Z</time>
      </trkpt>
      <trkpt lat="45.9335962" lon="7.6364499">
        <ele>1944.6</ele>
        <time>2014-01-30T11:47:43Z</time>
      </trkpt>
      <trkpt lat="45.9335978" lon="7.6363761">
        <ele>1944.6</ele>
        <time>2014-01-30T11:47:44Z</time>
      </trkpt>
      <trkpt lat="45.9335946" lon="7.6362896">
        <ele>1943.4</ele>
        <time>2014-01-30T11:47:45Z</time>
      </trkpt>
      <trkpt lat="45.933595" lon="7.6361303">
        <ele>1943.4</ele>
        <time>2014-01-30T11:47:47Z</time>
      </trkpt>
      <trkpt lat="45.9335905" lon="7.6359621">
        <ele>1941.2</ele>
        <time>2014-01-30T11:47:49Z</time>
      </trkpt>
      <trkpt lat="45.9335849" lon="7.6358812">
        <ele>1940.2</ele>
        <time>2014-01-30T11:47:50Z</time>
      </trkpt>
      <trkpt lat="45.9335726" lon="7.6357943">
        <ele>1940.2</ele>
        <time>2014-01-30T11:47:51Z</time>
      </trkpt>
      <trkpt lat="45.933562" lon="7.6357304">
        <ele>1939</ele>
        <time>2014-01-30T11:47:52Z</time>
      </trkpt>
      <trkpt lat="45.933547" lon="7.6355563">
        <ele>1938</ele>
        <time>2014-01-30T11:47:54Z</time>
      </trkpt>
      <trkpt lat="45.9335871" lon="7.6354128">
        <ele>1936.8</ele>
        <time>2014-01-30T11:47:56Z</time>
      </trkpt>
      <trkpt lat="45.9336075" lon="7.6353334">
        <ele>1936.8</ele>
        <time>2014-01-30T11:47:57Z</time>
      </trkpt>
      <trkpt lat="45.9336154" lon="7.6352355">
        <ele>1936.8</ele>
        <time>2014-01-30T11:48:00Z</time>
      </trkpt>
      <trkpt lat="45.9336247" lon="7.6352212">
        <ele>1936.8</ele>
        <time>2014-01-30T11:48:06Z</time>
      </trkpt>
      <trkpt lat="45.933647" lon="7.6352147">
        <ele>1936.8</ele>
        <time>2014-01-30T11:48:11Z</time>
      </trkpt>
      <trkpt lat="45.9336491" lon="7.6352261">
        <ele>1936.8</ele>
        <time>2014-01-30T11:48:18Z</time>
      </trkpt>
      <trkpt lat="45.9336476" lon="7.6352332">
        <ele>1936.8</ele>
        <time>2014-01-30T11:48:23Z</time>
      </trkpt>
      <trkpt lat="45.9336452" lon="7.6352499">
        <ele>1936.8</ele>
        <time>2014-01-30T11:48:37Z</time>
      </trkpt>
      <trkpt lat="45.9336453" lon="7.6352538">
        <ele>1936.8</ele>
        <time>2014-01-30T11:48:44Z</time>
      </trkpt>
      <trkpt lat="45.9336347" lon="7.6352636">
        <ele>1936.8</ele>
        <time>2014-01-30T11:48:53Z</time>
      </trkpt>
      <trkpt lat="45.9336299" lon="7.6352847">
        <ele>1936.8</ele>
        <time>2014-01-30T11:48:58Z</time>
      </trkpt>
      <trkpt lat="45.9336092" lon="7.6354005">
        <ele>1936.8</ele>
        <time>2014-01-30T11:49:04Z</time>
      </trkpt>
      <trkpt lat="45.9335895" lon="7.6354839">
        <ele>1936.8</ele>
        <time>2014-01-30T11:49:09Z</time>
      </trkpt>
      <trkpt lat="45.9335683" lon="7.6355414">
        <ele>1936.8</ele>
        <time>2014-01-30T11:49:16Z</time>
      </trkpt>
      <trkpt lat="45.9335571" lon="7.6355622">
        <ele>1936.8</ele>
        <time>2014-01-30T11:49:22Z</time>
      </trkpt>
      <trkpt lat="45.9335584" lon="7.6355792">
        <ele>1936.8</ele>
        <time>2014-01-30T11:49:27Z</time>
      </trkpt>
      <trkpt lat="45.9335818" lon="7.6355866">
        <ele>1936.8</ele>
        <time>2014-01-30T11:49:35Z</time>
      </trkpt>
      <trkpt lat="45.9335896" lon="7.6355886">
        <ele>1936.8</ele>
        <time>2014-01-30T11:49:36Z</time>
      </trkpt>
      <trkpt lat="45.9336565" lon="7.6356049">
        <ele>1934.4</ele>
        <time>2014-01-30T11:49:38Z</time>
      </trkpt>
      <trkpt lat="45.9337191" lon="7.6356277">
        <ele>1932.6</ele>
        <time>2014-01-30T11:49:39Z</time>
      </trkpt>
      <trkpt lat="45.9337512" lon="7.6356775">
        <ele>1931.4</ele>
        <time>2014-01-30T11:49:40Z</time>
      </trkpt>
      <trkpt lat="45.933749" lon="7.6358175">
        <ele>1931.4</ele>
        <time>2014-01-30T11:49:42Z</time>
      </trkpt>
      <trkpt lat="45.9337507" lon="7.6359208">
        <ele>1931.4</ele>
        <time>2014-01-30T11:49:45Z</time>
      </trkpt>
      <trkpt lat="45.933761" lon="7.635966">
        <ele>1934.4</ele>
        <time>2014-01-30T11:49:47Z</time>
      </trkpt>
      <trkpt lat="45.9337785" lon="7.6360328">
        <ele>1934.4</ele>
        <time>2014-01-30T11:49:51Z</time>
      </trkpt>
      <trkpt lat="45.9337893" lon="7.636063">
        <ele>1934.4</ele>
        <time>2014-01-30T11:49:53Z</time>
      </trkpt>
      <trkpt lat="45.9337941" lon="7.6360808">
        <ele>1934.4</ele>
        <time>2014-01-30T11:49:56Z</time>
      </trkpt>
      <trkpt lat="45.9338002" lon="7.6360904">
        <ele>1934.4</ele>
        <time>2014-01-30T11:50:05Z</time>
      </trkpt>
      <trkpt lat="45.9338458" lon="7.636101">
        <ele>1934.4</ele>
        <time>2014-01-30T11:50:11Z</time>
      </trkpt>
      <trkpt lat="45.9338436" lon="7.6361106">
        <ele>1934.4</ele>
        <time>2014-01-30T11:50:17Z</time>
      </trkpt>
      <trkpt lat="45.9338534" lon="7.6361073">
        <ele>1934.4</ele>
        <time>2014-01-30T11:50:23Z</time>
      </trkpt>
      <trkpt lat="45.9338603" lon="7.6361015">
        <ele>1934.4</ele>
        <time>2014-01-30T11:50:31Z</time>
      </trkpt>
      <trkpt lat="45.933865" lon="7.6360927">
        <ele>1934.4</ele>
        <time>2014-01-30T11:50:38Z</time>
      </trkpt>
      <trkpt lat="45.9338707" lon="7.6360849">
        <ele>1934.4</ele>
        <time>2014-01-30T11:50:44Z</time>
      </trkpt>
      <trkpt lat="45.933875" lon="7.6360715">
        <ele>1934.4</ele>
        <time>2014-01-30T11:50:46Z</time>
      </trkpt>
      <trkpt lat="45.9338839" lon="7.635982">
        <ele>1934.4</ele>
        <time>2014-01-30T11:50:49Z</time>
      </trkpt>
      <trkpt lat="45.9339118" lon="7.6359164">
        <ele>1934.4</ele>
        <time>2014-01-30T11:50:52Z</time>
      </trkpt>
      <trkpt lat="45.9339231" lon="7.6359228">
        <ele>1934.4</ele>
        <time>2014-01-30T11:50:57Z</time>
      </trkpt>
      <trkpt lat="45.933936" lon="7.6359466">
        <ele>1934.4</ele>
        <time>2014-01-30T11:51:02Z</time>
      </trkpt>
      <trkpt lat="45.933953" lon="7.6359622">
        <ele>1934.4</ele>
        <time>2014-01-30T11:51:08Z</time>
      </trkpt>
      <trkpt lat="45.9339888" lon="7.635987">
        <ele>1934.4</ele>
        <time>2014-01-30T11:51:12Z</time>
      </trkpt>
      <trkpt lat="45.9340264" lon="7.6360055">
        <ele>1934.4</ele>
        <time>2014-01-30T11:51:17Z</time>
      </trkpt>
      <trkpt lat="45.9340662" lon="7.6360326">
        <ele>1934.4</ele>
        <time>2014-01-30T11:51:23Z</time>
      </trkpt>
      <trkpt lat="45.9340954" lon="7.6360533">
        <ele>1934.4</ele>
        <time>2014-01-30T11:51:30Z</time>
      </trkpt>
      <trkpt lat="45.9341262" lon="7.6360738">
        <ele>1934.4</ele>
        <time>2014-01-30T11:51:36Z</time>
      </trkpt>
      <trkpt lat="45.9341747" lon="7.6360974">
        <ele>1934.4</ele>
        <time>2014-01-30T11:51:43Z</time>
      </trkpt>
      <trkpt lat="45.9342069" lon="7.6361067">
        <ele>1931.4</ele>
        <time>2014-01-30T11:51:47Z</time>
      </trkpt>
      <trkpt lat="45.9342486" lon="7.6360976">
        <ele>1931.4</ele>
        <time>2014-01-30T11:51:49Z</time>
      </trkpt>
      <trkpt lat="45.9342933" lon="7.6360777">
        <ele>1928.8</ele>
        <time>2014-01-30T11:51:50Z</time>
      </trkpt>
      <trkpt lat="45.9343362" lon="7.6360466">
        <ele>1927.4</ele>
        <time>2014-01-30T11:51:51Z</time>
      </trkpt>
      <trkpt lat="45.9343887" lon="7.6359881">
        <ele>1927.4</ele>
        <time>2014-01-30T11:51:52Z</time>
      </trkpt>
      <trkpt lat="45.9344419" lon="7.6357907">
        <ele>1927.4</ele>
        <time>2014-01-30T11:51:55Z</time>
      </trkpt>
      <trkpt lat="45.934444" lon="7.6357166">
        <ele>1925.4</ele>
        <time>2014-01-30T11:51:56Z</time>
      </trkpt>
      <trkpt lat="45.9344442" lon="7.635654">
        <ele>1925.4</ele>
        <time>2014-01-30T11:51:57Z</time>
      </trkpt>
      <trkpt lat="45.9344432" lon="7.6354493">
        <ele>1924.2</ele>
        <time>2014-01-30T11:52:00Z</time>
      </trkpt>
      <trkpt lat="45.9344385" lon="7.6353303">
        <ele>1924.2</ele>
        <time>2014-01-30T11:52:02Z</time>
      </trkpt>
      <trkpt lat="45.9344141" lon="7.6352239">
        <ele>1923</ele>
        <time>2014-01-30T11:52:05Z</time>
      </trkpt>
      <trkpt lat="45.9344131" lon="7.6351893">
        <ele>1923</ele>
        <time>2014-01-30T11:52:06Z</time>
      </trkpt>
      <trkpt lat="45.9344222" lon="7.6350965">
        <ele>1922</ele>
        <time>2014-01-30T11:52:08Z</time>
      </trkpt>
      <trkpt lat="45.9344329" lon="7.6349662">
        <ele>1920.8</ele>
        <time>2014-01-30T11:52:10Z</time>
      </trkpt>
      <trkpt lat="45.9344317" lon="7.6348018">
        <ele>1919.6</ele>
        <time>2014-01-30T11:52:12Z</time>
      </trkpt>
      <trkpt lat="45.9344081" lon="7.6346448">
        <ele>1918.6</ele>
        <time>2014-01-30T11:52:14Z</time>
      </trkpt>
      <trkpt lat="45.9343996" lon="7.6345713">
        <ele>1918.6</ele>
        <time>2014-01-30T11:52:15Z</time>
      </trkpt>
      <trkpt lat="45.9343786" lon="7.6344964">
        <ele>1918.6</ele>
        <time>2014-01-30T11:52:16Z</time>
      </trkpt>
      <trkpt lat="45.9343509" lon="7.6344313">
        <ele>1917.4</ele>
        <time>2014-01-30T11:52:17Z</time>
      </trkpt>
      <trkpt lat="45.9343236" lon="7.634364">
        <ele>1917.4</ele>
        <time>2014-01-30T11:52:18Z</time>
      </trkpt>
      <trkpt lat="45.9342561" lon="7.6342533">
        <ele>1917.4</ele>
        <time>2014-01-30T11:52:21Z</time>
      </trkpt>
      <trkpt lat="45.9342444" lon="7.6342368">
        <ele>1917.4</ele>
        <time>2014-01-30T11:52:22Z</time>
      </trkpt>
      <trkpt lat="45.9342438" lon="7.6342397">
        <ele>1917.4</ele>
        <time>2014-01-30T11:52:27Z</time>
      </trkpt>
      <trkpt lat="45.9342448" lon="7.6342337">
        <ele>1917.4</ele>
        <time>2014-01-30T11:52:36Z</time>
      </trkpt>
      <trkpt lat="45.9342466" lon="7.6342419">
        <ele>1917.4</ele>
        <time>2014-01-30T11:52:46Z</time>
      </trkpt>
      <trkpt lat="45.934242" lon="7.6342398">
        <ele>1917.4</ele>
        <time>2014-01-30T11:52:54Z</time>
      </trkpt>
      <trkpt lat="45.9342466" lon="7.6342334">
        <ele>1917.4</ele>
        <time>2014-01-30T11:53:06Z</time>
      </trkpt>
      <trkpt lat="45.934249" lon="7.6342314">
        <ele>1917.4</ele>
        <time>2014-01-30T11:53:13Z</time>
      </trkpt>
      <trkpt lat="45.9342494" lon="7.6342253">
        <ele>1917.4</ele>
        <time>2014-01-30T11:53:22Z</time>
      </trkpt>
      <trkpt lat="45.9342497" lon="7.6342217">
        <ele>1917.4</ele>
        <time>2014-01-30T11:53:34Z</time>
      </trkpt>
      <trkpt lat="45.9342472" lon="7.634224">
        <ele>1917.4</ele>
        <time>2014-01-30T11:53:48Z</time>
      </trkpt>
      <trkpt lat="45.9342525" lon="7.6342077">
        <ele>1917.4</ele>
        <time>2014-01-30T11:54:01Z</time>
      </trkpt>
      <trkpt lat="45.9342562" lon="7.6341767">
        <ele>1917.4</ele>
        <time>2014-01-30T11:54:08Z</time>
      </trkpt>
      <trkpt lat="45.9342613" lon="7.6341114">
        <ele>1917.4</ele>
        <time>2014-01-30T11:54:15Z</time>
      </trkpt>
      <trkpt lat="45.9342628" lon="7.6340777">
        <ele>1917.4</ele>
        <time>2014-01-30T11:54:23Z</time>
      </trkpt>
      <trkpt lat="45.9342604" lon="7.634062">
        <ele>1917.4</ele>
        <time>2014-01-30T11:54:33Z</time>
      </trkpt>
      <trkpt lat="45.9342612" lon="7.6340555">
        <ele>1919.6</ele>
        <time>2014-01-30T11:54:35Z</time>
      </trkpt>
      <trkpt lat="45.9342571" lon="7.6340464">
        <ele>1920.8</ele>
        <time>2014-01-30T11:54:38Z</time>
      </trkpt>
      <trkpt lat="45.934253" lon="7.6340379">
        <ele>1921.8</ele>
        <time>2014-01-30T11:54:41Z</time>
      </trkpt>
      <trkpt lat="45.934237" lon="7.6339869">
        <ele>1921.8</ele>
        <time>2014-01-30T11:54:48Z</time>
      </trkpt>
      <trkpt lat="45.9342229" lon="7.6339385">
        <ele>1921.8</ele>
        <time>2014-01-30T11:54:54Z</time>
      </trkpt>
      <trkpt lat="45.9342163" lon="7.6339146">
        <ele>1922.8</ele>
        <time>2014-01-30T11:54:56Z</time>
      </trkpt>
      <trkpt lat="45.9341977" lon="7.6338302">
        <ele>1922.8</ele>
        <time>2014-01-30T11:55:02Z</time>
      </trkpt>
      <trkpt lat="45.9341732" lon="7.6337743">
        <ele>1922.8</ele>
        <time>2014-01-30T11:55:08Z</time>
      </trkpt>
      <trkpt lat="45.9341541" lon="7.633741">
        <ele>1922.8</ele>
        <time>2014-01-30T11:55:14Z</time>
      </trkpt>
      <trkpt lat="45.9341583" lon="7.6337414">
        <ele>1922.8</ele>
        <time>2014-01-30T11:55:21Z</time>
      </trkpt>
      <trkpt lat="45.9341884" lon="7.6337729">
        <ele>1922.8</ele>
        <time>2014-01-30T11:55:29Z</time>
      </trkpt>
      <trkpt lat="45.9341834" lon="7.6337667">
        <ele>1922.8</ele>
        <time>2014-01-30T11:55:39Z</time>
      </trkpt>
      <trkpt lat="45.9341665" lon="7.6337583">
        <ele>1922.8</ele>
        <time>2014-01-30T11:55:53Z</time>
      </trkpt>
      <trkpt lat="45.9341575" lon="7.6337529">
        <ele>1922.8</ele>
        <time>2014-01-30T11:56:00Z</time>
      </trkpt>
      <trkpt lat="45.9341493" lon="7.6337539">
        <ele>1922.8</ele>
        <time>2014-01-30T11:56:12Z</time>
      </trkpt>
      <trkpt lat="45.9341427" lon="7.6337563">
        <ele>1922.8</ele>
        <time>2014-01-30T11:56:26Z</time>
      </trkpt>
      <trkpt lat="45.9341437" lon="7.6337601">
        <ele>1922.8</ele>
        <time>2014-01-30T11:56:31Z</time>
      </trkpt>
      <trkpt lat="45.9341558" lon="7.6337504">
        <ele>1922.8</ele>
        <time>2014-01-30T11:56:38Z</time>
      </trkpt>
      <trkpt lat="45.9341458" lon="7.6336975">
        <ele>1922.8</ele>
        <time>2014-01-30T11:56:45Z</time>
      </trkpt>
      <trkpt lat="45.9341436" lon="7.6336796">
        <ele>1922.8</ele>
        <time>2014-01-30T11:56:50Z</time>
      </trkpt>
      <trkpt lat="45.9341348" lon="7.6336566">
        <ele>1922.8</ele>
        <time>2014-01-30T11:56:57Z</time>
      </trkpt>
      <trkpt lat="45.9341472" lon="7.6336586">
        <ele>1922.8</ele>
        <time>2014-01-30T11:56:58Z</time>
      </trkpt>
      <trkpt lat="45.934168" lon="7.633657">
        <ele>1922.8</ele>
        <time>2014-01-30T11:57:01Z</time>
      </trkpt>
      <trkpt lat="45.9341663" lon="7.6336559">
        <ele>1922.8</ele>
        <time>2014-01-30T11:57:07Z</time>
      </trkpt>
      <trkpt lat="45.9341509" lon="7.6336434">
        <ele>1922.8</ele>
        <time>2014-01-30T11:57:14Z</time>
      </trkpt>
      <trkpt lat="45.9341463" lon="7.6336394">
        <ele>1922.8</ele>
        <time>2014-01-30T11:57:20Z</time>
      </trkpt>
      <trkpt lat="45.9341482" lon="7.6336425">
        <ele>1922.8</ele>
        <time>2014-01-30T11:57:27Z</time>
      </trkpt>
      <trkpt lat="45.9341308" lon="7.6336238">
        <ele>1922.8</ele>
        <time>2014-01-30T11:57:32Z</time>
      </trkpt>
      <trkpt lat="45.9341263" lon="7.6336263">
        <ele>1922.8</ele>
        <time>2014-01-30T11:57:33Z</time>
      </trkpt>
      <trkpt lat="45.9341023" lon="7.6335965">
        <ele>1922.8</ele>
        <time>2014-01-30T11:57:39Z</time>
      </trkpt>
      <trkpt lat="45.93409" lon="7.6335783">
        <ele>1922.8</ele>
        <time>2014-01-30T11:57:45Z</time>
      </trkpt>
      <trkpt lat="45.9341031" lon="7.6335992">
        <ele>1922.8</ele>
        <time>2014-01-30T11:57:49Z</time>
      </trkpt>
      <trkpt lat="45.9341018" lon="7.6336078">
        <ele>1922.8</ele>
        <time>2014-01-30T11:57:51Z</time>
      </trkpt>
      <trkpt lat="45.9340826" lon="7.633585">
        <ele>1922.8</ele>
        <time>2014-01-30T11:57:58Z</time>
      </trkpt>
      <trkpt lat="45.9340743" lon="7.6335415">
        <ele>1922.8</ele>
        <time>2014-01-30T11:58:04Z</time>
      </trkpt>
      <trkpt lat="45.9341027" lon="7.6335829">
        <ele>1922.8</ele>
        <time>2014-01-30T11:58:10Z</time>
      </trkpt>
      <trkpt lat="45.9341185" lon="7.6336865">
        <ele>1922.8</ele>
        <time>2014-01-30T11:58:15Z</time>
      </trkpt>
      <trkpt lat="45.9341187" lon="7.6337115">
        <ele>1922.8</ele>
        <time>2014-01-30T11:58:21Z</time>
      </trkpt>
      <trkpt lat="45.9340842" lon="7.6337553">
        <ele>1922.8</ele>
        <time>2014-01-30T11:58:27Z</time>
      </trkpt>
      <trkpt lat="45.9340774" lon="7.6337436">
        <ele>1922.8</ele>
        <time>2014-01-30T11:58:28Z</time>
      </trkpt>
      <trkpt lat="45.9340853" lon="7.6337342">
        <ele>1922.8</ele>
        <time>2014-01-30T11:58:31Z</time>
      </trkpt>
      <trkpt lat="45.9341003" lon="7.6337664">
        <ele>1922.8</ele>
        <time>2014-01-30T11:58:36Z</time>
      </trkpt>
      <trkpt lat="45.9340955" lon="7.6337451">
        <ele>1922.8</ele>
        <time>2014-01-30T11:58:40Z</time>
      </trkpt>
      <trkpt lat="45.934094" lon="7.6337476">
        <ele>1922.8</ele>
        <time>2014-01-30T11:58:41Z</time>
      </trkpt>
      <trkpt lat="45.9340936" lon="7.6337409">
        <ele>1922.8</ele>
        <time>2014-01-30T11:58:47Z</time>
      </trkpt>
      <trkpt lat="45.9340748" lon="7.6337823">
        <ele>1922.8</ele>
        <time>2014-01-30T11:58:54Z</time>
      </trkpt>
      <trkpt lat="45.9340705" lon="7.6337884">
        <ele>1922.8</ele>
        <time>2014-01-30T11:58:58Z</time>
      </trkpt>
      <trkpt lat="45.9341822" lon="7.6338638">
        <ele>1922.8</ele>
        <time>2014-01-30T11:59:02Z</time>
      </trkpt>
      <trkpt lat="45.9342077" lon="7.6339145">
        <ele>1922.8</ele>
        <time>2014-01-30T11:59:03Z</time>
      </trkpt>
      <trkpt lat="45.9342557" lon="7.6340128">
        <ele>1922.8</ele>
        <time>2014-01-30T11:59:05Z</time>
      </trkpt>
      <trkpt lat="45.9343611" lon="7.6342753">
        <ele>1924</ele>
        <time>2014-01-30T11:59:10Z</time>
      </trkpt>
      <trkpt lat="45.9344576" lon="7.6345343">
        <ele>1924</ele>
        <time>2014-01-30T11:59:15Z</time>
      </trkpt>
      <trkpt lat="45.9345828" lon="7.6348801">
        <ele>1924</ele>
        <time>2014-01-30T11:59:22Z</time>
      </trkpt>
      <trkpt lat="45.9346147" lon="7.634964">
        <ele>1925</ele>
        <time>2014-01-30T11:59:24Z</time>
      </trkpt>
      <trkpt lat="45.9346907" lon="7.6351836">
        <ele>1926.2</ele>
        <time>2014-01-30T11:59:28Z</time>
      </trkpt>
      <trkpt lat="45.9347058" lon="7.635228">
        <ele>1926.2</ele>
        <time>2014-01-30T11:59:29Z</time>
      </trkpt>
      <trkpt lat="45.9347222" lon="7.6352843">
        <ele>1927.2</ele>
        <time>2014-01-30T11:59:30Z</time>
      </trkpt>
      <trkpt lat="45.9347549" lon="7.6353831">
        <ele>1928.2</ele>
        <time>2014-01-30T11:59:32Z</time>
      </trkpt>
      <trkpt lat="45.9347695" lon="7.6354243">
        <ele>1929.4</ele>
        <time>2014-01-30T11:59:33Z</time>
      </trkpt>
      <trkpt lat="45.9347994" lon="7.6355151">
        <ele>1930.4</ele>
        <time>2014-01-30T11:59:35Z</time>
      </trkpt>
      <trkpt lat="45.9348355" lon="7.6356187">
        <ele>1930.4</ele>
        <time>2014-01-30T11:59:37Z</time>
      </trkpt>
      <trkpt lat="45.934969" lon="7.6360169">
        <ele>1930.4</ele>
        <time>2014-01-30T11:59:45Z</time>
      </trkpt>
      <trkpt lat="45.93502" lon="7.6361658">
        <ele>1931.4</ele>
        <time>2014-01-30T11:59:48Z</time>
      </trkpt>
      <trkpt lat="45.9350996" lon="7.636404">
        <ele>1932.4</ele>
        <time>2014-01-30T11:59:53Z</time>
      </trkpt>
      <trkpt lat="45.9351316" lon="7.6365001">
        <ele>1933.6</ele>
        <time>2014-01-30T11:59:55Z</time>
      </trkpt>
      <trkpt lat="45.9351627" lon="7.6365969">
        <ele>1934.8</ele>
        <time>2014-01-30T11:59:57Z</time>
      </trkpt>
      <trkpt lat="45.9351963" lon="7.6366956">
        <ele>1936</ele>
        <time>2014-01-30T11:59:59Z</time>
      </trkpt>
      <trkpt lat="45.9352455" lon="7.6368423">
        <ele>1936</ele>
        <time>2014-01-30T12:00:02Z</time>
      </trkpt>
      <trkpt lat="45.9353557" lon="7.6371848">
        <ele>1937</ele>
        <time>2014-01-30T12:00:10Z</time>
      </trkpt>
      <trkpt lat="45.9353844" lon="7.6372703">
        <ele>1937</ele>
        <time>2014-01-30T12:00:12Z</time>
      </trkpt>
      <trkpt lat="45.9354363" lon="7.6374369">
        <ele>1938.2</ele>
        <time>2014-01-30T12:00:15Z</time>
      </trkpt>
      <trkpt lat="45.9354794" lon="7.6375706">
        <ele>1939.4</ele>
        <time>2014-01-30T12:00:18Z</time>
      </trkpt>
      <trkpt lat="45.935513" lon="7.6376729">
        <ele>1940.6</ele>
        <time>2014-01-30T12:00:20Z</time>
      </trkpt>
      <trkpt lat="45.935559" lon="7.637819">
        <ele>1941.8</ele>
        <time>2014-01-30T12:00:23Z</time>
      </trkpt>
      <trkpt lat="45.935631" lon="7.638048">
        <ele>1941.8</ele>
        <time>2014-01-30T12:00:28Z</time>
      </trkpt>
      <trkpt lat="45.9357941" lon="7.6385387">
        <ele>1943</ele>
        <time>2014-01-30T12:00:38Z</time>
      </trkpt>
      <trkpt lat="45.9358425" lon="7.6386962">
        <ele>1944</ele>
        <time>2014-01-30T12:00:41Z</time>
      </trkpt>
      <trkpt lat="45.9358888" lon="7.6388363">
        <ele>1945</ele>
        <time>2014-01-30T12:00:44Z</time>
      </trkpt>
      <trkpt lat="45.9359207" lon="7.6389322">
        <ele>1946.2</ele>
        <time>2014-01-30T12:00:46Z</time>
      </trkpt>
      <trkpt lat="45.9359516" lon="7.6390225">
        <ele>1947.2</ele>
        <time>2014-01-30T12:00:48Z</time>
      </trkpt>
      <trkpt lat="45.9359842" lon="7.6391223">
        <ele>1948.2</ele>
        <time>2014-01-30T12:00:50Z</time>
      </trkpt>
      <trkpt lat="45.9360028" lon="7.6391816">
        <ele>1949.4</ele>
        <time>2014-01-30T12:00:51Z</time>
      </trkpt>
      <trkpt lat="45.9360321" lon="7.6392757">
        <ele>1950.6</ele>
        <time>2014-01-30T12:00:53Z</time>
      </trkpt>
      <trkpt lat="45.9360453" lon="7.6393167">
        <ele>1951.6</ele>
        <time>2014-01-30T12:00:54Z</time>
      </trkpt>
      <trkpt lat="45.9360945" lon="7.6394715">
        <ele>1951.6</ele>
        <time>2014-01-30T12:00:57Z</time>
      </trkpt>
      <trkpt lat="45.9361863" lon="7.6397659">
        <ele>1952.8</ele>
        <time>2014-01-30T12:01:03Z</time>
      </trkpt>
      <trkpt lat="45.9362285" lon="7.6399006">
        <ele>1953.8</ele>
        <time>2014-01-30T12:01:06Z</time>
      </trkpt>
      <trkpt lat="45.9362598" lon="7.6399968">
        <ele>1954.8</ele>
        <time>2014-01-30T12:01:08Z</time>
      </trkpt>
      <trkpt lat="45.936292" lon="7.640096">
        <ele>1955.8</ele>
        <time>2014-01-30T12:01:10Z</time>
      </trkpt>
      <trkpt lat="45.9363431" lon="7.6402541">
        <ele>1957</ele>
        <time>2014-01-30T12:01:13Z</time>
      </trkpt>
      <trkpt lat="45.9363568" lon="7.6402943">
        <ele>1958.2</ele>
        <time>2014-01-30T12:01:14Z</time>
      </trkpt>
      <trkpt lat="45.9363893" lon="7.6403881">
        <ele>1959.6</ele>
        <time>2014-01-30T12:01:16Z</time>
      </trkpt>
      <trkpt lat="45.9364411" lon="7.6405474">
        <ele>1960.6</ele>
        <time>2014-01-30T12:01:19Z</time>
      </trkpt>
      <trkpt lat="45.9365051" lon="7.640737">
        <ele>1961.8</ele>
        <time>2014-01-30T12:01:23Z</time>
      </trkpt>
      <trkpt lat="45.9365203" lon="7.6407821">
        <ele>1962.8</ele>
        <time>2014-01-30T12:01:24Z</time>
      </trkpt>
      <trkpt lat="45.9365392" lon="7.6408397">
        <ele>1964.4</ele>
        <time>2014-01-30T12:01:25Z</time>
      </trkpt>
      <trkpt lat="45.9365734" lon="7.6409242">
        <ele>1966.8</ele>
        <time>2014-01-30T12:01:27Z</time>
      </trkpt>
      <trkpt lat="45.9365853" lon="7.6409573">
        <ele>1968.2</ele>
        <time>2014-01-30T12:01:28Z</time>
      </trkpt>
      <trkpt lat="45.9366077" lon="7.6410142">
        <ele>1970.8</ele>
        <time>2014-01-30T12:01:29Z</time>
      </trkpt>
      <trkpt lat="45.9366204" lon="7.6410545">
        <ele>1972</ele>
        <time>2014-01-30T12:01:30Z</time>
      </trkpt>
      <trkpt lat="45.9366382" lon="7.6411097">
        <ele>1974.6</ele>
        <time>2014-01-30T12:01:31Z</time>
      </trkpt>
      <trkpt lat="45.936648" lon="7.64114">
        <ele>1976</ele>
        <time>2014-01-30T12:01:32Z</time>
      </trkpt>
      <trkpt lat="45.936666" lon="7.6411982">
        <ele>1977.6</ele>
        <time>2014-01-30T12:01:33Z</time>
      </trkpt>
      <trkpt lat="45.9366794" lon="7.6412337">
        <ele>1980.6</ele>
        <time>2014-01-30T12:01:34Z</time>
      </trkpt>
      <trkpt lat="45.9366934" lon="7.6412807">
        <ele>1982</ele>
        <time>2014-01-30T12:01:35Z</time>
      </trkpt>
      <trkpt lat="45.9367022" lon="7.641313">
        <ele>1983.4</ele>
        <time>2014-01-30T12:01:36Z</time>
      </trkpt>
      <trkpt lat="45.9367171" lon="7.6413651">
        <ele>1987</ele>
        <time>2014-01-30T12:01:37Z</time>
      </trkpt>
      <trkpt lat="45.9367265" lon="7.6413985">
        <ele>1988.8</ele>
        <time>2014-01-30T12:01:38Z</time>
      </trkpt>
      <trkpt lat="45.9367428" lon="7.6414544">
        <ele>1991.6</ele>
        <time>2014-01-30T12:01:39Z</time>
      </trkpt>
      <trkpt lat="45.9367536" lon="7.6414928">
        <ele>1992.8</ele>
        <time>2014-01-30T12:01:40Z</time>
      </trkpt>
      <trkpt lat="45.9367675" lon="7.6415448">
        <ele>1994.2</ele>
        <time>2014-01-30T12:01:41Z</time>
      </trkpt>
      <trkpt lat="45.9367751" lon="7.6415737">
        <ele>1995.8</ele>
        <time>2014-01-30T12:01:42Z</time>
      </trkpt>
      <trkpt lat="45.9367921" lon="7.6416312">
        <ele>1998.8</ele>
        <time>2014-01-30T12:01:43Z</time>
      </trkpt>
      <trkpt lat="45.9368034" lon="7.6416696">
        <ele>2000.4</ele>
        <time>2014-01-30T12:01:44Z</time>
      </trkpt>
      <trkpt lat="45.9368166" lon="7.6417213">
        <ele>2002</ele>
        <time>2014-01-30T12:01:45Z</time>
      </trkpt>
      <trkpt lat="45.9368249" lon="7.6417574">
        <ele>2003.4</ele>
        <time>2014-01-30T12:01:46Z</time>
      </trkpt>
      <trkpt lat="45.9368385" lon="7.6418042">
        <ele>2006.6</ele>
        <time>2014-01-30T12:01:47Z</time>
      </trkpt>
      <trkpt lat="45.9368484" lon="7.6418395">
        <ele>2008</ele>
        <time>2014-01-30T12:01:48Z</time>
      </trkpt>
      <trkpt lat="45.9368612" lon="7.6418934">
        <ele>2009.4</ele>
        <time>2014-01-30T12:01:49Z</time>
      </trkpt>
      <trkpt lat="45.9368695" lon="7.6419295">
        <ele>2011.4</ele>
        <time>2014-01-30T12:01:50Z</time>
      </trkpt>
      <trkpt lat="45.9368838" lon="7.6419823">
        <ele>2013.6</ele>
        <time>2014-01-30T12:01:51Z</time>
      </trkpt>
      <trkpt lat="45.9368925" lon="7.6420111">
        <ele>2014.8</ele>
        <time>2014-01-30T12:01:52Z</time>
      </trkpt>
      <trkpt lat="45.9369105" lon="7.6420619">
        <ele>2017</ele>
        <time>2014-01-30T12:01:53Z</time>
      </trkpt>
      <trkpt lat="45.9369217" lon="7.6420978">
        <ele>2019.2</ele>
        <time>2014-01-30T12:01:54Z</time>
      </trkpt>
      <trkpt lat="45.9369388" lon="7.6421489">
        <ele>2021.2</ele>
        <time>2014-01-30T12:01:55Z</time>
      </trkpt>
      <trkpt lat="45.9369494" lon="7.6421806">
        <ele>2022.4</ele>
        <time>2014-01-30T12:01:56Z</time>
      </trkpt>
      <trkpt lat="45.9369663" lon="7.6422316">
        <ele>2024.8</ele>
        <time>2014-01-30T12:01:57Z</time>
      </trkpt>
      <trkpt lat="45.9369781" lon="7.64227">
        <ele>2025.8</ele>
        <time>2014-01-30T12:01:58Z</time>
      </trkpt>
      <trkpt lat="45.9369943" lon="7.6423308">
        <ele>2027.4</ele>
        <time>2014-01-30T12:01:59Z</time>
      </trkpt>
      <trkpt lat="45.9370054" lon="7.6423673">
        <ele>2028.8</ele>
        <time>2014-01-30T12:02:00Z</time>
      </trkpt>
      <trkpt lat="45.9370225" lon="7.6424203">
        <ele>2030.2</ele>
        <time>2014-01-30T12:02:01Z</time>
      </trkpt>
      <trkpt lat="45.9370312" lon="7.6424502">
        <ele>2032</ele>
        <time>2014-01-30T12:02:02Z</time>
      </trkpt>
      <trkpt lat="45.9370493" lon="7.642509">
        <ele>2033.6</ele>
        <time>2014-01-30T12:02:03Z</time>
      </trkpt>
      <trkpt lat="45.9370617" lon="7.6425465">
        <ele>2035.4</ele>
        <time>2014-01-30T12:02:04Z</time>
      </trkpt>
      <trkpt lat="45.9370792" lon="7.642598">
        <ele>2037</ele>
        <time>2014-01-30T12:02:05Z</time>
      </trkpt>
      <trkpt lat="45.9370911" lon="7.6426313">
        <ele>2038.8</ele>
        <time>2014-01-30T12:02:06Z</time>
      </trkpt>
      <trkpt lat="45.9371099" lon="7.6426856">
        <ele>2040.8</ele>
        <time>2014-01-30T12:02:07Z</time>
      </trkpt>
      <trkpt lat="45.9371212" lon="7.6427181">
        <ele>2042.6</ele>
        <time>2014-01-30T12:02:08Z</time>
      </trkpt>
      <trkpt lat="45.9371383" lon="7.6427738">
        <ele>2044.4</ele>
        <time>2014-01-30T12:02:09Z</time>
      </trkpt>
      <trkpt lat="45.9371508" lon="7.6428115">
        <ele>2046.2</ele>
        <time>2014-01-30T12:02:10Z</time>
      </trkpt>
      <trkpt lat="45.9371667" lon="7.6428636">
        <ele>2048.2</ele>
        <time>2014-01-30T12:02:11Z</time>
      </trkpt>
      <trkpt lat="45.9371781" lon="7.642894">
        <ele>2049.2</ele>
        <time>2014-01-30T12:02:12Z</time>
      </trkpt>
      <trkpt lat="45.9371963" lon="7.6429497">
        <ele>2051.8</ele>
        <time>2014-01-30T12:02:13Z</time>
      </trkpt>
      <trkpt lat="45.9372063" lon="7.6429821">
        <ele>2053.8</ele>
        <time>2014-01-30T12:02:14Z</time>
      </trkpt>
      <trkpt lat="45.9372208" lon="7.6430287">
        <ele>2055.8</ele>
        <time>2014-01-30T12:02:15Z</time>
      </trkpt>
      <trkpt lat="45.9372331" lon="7.6430656">
        <ele>2056.8</ele>
        <time>2014-01-30T12:02:16Z</time>
      </trkpt>
      <trkpt lat="45.9372482" lon="7.6431164">
        <ele>2059.4</ele>
        <time>2014-01-30T12:02:17Z</time>
      </trkpt>
      <trkpt lat="45.9372586" lon="7.6431479">
        <ele>2061.6</ele>
        <time>2014-01-30T12:02:18Z</time>
      </trkpt>
      <trkpt lat="45.9372754" lon="7.6432026">
        <ele>2064</ele>
        <time>2014-01-30T12:02:19Z</time>
      </trkpt>
      <trkpt lat="45.9372855" lon="7.6432371">
        <ele>2066.2</ele>
        <time>2014-01-30T12:02:20Z</time>
      </trkpt>
      <trkpt lat="45.9373036" lon="7.6432857">
        <ele>2068.4</ele>
        <time>2014-01-30T12:02:21Z</time>
      </trkpt>
      <trkpt lat="45.9373133" lon="7.6433133">
        <ele>2070.8</ele>
        <time>2014-01-30T12:02:22Z</time>
      </trkpt>
      <trkpt lat="45.937331" lon="7.6433677">
        <ele>2072.8</ele>
        <time>2014-01-30T12:02:23Z</time>
      </trkpt>
      <trkpt lat="45.937343" lon="7.6434059">
        <ele>2075</ele>
        <time>2014-01-30T12:02:24Z</time>
      </trkpt>
      <trkpt lat="45.9373585" lon="7.6434574">
        <ele>2077.4</ele>
        <time>2014-01-30T12:02:25Z</time>
      </trkpt>
      <trkpt lat="45.9373693" lon="7.6434878">
        <ele>2079.4</ele>
        <time>2014-01-30T12:02:26Z</time>
      </trkpt>
      <trkpt lat="45.937382" lon="7.6435326">
        <ele>2081.8</ele>
        <time>2014-01-30T12:02:27Z</time>
      </trkpt>
      <trkpt lat="45.9373925" lon="7.6435635">
        <ele>2084.4</ele>
        <time>2014-01-30T12:02:28Z</time>
      </trkpt>
      <trkpt lat="45.9374085" lon="7.6436138">
        <ele>2086.8</ele>
        <time>2014-01-30T12:02:29Z</time>
      </trkpt>
      <trkpt lat="45.9374188" lon="7.6436481">
        <ele>2089.6</ele>
        <time>2014-01-30T12:02:30Z</time>
      </trkpt>
      <trkpt lat="45.9374351" lon="7.6436983">
        <ele>2092</ele>
        <time>2014-01-30T12:02:31Z</time>
      </trkpt>
      <trkpt lat="45.9374435" lon="7.643725">
        <ele>2094.6</ele>
        <time>2014-01-30T12:02:32Z</time>
      </trkpt>
      <trkpt lat="45.9374611" lon="7.6437784">
        <ele>2097.2</ele>
        <time>2014-01-30T12:02:33Z</time>
      </trkpt>
      <trkpt lat="45.9374722" lon="7.643813">
        <ele>2100.2</ele>
        <time>2014-01-30T12:02:34Z</time>
      </trkpt>
      <trkpt lat="45.9374872" lon="7.6438586">
        <ele>2102</ele>
        <time>2014-01-30T12:02:35Z</time>
      </trkpt>
      <trkpt lat="45.937498" lon="7.6438909">
        <ele>2104.6</ele>
        <time>2014-01-30T12:02:36Z</time>
      </trkpt>
      <trkpt lat="45.9375149" lon="7.643941">
        <ele>2106.8</ele>
        <time>2014-01-30T12:02:37Z</time>
      </trkpt>
      <trkpt lat="45.9375243" lon="7.6439744">
        <ele>2109.4</ele>
        <time>2014-01-30T12:02:38Z</time>
      </trkpt>
      <trkpt lat="45.9375402" lon="7.6440254">
        <ele>2112</ele>
        <time>2014-01-30T12:02:39Z</time>
      </trkpt>
      <trkpt lat="45.93755" lon="7.6440571">
        <ele>2114.6</ele>
        <time>2014-01-30T12:02:40Z</time>
      </trkpt>
      <trkpt lat="45.9375647" lon="7.6441033">
        <ele>2117.2</ele>
        <time>2014-01-30T12:02:41Z</time>
      </trkpt>
      <trkpt lat="45.9375744" lon="7.6441313">
        <ele>2120</ele>
        <time>2014-01-30T12:02:42Z</time>
      </trkpt>
      <trkpt lat="45.9375927" lon="7.6441866">
        <ele>2123</ele>
        <time>2014-01-30T12:02:43Z</time>
      </trkpt>
      <trkpt lat="45.9376057" lon="7.6442268">
        <ele>2124.2</ele>
        <time>2014-01-30T12:02:44Z</time>
      </trkpt>
      <trkpt lat="45.9376221" lon="7.6442785">
        <ele>2126.4</ele>
        <time>2014-01-30T12:02:45Z</time>
      </trkpt>
      <trkpt lat="45.9376325" lon="7.6443115">
        <ele>2128.6</ele>
        <time>2014-01-30T12:02:46Z</time>
      </trkpt>
      <trkpt lat="45.9376475" lon="7.6443576">
        <ele>2130.8</ele>
        <time>2014-01-30T12:02:47Z</time>
      </trkpt>
      <trkpt lat="45.9376596" lon="7.6443955">
        <ele>2133</ele>
        <time>2014-01-30T12:02:48Z</time>
      </trkpt>
      <trkpt lat="45.9376771" lon="7.6444507">
        <ele>2135.4</ele>
        <time>2014-01-30T12:02:49Z</time>
      </trkpt>
      <trkpt lat="45.9377" lon="7.6445212">
        <ele>2139.8</ele>
        <time>2014-01-30T12:02:51Z</time>
      </trkpt>
      <trkpt lat="45.937712" lon="7.644557">
        <ele>2142.2</ele>
        <time>2014-01-30T12:02:52Z</time>
      </trkpt>
      <trkpt lat="45.9377299" lon="7.6446137">
        <ele>2144.8</ele>
        <time>2014-01-30T12:02:53Z</time>
      </trkpt>
      <trkpt lat="45.937741" lon="7.6446499">
        <ele>2147.2</ele>
        <time>2014-01-30T12:02:54Z</time>
      </trkpt>
      <trkpt lat="45.937757" lon="7.6446994">
        <ele>2149.4</ele>
        <time>2014-01-30T12:02:55Z</time>
      </trkpt>
      <trkpt lat="45.937768" lon="7.644734">
        <ele>2152</ele>
        <time>2014-01-30T12:02:56Z</time>
      </trkpt>
      <trkpt lat="45.9377834" lon="7.6447818">
        <ele>2154.6</ele>
        <time>2014-01-30T12:02:57Z</time>
      </trkpt>
      <trkpt lat="45.9377928" lon="7.6448139">
        <ele>2157.4</ele>
        <time>2014-01-30T12:02:58Z</time>
      </trkpt>
      <trkpt lat="45.9378087" lon="7.6448635">
        <ele>2159.4</ele>
        <time>2014-01-30T12:02:59Z</time>
      </trkpt>
      <trkpt lat="45.9378225" lon="7.6449036">
        <ele>2161.6</ele>
        <time>2014-01-30T12:03:00Z</time>
      </trkpt>
      <trkpt lat="45.9378417" lon="7.6449638">
        <ele>2163</ele>
        <time>2014-01-30T12:03:01Z</time>
      </trkpt>
      <trkpt lat="45.9378499" lon="7.6449902">
        <ele>2164.8</ele>
        <time>2014-01-30T12:03:02Z</time>
      </trkpt>
      <trkpt lat="45.9378691" lon="7.6450519">
        <ele>2166.4</ele>
        <time>2014-01-30T12:03:03Z</time>
      </trkpt>
      <trkpt lat="45.9378812" lon="7.6450894">
        <ele>2167.6</ele>
        <time>2014-01-30T12:03:04Z</time>
      </trkpt>
      <trkpt lat="45.9378977" lon="7.6451417">
        <ele>2169</ele>
        <time>2014-01-30T12:03:05Z</time>
      </trkpt>
      <trkpt lat="45.9379071" lon="7.6451719">
        <ele>2170.6</ele>
        <time>2014-01-30T12:03:06Z</time>
      </trkpt>
      <trkpt lat="45.9379251" lon="7.6452298">
        <ele>2172.2</ele>
        <time>2014-01-30T12:03:07Z</time>
      </trkpt>
      <trkpt lat="45.9379346" lon="7.6452599">
        <ele>2173.6</ele>
        <time>2014-01-30T12:03:08Z</time>
      </trkpt>
      <trkpt lat="45.9379575" lon="7.6453302">
        <ele>2174.6</ele>
        <time>2014-01-30T12:03:09Z</time>
      </trkpt>
      <trkpt lat="45.9379891" lon="7.6454247">
        <ele>2176</ele>
        <time>2014-01-30T12:03:11Z</time>
      </trkpt>
      <trkpt lat="45.9379985" lon="7.6454535">
        <ele>2176</ele>
        <time>2014-01-30T12:03:12Z</time>
      </trkpt>
      <trkpt lat="45.9380198" lon="7.645523">
        <ele>2177.6</ele>
        <time>2014-01-30T12:03:13Z</time>
      </trkpt>
      <trkpt lat="45.9380494" lon="7.6456169">
        <ele>2178.8</ele>
        <time>2014-01-30T12:03:15Z</time>
      </trkpt>
      <trkpt lat="45.938079" lon="7.6457091">
        <ele>2180</ele>
        <time>2014-01-30T12:03:17Z</time>
      </trkpt>
      <trkpt lat="45.9380895" lon="7.6457416">
        <ele>2181.2</ele>
        <time>2014-01-30T12:03:18Z</time>
      </trkpt>
      <trkpt lat="45.9381099" lon="7.6458068">
        <ele>2181.2</ele>
        <time>2014-01-30T12:03:19Z</time>
      </trkpt>
      <trkpt lat="45.9381214" lon="7.645845">
        <ele>2182.4</ele>
        <time>2014-01-30T12:03:20Z</time>
      </trkpt>
      <trkpt lat="45.938138" lon="7.6459023">
        <ele>2183.6</ele>
        <time>2014-01-30T12:03:21Z</time>
      </trkpt>
      <trkpt lat="45.9381472" lon="7.645929">
        <ele>2184.6</ele>
        <time>2014-01-30T12:03:22Z</time>
      </trkpt>
      <trkpt lat="45.9382016" lon="7.6460976">
        <ele>2185.6</ele>
        <time>2014-01-30T12:03:25Z</time>
      </trkpt>
      <trkpt lat="45.9382297" lon="7.6461856">
        <ele>2185.6</ele>
        <time>2014-01-30T12:03:27Z</time>
      </trkpt>
      <trkpt lat="45.9382789" lon="7.6463348">
        <ele>2186.6</ele>
        <time>2014-01-30T12:03:30Z</time>
      </trkpt>
      <trkpt lat="45.9383593" lon="7.6465875">
        <ele>2187.8</ele>
        <time>2014-01-30T12:03:35Z</time>
      </trkpt>
      <trkpt lat="45.9384054" lon="7.6467252">
        <ele>2189</ele>
        <time>2014-01-30T12:03:38Z</time>
      </trkpt>
      <trkpt lat="45.938446" lon="7.6468178">
        <ele>2190.2</ele>
        <time>2014-01-30T12:03:40Z</time>
      </trkpt>
      <trkpt lat="45.9384649" lon="7.6468673">
        <ele>2191.2</ele>
        <time>2014-01-30T12:03:41Z</time>
      </trkpt>
      <trkpt lat="45.9384725" lon="7.6468957">
        <ele>2191.2</ele>
        <time>2014-01-30T12:03:42Z</time>
      </trkpt>
      <trkpt lat="45.9384924" lon="7.6469608">
        <ele>2193</ele>
        <time>2014-01-30T12:03:43Z</time>
      </trkpt>
      <trkpt lat="45.938522" lon="7.6470399">
        <ele>2194.2</ele>
        <time>2014-01-30T12:03:45Z</time>
      </trkpt>
      <trkpt lat="45.9385335" lon="7.6470719">
        <ele>2195.6</ele>
        <time>2014-01-30T12:03:46Z</time>
      </trkpt>
      <trkpt lat="45.9385488" lon="7.6471185">
        <ele>2197</ele>
        <time>2014-01-30T12:03:47Z</time>
      </trkpt>
      <trkpt lat="45.9385592" lon="7.6471561">
        <ele>2198.8</ele>
        <time>2014-01-30T12:03:48Z</time>
      </trkpt>
      <trkpt lat="45.9385758" lon="7.6472134">
        <ele>2200.6</ele>
        <time>2014-01-30T12:03:49Z</time>
      </trkpt>
      <trkpt lat="45.9385862" lon="7.6472495">
        <ele>2202.4</ele>
        <time>2014-01-30T12:03:50Z</time>
      </trkpt>
      <trkpt lat="45.9386034" lon="7.6472993">
        <ele>2204.2</ele>
        <time>2014-01-30T12:03:51Z</time>
      </trkpt>
      <trkpt lat="45.9386117" lon="7.6473222">
        <ele>2206.4</ele>
        <time>2014-01-30T12:03:52Z</time>
      </trkpt>
      <trkpt lat="45.9386302" lon="7.6473792">
        <ele>2208.6</ele>
        <time>2014-01-30T12:03:53Z</time>
      </trkpt>
      <trkpt lat="45.9386418" lon="7.6474186">
        <ele>2210.6</ele>
        <time>2014-01-30T12:03:54Z</time>
      </trkpt>
      <trkpt lat="45.9386572" lon="7.6474703">
        <ele>2212.6</ele>
        <time>2014-01-30T12:03:55Z</time>
      </trkpt>
      <trkpt lat="45.9386682" lon="7.647506">
        <ele>2214.8</ele>
        <time>2014-01-30T12:03:56Z</time>
      </trkpt>
      <trkpt lat="45.9386825" lon="7.6475535">
        <ele>2217</ele>
        <time>2014-01-30T12:03:57Z</time>
      </trkpt>
      <trkpt lat="45.938692" lon="7.6475868">
        <ele>2219.4</ele>
        <time>2014-01-30T12:03:58Z</time>
      </trkpt>
      <trkpt lat="45.9387074" lon="7.6476399">
        <ele>2222</ele>
        <time>2014-01-30T12:03:59Z</time>
      </trkpt>
      <trkpt lat="45.9387193" lon="7.6476787">
        <ele>2224.2</ele>
        <time>2014-01-30T12:04:00Z</time>
      </trkpt>
      <trkpt lat="45.9387351" lon="7.6477302">
        <ele>2226.6</ele>
        <time>2014-01-30T12:04:01Z</time>
      </trkpt>
      <trkpt lat="45.9387426" lon="7.6477594">
        <ele>2229.2</ele>
        <time>2014-01-30T12:04:02Z</time>
      </trkpt>
      <trkpt lat="45.9387574" lon="7.6478162">
        <ele>2231.4</ele>
        <time>2014-01-30T12:04:03Z</time>
      </trkpt>
      <trkpt lat="45.9387675" lon="7.647851">
        <ele>2233.8</ele>
        <time>2014-01-30T12:04:04Z</time>
      </trkpt>
      <trkpt lat="45.9387806" lon="7.647898">
        <ele>2236.2</ele>
        <time>2014-01-30T12:04:05Z</time>
      </trkpt>
      <trkpt lat="45.9387903" lon="7.64793">
        <ele>2238.8</ele>
        <time>2014-01-30T12:04:06Z</time>
      </trkpt>
      <trkpt lat="45.9388059" lon="7.6479808">
        <ele>2241.2</ele>
        <time>2014-01-30T12:04:07Z</time>
      </trkpt>
      <trkpt lat="45.9388157" lon="7.6480137">
        <ele>2243.6</ele>
        <time>2014-01-30T12:04:08Z</time>
      </trkpt>
      <trkpt lat="45.9388319" lon="7.6480674">
        <ele>2247.2</ele>
        <time>2014-01-30T12:04:09Z</time>
      </trkpt>
      <trkpt lat="45.9388418" lon="7.6480995">
        <ele>2248.6</ele>
        <time>2014-01-30T12:04:10Z</time>
      </trkpt>
      <trkpt lat="45.9388566" lon="7.6481457">
        <ele>2252.2</ele>
        <time>2014-01-30T12:04:11Z</time>
      </trkpt>
      <trkpt lat="45.9388651" lon="7.6481748">
        <ele>2253.8</ele>
        <time>2014-01-30T12:04:12Z</time>
      </trkpt>
      <trkpt lat="45.9388815" lon="7.64823">
        <ele>2256</ele>
        <time>2014-01-30T12:04:13Z</time>
      </trkpt>
      <trkpt lat="45.9388908" lon="7.6482656">
        <ele>2258.4</ele>
        <time>2014-01-30T12:04:14Z</time>
      </trkpt>
      <trkpt lat="45.9389064" lon="7.648315">
        <ele>2261</ele>
        <time>2014-01-30T12:04:15Z</time>
      </trkpt>
      <trkpt lat="45.9389162" lon="7.648347">
        <ele>2263.4</ele>
        <time>2014-01-30T12:04:16Z</time>
      </trkpt>
      <trkpt lat="45.9389291" lon="7.6483908">
        <ele>2265.8</ele>
        <time>2014-01-30T12:04:17Z</time>
      </trkpt>
      <trkpt lat="45.9389382" lon="7.6484231">
        <ele>2268.4</ele>
        <time>2014-01-30T12:04:18Z</time>
      </trkpt>
      <trkpt lat="45.9389543" lon="7.648474">
        <ele>2270.8</ele>
        <time>2014-01-30T12:04:19Z</time>
      </trkpt>
      <trkpt lat="45.9389646" lon="7.6485077">
        <ele>2273.4</ele>
        <time>2014-01-30T12:04:20Z</time>
      </trkpt>
      <trkpt lat="45.9389778" lon="7.6485539">
        <ele>2276</ele>
        <time>2014-01-30T12:04:21Z</time>
      </trkpt>
      <trkpt lat="45.9389849" lon="7.6485767">
        <ele>2277.6</ele>
        <time>2014-01-30T12:04:22Z</time>
      </trkpt>
      <trkpt lat="45.9390016" lon="7.6486301">
        <ele>2281</ele>
        <time>2014-01-30T12:04:23Z</time>
      </trkpt>
      <trkpt lat="45.9390135" lon="7.6486654">
        <ele>2283.8</ele>
        <time>2014-01-30T12:04:24Z</time>
      </trkpt>
      <trkpt lat="45.9390301" lon="7.6487205">
        <ele>2285.2</ele>
        <time>2014-01-30T12:04:25Z</time>
      </trkpt>
      <trkpt lat="45.9390449" lon="7.6487627">
        <ele>2286.4</ele>
        <time>2014-01-30T12:04:26Z</time>
      </trkpt>
      <trkpt lat="45.9390607" lon="7.6488116">
        <ele>2288.6</ele>
        <time>2014-01-30T12:04:27Z</time>
      </trkpt>
      <trkpt lat="45.939071" lon="7.6488439">
        <ele>2290.8</ele>
        <time>2014-01-30T12:04:28Z</time>
      </trkpt>
      <trkpt lat="45.9390895" lon="7.6489008">
        <ele>2292.4</ele>
        <time>2014-01-30T12:04:29Z</time>
      </trkpt>
      <trkpt lat="45.9391028" lon="7.6489392">
        <ele>2294.2</ele>
        <time>2014-01-30T12:04:30Z</time>
      </trkpt>
      <trkpt lat="45.9391202" lon="7.6489918">
        <ele>2295.8</ele>
        <time>2014-01-30T12:04:31Z</time>
      </trkpt>
      <trkpt lat="45.9391284" lon="7.64902">
        <ele>2297</ele>
        <time>2014-01-30T12:04:32Z</time>
      </trkpt>
      <trkpt lat="45.9391527" lon="7.6490939">
        <ele>2298.2</ele>
        <time>2014-01-30T12:04:33Z</time>
      </trkpt>
      <trkpt lat="45.9391815" lon="7.6491853">
        <ele>2299.8</ele>
        <time>2014-01-30T12:04:35Z</time>
      </trkpt>
      <trkpt lat="45.939192" lon="7.6492186">
        <ele>2299.8</ele>
        <time>2014-01-30T12:04:36Z</time>
      </trkpt>
      <trkpt lat="45.9392136" lon="7.6492846">
        <ele>2301.6</ele>
        <time>2014-01-30T12:04:37Z</time>
      </trkpt>
      <trkpt lat="45.9392254" lon="7.6493202">
        <ele>2302.8</ele>
        <time>2014-01-30T12:04:38Z</time>
      </trkpt>
      <trkpt lat="45.9392439" lon="7.6493809">
        <ele>2303.8</ele>
        <time>2014-01-30T12:04:39Z</time>
      </trkpt>
      <trkpt lat="45.939256" lon="7.6494207">
        <ele>2304.8</ele>
        <time>2014-01-30T12:04:40Z</time>
      </trkpt>
      <trkpt lat="45.9392839" lon="7.6495097">
        <ele>2305.8</ele>
        <time>2014-01-30T12:04:42Z</time>
      </trkpt>
      <trkpt lat="45.9393187" lon="7.649622">
        <ele>2305.8</ele>
        <time>2014-01-30T12:04:44Z</time>
      </trkpt>
      <trkpt lat="45.9393507" lon="7.6497209">
        <ele>2307</ele>
        <time>2014-01-30T12:04:46Z</time>
      </trkpt>
      <trkpt lat="45.9394" lon="7.6498767">
        <ele>2308.2</ele>
        <time>2014-01-30T12:04:49Z</time>
      </trkpt>
      <trkpt lat="45.9394404" lon="7.650004">
        <ele>2309.2</ele>
        <time>2014-01-30T12:04:52Z</time>
      </trkpt>
      <trkpt lat="45.9394756" lon="7.6501144">
        <ele>2310.6</ele>
        <time>2014-01-30T12:04:54Z</time>
      </trkpt>
      <trkpt lat="45.9394943" lon="7.6501718">
        <ele>2310.6</ele>
        <time>2014-01-30T12:04:55Z</time>
      </trkpt>
      <trkpt lat="45.9395246" lon="7.6502662">
        <ele>2311.8</ele>
        <time>2014-01-30T12:04:57Z</time>
      </trkpt>
      <trkpt lat="45.9395683" lon="7.6504028">
        <ele>2313.2</ele>
        <time>2014-01-30T12:05:00Z</time>
      </trkpt>
      <trkpt lat="45.9395965" lon="7.6504895">
        <ele>2314.2</ele>
        <time>2014-01-30T12:05:02Z</time>
      </trkpt>
      <trkpt lat="45.9396301" lon="7.6505994">
        <ele>2315.4</ele>
        <time>2014-01-30T12:05:04Z</time>
      </trkpt>
      <trkpt lat="45.9396571" lon="7.6506855">
        <ele>2315.4</ele>
        <time>2014-01-30T12:05:06Z</time>
      </trkpt>
      <trkpt lat="45.939679" lon="7.6507537">
        <ele>2316.4</ele>
        <time>2014-01-30T12:05:07Z</time>
      </trkpt>
      <trkpt lat="45.9397704" lon="7.651046">
        <ele>2317.4</ele>
        <time>2014-01-30T12:05:13Z</time>
      </trkpt>
      <trkpt lat="45.9398636" lon="7.6513354">
        <ele>2318.6</ele>
        <time>2014-01-30T12:05:19Z</time>
      </trkpt>
      <trkpt lat="45.9399067" lon="7.6514668">
        <ele>2319.6</ele>
        <time>2014-01-30T12:05:22Z</time>
      </trkpt>
      <trkpt lat="45.9399404" lon="7.6515755">
        <ele>2320.8</ele>
        <time>2014-01-30T12:05:24Z</time>
      </trkpt>
      <trkpt lat="45.9399604" lon="7.6516345">
        <ele>2320.8</ele>
        <time>2014-01-30T12:05:25Z</time>
      </trkpt>
      <trkpt lat="45.940024" lon="7.6518268">
        <ele>2323.2</ele>
        <time>2014-01-30T12:05:29Z</time>
      </trkpt>
      <trkpt lat="45.940038" lon="7.6518673">
        <ele>2325</ele>
        <time>2014-01-30T12:05:30Z</time>
      </trkpt>
      <trkpt lat="45.9400568" lon="7.6519232">
        <ele>2326</ele>
        <time>2014-01-30T12:05:31Z</time>
      </trkpt>
      <trkpt lat="45.9400677" lon="7.6519567">
        <ele>2327.4</ele>
        <time>2014-01-30T12:05:32Z</time>
      </trkpt>
      <trkpt lat="45.9400886" lon="7.6520205">
        <ele>2330.2</ele>
        <time>2014-01-30T12:05:33Z</time>
      </trkpt>
      <trkpt lat="45.9401003" lon="7.6520601">
        <ele>2332.4</ele>
        <time>2014-01-30T12:05:34Z</time>
      </trkpt>
      <trkpt lat="45.9401171" lon="7.6521173">
        <ele>2333.6</ele>
        <time>2014-01-30T12:05:35Z</time>
      </trkpt>
      <trkpt lat="45.9401277" lon="7.6521505">
        <ele>2335</ele>
        <time>2014-01-30T12:05:36Z</time>
      </trkpt>
      <trkpt lat="45.9401444" lon="7.6522078">
        <ele>2337.6</ele>
        <time>2014-01-30T12:05:37Z</time>
      </trkpt>
      <trkpt lat="45.9401599" lon="7.6522443">
        <ele>2339.2</ele>
        <time>2014-01-30T12:05:38Z</time>
      </trkpt>
      <trkpt lat="45.9401814" lon="7.6522924">
        <ele>2340.8</ele>
        <time>2014-01-30T12:05:39Z</time>
      </trkpt>
      <trkpt lat="45.9401905" lon="7.6523316">
        <ele>2342.6</ele>
        <time>2014-01-30T12:05:40Z</time>
      </trkpt>
      <trkpt lat="45.9402105" lon="7.6523834">
        <ele>2346.2</ele>
        <time>2014-01-30T12:05:41Z</time>
      </trkpt>
      <trkpt lat="45.9402231" lon="7.6524108">
        <ele>2347.8</ele>
        <time>2014-01-30T12:05:42Z</time>
      </trkpt>
      <trkpt lat="45.9402428" lon="7.6524668">
        <ele>2349.8</ele>
        <time>2014-01-30T12:05:43Z</time>
      </trkpt>
      <trkpt lat="45.9402537" lon="7.6525093">
        <ele>2352.8</ele>
        <time>2014-01-30T12:05:44Z</time>
      </trkpt>
      <trkpt lat="45.9402703" lon="7.6525628">
        <ele>2354.8</ele>
        <time>2014-01-30T12:05:45Z</time>
      </trkpt>
      <trkpt lat="45.9402823" lon="7.6525944">
        <ele>2357.8</ele>
        <time>2014-01-30T12:05:46Z</time>
      </trkpt>
      <trkpt lat="45.940299" lon="7.6526393">
        <ele>2359.4</ele>
        <time>2014-01-30T12:05:47Z</time>
      </trkpt>
      <trkpt lat="45.9403089" lon="7.6526733">
        <ele>2362.8</ele>
        <time>2014-01-30T12:05:48Z</time>
      </trkpt>
      <trkpt lat="45.940325" lon="7.6527219">
        <ele>2364.4</ele>
        <time>2014-01-30T12:05:49Z</time>
      </trkpt>
      <trkpt lat="45.940334" lon="7.6527544">
        <ele>2368</ele>
        <time>2014-01-30T12:05:50Z</time>
      </trkpt>
      <trkpt lat="45.940348" lon="7.6528033">
        <ele>2370.6</ele>
        <time>2014-01-30T12:05:51Z</time>
      </trkpt>
      <trkpt lat="45.9403556" lon="7.6528303">
        <ele>2372.4</ele>
        <time>2014-01-30T12:05:52Z</time>
      </trkpt>
      <trkpt lat="45.9403726" lon="7.6528814">
        <ele>2375.4</ele>
        <time>2014-01-30T12:05:53Z</time>
      </trkpt>
      <trkpt lat="45.9403827" lon="7.6529153">
        <ele>2378.2</ele>
        <time>2014-01-30T12:05:54Z</time>
      </trkpt>
      <trkpt lat="45.9403971" lon="7.6529627">
        <ele>2379.8</ele>
        <time>2014-01-30T12:05:55Z</time>
      </trkpt>
      <trkpt lat="45.9404054" lon="7.6529931">
        <ele>2383.4</ele>
        <time>2014-01-30T12:05:56Z</time>
      </trkpt>
      <trkpt lat="45.9404184" lon="7.6530367">
        <ele>2386.8</ele>
        <time>2014-01-30T12:05:57Z</time>
      </trkpt>
      <trkpt lat="45.9404275" lon="7.6530674">
        <ele>2389</ele>
        <time>2014-01-30T12:05:58Z</time>
      </trkpt>
      <trkpt lat="45.9404426" lon="7.6531157">
        <ele>2392.2</ele>
        <time>2014-01-30T12:05:59Z</time>
      </trkpt>
      <trkpt lat="45.9404536" lon="7.653153">
        <ele>2394.4</ele>
        <time>2014-01-30T12:06:00Z</time>
      </trkpt>
      <trkpt lat="45.9404681" lon="7.6532021">
        <ele>2397.6</ele>
        <time>2014-01-30T12:06:01Z</time>
      </trkpt>
      <trkpt lat="45.9404761" lon="7.653225">
        <ele>2399.2</ele>
        <time>2014-01-30T12:06:02Z</time>
      </trkpt>
      <trkpt lat="45.9404933" lon="7.6532787">
        <ele>2402.8</ele>
        <time>2014-01-30T12:06:03Z</time>
      </trkpt>
      <trkpt lat="45.940502" lon="7.6533117">
        <ele>2404.2</ele>
        <time>2014-01-30T12:06:04Z</time>
      </trkpt>
      <trkpt lat="45.9405132" lon="7.6533527">
        <ele>2406.8</ele>
        <time>2014-01-30T12:06:05Z</time>
      </trkpt>
      <trkpt lat="45.9405198" lon="7.6533777">
        <ele>2409.2</ele>
        <time>2014-01-30T12:06:06Z</time>
      </trkpt>
      <trkpt lat="45.9405344" lon="7.653426">
        <ele>2413</ele>
        <time>2014-01-30T12:06:07Z</time>
      </trkpt>
      <trkpt lat="45.940543" lon="7.653453">
        <ele>2415.4</ele>
        <time>2014-01-30T12:06:08Z</time>
      </trkpt>
      <trkpt lat="45.9405593" lon="7.6534936">
        <ele>2418.8</ele>
        <time>2014-01-30T12:06:09Z</time>
      </trkpt>
      <trkpt lat="45.940569" lon="7.6535213">
        <ele>2421.8</ele>
        <time>2014-01-30T12:06:10Z</time>
      </trkpt>
      <trkpt lat="45.9405821" lon="7.6535595">
        <ele>2423.2</ele>
        <time>2014-01-30T12:06:11Z</time>
      </trkpt>
      <trkpt lat="45.9405887" lon="7.6535819">
        <ele>2424.8</ele>
        <time>2014-01-30T12:06:12Z</time>
      </trkpt>
      <trkpt lat="45.9406069" lon="7.6536443">
        <ele>2427.8</ele>
        <time>2014-01-30T12:06:13Z</time>
      </trkpt>
      <trkpt lat="45.940618" lon="7.6536768">
        <ele>2429.6</ele>
        <time>2014-01-30T12:06:14Z</time>
      </trkpt>
      <trkpt lat="45.9406335" lon="7.6537195">
        <ele>2433.2</ele>
        <time>2014-01-30T12:06:15Z</time>
      </trkpt>
      <trkpt lat="45.9406452" lon="7.653751">
        <ele>2436.2</ele>
        <time>2014-01-30T12:06:16Z</time>
      </trkpt>
      <trkpt lat="45.9406602" lon="7.653797">
        <ele>2438.2</ele>
        <time>2014-01-30T12:06:17Z</time>
      </trkpt>
      <trkpt lat="45.9406681" lon="7.6538246">
        <ele>2441</ele>
        <time>2014-01-30T12:06:18Z</time>
      </trkpt>
      <trkpt lat="45.9406843" lon="7.6538808">
        <ele>2442.6</ele>
        <time>2014-01-30T12:06:19Z</time>
      </trkpt>
      <trkpt lat="45.9406939" lon="7.6539047">
        <ele>2444.4</ele>
        <time>2014-01-30T12:06:20Z</time>
      </trkpt>
      <trkpt lat="45.940715" lon="7.6539647">
        <ele>2447.4</ele>
        <time>2014-01-30T12:06:21Z</time>
      </trkpt>
      <trkpt lat="45.9407467" lon="7.6540543">
        <ele>2449</ele>
        <time>2014-01-30T12:06:23Z</time>
      </trkpt>
      <trkpt lat="45.940764" lon="7.6540946">
        <ele>2450</ele>
        <time>2014-01-30T12:06:24Z</time>
      </trkpt>
      <trkpt lat="45.940795" lon="7.6541334">
        <ele>2450</ele>
        <time>2014-01-30T12:06:25Z</time>
      </trkpt>
      <trkpt lat="45.9408627" lon="7.6542885">
        <ele>2450</ele>
        <time>2014-01-30T12:06:29Z</time>
      </trkpt>
      <trkpt lat="45.9409203" lon="7.6543741">
        <ele>2450</ele>
        <time>2014-01-30T12:06:33Z</time>
      </trkpt>
      <trkpt lat="45.9409148" lon="7.6543613">
        <ele>2450</ele>
        <time>2014-01-30T12:06:37Z</time>
      </trkpt>
      <trkpt lat="45.9409171" lon="7.6543711">
        <ele>2450</ele>
        <time>2014-01-30T12:06:42Z</time>
      </trkpt>
      <trkpt lat="45.9409037" lon="7.6543841">
        <ele>2450</ele>
        <time>2014-01-30T12:06:46Z</time>
      </trkpt>
    </trkseg>
  </trk>
</gpx>